# Wetter Temperatur Luftdruck Luftfeuchtigkeit Sichtweite Windgeschwindigkeit Windrichtung Zeit
1 Snow -1 1004 95 2816 7.72 40 07:20 04.12.2023
2 Snow -1 1004 96 1609 6.69 40 06:34 04.12.2023
3 Snow -1 1004 96 1609 6.69 40 06:34 04.12.2023
4 Snow -1 1005 97 2012 7.72 40 04:59 04.12.2023
5 Snow -1 1006 97 2012 7.2 40 04:29 04.12.2023
6 Snow -1 1006 97 1609 6.69 40 03:52 04.12.2023
7 Snow 0 1007 97 2816 6.17 40 02:48 04.12.2023
8 Snow 0 1007 96 4023 6.17 40 01:44 04.12.2023
9 Snow 0 1008 98 3219 6.17 40 00:57 04.12.2023
10 Snow 0 1008 97 2816 6.69 40 00:28 04.12.2023
11 Snow 0 1010 96 4828 7.2 50 22:42 03.12.2023
12 Snow 0 1010 95 4828 7.72 40 21:22 03.12.2023
13 Clouds -1 1020 86 10000 5.66 30 06:58 03.12.2023
14 Clouds 2 1019 91 10000 3.6 30 23:46 02.12.2023
15 Clouds 2 1019 91 10000 3.6 30 23:28 02.12.2023
16 Clouds 2 1018 92 10000 3.6 30 22:48 02.12.2023
17 Clouds 2 1018 92 10000 3.6 30 22:26 02.12.2023
18 Clouds 2 1018 92 10000 3.6 40 21:47 02.12.2023
19 Clouds 2 1018 92 10000 3.6 40 21:28 02.12.2023
20 Clouds 2 1017 93 10000 5.66 20 20:56 02.12.2023
21 Clouds 2 1017 93 10000 5.66 20 20:37 02.12.2023
22 Clouds 2 1017 93 10000 5.66 20 20:18 02.12.2023
23 Clouds 2 1017 93 10000 4.63 30 19:41 02.12.2023
24 Clouds 2 1017 93 10000 5.66 20 19:22 02.12.2023
25 Rain 2 1015 94 10000 5.14 20 10:47 02.12.2023
26 Clouds 2 1015 94 10000 5.14 20 10:26 02.12.2023
27 Mist 2 1015 94 4828 5.66 20 09:45 02.12.2023
28 Mist 2 1015 95 3219 5.66 20 09:26 02.12.2023
29 Mist 3 1015 94 1207 4.12 20 08:42 02.12.2023
30 Mist 3 1015 94 1207 4.12 20 08:42 02.12.2023
31 Mist 3 1015 94 2414 4.12 20 06:51 02.12.2023
32 Clouds 6 1010 65 10000 9.26 230 21:38 30.11.2023
33 Clouds -7 1014 75 10000 6.17 260 13:27 29.11.2023
34 Clouds -7 1014 75 10000 6.17 260 13:27 29.11.2023
35 Mist 1 1005 94 6437 8.23 130 07:50 27.11.2023
36 Clouds 0 1022 78 10000 4.12 130 12:34 26.11.2023
37 Clear -8 1027 68 10000 1.03 220 11:38 25.11.2023
38 Clouds 2 1009 84 10000 5.66 250 15:39 23.11.2023
39 Clouds 2 1008 87 10000 5.66 260 12:46 23.11.2023
40 Mist 2 1007 97 6437 2.57 260 07:32 23.11.2023
41 Fog 2 1006 96 805 3.09 310 04:34 23.11.2023
42 Mist 2 1006 97 3219 4.12 360 23:43 22.11.2023
43 Clouds 3 1008 94 10000 8.75 0 17:22 22.11.2023
44 Snow 1 1014 93 4828 8.23 0 09:45 22.11.2023
45 Clear -1 1033 69 10000 4.63 70 16:35 21.11.2023
46 Clear -5 1035 82 10000 2.57 30 10:40 21.11.2023
47 Clear -2 1034 63 10000 13.89 0 01:49 21.11.2023
48 Clear 0 1032 54 10000 17.49 0 21:56 20.11.2023
49 Clear -2 1031 59 10000 17.49 0 16:52 20.11.2023
50 Clear -2 1031 59 10000 17.49 0 16:52 20.11.2023
51 Clouds -3 1026 64 10000 3.6 330 12:19 20.11.2023
52 Clouds -2 1020 60 10000 17.49 0 05:32 20.11.2023
53 Clouds 1 1016 62 10000 16.98 0 01:46 20.11.2023
54 Clouds 5 1008 70 10000 10.29 0 19:50 19.11.2023
55 Clouds 4 1007 73 10000 10.29 0 16:35 19.11.2023
56 Clouds 3 1007 79 10000 9.77 0 15:18 19.11.2023
57 Clouds 2 1006 82 10000 8.23 0 13:22 19.11.2023
58 Clouds 3 1005 81 10000 9.26 0 11:46 19.11.2023
59 Clouds 3 1005 80 10000 8.75 0 10:24 19.11.2023
60 Clouds 2 1005 80 10000 9.77 0 08:50 19.11.2023
61 Clouds 2 1005 80 10000 9.77 0 07:32 19.11.2023
62 Clouds 2 1007 77 10000 8.75 0 05:41 19.11.2023
63 Clouds 2 1007 74 10000 9.26 0 04:43 19.11.2023
64 Clouds 2 1008 70 10000 9.77 0 03:21 19.11.2023
65 Clouds 1 1010 69 10000 13.89 0 00:52 19.11.2023
66 Clouds 1 1010 66 10000 11.32 0 23:44 18.11.2023
67 Clear 2 1010 63 10000 13.89 0 22:47 18.11.2023
68 Clear 3 1010 61 10000 11.83 0 21:38 18.11.2023
69 Clouds 4 1011 65 10000 12.86 0 19:33 18.11.2023
70 Clouds 3 1012 73 10000 13.38 0 17:54 18.11.2023
71 Clouds 2 1012 78 10000 14.92 0 16:36 18.11.2023
72 Clouds 2 1012 81 10000 15.95 0 15:33 18.11.2023
73 Clouds 2 1012 82 10000 15.95 0 14:29 18.11.2023
74 Clouds 2 1012 82 10000 16.46 0 13:33 18.11.2023
75 Clouds 2 1012 83 10000 16.46 0 12:26 18.11.2023
76 Clouds 2 1011 84 10000 15.43 0 10:49 18.11.2023
77 Clouds 2 1011 82 10000 15.95 0 09:32 18.11.2023
78 Clouds 3 1010 83 10000 16.46 0 08:29 18.11.2023
79 Clouds 4 1010 82 10000 16.46 0 06:59 18.11.2023
80 Clouds 4 1009 83 10000 15.95 0 05:56 18.11.2023
81 Clouds 6 1009 86 10000 11.83 0 04:51 18.11.2023
82 Clouds 7 1008 88 10000 4.63 280 03:48 18.11.2023
83 Clouds 8 1007 89 10000 18.01 0 02:24 18.11.2023
84 Rain 8 1006 92 10000 17.49 0 01:23 18.11.2023
85 Rain 11 1004 94 2816 8.75 0 23:55 17.11.2023
86 Mist 11 1004 92 8047 9.26 0 22:59 17.11.2023
87 Rain 11 1004 89 10000 9.77 0 21:57 17.11.2023
88 Clouds 11 1004 84 10000 6.17 220 20:56 17.11.2023
89 Rain 12 1003 73 10000 9.77 180 19:43 17.11.2023
90 Clouds 13 1004 59 10000 8.75 170 18:31 17.11.2023
91 Clouds 12 1006 62 10000 7.72 170 16:56 17.11.2023
92 Clouds 11 1007 66 10000 7.2 170 15:53 17.11.2023
93 Clouds 10 1008 69 10000 6.17 180 14:38 17.11.2023
94 Clouds 9 1009 70 10000 7.72 170 13:38 17.11.2023
95 Clouds 9 1009 71 10000 6.69 170 12:39 17.11.2023
96 Clouds 8 1011 73 10000 6.69 170 11:35 17.11.2023
97 Clouds 8 1012 74 10000 5.14 150 09:52 17.11.2023
98 Clouds 7 1014 77 10000 4.63 170 08:55 17.11.2023
99 Clear 6 1014 77 10000 4.63 170 07:49 17.11.2023
100 Clouds 6 1015 76 10000 4.63 170 06:42 17.11.2023
101 Clear 6 1016 75 10000 4.12 170 05:18 17.11.2023
102 Clouds 6 1017 75 10000 3.6 130 04:24 17.11.2023
103 Clouds 7 1019 74 10000 3.09 150 02:40 17.11.2023
104 Clouds 7 1019 72 10000 3.09 150 01:37 17.11.2023
105 Clouds 7 1020 71 10000 3.6 140 00:26 17.11.2023
106 Clear 7 1020 70 10000 2.06 170 23:30 16.11.2023
107 Clear 9 1020 62 10000 3.6 210 22:21 16.11.2023
108 Clear 12 1021 62 10000 4.63 220 20:43 16.11.2023
109 Clear 11 1021 65 10000 4.12 210 19:31 16.11.2023
110 Clear 10 1021 66 10000 3.09 250 18:24 16.11.2023
111 Clear 8 1022 73 10000 2.57 270 16:32 16.11.2023
112 Clear 5 1022 83 10000 2.06 220 14:57 16.11.2023
113 Clouds 3 1021 86 10000 3.09 230 13:54 16.11.2023
114 Clear 2 1021 86 10000 2.06 180 12:57 16.11.2023
115 Clear 4 1020 83 10000 3.6 240 11:44 16.11.2023
116 Clear 4 1020 80 10000 3.6 250 10:34 16.11.2023
117 Clear 5 1020 77 10000 3.09 220 09:20 16.11.2023
118 Clouds 5 1019 76 10000 3.09 240 08:20 16.11.2023
119 Clouds 5 1019 78 10000 3.09 210 06:49 16.11.2023
120 Clouds 6 1018 72 10000 3.09 180 05:35 16.11.2023
121 Clouds 6 1018 70 10000 4.12 180 04:35 16.11.2023
122 Clouds 7 1018 72 10000 5.66 180 03:25 16.11.2023
123 Clouds 6 1019 74 10000 5.14 160 02:18 16.11.2023
124 Clouds 6 1018 78 10000 5.14 180 00:39 16.11.2023
125 Clouds 6 1018 75 10000 6.17 180 23:36 15.11.2023
126 Clouds 8 1019 69 10000 5.14 180 21:54 15.11.2023
127 Clear 9 1020 64 10000 6.17 180 20:54 15.11.2023
128 Clear 9 1021 64 10000 6.17 180 19:51 15.11.2023
129 Clear 9 1022 65 10000 6.69 170 18:44 15.11.2023
130 Clear 7 1024 68 10000 8.23 180 17:45 15.11.2023
131 Clouds 6 1025 74 10000 5.66 160 16:41 15.11.2023
132 Clouds 5 1026 78 10000 6.69 170 15:35 15.11.2023
133 Clouds 3 1026 79 10000 4.63 180 14:18 15.11.2023
134 Clouds 2 1027 82 10000 3.6 170 12:57 15.11.2023
135 Clouds 2 1027 85 10000 3.09 170 11:54 15.11.2023
136 Clouds 2 1027 87 10000 3.09 160 10:45 15.11.2023
137 Clouds 3 1027 86 10000 2.57 160 09:43 15.11.2023
138 Clouds 3 1028 83 10000 2.57 190 08:40 15.11.2023
139 Clouds 3 1028 81 10000 2.06 160 07:44 15.11.2023
140 Clouds 3 1028 82 10000 2.57 260 06:34 15.11.2023
141 Clouds 3 1028 84 10000 3.6 230 05:31 15.11.2023
142 Clouds 4 1028 83 10000 3.09 270 04:34 15.11.2023
143 Clouds 4 1029 83 10000 3.6 270 03:31 15.11.2023
144 Clouds 4 1028 82 10000 3.09 290 01:58 15.11.2023
145 Clouds 3 1028 83 10000 3.09 270 00:55 15.11.2023
146 Clouds 3 1028 83 10000 3.09 250 23:49 14.11.2023
147 Clouds 3 1027 81 10000 4.12 280 22:44 14.11.2023
148 Clouds 3 1027 81 10000 5.14 280 21:39 14.11.2023
149 Clouds 3 1026 81 10000 5.14 270 20:36 14.11.2023
150 Clouds 3 1026 83 10000 4.12 230 19:33 14.11.2023
151 Clouds 3 1026 82 10000 3.09 270 18:30 14.11.2023
152 Haze 2 1026 84 9656 2.57 310 16:46 14.11.2023
153 Mist 1 1026 88 9656 3.09 310 15:39 14.11.2023
154 Mist 0 1025 89 8047 2.57 280 14:43 14.11.2023
155 Mist 0 1024 91 8047 3.09 340 13:25 14.11.2023
156 Clouds 0 1021 91 10000 3.09 340 11:51 14.11.2023
157 Clouds 0 1021 92 10000 3.09 360 10:41 14.11.2023
158 Clouds 0 1020 92 10000 3.6 20 09:34 14.11.2023
159 Clouds 0 1020 91 10000 4.63 20 08:31 14.11.2023
160 Clouds 0 1019 90 10000 4.12 20 07:28 14.11.2023
161 Clouds 0 1019 91 10000 4.12 20 06:18 14.11.2023
162 Clouds 0 1019 92 10000 3.09 70 04:50 14.11.2023
163 Snow 0 1020 91 9656 3.09 80 03:25 14.11.2023
164 Snow 0 1020 90 9656 2.57 100 01:54 14.11.2023
165 Snow 0 1021 89 3219 2.57 110 00:47 14.11.2023
166 Rain 0 1021 84 10000 2.57 70 23:35 13.11.2023
167 Snow 0 1021 82 10000 2.06 150 22:35 13.11.2023
168 Clouds 1 1022 75 10000 3.6 140 21:31 13.11.2023
169 Clouds 1 1022 70 10000 4.12 140 20:18 13.11.2023
170 Clouds 1 1024 67 10000 4.12 150 18:57 13.11.2023
171 Clouds 1 1025 67 10000 4.12 140 17:53 13.11.2023
172 Clouds 1 1025 68 10000 4.12 140 17:26 13.11.2023
173 Clear 0 1027 71 10000 4.12 140 15:54 13.11.2023
174 Clear -2 1028 82 10000 2.57 150 14:47 13.11.2023
175 Clear -4 1028 85 10000 2.06 120 13:48 13.11.2023
176 Clear -4 1029 85 10000 1.54 100 12:42 13.11.2023
177 Clear -5 1029 92 10000 2.06 40 11:37 13.11.2023
178 Clear -4 1030 85 10000 1.03 210 10:26 13.11.2023
179 Clear -4 1031 81 10000 0 0 08:54 13.11.2023
180 Clear -3 1031 79 10000 1.03 0 07:47 13.11.2023
181 Clear -3 1031 77 10000 1.03 210 06:51 13.11.2023
182 Clouds -3 1032 78 10000 1.03 210 05:40 13.11.2023
183 Clear -3 1032 76 10000 1.54 180 04:26 13.11.2023
184 Clear -2 1032 74 10000 1.03 250 02:53 13.11.2023
185 Clouds -1 1033 70 10000 1.54 170 01:49 13.11.2023
186 Clouds 0 1033 65 10000 0.51 280 23:51 12.11.2023
187 Clouds 0 1033 63 10000 2.57 290 22:54 12.11.2023
188 Clouds 1 1034 62 10000 2.57 360 21:19 12.11.2023
189 Clouds 1 1034 62 10000 2.06 330 19:52 12.11.2023
190 Clouds 1 1034 62 10000 3.09 340 18:43 12.11.2023
191 Clouds 1 1035 63 10000 2.57 300 17:40 12.11.2023
192 Clouds 0 1035 64 10000 3.09 310 16:37 12.11.2023
193 Clouds 0 1035 66 10000 3.09 10 15:30 12.11.2023
194 Clouds 0 1034 63 10000 2.57 340 13:52 12.11.2023
195 Clouds 0 1034 62 10000 2.57 340 12:51 12.11.2023
196 Clouds 0 1034 62 10000 3.6 350 11:52 12.11.2023
197 Clouds 0 1034 62 10000 3.09 330 10:42 12.11.2023
198 Clouds 0 1034 62 10000 3.6 340 09:38 12.11.2023
199 Clouds 0 1034 63 10000 2.57 350 08:33 12.11.2023
200 Clouds 0 1033 64 10000 2.57 350 07:26 12.11.2023
201 Clouds 1 1032 64 10000 2.57 10 05:50 12.11.2023
202 Clouds 1 1032 62 10000 3.6 270 04:48 12.11.2023
203 Clouds 1 1032 60 10000 2.06 250 03:45 12.11.2023
204 Clouds 1 1032 60 10000 2.57 0 02:29 12.11.2023
205 Clouds 1 1032 62 10000 2.57 330 01:26 12.11.2023
206 Clouds 1 1031 63 10000 3.6 10 23:55 11.11.2023
207 Clouds 1 1030 62 10000 3.6 10 23:26 11.11.2023
208 Clouds 2 1030 60 10000 4.12 360 22:19 11.11.2023
209 Clouds 2 1029 60 10000 3.6 310 20:59 11.11.2023
210 Clouds 2 1028 60 10000 4.12 260 19:51 11.11.2023
211 Clouds 2 1029 60 10000 4.63 300 18:47 11.11.2023
212 Clouds 2 1028 61 10000 4.12 310 17:44 11.11.2023
213 Rain 2 1028 64 10000 4.12 330 16:48 11.11.2023
214 Clouds 1 1027 65 10000 4.12 300 15:32 11.11.2023
215 Clouds 1 1027 64 10000 4.12 300 14:27 11.11.2023
216 Clouds 0 1026 66 10000 4.63 300 13:23 11.11.2023
217 Clouds 1 1025 65 10000 3.09 310 12:23 11.11.2023
218 Clouds 0 1023 66 10000 3.09 300 10:57 11.11.2023
219 Clouds 0 1022 66 10000 4.63 290 09:55 11.11.2023
220 Clouds 0 1022 67 10000 4.12 300 08:39 11.11.2023
221 Clouds 1 1021 64 10000 6.69 330 07:36 11.11.2023
222 Clouds 2 1020 66 10000 5.66 310 06:23 11.11.2023
223 Clouds 2 1018 69 10000 5.14 320 04:57 11.11.2023
224 Clouds 2 1018 70 10000 6.17 310 03:54 11.11.2023
225 Clouds 4 1016 73 10000 6.69 300 02:47 11.11.2023
226 Clouds 5 1016 75 10000 6.17 310 01:51 11.11.2023
227 Clouds 6 1015 73 10000 7.72 270 00:19 11.11.2023
228 Clouds 6 1014 72 10000 5.14 250 22:55 10.11.2023
229 Clouds 7 1013 72 10000 5.66 260 21:48 10.11.2023
230 Clouds 7 1013 71 10000 6.69 260 20:45 10.11.2023
231 Clouds 7 1012 70 10000 7.2 260 19:49 10.11.2023
232 Clouds 7 1013 72 10000 8.23 250 18:36 10.11.2023
233 Clouds 4 1011 84 10000 7.2 250 11:46 10.11.2023
234 Snow -1 1009 92 2414 4.12 40 17:28 09.11.2023
235 Clouds 10 1000 84 10000 9.26 280 18:43 07.11.2023
236 Clouds 5 1020 57 10000 5.66 340 23:31 05.11.2023
237 Clouds 4 1017 79 10000 1.54 90 11:29 05.11.2023
238 Clouds 6 1026 64 10000 7.2 220 23:30 02.11.2023
239 Clouds 5 1027 56 10000 5.66 210 17:27 02.11.2023
240 Snow 0 1019 67 10000 7.72 40 15:55 01.11.2023
241 Snow 0 1019 69 10000 5.66 20 14:59 01.11.2023
242 Clouds -1 1019 72 10000 5.66 10 13:45 01.11.2023
243 Clouds -1 1018 67 10000 5.14 40 12:38 01.11.2023
244 Clouds -1 1018 64 10000 6.17 50 11:35 01.11.2023
245 Clouds -1 1018 65 10000 5.14 40 10:36 01.11.2023
246 Clouds -1 1018 65 10000 5.14 60 09:25 01.11.2023
247 Clouds -1 1018 65 10000 4.12 70 08:26 01.11.2023
248 Clouds -1 1019 65 10000 3.6 60 07:26 01.11.2023
249 Clouds -1 1019 66 10000 5.14 70 06:23 01.11.2023
250 Clouds 0 1019 63 10000 5.14 70 04:34 01.11.2023
251 Clear 0 1020 64 10000 4.12 40 02:57 01.11.2023
252 Clear 0 1020 62 10000 4.63 30 01:57 01.11.2023
253 Clear 1 1019 57 10000 2.57 340 00:44 01.11.2023
254 Clear 2 1019 51 10000 3.09 310 23:40 31.10.2023
255 Clear 4 1019 43 10000 3.09 300 22:25 31.10.2023
256 Clear 4 1019 43 10000 4.63 250 21:25 31.10.2023
257 Clouds 5 1019 46 10000 6.17 260 20:22 31.10.2023
258 Clouds 5 1019 55 10000 5.66 240 19:22 31.10.2023
259 Clouds 3 1020 67 10000 4.12 260 17:41 31.10.2023
260 Clouds 3 1020 72 10000 3.09 240 16:23 31.10.2023
261 Clear 2 1020 73 10000 4.63 270 15:59 31.10.2023
262 Clear 1 1020 77 10000 4.63 270 14:45 31.10.2023
263 Clear 0 1019 81 10000 3.6 280 13:39 31.10.2023
264 Clear -1 1018 82 10000 4.12 280 12:21 31.10.2023
265 Clear 0 1017 85 10000 4.12 280 10:57 31.10.2023
266 Clear 0 1017 84 10000 3.6 270 09:54 31.10.2023
267 Clear 0 1017 85 10000 3.6 280 08:38 31.10.2023
268 Clear 1 1016 83 10000 3.6 280 07:29 31.10.2023
269 Clouds 1 1016 82 10000 4.12 280 06:25 31.10.2023
270 Clear 1 1015 81 10000 4.12 290 05:22 31.10.2023
271 Clear 2 1014 79 10000 4.63 280 04:19 31.10.2023
272 Clouds 3 1012 82 10000 4.63 280 02:55 31.10.2023
273 Drizzle 4 1012 87 10000 6.17 240 01:52 31.10.2023
274 Drizzle 4 1011 87 10000 5.66 270 00:49 31.10.2023
275 Clouds 4 1011 85 10000 3.6 270 23:49 30.10.2023
276 Clouds 4 1010 85 10000 5.14 280 22:46 30.10.2023
277 Clouds 4 1009 90 10000 2.06 270 21:50 30.10.2023
278 Clouds 3 1009 91 10000 3.09 260 20:47 30.10.2023
279 Mist 3 1009 92 10000 3.09 320 19:51 30.10.2023
280 Rain 2 1009 93 10000 3.6 320 18:44 30.10.2023
281 Drizzle 2 1009 94 10000 4.12 360 17:47 30.10.2023
282 Mist 2 1010 94 10000 4.12 360 16:39 30.10.2023
283 Rain 1 1011 95 9656 4.63 10 15:35 30.10.2023
284 Snow 1 1011 95 4828 4.12 360 14:35 30.10.2023
285 Snow 1 1012 94 4023 4.63 40 13:32 30.10.2023
286 Snow 1 1013 95 2816 4.63 20 11:58 30.10.2023
287 Snow 1 1014 94 2816 4.12 10 11:20 30.10.2023
288 Snow 1 1015 90 2414 4.63 50 09:59 30.10.2023
289 Snow 2 1016 82 6437 6.69 50 08:57 30.10.2023
290 Clouds 4 1017 74 10000 5.14 40 07:50 30.10.2023
291 Clouds 4 1018 74 10000 4.12 50 06:47 30.10.2023
292 Clouds 4 1019 73 10000 2.57 70 05:43 30.10.2023
293 Clouds 4 1020 74 10000 4.12 90 03:51 30.10.2023
294 Clouds 4 1020 74 10000 4.12 90 03:20 30.10.2023
295 Clouds 5 1021 73 10000 2.57 90 02:26 30.10.2023
296 Clouds 5 1022 71 10000 2.57 70 00:50 30.10.2023
297 Clouds 5 1022 69 10000 2.06 50 23:27 29.10.2023
298 Clouds 5 1022 67 10000 2.06 30 22:27 29.10.2023
299 Clouds 6 1022 65 10000 1.54 0 21:27 29.10.2023
300 Clouds 6 1023 65 10000 1.54 250 19:59 29.10.2023
301 Clouds 6 1024 65 10000 1.54 180 18:47 29.10.2023
302 Clouds 5 1024 69 10000 2.06 20 17:35 29.10.2023
303 Clouds 4 1025 68 10000 2.57 40 16:25 29.10.2023
304 Clouds 4 1025 63 10000 3.6 10 14:58 29.10.2023
305 Clouds 4 1024 64 10000 4.63 360 13:55 29.10.2023
306 Clouds 4 1024 64 10000 3.09 350 12:38 29.10.2023
307 Clouds 4 1024 67 10000 3.6 350 11:43 29.10.2023
308 Clouds 4 1024 68 10000 2.57 340 10:20 29.10.2023
309 Clouds 5 1023 65 10000 4.12 340 08:59 29.10.2023
310 Clouds 5 1023 67 10000 2.06 310 07:59 29.10.2023
311 Clouds 5 1023 68 10000 2.06 310 07:21 29.10.2023
312 Clouds 6 1022 66 10000 2.06 340 05:56 29.10.2023
313 Clear 6 1022 64 10000 3.6 330 04:58 29.10.2023
314 Clear 7 1022 64 10000 3.6 330 04:21 29.10.2023
315 Clear 7 1022 64 10000 5.14 330 03:18 29.10.2023
316 Clear 9 1020 62 10000 4.63 320 02:25 29.10.2023
317 Clear 10 1019 58 10000 5.66 280 00:59 29.10.2023
318 Clear 12 1018 54 10000 6.69 280 23:40 28.10.2023
319 Clear 13 1016 52 10000 7.72 280 22:40 28.10.2023
320 Clouds 14 1015 51 10000 8.23 280 21:33 28.10.2023
321 Clear 15 1014 57 10000 7.2 300 20:27 28.10.2023
322 Clouds 16 1013 59 10000 9.26 280 19:20 28.10.2023
323 Clouds 16 1011 68 10000 9.26 300 17:59 28.10.2023
324 Clouds 17 1010 76 10000 9.77 310 16:51 28.10.2023
325 Clouds 19 1008 85 10000 8.23 230 15:34 28.10.2023
326 Clouds 19 1008 86 10000 7.72 230 14:26 28.10.2023
327 Clouds 18 1008 88 10000 8.23 220 12:42 28.10.2023
328 Mist 18 1008 88 9656 7.2 230 11:34 28.10.2023
329 Clouds 19 1008 85 10000 6.69 210 10:22 28.10.2023
330 Clouds 19 1009 85 10000 4.12 230 08:58 28.10.2023
331 Clouds 19 1010 85 10000 4.63 220 07:58 28.10.2023
332 Clouds 19 1010 84 10000 4.63 230 06:50 28.10.2023
333 Clouds 19 1011 83 10000 6.17 220 05:38 28.10.2023
334 Clouds 20 1011 80 10000 6.17 240 04:18 28.10.2023
335 Clouds 20 1011 80 10000 7.72 230 02:52 28.10.2023
336 Clouds 19 1011 84 10000 4.63 210 01:49 28.10.2023
337 Clouds 18 1011 87 10000 3.09 160 00:32 28.10.2023
338 Clouds 19 1012 86 10000 2.06 210 23:48 27.10.2023
339 Clouds 19 1012 86 10000 5.14 230 22:24 27.10.2023
340 Clouds 19 1012 82 10000 6.17 230 20:46 27.10.2023
341 Clouds 19 1013 79 10000 7.72 220 19:34 27.10.2023
342 Clouds 17 1014 87 10000 6.17 220 17:56 27.10.2023
343 Clouds 17 1020 76 10000 2.57 210 21:32 26.10.2023
344 Clouds 19 1017 73 10000 5.66 220 20:32 25.10.2023
345 Clouds 11 1019 88 10000 3.09 190 09:38 25.10.2023
346 Clouds 10 1022 81 10000 3.6 130 00:24 25.10.2023
347 Clouds 9 1021 88 10000 4.12 260 17:54 23.10.2023
348 Clouds 7 1015 95 10000 3.09 270 11:58 23.10.2023
349 Rain 8 1013 95 10000 3.6 280 09:41 23.10.2023
350 Rain 9 1009 95 9656 3.09 310 04:38 23.10.2023
351 Rain 6 998 94 10000 6.69 250 17:29 22.10.2023
352 Clouds 7 994 91 10000 8.23 260 12:28 22.10.2023
353 Rain 10 990 94 10000 7.72 260 06:44 22.10.2023
354 Rain 14 988 95 10000 4.12 280 00:23 22.10.2023
355 Rain 14 991 94 10000 2.06 290 18:45 21.10.2023
356 Rain 13 994 96 6437 2.57 90 13:35 21.10.2023
357 Rain 13 995 94 10000 2.57 110 11:24 21.10.2023
358 Clouds 14 997 89 10000 1.03 0 08:31 21.10.2023
359 Clouds 14 999 84 10000 5.14 120 05:21 21.10.2023
360 Clouds 14 1001 82 10000 6.17 130 02:27 21.10.2023
361 Clouds 17 1003 70 10000 9.77 140 22:58 20.10.2023
362 Clear 19 1004 63 10000 9.77 180 20:27 20.10.2023
363 Clouds 17 1006 71 10000 7.72 140 17:25 20.10.2023
364 Clouds 13 1007 80 10000 4.63 140 13:19 20.10.2023
365 Clouds 13 1009 79 10000 5.66 180 10:37 20.10.2023
366 Clouds 13 1013 72 10000 3.09 150 02:47 20.10.2023
367 Clouds 16 1014 56 10000 4.63 180 22:59 19.10.2023
368 Clear 17 1016 53 10000 4.12 210 19:56 19.10.2023
369 Clouds 14 1019 69 10000 4.12 230 00:21 19.10.2023
370 Clouds 15 1020 68 10000 4.12 220 18:22 18.10.2023
371 Clouds 14 1020 69 10000 5.14 220 17:59 18.10.2023
372 Clouds 14 1020 70 10000 5.14 220 17:40 18.10.2023
373 Clouds 14 1020 70 10000 5.14 220 17:21 18.10.2023
374 Clear 14 1020 70 10000 4.63 230 16:57 18.10.2023
375 Clear 14 1020 71 10000 4.63 230 16:38 18.10.2023
376 Clear 14 1020 71 10000 4.63 230 16:20 18.10.2023
377 Clouds 12 1020 76 10000 2.57 190 15:55 18.10.2023
378 Clouds 12 1020 78 10000 2.57 190 15:37 18.10.2023
379 Clouds 12 1020 80 10000 2.57 190 15:18 18.10.2023
380 Clouds 11 1020 84 10000 2.06 170 14:41 18.10.2023
381 Clouds 10 1020 84 10000 2.06 170 14:23 18.10.2023
382 Clouds 10 1019 85 10000 2.06 190 13:59 18.10.2023
383 Clouds 10 1019 86 10000 2.06 190 13:41 18.10.2023
384 Clouds 10 1019 86 10000 2.06 190 13:21 18.10.2023
385 Clouds 10 1019 86 10000 1.54 170 12:58 18.10.2023
386 Clouds 10 1019 86 10000 1.54 170 12:40 18.10.2023
387 Clouds 10 1019 86 10000 1.54 170 12:21 18.10.2023
388 Clouds 10 1019 84 10000 3.09 240 11:57 18.10.2023
389 Clouds 10 1019 84 10000 3.09 240 11:38 18.10.2023
390 Clouds 10 1019 84 10000 3.09 240 11:20 18.10.2023
391 Clouds 10 1018 84 10000 4.12 260 10:56 18.10.2023
392 Clouds 10 1018 84 10000 4.12 260 10:38 18.10.2023
393 Clouds 10 1018 84 10000 4.12 260 10:19 18.10.2023
394 Clouds 10 1018 86 10000 2.57 220 09:55 18.10.2023
395 Clouds 10 1018 86 10000 2.57 220 09:37 18.10.2023
396 Clouds 10 1018 86 10000 2.57 220 09:18 18.10.2023
397 Clouds 10 1018 87 10000 3.09 230 08:42 18.10.2023
398 Clouds 10 1018 87 10000 3.09 230 08:22 18.10.2023
399 Clouds 10 1017 87 10000 3.6 240 07:59 18.10.2023
400 Clouds 10 1017 87 10000 3.6 240 07:41 18.10.2023
401 Clouds 10 1017 86 10000 3.6 240 07:22 18.10.2023
402 Clouds 10 1017 85 10000 3.6 240 06:58 18.10.2023
403 Clouds 10 1017 85 10000 3.6 240 06:40 18.10.2023
404 Clouds 11 1017 85 10000 3.6 240 06:22 18.10.2023
405 Clouds 11 1017 84 10000 3.09 240 05:58 18.10.2023
406 Clouds 11 1017 83 10000 3.09 240 05:40 18.10.2023
407 Clouds 11 1017 83 10000 3.09 240 05:21 18.10.2023
408 Clouds 11 1016 80 10000 4.12 230 04:58 18.10.2023
409 Clouds 12 1016 80 10000 4.12 230 04:39 18.10.2023
410 Clouds 12 1016 80 10000 4.12 230 04:20 18.10.2023
411 Clouds 12 1016 80 10000 4.12 240 03:57 18.10.2023
412 Clouds 12 1016 79 10000 4.12 240 03:38 18.10.2023
413 Clouds 12 1016 79 10000 4.12 240 03:18 18.10.2023
414 Clouds 12 1015 78 10000 4.12 240 02:43 18.10.2023
415 Clouds 12 1015 78 10000 4.12 240 02:25 18.10.2023
416 Clouds 13 1015 78 10000 3.09 250 01:59 18.10.2023
417 Clouds 13 1015 78 10000 3.09 250 01:40 18.10.2023
418 Clouds 13 1015 78 10000 3.09 250 01:22 18.10.2023
419 Clouds 13 1015 76 10000 4.12 230 00:59 18.10.2023
420 Clouds 13 1015 76 10000 4.12 230 00:40 18.10.2023
421 Clouds 13 1015 75 10000 4.12 230 00:22 18.10.2023
422 Clouds 13 1014 75 10000 4.63 230 23:58 17.10.2023
423 Clouds 13 1014 73 10000 4.63 230 23:39 17.10.2023
424 Clouds 13 1014 74 10000 4.63 230 23:20 17.10.2023
425 Clouds 14 1014 73 10000 3.6 230 22:57 17.10.2023
426 Clouds 14 1014 72 10000 3.6 230 22:39 17.10.2023
427 Clouds 14 1014 72 10000 3.6 230 22:20 17.10.2023
428 Clouds 14 1014 69 10000 3.6 230 21:57 17.10.2023
429 Clouds 14 1014 69 10000 3.6 230 21:39 17.10.2023
430 Clouds 14 1014 69 10000 3.6 230 21:20 17.10.2023
431 Clouds 14 1013 69 10000 2.57 0 20:57 17.10.2023
432 Clouds 14 1013 68 10000 2.57 0 20:39 17.10.2023
433 Clouds 15 1013 68 10000 2.57 0 20:21 17.10.2023
434 Clouds 14 1013 68 10000 2.06 270 19:56 17.10.2023
435 Clouds 14 1013 69 10000 2.06 270 19:38 17.10.2023
436 Clouds 14 1013 68 10000 2.06 270 19:20 17.10.2023
437 Clouds 13 1014 70 10000 1.54 0 18:57 17.10.2023
438 Clouds 13 1014 69 10000 1.54 0 18:38 17.10.2023
439 Clouds 13 1014 71 10000 1.54 0 18:20 17.10.2023
440 Clouds 13 1014 72 10000 3.09 360 17:56 17.10.2023
441 Clouds 12 1014 73 10000 3.09 360 17:37 17.10.2023
442 Clouds 12 1014 72 10000 3.09 360 17:19 17.10.2023
443 Clouds 12 1014 74 10000 2.06 30 16:55 17.10.2023
444 Clouds 12 1014 74 10000 2.06 30 16:37 17.10.2023
445 Clouds 12 1014 75 10000 2.06 30 16:19 17.10.2023
446 Clouds 11 1013 77 10000 1.54 360 15:55 17.10.2023
447 Clouds 11 1013 79 10000 1.54 360 15:37 17.10.2023
448 Clouds 11 1013 80 10000 1.54 360 15:18 17.10.2023
449 Clouds 11 1013 83 10000 1.54 10 14:41 17.10.2023
450 Clouds 10 1013 83 10000 1.54 350 14:23 17.10.2023
451 Clouds 10 1012 84 10000 2.06 360 13:59 17.10.2023
452 Clouds 10 1012 84 10000 2.06 360 13:41 17.10.2023
453 Clouds 10 1012 84 10000 2.06 360 13:22 17.10.2023
454 Clouds 10 1011 85 10000 2.06 340 12:58 17.10.2023
455 Clouds 10 1011 85 10000 2.06 340 12:40 17.10.2023
456 Clouds 10 1011 85 10000 2.06 340 12:22 17.10.2023
457 Clouds 10 1010 85 10000 2.06 330 11:58 17.10.2023
458 Clouds 10 1010 85 10000 2.06 330 11:39 17.10.2023
459 Clouds 10 1010 86 10000 2.06 330 11:20 17.10.2023
460 Clouds 10 1010 85 10000 3.09 350 10:55 17.10.2023
461 Clouds 10 1010 85 10000 3.09 350 10:37 17.10.2023
462 Clouds 10 1010 85 10000 3.09 350 10:18 17.10.2023
463 Clouds 10 1010 84 10000 1.54 340 09:54 17.10.2023
464 Clouds 10 1010 83 10000 1.54 340 09:36 17.10.2023
465 Clouds 10 1010 84 10000 1.54 340 09:18 17.10.2023
466 Clouds 9 1010 84 10000 2.57 310 08:41 17.10.2023
467 Clouds 10 1010 84 10000 2.57 310 08:23 17.10.2023
468 Clouds 10 1009 82 10000 1.54 320 07:59 17.10.2023
469 Clouds 9 1009 82 10000 1.54 320 07:41 17.10.2023
470 Clouds 10 1009 82 10000 1.54 320 07:22 17.10.2023
471 Clouds 10 1009 81 10000 2.06 340 06:58 17.10.2023
472 Clouds 10 1009 82 10000 2.06 340 06:40 17.10.2023
473 Clouds 10 1009 81 10000 2.06 340 06:21 17.10.2023
474 Clouds 10 1009 79 10000 2.57 350 05:58 17.10.2023
475 Clouds 11 1009 78 10000 2.57 350 05:40 17.10.2023
476 Clouds 11 1009 78 10000 2.57 350 05:21 17.10.2023
477 Clouds 11 1009 75 10000 3.6 360 04:58 17.10.2023
478 Clouds 12 1009 75 10000 3.6 360 04:39 17.10.2023
479 Clouds 12 1009 74 10000 3.6 360 04:21 17.10.2023
480 Clouds 12 1008 72 10000 3.6 10 03:56 17.10.2023
481 Clouds 12 1008 71 10000 3.6 10 03:38 17.10.2023
482 Clouds 13 1008 71 10000 3.6 10 03:19 17.10.2023
483 Clouds 13 1008 69 10000 4.12 10 02:55 17.10.2023
484 Clouds 13 1008 69 10000 4.12 10 02:37 17.10.2023
485 Clouds 13 1008 69 10000 4.12 10 02:19 17.10.2023
486 Clouds 13 1007 70 10000 2.06 30 01:41 17.10.2023
487 Clouds 13 1007 70 10000 2.06 30 01:22 17.10.2023
488 Clouds 13 1006 70 10000 2.57 30 00:58 17.10.2023
489 Clouds 13 1006 71 10000 2.57 30 00:40 17.10.2023
490 Clouds 13 1006 70 10000 2.57 30 00:21 17.10.2023
491 Clouds 14 1006 66 10000 4.12 20 23:58 16.10.2023
492 Clouds 14 1006 64 10000 4.12 20 23:39 16.10.2023
493 Clouds 14 1006 64 10000 4.12 20 23:20 16.10.2023
494 Clouds 14 1006 62 10000 5.14 10 22:57 16.10.2023
495 Clouds 15 1006 61 10000 5.14 10 22:38 16.10.2023
496 Clouds 15 1006 61 10000 5.14 10 22:20 16.10.2023
497 Clouds 15 1006 62 10000 5.66 360 21:56 16.10.2023
498 Clouds 15 1006 62 10000 5.66 360 21:38 16.10.2023
499 Clouds 14 1006 63 10000 5.66 360 21:20 16.10.2023
500 Clouds 14 1005 64 10000 7.2 10 20:56 16.10.2023
501 Clouds 14 1005 64 10000 7.2 10 20:38 16.10.2023
502 Clouds 14 1005 64 10000 7.2 10 20:20 16.10.2023
503 Clouds 14 1005 64 10000 6.69 360 19:56 16.10.2023
504 Clouds 14 1005 64 10000 6.69 360 19:37 16.10.2023
505 Clouds 14 1005 63 10000 6.69 360 19:19 16.10.2023
506 Clouds 14 1005 64 10000 6.69 10 18:55 16.10.2023
507 Clouds 15 1005 64 10000 6.69 10 18:37 16.10.2023
508 Clouds 15 1005 64 10000 6.69 10 18:19 16.10.2023
509 Clouds 14 1005 68 10000 7.72 10 17:54 16.10.2023
510 Clouds 13 1005 70 10000 7.72 10 17:36 16.10.2023
511 Clouds 13 1005 71 10000 7.72 10 17:18 16.10.2023
512 Clouds 13 1005 71 10000 6.69 20 16:41 16.10.2023
513 Clouds 13 1005 72 10000 6.69 20 16:22 16.10.2023
514 Clouds 12 1004 74 10000 6.17 10 15:58 16.10.2023
515 Clouds 12 1004 75 10000 6.17 10 15:40 16.10.2023
516 Clouds 12 1004 76 10000 6.17 10 15:21 16.10.2023
517 Clouds 12 1004 80 10000 3.6 360 14:57 16.10.2023
518 Clouds 11 1004 80 10000 3.6 360 14:38 16.10.2023
519 Clouds 11 1004 81 10000 3.6 360 14:19 16.10.2023
520 Clouds 11 1003 84 10000 4.12 360 13:56 16.10.2023
521 Clouds 11 1003 85 10000 4.12 360 13:37 16.10.2023
522 Clouds 11 1003 85 10000 4.12 360 13:19 16.10.2023
523 Clouds 11 1003 85 10000 4.12 340 12:54 16.10.2023
524 Clouds 11 1003 86 10000 4.12 340 12:36 16.10.2023
525 Clouds 11 1003 87 10000 4.12 340 12:18 16.10.2023
526 Clouds 11 1002 89 10000 3.09 340 11:42 16.10.2023
527 Clouds 10 1002 90 10000 3.09 340 11:23 16.10.2023
528 Clouds 10 1002 91 10000 2.57 340 10:59 16.10.2023
529 Clouds 10 1002 91 10000 2.57 340 10:40 16.10.2023
530 Clouds 10 1002 92 10000 2.57 340 10:21 16.10.2023
531 Clouds 10 1002 92 10000 3.09 340 09:58 16.10.2023
532 Clouds 10 1002 92 10000 3.09 340 09:40 16.10.2023
533 Clouds 10 1002 92 10000 3.09 340 09:21 16.10.2023
534 Clouds 10 1002 93 10000 2.06 320 08:57 16.10.2023
535 Clouds 10 1002 93 10000 2.06 320 08:38 16.10.2023
536 Clouds 10 1002 93 10000 2.06 320 08:20 16.10.2023
537 Clouds 10 1001 92 10000 3.09 330 07:56 16.10.2023
538 Clouds 10 1002 92 10000 3.09 330 07:38 16.10.2023
539 Clouds 10 1001 92 10000 3.09 330 07:20 16.10.2023
540 Clouds 10 1001 93 10000 3.09 60 06:57 16.10.2023
541 Clouds 11 1001 92 10000 3.09 60 06:38 16.10.2023
542 Mist 11 1001 91 8047 3.09 10 06:19 16.10.2023
543 Clouds 11 1001 89 10000 5.66 20 05:56 16.10.2023
544 Mist 11 1001 89 9656 5.66 20 05:37 16.10.2023
545 Mist 11 1001 89 9656 5.66 20 05:19 16.10.2023
546 Mist 11 1001 90 6437 4.12 40 04:55 16.10.2023
547 Clouds 11 1001 91 10000 2.57 20 04:37 16.10.2023
548 Clouds 11 1001 91 10000 3.09 340 04:18 16.10.2023
549 Mist 11 1001 92 9656 2.57 300 03:54 16.10.2023
550 Clouds 11 1001 92 10000 2.57 300 03:36 16.10.2023
551 Clouds 11 1001 92 10000 2.57 300 03:18 16.10.2023
552 Clouds 11 1001 92 10000 3.09 280 02:41 16.10.2023
553 Mist 11 1001 91 6437 3.09 310 02:23 16.10.2023
554 Mist 11 1001 88 9656 3.6 310 01:59 16.10.2023
555 Mist 11 1001 88 8047 3.6 310 01:41 16.10.2023
556 Clouds 11 1001 86 10000 3.6 310 01:22 16.10.2023
557 Clouds 11 1000 85 10000 2.06 290 00:59 16.10.2023
558 Clouds 11 1000 84 10000 2.06 290 00:40 16.10.2023
559 Clouds 11 1000 84 10000 2.06 290 00:40 16.10.2023
560 Clouds 12 1000 83 10000 2.57 300 00:20 16.10.2023
561 Clouds 12 1000 76 10000 3.6 290 23:58 15.10.2023
562 Clouds 12 1000 73 10000 3.6 290 23:40 15.10.2023
563 Clouds 13 1000 71 10000 3.6 290 23:22 15.10.2023
564 Clouds 13 999 69 10000 4.12 270 22:58 15.10.2023
565 Clouds 13 999 69 10000 4.12 270 22:40 15.10.2023
566 Clouds 13 999 69 10000 4.12 270 22:21 15.10.2023
567 Clouds 13 1000 67 10000 3.09 310 21:57 15.10.2023
568 Clouds 13 1000 67 10000 3.09 310 21:38 15.10.2023
569 Clouds 13 1000 67 10000 4.12 320 21:20 15.10.2023
570 Clouds 13 1000 67 10000 3.6 280 20:57 15.10.2023
571 Clouds 12 1000 70 10000 2.06 280 20:38 15.10.2023
572 Clouds 12 1000 67 10000 3.6 280 20:20 15.10.2023
573 Clouds 12 1000 67 10000 4.63 270 19:57 15.10.2023
574 Clouds 12 1000 67 10000 4.63 270 19:38 15.10.2023
575 Clouds 12 1000 69 10000 4.63 270 19:20 15.10.2023
576 Clouds 12 1000 71 10000 3.6 310 18:57 15.10.2023
577 Clouds 11 999 70 10000 3.6 310 18:38 15.10.2023
578 Clouds 11 1000 71 10000 3.6 310 18:20 15.10.2023
579 Clouds 11 1000 70 10000 2.57 330 17:37 15.10.2023
580 Clouds 11 1000 71 10000 2.57 330 17:19 15.10.2023
581 Clouds 11 1001 73 10000 2.57 320 16:56 15.10.2023
582 Clouds 7 1001 87 10000 3.6 270 12:25 15.10.2023
583 Clouds 16 1014 55 10000 5.66 310 21:37 13.10.2023
584 Clouds 14 1011 54 10000 7.2 260 21:26 12.10.2023
585 Rain 11 1009 89 10000 2.57 130 16:39 11.10.2023
586 Clouds 9 1008 91 10000 3.09 130 10:46 11.10.2023
587 Clouds 12 1007 74 10000 2.06 260 23:22 10.10.2023
588 Clouds 9 1006 77 10000 4.63 170 10:28 10.10.2023
589 Rain 10 994 94 10000 6.17 240 11:56 08.10.2023
590 Clear 21 1014 68 10000 8.75 170 16:58 06.10.2023
591 Clear 21 1014 70 10000 8.75 170 16:40 06.10.2023
592 Clear 21 1014 71 10000 8.75 170 16:21 06.10.2023
593 Clouds 20 1014 73 10000 7.72 170 15:58 06.10.2023
594 Clouds 20 1014 74 10000 7.72 170 15:40 06.10.2023
595 Clouds 20 1014 74 10000 7.72 170 15:22 06.10.2023
596 Clouds 19 1014 76 10000 9.26 170 14:58 06.10.2023
597 Clouds 19 1014 76 10000 9.26 170 14:40 06.10.2023
598 Clouds 19 1014 77 10000 9.26 170 14:21 06.10.2023
599 Clouds 18 1014 79 10000 6.69 170 13:58 06.10.2023
600 Clouds 18 1014 79 10000 6.69 170 13:40 06.10.2023
601 Clouds 18 1014 79 10000 6.69 170 13:21 06.10.2023
602 Clear 18 1014 78 10000 8.23 150 12:58 06.10.2023
603 Clear 18 1014 78 10000 8.23 150 12:40 06.10.2023
604 Clear 18 1014 78 10000 8.23 150 12:21 06.10.2023
605 Clear 19 1014 76 10000 9.26 170 11:58 06.10.2023
606 Clear 19 1014 75 10000 9.26 170 11:39 06.10.2023
607 Clear 19 1014 75 10000 9.26 170 11:21 06.10.2023
608 Clear 19 1014 72 10000 8.23 170 10:58 06.10.2023
609 Clear 19 1014 72 10000 8.23 170 10:40 06.10.2023
610 Clear 19 1014 71 10000 8.23 170 10:21 06.10.2023
611 Clear 19 1015 69 10000 7.2 180 09:57 06.10.2023
612 Clear 19 1015 68 10000 7.2 180 09:39 06.10.2023
613 Clear 19 1015 68 10000 7.2 180 09:20 06.10.2023
614 Clear 20 1015 67 10000 6.69 180 08:57 06.10.2023
615 Clear 20 1015 66 10000 6.69 180 08:39 06.10.2023
616 Clear 20 1015 65 9656 6.17 150 08:20 06.10.2023
617 Clear 20 1015 63 10000 6.69 160 07:57 06.10.2023
618 Clear 20 1015 62 10000 6.69 160 07:39 06.10.2023
619 Clear 21 1015 61 10000 6.69 160 07:20 06.10.2023
620 Clear 21 1015 59 10000 7.2 180 06:57 06.10.2023
621 Clear 21 1015 59 10000 7.2 180 06:39 06.10.2023
622 Clear 21 1015 58 10000 7.2 180 06:20 06.10.2023
623 Clear 21 1015 58 10000 4.63 170 05:56 06.10.2023
624 Clear 21 1015 58 10000 4.63 170 05:38 06.10.2023
625 Clear 21 1015 59 10000 4.63 170 05:20 06.10.2023
626 Clear 21 1016 60 10000 5.66 180 04:56 06.10.2023
627 Clear 22 1016 60 10000 5.66 180 04:38 06.10.2023
628 Clear 22 1016 61 10000 5.66 180 04:20 06.10.2023
629 Clear 22 1016 61 10000 6.69 160 03:57 06.10.2023
630 Clear 22 1016 61 10000 6.69 160 03:39 06.10.2023
631 Clear 22 1016 61 10000 6.69 160 03:20 06.10.2023
632 Clear 23 1016 60 10000 6.17 180 02:56 06.10.2023
633 Clear 23 1016 59 10000 6.17 180 02:38 06.10.2023
634 Clear 23 1016 59 10000 6.17 180 02:20 06.10.2023
635 Clear 23 1016 58 10000 6.17 180 01:57 06.10.2023
636 Clear 24 1016 58 10000 6.17 180 01:39 06.10.2023
637 Clear 24 1016 58 10000 6.17 180 01:20 06.10.2023
638 Clear 24 1016 58 10000 4.63 170 00:56 06.10.2023
639 Clear 25 1016 57 10000 4.63 170 00:38 06.10.2023
640 Clouds 25 1016 59 10000 0.89 186 00:20 06.10.2023
641 Clear 26 1016 57 10000 5.66 180 23:56 05.10.2023
642 Clear 26 1016 58 10000 5.66 180 23:38 05.10.2023
643 Clear 26 1016 57 10000 5.66 180 23:20 05.10.2023
644 Clear 27 1016 55 10000 4.63 170 22:56 05.10.2023
645 Clear 27 1016 55 10000 4.63 170 22:38 05.10.2023
646 Clear 28 1016 53 10000 4.63 170 22:20 05.10.2023
647 Clear 28 1017 52 10000 5.66 150 21:57 05.10.2023
648 Clear 28 1017 51 10000 5.66 150 21:39 05.10.2023
649 Clear 28 1017 51 10000 5.66 150 21:20 05.10.2023
650 Clear 28 1018 50 10000 4.63 230 20:56 05.10.2023
651 Clear 28 1018 50 10000 4.63 230 20:38 05.10.2023
652 Clear 28 1018 50 10000 4.63 230 20:20 05.10.2023
653 Clear 27 1018 51 10000 5.66 220 19:57 05.10.2023
654 Clear 27 1018 52 10000 5.66 220 19:39 05.10.2023
655 Clear 27 1018 53 10000 5.66 220 19:20 05.10.2023
656 Clouds 26 1019 56 10000 5.14 170 18:56 05.10.2023
657 Clouds 26 1019 57 10000 5.14 170 18:38 05.10.2023
658 Clouds 26 1019 58 10000 5.14 170 18:20 05.10.2023
659 Clear 26 1020 62 10000 5.14 160 17:57 05.10.2023
660 Clear 26 1020 63 10000 5.14 160 17:39 05.10.2023
661 Clear 25 1020 64 10000 5.14 160 17:20 05.10.2023
662 Clouds 24 1020 69 10000 4.12 160 16:44 05.10.2023
663 Clouds 24 1020 70 10000 4.12 160 16:21 05.10.2023
664 Clouds 23 1020 73 10000 4.12 190 15:47 05.10.2023
665 Clouds 22 1020 75 10000 4.12 190 15:26 05.10.2023
666 Clouds 21 1020 77 10000 4.63 160 14:44 05.10.2023
667 Clouds 20 1020 78 10000 4.63 160 14:25 05.10.2023
668 Clouds 19 1020 83 10000 3.09 160 13:41 05.10.2023
669 Clouds 19 1020 83 10000 4.12 180 12:48 05.10.2023
670 Clouds 19 1020 83 10000 4.12 180 12:30 05.10.2023
671 Clouds 19 1019 82 10000 3.6 180 11:54 05.10.2023
672 Clouds 19 1019 81 10000 3.6 180 11:21 05.10.2023
673 Clouds 19 1020 80 10000 3.09 150 10:46 05.10.2023
674 Clouds 19 1020 80 10000 3.09 150 10:23 05.10.2023
675 Clouds 19 1020 79 10000 2.57 180 09:44 05.10.2023
676 Clouds 19 1020 80 10000 2.57 180 09:21 05.10.2023
677 Clouds 19 1020 79 10000 2.57 170 08:57 05.10.2023
678 Clouds 19 1020 79 10000 2.57 170 08:38 05.10.2023
679 Clouds 19 1020 79 10000 2.57 170 08:20 05.10.2023
680 Clouds 19 1020 79 10000 2.06 180 07:57 05.10.2023
681 Clouds 20 1020 78 10000 2.06 180 07:18 05.10.2023
682 Clouds 20 1019 76 10000 1.54 200 06:44 05.10.2023
683 Clouds 20 1019 75 10000 1.54 200 06:18 05.10.2023
684 Clear 21 1019 74 10000 4.12 160 05:48 05.10.2023
685 Clear 21 1019 73 10000 4.12 160 05:21 05.10.2023
686 Clouds 22 1019 72 10000 3.6 140 04:32 05.10.2023
687 Clear 21 1019 71 10000 3.09 120 03:42 05.10.2023
688 Clear 22 1019 70 10000 3.09 120 03:18 05.10.2023
689 Clear 22 1019 68 10000 1.03 110 02:45 05.10.2023
690 Clear 23 1020 64 10000 1.54 100 01:59 05.10.2023
691 Clear 23 1020 64 10000 1.54 100 01:41 05.10.2023
692 Clear 24 1020 62 10000 1.54 100 01:22 05.10.2023
693 Clear 26 1020 54 10000 1.54 170 00:43 05.10.2023
694 Clear 26 1020 54 10000 1.54 170 00:25 05.10.2023
695 Clouds 28 1020 50 10000 3.09 170 23:54 04.10.2023
696 Clouds 29 1020 48 10000 3.09 170 23:18 04.10.2023
697 Clouds 29 1020 45 10000 2.06 230 22:42 04.10.2023
698 Clouds 30 1020 46 10000 2.06 230 22:20 04.10.2023
699 Clouds 29 1020 47 10000 2.57 250 21:48 04.10.2023
700 Clouds 29 1020 48 10000 2.57 250 21:21 04.10.2023
701 Clouds 29 1021 52 10000 3.09 250 20:48 04.10.2023
702 Clouds 28 1021 53 10000 3.09 250 20:21 04.10.2023
703 Clouds 28 1021 56 10000 3.09 200 19:49 04.10.2023
704 Clouds 28 1021 56 10000 3.09 200 19:29 04.10.2023
705 Clouds 26 1022 61 10000 2.57 190 18:44 04.10.2023
706 Clouds 26 1022 62 10000 2.57 190 18:22 04.10.2023
707 Clouds 25 1022 65 10000 2.57 240 17:47 04.10.2023
708 Clouds 24 1022 66 10000 2.57 240 17:21 04.10.2023
709 Clouds 23 1022 72 10000 2.57 250 16:56 04.10.2023
710 Clouds 22 1022 76 10000 2.57 250 16:21 04.10.2023
711 Clouds 21 1022 81 10000 4.12 260 15:55 04.10.2023
712 Clouds 21 1022 83 10000 4.12 260 15:37 04.10.2023
713 Clouds 20 1022 84 10000 4.12 260 15:19 04.10.2023
714 Clouds 18 1022 88 10000 3.09 240 14:42 04.10.2023
715 Clouds 18 1022 89 10000 3.09 240 14:18 04.10.2023
716 Clouds 17 1021 91 10000 3.09 240 13:41 04.10.2023
717 Clouds 17 1021 90 10000 3.09 240 13:21 04.10.2023
718 Clouds 17 1021 89 10000 2.57 190 12:59 04.10.2023
719 Clouds 17 1021 89 10000 2.57 190 12:40 04.10.2023
720 Clouds 17 1021 89 10000 2.57 190 12:21 04.10.2023
721 Clouds 17 1020 89 10000 3.09 220 11:46 04.10.2023
722 Clouds 17 1020 89 10000 3.09 220 11:27 04.10.2023
723 Clouds 17 1020 89 10000 3.09 230 10:59 04.10.2023
724 Clouds 17 1020 89 10000 3.09 230 10:41 04.10.2023
725 Clouds 18 1020 89 10000 3.09 230 10:19 04.10.2023
726 Clouds 18 1019 87 10000 2.06 220 09:43 04.10.2023
727 Clouds 18 1019 87 10000 2.06 220 09:21 04.10.2023
728 Clear 18 1019 87 10000 2.57 140 08:57 04.10.2023
729 Clear 19 1019 86 10000 2.57 140 08:39 04.10.2023
730 Clear 19 1019 86 10000 2.57 140 08:21 04.10.2023
731 Clear 19 1019 86 10000 3.09 150 07:57 04.10.2023
732 Clear 19 1019 86 10000 3.09 150 07:38 04.10.2023
733 Clear 19 1019 86 10000 3.09 150 07:20 04.10.2023
734 Clouds 20 1019 83 10000 2.57 190 06:44 04.10.2023
735 Clouds 20 1019 83 10000 2.57 190 06:22 04.10.2023
736 Clear 20 1019 83 10000 3.6 220 05:58 04.10.2023
737 Clear 20 1019 82 10000 3.6 220 05:40 04.10.2023
738 Clear 20 1019 82 10000 3.6 220 05:21 04.10.2023
739 Clouds 21 1019 78 10000 2.57 230 04:43 04.10.2023
740 Clouds 21 1019 78 10000 2.57 230 04:21 04.10.2023
741 Clouds 21 1018 77 10000 2.57 210 03:57 04.10.2023
742 Clouds 21 1018 77 10000 2.57 210 03:39 04.10.2023
743 Clouds 22 1018 75 10000 2.57 210 03:20 04.10.2023
744 Clouds 22 1018 73 10000 3.09 240 02:56 04.10.2023
745 Clouds 22 1018 73 10000 3.09 240 02:38 04.10.2023
746 Clouds 22 1018 72 10000 3.09 240 02:19 04.10.2023
747 Clouds 23 1018 72 10000 3.09 240 01:49 04.10.2023
748 Clouds 23 1018 71 10000 3.09 240 01:20 04.10.2023
749 Clouds 25 1018 65 10000 4.63 240 00:56 04.10.2023
750 Clouds 25 1018 63 10000 4.63 240 00:38 04.10.2023
751 Clouds 25 1018 62 10000 4.63 240 00:20 04.10.2023
752 Clouds 26 1018 58 10000 6.17 240 23:54 03.10.2023
753 Clouds 27 1018 55 10000 6.17 240 23:36 03.10.2023
754 Clouds 27 1018 57 10000 6.17 240 23:18 03.10.2023
755 Clouds 28 1018 55 10000 6.17 240 22:39 03.10.2023
756 Clouds 28 1018 55 10000 6.17 240 22:19 03.10.2023
757 Clouds 27 1018 59 10000 5.66 210 21:43 03.10.2023
758 Clear 28 1018 59 10000 4.12 220 21:19 03.10.2023
759 Clouds 27 1018 61 10000 5.14 240 20:43 03.10.2023
760 Clouds 27 1018 62 10000 5.14 240 20:20 03.10.2023
761 Clouds 26 1019 66 10000 6.17 240 19:56 03.10.2023
762 Clouds 25 1019 66 10000 6.17 240 19:38 03.10.2023
763 Clouds 25 1019 67 10000 6.17 240 19:20 03.10.2023
764 Clouds 24 1019 69 10000 5.14 210 18:51 03.10.2023
765 Clouds 23 1019 71 10000 5.14 210 18:22 03.10.2023
766 Clouds 22 1020 76 10000 4.12 240 17:46 03.10.2023
767 Clouds 21 1020 77 10000 4.12 240 17:23 03.10.2023
768 Clouds 20 1019 79 10000 5.14 250 16:59 03.10.2023
769 Clouds 20 1019 80 10000 5.14 250 16:41 03.10.2023
770 Clouds 19 1019 83 10000 5.66 250 15:51 03.10.2023
771 Clouds 19 1019 84 10000 5.66 250 15:32 03.10.2023
772 Clouds 18 1019 87 10000 5.14 240 14:23 03.10.2023
773 Clouds 17 1019 88 10000 4.63 250 13:32 03.10.2023
774 Clouds 16 1018 89 10000 4.63 240 11:54 03.10.2023
775 Clouds 16 1018 89 10000 4.63 240 11:26 03.10.2023
776 Clear 17 1018 86 10000 3.6 170 10:31 03.10.2023
777 Clouds 17 1019 84 10000 3.6 230 08:57 03.10.2023
778 Rain 17 1019 75 10000 4.12 230 07:49 03.10.2023
779 Clouds 17 1019 73 10000 4.12 230 07:26 03.10.2023
780 Clouds 17 1019 70 10000 4.12 210 06:51 03.10.2023
781 Clouds 17 1019 70 10000 4.12 210 06:29 03.10.2023
782 Clear 18 1019 68 10000 4.12 200 05:26 03.10.2023
783 Clouds 18 1019 67 10000 3.09 190 04:54 03.10.2023
784 Clouds 18 1020 62 10000 2.57 220 03:52 03.10.2023
785 Clouds 18 1020 61 10000 2.57 220 03:24 03.10.2023
786 Clouds 19 1020 58 10000 4.63 190 02:31 03.10.2023
787 Clouds 21 1021 52 10000 3.09 240 00:45 03.10.2023
788 Clouds 23 1021 45 10000 4.12 230 23:26 02.10.2023
789 Clouds 24 1022 44 10000 2.57 190 21:49 02.10.2023
790 Clouds 24 1022 43 10000 2.57 190 21:23 02.10.2023
791 Clouds 23 1023 45 10000 3.09 200 20:25 02.10.2023
792 Clouds 23 1023 49 10000 1.03 0 19:43 02.10.2023
793 Clouds 21 1024 54 10000 1.54 110 18:43 02.10.2023
794 Clouds 19 1024 60 10000 2.06 40 17:45 02.10.2023
795 Clouds 19 1024 62 10000 2.06 40 17:27 02.10.2023
796 Clouds 18 1025 66 10000 2.06 20 16:51 02.10.2023
797 Clouds 17 1025 69 10000 2.06 20 16:29 02.10.2023
798 Clouds 15 1025 76 10000 3.09 20 15:46 02.10.2023
799 Clouds 15 1025 77 10000 3.09 20 15:28 02.10.2023
800 Clouds 13 1025 84 10000 2.06 330 14:43 02.10.2023
801 Clouds 12 1025 87 10000 2.06 330 14:19 02.10.2023
802 Clear 10 1024 90 10000 1.54 340 12:45 02.10.2023
803 Clear 10 1024 90 10000 1.54 340 12:20 02.10.2023
804 Clear 11 1024 90 10000 1.03 0 11:22 02.10.2023
805 Clear 11 1024 89 10000 0 0 10:53 02.10.2023
806 Clear 11 1024 87 10000 0 0 10:21 02.10.2023
807 Clear 12 1024 86 10000 1.54 350 09:58 02.10.2023
808 Clear 12 1024 84 10000 1.54 350 09:19 02.10.2023
809 Clear 13 1024 86 10000 2.57 10 08:32 02.10.2023
810 Clear 13 1024 85 10000 2.06 10 07:52 02.10.2023
811 Clear 14 1024 84 10000 2.06 10 07:20 02.10.2023
812 Clear 14 1024 83 10000 2.57 360 06:45 02.10.2023
813 Clear 14 1024 83 10000 2.57 360 06:18 02.10.2023
814 Clear 14 1024 82 10000 2.06 10 05:45 02.10.2023
815 Clear 15 1024 78 10000 2.06 10 05:20 02.10.2023
816 Clear 15 1024 79 10000 2.57 50 04:36 02.10.2023
817 Clear 16 1024 74 10000 2.57 50 04:18 02.10.2023
818 Clear 18 1024 73 10000 2.06 50 02:46 02.10.2023
819 Clear 18 1024 73 10000 2.06 50 02:23 02.10.2023
820 Clear 20 1023 71 10000 2.57 30 01:24 02.10.2023
821 Clouds 22 1023 67 10000 2.57 10 00:57 02.10.2023
822 Clouds 22 1023 64 10000 2.57 10 00:22 02.10.2023
823 Clouds 23 1023 64 10000 3.6 30 23:58 01.10.2023
824 Clouds 23 1023 62 10000 3.6 30 23:33 01.10.2023
825 Clouds 24 1023 60 10000 3.6 350 22:29 01.10.2023
826 Clouds 24 1023 59 10000 4.63 20 21:55 01.10.2023
827 Clouds 24 1023 59 10000 4.63 20 21:19 01.10.2023
828 Clouds 25 1023 59 10000 5.14 20 20:38 01.10.2023
829 Clouds 24 1024 60 10000 4.63 20 19:54 01.10.2023
830 Clouds 24 1024 61 10000 4.63 20 19:29 01.10.2023
831 Clear 23 1024 63 10000 3.6 10 18:44 01.10.2023
832 Clear 23 1024 63 10000 3.6 10 18:26 01.10.2023
833 Clear 22 1024 64 10000 3.09 360 17:46 01.10.2023
834 Clear 22 1024 65 10000 3.09 360 17:24 01.10.2023
835 Clear 20 1024 71 10000 1.54 350 16:56 01.10.2023
836 Haze 16 1023 77 9656 2.06 250 04:20 01.10.2023
837 Mist 16 1025 82 9656 1.54 350 16:25 30.09.2023
838 Mist 15 1025 84 9656 3.09 40 15:38 30.09.2023
839 Mist 13 1025 91 4828 3.6 10 14:48 30.09.2023
840 Mist 12 1023 91 8047 3.09 340 11:41 30.09.2023
841 Mist 12 1022 92 6437 1.54 50 10:52 30.09.2023
842 Mist 12 1022 92 6437 1.54 50 10:24 30.09.2023
843 Clouds 14 1023 84 10000 2.06 110 07:51 30.09.2023
844 Clouds 15 1024 80 10000 2.06 110 06:45 30.09.2023
845 Clouds 16 1024 73 10000 1.54 140 04:50 30.09.2023
846 Clouds 16 1024 70 10000 2.57 160 03:21 30.09.2023
847 Clouds 17 1024 68 10000 3.6 150 02:35 30.09.2023
848 Haze 17 1023 69 9656 1.54 140 01:51 30.09.2023
849 Clear 19 1023 65 10000 2.06 100 00:20 30.09.2023
850 Clear 20 1023 61 10000 3.09 100 22:51 29.09.2023
851 Clear 20 1023 61 10000 3.09 100 22:32 29.09.2023
852 Clear 20 1024 63 10000 2.57 100 20:55 29.09.2023
853 Clear 20 1024 63 10000 2.57 100 20:18 29.09.2023
854 Clouds 19 1025 68 10000 2.06 140 18:29 29.09.2023
855 Clear 18 1025 72 10000 2.57 360 17:48 29.09.2023
856 Clouds 14 1025 89 10000 3.09 10 15:42 29.09.2023
857 Mist 11 1025 94 4828 3.6 30 14:21 29.09.2023
858 Clouds 11 1024 94 10000 3.09 30 12:20 29.09.2023
859 Mist 11 1024 92 8047 3.6 40 09:53 29.09.2023
860 Clear 12 1024 89 10000 2.57 30 06:56 29.09.2023
861 Clear 13 1024 88 10000 3.09 40 05:52 29.09.2023
862 Clear 14 1025 83 10000 3.09 40 03:22 29.09.2023
863 Clear 16 1025 79 10000 2.06 10 02:20 29.09.2023
864 Clear 20 1024 66 10000 2.57 90 00:18 29.09.2023
865 Clear 21 1026 59 10000 1.54 120 20:42 28.09.2023
866 Clear 17 1028 72 10000 3.09 40 17:45 28.09.2023
867 Clear 17 1028 74 10000 3.09 40 17:18 28.09.2023
868 Clear 15 1028 84 10000 2.06 50 16:18 28.09.2023
869 Clear 13 1028 88 10000 2.57 10 15:45 28.09.2023
870 Clear 13 1028 88 10000 2.57 10 15:22 28.09.2023
871 Clear 12 1028 90 10000 2.1 52 14:50 28.09.2023
872 Clouds 11 1028 90 10000 0.45 54 14:22 28.09.2023
873 Clouds 10 1028 93 10000 1.9 39 13:59 28.09.2023
874 Clouds 10 1027 94 10000 1.67 40 13:41 28.09.2023
875 Clouds 9 1027 91 10000 1.42 34 13:22 28.09.2023
876 Fog 9 1027 91 805 1.03 0 12:51 28.09.2023
877 Fog 9 1027 90 604 1.03 340 12:24 28.09.2023
878 Fog 9 1027 90 604 2.06 10 11:45 28.09.2023
879 Mist 10 1027 90 1207 2.06 10 11:23 28.09.2023
880 Fog 10 1027 89 604 1.54 10 10:59 28.09.2023
881 Mist 10 1027 89 2012 2.06 50 10:40 28.09.2023
882 Mist 10 1027 89 3219 2.06 50 10:22 28.09.2023
883 Mist 10 1027 88 2414 2.57 10 09:45 28.09.2023
884 Clear 10 1027 89 10000 2.57 10 09:24 28.09.2023
885 Clear 10 1027 87 10000 2.06 360 08:59 28.09.2023
886 Clear 10 1027 87 10000 2.06 360 08:40 28.09.2023
887 Clear 10 1027 87 10000 2.06 360 08:22 28.09.2023
888 Clear 11 1027 84 10000 1.03 0 07:50 28.09.2023
889 Clear 11 1027 83 10000 1.03 0 07:21 28.09.2023
890 Clear 11 1027 81 10000 2.06 20 06:45 28.09.2023
891 Clear 12 1027 81 10000 2.06 20 06:22 28.09.2023
892 Clear 12 1027 80 10000 2.06 10 05:50 28.09.2023
893 Clear 12 1027 80 10000 2.06 10 05:27 28.09.2023
894 Clear 12 1027 78 10000 1.54 40 04:59 28.09.2023
895 Clear 12 1027 77 10000 1.54 40 04:40 28.09.2023
896 Clear 13 1027 76 10000 1.54 40 04:19 28.09.2023
897 Clear 13 1027 74 10000 1.03 40 03:45 28.09.2023
898 Clear 14 1027 69 10000 2.57 50 03:27 28.09.2023
899 Clear 14 1027 67 10000 3.09 40 02:55 28.09.2023
900 Clear 15 1027 66 10000 3.09 40 02:37 28.09.2023
901 Clear 15 1027 64 10000 3.09 40 02:19 28.09.2023
902 Clear 16 1027 60 10000 3.6 50 01:43 28.09.2023
903 Clear 17 1027 57 10000 3.6 50 01:19 28.09.2023
904 Clear 19 1027 54 10000 3.09 20 00:54 28.09.2023
905 Clear 19 1027 54 10000 3.09 20 00:36 28.09.2023
906 Clear 20 1027 51 10000 3.09 20 00:18 28.09.2023
907 Clear 20 1027 48 10000 3.09 40 23:42 27.09.2023
908 Clear 21 1027 47 10000 3.09 40 23:23 27.09.2023
909 Clear 21 1027 47 10000 3.09 360 22:58 27.09.2023
910 Clear 21 1027 47 10000 3.09 360 22:38 27.09.2023
911 Clear 21 1027 47 10000 3.09 360 22:20 27.09.2023
912 Clear 21 1028 48 10000 3.6 70 21:55 27.09.2023
913 Clear 21 1028 48 10000 3.6 70 21:37 27.09.2023
914 Clear 21 1028 48 10000 3.6 70 21:19 27.09.2023
915 Clear 20 1029 52 10000 2.57 40 20:41 27.09.2023
916 Clear 20 1029 52 10000 2.57 40 20:22 27.09.2023
917 Clear 20 1029 56 10000 4.12 70 19:59 27.09.2023
918 Clear 19 1029 57 10000 4.12 70 19:39 27.09.2023
919 Clear 19 1029 57 10000 4.12 70 19:20 27.09.2023
920 Clear 18 1030 62 10000 2.57 360 18:56 27.09.2023
921 Clear 18 1030 64 10000 2.57 360 18:38 27.09.2023
922 Clear 17 1030 65 10000 2.57 360 18:19 27.09.2023
923 Clear 17 1030 68 10000 4.12 20 17:56 27.09.2023
924 Clear 16 1030 70 10000 4.12 20 17:37 27.09.2023
925 Clear 15 1030 72 10000 4.12 20 17:19 27.09.2023
926 Clear 14 1031 75 10000 3.09 10 16:42 27.09.2023
927 Clear 14 1031 77 10000 3.09 10 16:23 27.09.2023
928 Clear 12 1031 81 10000 3.6 20 15:58 27.09.2023
929 Clear 12 1031 83 10000 3.6 20 15:39 27.09.2023
930 Clear 11 1031 83 10000 3.6 20 15:20 27.09.2023
931 Clear 10 1031 86 10000 2.06 350 14:44 27.09.2023
932 Clear 9 1031 86 10000 2.06 350 14:26 27.09.2023
933 Clear 8 1031 89 10000 2.06 330 13:59 27.09.2023
934 Clear 8 1031 89 10000 2.06 330 13:40 27.09.2023
935 Clear 8 1031 89 10000 2.06 330 13:21 27.09.2023
936 Clear 7 1030 91 10000 2.57 40 12:57 27.09.2023
937 Clear 7 1030 91 10000 2.57 40 12:37 27.09.2023
938 Clear 7 1030 91 10000 2.57 40 12:18 27.09.2023
939 Clear 7 1030 91 10000 3.09 350 11:42 27.09.2023
940 Clear 7 1030 91 10000 3.09 350 11:22 27.09.2023
941 Clear 7 1030 92 10000 2.06 340 10:55 27.09.2023
942 Clear 7 1030 92 10000 2.06 340 10:37 27.09.2023
943 Clear 7 1030 91 10000 2.06 340 10:18 27.09.2023
944 Clear 8 1030 90 10000 2.06 360 09:42 27.09.2023
945 Clear 8 1030 90 10000 2.06 360 09:23 27.09.2023
946 Clear 8 1031 89 10000 1.03 10 08:58 27.09.2023
947 Clear 8 1031 88 10000 1.03 10 08:40 27.09.2023
948 Clear 8 1031 88 10000 1.03 10 08:22 27.09.2023
949 Clear 8 1031 88 10000 2.06 10 07:55 27.09.2023
950 Clear 8 1031 87 10000 2.06 10 07:37 27.09.2023
951 Clear 9 1031 87 10000 2.06 10 07:18 27.09.2023
952 Clear 9 1031 85 10000 2.57 360 06:41 27.09.2023
953 Clear 9 1031 83 10000 2.57 360 06:23 27.09.2023
954 Clear 10 1031 83 10000 2.57 350 05:58 27.09.2023
955 Clear 10 1031 83 10000 2.57 350 05:58 27.09.2023
956 Clear 10 1031 83 10000 2.57 350 05:38 27.09.2023
957 Clear 10 1031 82 10000 2.57 350 05:19 27.09.2023
958 Clear 11 1031 79 10000 2.57 10 04:42 27.09.2023
959 Clear 11 1031 77 10000 2.57 10 04:23 27.09.2023
960 Clear 12 1031 79 10000 4.12 30 03:58 27.09.2023
961 Clear 12 1031 78 10000 4.12 30 03:39 27.09.2023
962 Clear 12 1031 75 10000 4.12 30 03:20 27.09.2023
963 Clear 13 1031 74 10000 3.6 30 02:43 27.09.2023
964 Clear 13 1031 71 10000 3.6 30 02:25 27.09.2023
965 Clear 14 1030 70 10000 3.09 360 01:59 27.09.2023
966 Clear 15 1031 68 10000 3.09 360 01:40 27.09.2023
967 Clear 15 1031 67 10000 3.09 360 01:22 27.09.2023
968 Clear 16 1030 62 10000 3.09 30 00:57 27.09.2023
969 Clear 17 1030 61 10000 3.09 30 00:38 27.09.2023
970 Clear 17 1030 60 10000 3.09 30 00:19 27.09.2023
971 Clouds 18 1030 54 10000 4.63 60 23:43 26.09.2023
972 Clear 18 1030 52 10000 4.63 60 23:23 26.09.2023
973 Clear 19 1030 51 10000 4.63 40 22:58 26.09.2023
974 Clear 19 1031 51 10000 4.63 40 22:39 26.09.2023
975 Clear 19 1031 50 10000 4.63 40 22:21 26.09.2023
976 Clear 19 1031 51 10000 5.14 50 21:43 26.09.2023
977 Clear 19 1031 50 10000 5.14 50 21:24 26.09.2023
978 Clear 19 1032 51 10000 5.14 40 20:57 26.09.2023
979 Clear 19 1032 52 10000 5.14 40 20:39 26.09.2023
980 Clear 19 1032 52 10000 5.14 40 20:20 26.09.2023
981 Clear 18 1032 54 10000 5.14 50 19:56 26.09.2023
982 Clear 18 1032 55 10000 5.14 50 19:37 26.09.2023
983 Clear 18 1032 56 10000 5.14 50 19:18 26.09.2023
984 Clouds 17 1033 58 10000 4.63 60 18:55 26.09.2023
985 Clouds 17 1033 58 10000 4.63 60 18:36 26.09.2023
986 Clouds 17 1033 59 10000 4.63 60 18:18 26.09.2023
987 Clouds 17 1033 59 10000 4.63 60 18:18 26.09.2023
988 Clear 16 1033 64 10000 4.63 30 17:41 26.09.2023
989 Clear 16 1033 65 10000 4.63 30 17:23 26.09.2023
990 Clear 15 1033 70 10000 5.14 20 16:58 26.09.2023
991 Clear 14 1033 71 10000 5.14 20 16:40 26.09.2023
992 Clear 14 1033 73 10000 5.14 20 16:20 26.09.2023
993 Clear 13 1033 78 10000 4.63 40 15:56 26.09.2023
994 Clear 12 1033 81 10000 4.63 40 15:37 26.09.2023
995 Clear 11 1033 82 10000 4.63 40 15:19 26.09.2023
996 Clouds 10 1033 86 10000 6.17 20 14:43 26.09.2023
997 Clear 9 1033 88 10000 6.17 20 14:24 26.09.2023
998 Clear 9 1032 89 10000 5.14 30 13:58 26.09.2023
999 Clear 9 1032 89 10000 5.14 30 13:39 26.09.2023
1000 Clear 9 1032 89 10000 5.14 30 13:20 26.09.2023
1001 Clear 9 1032 90 10000 4.63 40 12:41 26.09.2023
1002 Clear 9 1032 89 10000 4.63 40 12:23 26.09.2023
1003 Clear 9 1031 89 10000 4.63 40 11:59 26.09.2023
1004 Clear 9 1031 89 10000 4.63 40 11:41 26.09.2023
1005 Clear 9 1031 88 10000 4.63 40 11:22 26.09.2023
1006 Clear 10 1031 86 10000 4.63 40 10:59 26.09.2023
1007 Clear 10 1031 86 10000 4.63 40 10:41 26.09.2023
1008 Clear 10 1031 86 10000 4.63 40 10:21 26.09.2023
1009 Clear 10 1030 85 10000 5.66 30 09:59 26.09.2023
1010 Clear 10 1030 84 10000 5.66 30 09:40 26.09.2023
1011 Clear 11 1030 84 10000 5.66 30 09:21 26.09.2023
1012 Clear 11 1030 83 10000 5.66 40 08:58 26.09.2023
1013 Clear 11 1030 82 10000 5.66 40 08:39 26.09.2023
1014 Clear 11 1030 81 10000 5.66 40 08:20 26.09.2023
1015 Clear 12 1030 81 10000 7.2 40 07:56 26.09.2023
1016 Clear 12 1030 81 10000 7.2 40 07:38 26.09.2023
1017 Clear 12 1030 81 10000 7.2 40 07:20 26.09.2023
1018 Clear 12 1030 81 10000 7.2 40 06:54 26.09.2023
1019 Clear 12 1030 80 10000 7.2 40 06:36 26.09.2023
1020 Clear 12 1030 80 10000 7.2 40 06:18 26.09.2023
1021 Clear 13 1030 79 10000 8.23 40 05:42 26.09.2023
1022 Clear 13 1030 78 10000 8.23 40 05:23 26.09.2023
1023 Clear 13 1029 76 10000 7.2 40 04:59 26.09.2023
1024 Clear 13 1029 76 10000 7.2 40 04:41 26.09.2023
1025 Clear 14 1029 76 10000 7.2 40 04:23 26.09.2023
1026 Clear 14 1029 74 10000 8.23 40 03:59 26.09.2023
1027 Clear 14 1029 74 10000 8.23 40 03:59 26.09.2023
1028 Clear 14 1029 73 10000 8.23 40 03:40 26.09.2023
1029 Clear 15 1029 73 10000 8.23 40 03:21 26.09.2023
1030 Clear 15 1028 71 10000 7.72 40 02:57 26.09.2023
1031 Clear 16 1028 69 10000 7.72 40 02:39 26.09.2023
1032 Clear 16 1028 70 10000 7.72 40 02:20 26.09.2023
1033 Clear 16 1027 67 10000 7.2 30 01:55 26.09.2023
1034 Clear 16 1027 68 10000 7.2 30 01:37 26.09.2023
1035 Clear 17 1027 67 10000 7.2 30 01:18 26.09.2023
1036 Clear 17 1027 63 10000 9.26 30 00:55 26.09.2023
1037 Clear 18 1027 61 10000 9.26 30 00:36 26.09.2023
1038 Clear 18 1027 62 10000 9.26 30 00:18 26.09.2023
1039 Clear 19 1026 59 10000 8.23 30 23:54 25.09.2023
1040 Clear 19 1026 58 10000 8.23 30 23:36 25.09.2023
1041 Clear 19 1026 57 10000 8.23 30 23:18 25.09.2023
1042 Clear 20 1026 55 10000 8.75 30 22:41 25.09.2023
1043 Clear 20 1026 54 10000 8.75 30 22:23 25.09.2023
1044 Clear 20 1026 52 10000 10.29 40 21:59 25.09.2023
1045 Clear 20 1026 52 10000 10.29 40 21:40 25.09.2023
1046 Clear 20 1026 52 10000 10.29 40 21:21 25.09.2023
1047 Clear 20 1025 53 10000 9.77 50 20:58 25.09.2023
1048 Clear 20 1025 53 10000 9.77 50 20:39 25.09.2023
1049 Clear 20 1025 53 10000 9.77 50 20:21 25.09.2023
1050 Clear 20 1026 55 10000 9.26 50 19:57 25.09.2023
1051 Clear 20 1026 56 10000 9.26 50 19:39 25.09.2023
1052 Clear 20 1026 57 10000 9.26 50 19:20 25.09.2023
1053 Clear 19 1025 59 10000 9.77 40 18:56 25.09.2023
1054 Clear 19 1025 60 10000 9.77 40 18:38 25.09.2023
1055 Clear 19 1025 60 10000 9.77 40 18:20 25.09.2023
1056 Clear 18 1025 65 10000 7.72 50 17:56 25.09.2023
1057 Clear 18 1025 66 10000 7.72 50 17:37 25.09.2023
1058 Clear 17 1025 68 10000 7.72 50 17:19 25.09.2023
1059 Clear 16 1025 70 10000 7.72 40 16:44 25.09.2023
1060 Clear 15 1025 72 10000 7.72 40 16:19 25.09.2023
1061 Clear 14 1024 75 10000 8.23 40 15:42 25.09.2023
1062 Clear 14 1024 76 10000 8.23 40 15:22 25.09.2023
1063 Clear 13 1024 78 10000 7.72 30 14:58 25.09.2023
1064 Clear 13 1024 78 10000 7.72 30 14:38 25.09.2023
1065 Clear 13 1024 79 10000 7.72 30 14:19 25.09.2023
1066 Clear 12 1023 79 10000 7.2 30 13:45 25.09.2023
1067 Clear 12 1023 79 10000 7.2 30 13:27 25.09.2023
1068 Clear 12 1022 78 10000 7.2 30 12:44 25.09.2023
1069 Clear 12 1022 78 10000 7.2 30 12:25 25.09.2023
1070 Clear 12 1022 79 10000 6.17 30 11:46 25.09.2023
1071 Clear 12 1022 79 10000 6.17 30 11:22 25.09.2023
1072 Clear 12 1022 79 10000 5.14 20 10:58 25.09.2023
1073 Clear 12 1022 79 10000 5.14 20 10:40 25.09.2023
1074 Clear 12 1022 79 10000 5.14 20 10:18 25.09.2023
1075 Clear 13 1021 76 10000 5.14 20 09:46 25.09.2023
1076 Clear 13 1021 75 10000 5.14 20 09:18 25.09.2023
1077 Clear 13 1022 74 10000 5.66 30 08:43 25.09.2023
1078 Clear 13 1022 72 10000 5.66 30 08:20 25.09.2023
1079 Clear 14 1022 71 10000 5.14 30 07:49 25.09.2023
1080 Clear 14 1022 70 10000 5.14 30 07:19 25.09.2023
1081 Clear 15 1022 69 10000 4.63 30 06:42 25.09.2023
1082 Clear 15 1022 69 10000 4.63 30 06:23 25.09.2023
1083 Clear 15 1022 68 10000 4.63 30 05:59 25.09.2023
1084 Clear 16 1022 67 10000 4.63 30 05:40 25.09.2023
1085 Clear 16 1022 65 10000 4.63 30 05:22 25.09.2023
1086 Clear 17 1022 62 10000 5.66 30 04:57 25.09.2023
1087 Clear 17 1022 60 10000 5.66 30 04:38 25.09.2023
1088 Clear 17 1022 59 10000 5.66 30 04:20 25.09.2023
1089 Clear 18 1021 62 10000 5.66 40 03:45 25.09.2023
1090 Clear 18 1021 64 10000 5.66 40 03:21 25.09.2023
1091 Clear 18 1021 70 10000 3.6 50 02:46 25.09.2023
1092 Clear 19 1021 71 10000 3.6 50 02:21 25.09.2023
1093 Clear 19 1021 69 10000 3.6 50 01:57 25.09.2023
1094 Clear 20 1021 67 10000 3.6 50 01:38 25.09.2023
1095 Clear 20 1021 68 10000 3.6 50 01:20 25.09.2023
1096 Clear 22 1020 61 10000 3.6 70 00:44 25.09.2023
1097 Clear 22 1020 62 10000 3.6 70 00:20 25.09.2023
1098 Clear 23 1020 58 10000 4.63 30 23:46 24.09.2023
1099 Clear 23 1020 58 10000 4.63 30 23:21 24.09.2023
1100 Clear 23 1020 56 10000 3.6 60 22:56 24.09.2023
1101 Clear 23 1020 56 10000 3.6 60 22:37 24.09.2023
1102 Clear 23 1020 56 10000 3.6 60 22:19 24.09.2023
1103 Clear 23 1021 59 10000 4.63 20 21:45 24.09.2023
1104 Clear 23 1021 59 10000 4.63 20 21:26 24.09.2023
1105 Clear 23 1021 61 10000 5.14 20 20:41 24.09.2023
1106 Clear 23 1021 61 10000 5.14 20 20:21 24.09.2023
1107 Clear 22 1022 64 10000 4.12 50 19:57 24.09.2023
1108 Clear 22 1022 64 10000 4.12 50 19:37 24.09.2023
1109 Clear 22 1022 64 10000 4.12 50 19:19 24.09.2023
1110 Clear 21 1023 66 10000 5.66 30 18:55 24.09.2023
1111 Clear 21 1023 67 10000 5.66 30 18:37 24.09.2023
1112 Clear 21 1023 68 10000 5.66 30 18:19 24.09.2023
1113 Clear 20 1023 71 10000 4.63 40 17:37 24.09.2023
1114 Clear 19 1023 73 10000 4.63 40 17:18 24.09.2023
1115 Clear 18 1024 77 10000 4.63 20 16:43 24.09.2023
1116 Clear 16 1024 87 10000 6.17 30 15:25 24.09.2023
1117 Clouds 15 1023 90 10000 5.14 30 14:44 24.09.2023
1118 Mist 14 1024 90 9656 5.14 30 14:24 24.09.2023
1119 Mist 13 1023 92 9656 5.14 20 13:47 24.09.2023
1120 Mist 13 1023 92 8047 5.14 20 13:19 24.09.2023
1121 Mist 14 1023 92 8047 4.63 30 12:32 24.09.2023
1122 Mist 14 1023 90 9656 4.63 20 11:48 24.09.2023
1123 Clear 14 1023 89 10000 5.14 20 10:43 24.09.2023
1124 Clear 14 1023 90 10000 4.12 20 09:47 24.09.2023
1125 Clear 15 1023 90 10000 4.12 20 09:23 24.09.2023
1126 Clear 15 1024 89 10000 3.6 360 08:26 24.09.2023
1127 Clear 16 1024 85 10000 2.57 20 06:51 24.09.2023
1128 Clear 16 1024 85 10000 2.57 20 06:24 24.09.2023
1129 Clear 16 1024 84 10000 2.57 20 05:28 24.09.2023
1130 Clear 15 1024 85 10000 2.06 20 04:43 24.09.2023
1131 Clear 16 1024 81 10000 2.06 20 03:18 24.09.2023
1132 Haze 18 1024 72 9656 3.09 40 01:48 24.09.2023
1133 Clear 20 1024 68 10000 1.54 30 00:59 24.09.2023
1134 Clear 20 1024 66 10000 2.57 50 00:41 24.09.2023
1135 Clear 21 1024 65 10000 2.57 50 00:18 24.09.2023
1136 Clear 21 1024 63 10000 2.57 30 23:54 23.09.2023
1137 Clear 22 1024 60 10000 2.57 70 22:42 23.09.2023
1138 Clear 22 1024 61 10000 2.06 30 21:51 23.09.2023
1139 Clear 22 1024 61 10000 2.06 30 21:33 23.09.2023
1140 Clear 22 1025 60 10000 2.57 110 20:46 23.09.2023
1141 Clear 22 1025 60 10000 2.57 110 20:19 23.09.2023
1142 Clear 22 1025 62 10000 3.09 60 19:48 23.09.2023
1143 Clear 21 1026 63 10000 2.57 20 18:58 23.09.2023
1144 Clear 21 1026 65 10000 2.57 20 18:25 23.09.2023
1145 Clear 20 1026 71 10000 1.54 0 17:58 23.09.2023
1146 Clear 19 1026 73 10000 1.54 0 17:27 23.09.2023
1147 Clear 16 1027 83 10000 2.06 10 16:24 23.09.2023
1148 Clear 15 1027 85 10000 1.54 120 15:45 23.09.2023
1149 Clear 15 1027 86 10000 1.54 120 15:27 23.09.2023
1150 Clear 13 1027 91 10000 1.54 360 14:20 23.09.2023
1151 Mist 11 1026 92 9656 1.54 130 13:27 23.09.2023
1152 Clear 11 1026 91 10000 1.54 30 12:21 23.09.2023
1153 Clear 12 1026 91 10000 2.06 340 11:20 23.09.2023
1154 Clear 12 1026 90 10000 1.54 140 10:50 23.09.2023
1155 Clear 12 1026 89 10000 1.03 130 09:45 23.09.2023
1156 Clear 13 1027 88 10000 2.57 10 08:41 23.09.2023
1157 Clear 13 1027 87 10000 1.03 120 07:30 23.09.2023
1158 Clear 13 1027 84 10000 1.03 30 06:52 23.09.2023
1159 Clear 13 1027 83 10000 1.03 30 06:25 23.09.2023
1160 Clear 14 1027 79 10000 1.03 150 05:27 23.09.2023
1161 Clear 15 1027 75 10000 1.03 0 03:57 23.09.2023
1162 Clear 16 1027 72 10000 1.03 0 03:19 23.09.2023
1163 Clear 18 1027 59 10000 2.06 170 01:42 23.09.2023
1164 Clear 20 1027 54 10000 2.57 160 00:52 23.09.2023
1165 Clear 21 1027 51 10000 2.57 160 00:34 23.09.2023
1166 Clear 22 1027 47 10000 3.09 260 23:54 22.09.2023
1167 Clear 23 1027 46 10000 2.57 80 22:52 22.09.2023
1168 Clear 23 1027 46 10000 2.57 80 22:34 22.09.2023
1169 Clear 23 1029 49 10000 2.06 150 20:56 22.09.2023
1170 Clear 23 1029 49 10000 2.06 150 20:24 22.09.2023
1171 Clear 22 1030 55 10000 2.57 180 18:47 22.09.2023
1172 Clear 21 1030 56 10000 2.57 180 18:25 22.09.2023
1173 Clear 20 1030 62 10000 2.06 220 17:35 22.09.2023
1174 Clear 19 1030 70 10000 2.06 190 16:59 22.09.2023
1175 Clear 18 1030 73 10000 2.06 190 16:30 22.09.2023
1176 Clear 13 1030 89 10000 1.03 120 14:52 22.09.2023
1177 Clear 13 1030 90 10000 1.03 120 14:34 22.09.2023
1178 Clouds 10 1030 93 10000 1.54 130 13:25 22.09.2023
1179 Clear 10 1029 91 10000 1.54 140 12:26 22.09.2023
1180 Clear 10 1028 90 10000 1.54 120 11:32 22.09.2023
1181 Clear 10 1028 90 10000 1.03 180 10:32 22.09.2023
1182 Clear 11 1027 90 10000 1.54 150 09:58 22.09.2023
1183 Clear 11 1027 88 10000 1.54 150 09:22 22.09.2023
1184 Clear 11 1027 87 10000 2.06 260 08:29 22.09.2023
1185 Clear 12 1027 84 10000 1.03 130 07:19 22.09.2023
1186 Clear 13 1027 83 10000 1.03 250 06:21 22.09.2023
1187 Clear 14 1027 77 10000 0.51 250 04:48 22.09.2023
1188 Clear 15 1027 72 10000 2.06 210 03:36 22.09.2023
1189 Clear 16 1027 69 10000 2.57 240 02:46 22.09.2023
1190 Clear 17 1027 68 10000 2.57 240 02:21 22.09.2023
1191 Clear 18 1026 62 10000 4.12 220 01:31 22.09.2023
1192 Clear 19 1026 57 10000 3.09 230 00:47 22.09.2023
1193 Clear 20 1026 55 10000 3.09 230 00:28 22.09.2023
1194 Clear 22 1026 49 10000 2.57 240 22:48 21.09.2023
1195 Clear 22 1026 48 10000 2.57 240 22:23 21.09.2023
1196 Clear 22 1026 48 10000 4.12 220 21:36 21.09.2023
1197 Clear 22 1026 48 10000 4.63 220 20:48 21.09.2023
1198 Clear 21 1026 49 10000 4.63 220 20:20 21.09.2023
1199 Clear 21 1026 51 10000 2.06 210 19:34 21.09.2023
1200 Clear 19 1026 58 10000 1.54 270 18:18 21.09.2023
1201 Clear 16 1020 67 10000 3.09 240 02:44 21.09.2023
1202 Clouds 17 1012 83 10000 5.66 290 00:46 20.09.2023
1203 Clouds 18 1011 80 10000 3.6 120 18:44 18.09.2023
1204 Clear 16 1012 81 10000 3.6 240 15:20 17.09.2023
1205 Clear 19 1023 56 10000 1.54 100 17:36 15.09.2023
1206 Clouds 22 1011 60 10000 7.2 240 00:22 14.09.2023
1207 Clouds 22 1014 76 10000 2.57 130 21:54 12.09.2023
1208 Drizzle 17 1020 91 10000 5.14 40 21:36 10.09.2023
1209 Clouds 18 1017 79 10000 4.12 270 08:30 09.09.2023
1210 Clear 30 1006 65 10000 6.69 230 20:36 07.09.2023
1211 Clear 24 1012 73 10000 5.14 240 17:29 03.09.2023
1212 Clear 19 1022 69 10000 3.09 210 02:24 02.09.2023
1213 Clear 24 1024 52 10000 6.69 220 21:46 01.09.2023
1214 Clouds 16 1010 74 10000 5.14 330 04:37 31.08.2023
1215 Mist 19 1008 94 2816 1.03 140 07:52 30.08.2023
1216 Clouds 24 1013 76 10000 3.09 180 19:51 29.08.2023
1217 Clear 16 1017 87 10000 1.03 230 06:54 28.08.2023
1218 Clouds 17 1014 85 10000 2.57 350 06:52 27.08.2023
1219 Mist 17 1010 95 8047 4.12 10 17:41 25.08.2023
1220 Clear 26 1018 48 10000 4.63 230 20:37 23.08.2023
1221 Clouds 23 1020 49 10000 2.06 120 00:33 23.08.2023
1222 Clouds 21 1015 85 10000 3.09 260 11:21 21.08.2023
1223 Clouds 25 1014 64 10000 8.75 240 23:36 20.08.2023
1224 Clouds 15 1008 93 10000 5.14 250 13:45 19.08.2023
1225 Clouds 19 1003 92 10000 4.63 140 14:57 18.08.2023
1226 Clouds 21 1004 86 10000 5.66 180 10:42 18.08.2023
1227 Clouds 26 1011 74 10000 6.17 170 19:25 17.08.2023
1228 Clouds 23 1012 76 10000 4.12 20 16:59 15.08.2023
1229 Clouds 23 1013 68 10000 6.17 220 20:39 14.08.2023
1230 Thunderstorm 19 1007 95 10000 3.6 220 06:39 13.08.2023
1231 Clouds 19 1007 94 10000 2.06 130 05:50 13.08.2023
1232 Clear 20 1012 82 10000 2.57 160 16:58 12.08.2023
1233 Clouds 16 1001 94 10000 5.66 240 08:43 11.08.2023
1234 Clouds 23 1003 72 10000 5.66 230 03:28 10.08.2023
1235 Clear 26 1003 59 10000 6.17 290 20:29 09.08.2023
1236 Clear 22 1004 72 10000 5.14 320 16:56 09.08.2023
1237 Clouds 20 1008 87 10000 5.66 80 01:19 08.08.2023
1238 Clear 23 1016 55 10000 3.09 290 16:55 06.08.2023
1239 Clear 17 1015 81 10000 3.09 250 09:19 06.08.2023
1240 Clear 18 1015 77 10000 3.6 250 07:20 06.08.2023
1241 Clear 16 1013 86 10000 2.06 300 10:54 05.08.2023
1242 Thunderstorm 18 1009 94 9656 4.63 200 08:51 04.08.2023
1243 Clouds 19 1014 86 10000 6.69 200 16:53 03.08.2023
1244 Rain 17 1014 89 10000 4.12 170 15:34 03.08.2023
1245 Clear 19 1019 69 10000 5.14 170 04:44 03.08.2023
1246 Clear 20 1019 67 10000 5.14 160 03:52 03.08.2023
1247 Clear 15 1021 67 10000 3.09 320 14:20 01.08.2023
1248 Rain 16 1012 92 10000 2.06 150 06:57 31.07.2023
1249 Clouds 15 1012 80 10000 4.12 340 07:54 30.07.2023
1250 Rain 18 1012 71 10000 3.6 60 18:41 29.07.2023
1251 Clouds 21 1012 95 10000 3.09 250 06:41 29.07.2023
1252 Clouds 25 1013 84 10000 7.2 220 16:51 28.07.2023
1253 Clear 23 1012 88 10000 3.6 240 05:25 28.07.2023
1254 Clouds 22 1012 85 10000 1.03 350 07:18 27.07.2023
1255 Clouds 23 1017 79 10000 4.12 250 16:49 25.07.2023
1256 Rain 21 1016 80 10000 4.63 220 03:27 25.07.2023
1257 Clear 22 1017 73 10000 3.09 210 14:18 24.07.2023
1258 Clouds 19 1005 90 10000 5.66 250 14:49 22.07.2023
1259 Rain 19 1006 83 10000 2.57 0 11:25 21.07.2023
1260 Clouds 21 1017 71 10000 2.06 290 05:35 20.07.2023
1261 Clear 21 1016 71 10000 2.57 280 04:47 20.07.2023
1262 Clear 21 1016 69 10000 2.57 280 04:18 20.07.2023
1263 Clear 24 1016 59 10000 4.63 250 17:40 19.07.2023
1264 Clouds 23 1016 61 10000 3.6 290 16:38 19.07.2023
1265 Clouds 22 1016 67 10000 4.12 300 15:44 19.07.2023
1266 Mist 20 1013 92 6437 2.57 230 08:49 19.07.2023
1267 Mist 22 1012 90 6437 2.57 230 06:24 19.07.2023
1268 Clear 25 1011 66 10000 3.6 210 01:30 19.07.2023
1269 Mist 20 1014 94 4828 2.06 140 14:55 18.07.2023
1270 Clear 21 1009 89 10000 3.6 220 11:38 17.07.2023
1271 Clear 18 1012 92 10000 1.54 360 11:34 15.07.2023
1272 Clear 25 1013 65 10000 2.06 140 17:58 14.07.2023
1273 Clear 20 1013 82 10000 3.09 240 14:21 14.07.2023
1274 Clouds 19 1010 92 10000 4.63 70 16:43 13.07.2023
1275 Clouds 21 1011 86 10000 4.12 240 14:55 12.07.2023
1276 Clouds 22 1009 71 10000 4.63 320 03:39 12.07.2023
1277 Clouds 23 1008 85 10000 4.63 230 17:36 11.07.2023
1278 Rain 21 1010 91 10000 2.57 100 16:36 10.07.2023
1279 Clouds 26 1010 61 10000 3.09 180 19:26 09.07.2023
1280 Clouds 26 1010 61 10000 3.09 180 19:26 09.07.2023
1281 Clear 29 1009 50 10000 4.12 230 23:54 08.07.2023
1282 Clear 21 1011 92 10000 2.06 240 12:41 08.07.2023
1283 Clouds 21 1011 92 10000 3.09 230 10:52 08.07.2023
1284 Clouds 23 1009 82 10000 4.12 200 11:45 07.07.2023
1285 Clear 31 1012 54 10000 4.63 180 18:51 06.07.2023
1286 Clear 26 1013 83 10000 3.6 180 05:25 06.07.2023
1287 Clear 22 1013 86 10000 1.03 30 06:18 05.07.2023
1288 Haze 27 1013 71 9656 1.54 30 16:38 04.07.2023
1289 Haze 25 1013 77 4828 1.54 90 19:48 01.07.2023
1290 Haze 24 1014 72 6437 5.66 160 15:52 01.07.2023
1291 Mist 18 1016 90 6437 2.06 190 11:24 30.06.2023
1292 Clouds 21 1016 86 10000 4.12 150 04:27 30.06.2023
1293 Mist 17 1011 95 2816 5.66 230 10:28 29.06.2023
1294 Rain 20 1008 89 9656 7.2 220 19:59 28.06.2023
1295 Clouds 23 1007 86 10000 4.12 170 16:35 28.06.2023
1296 Clouds 23 1003 78 10000 6.69 140 02:37 28.06.2023
1297 Clear 29 1005 63 10000 7.2 150 21:35 26.06.2023
1298 Mist 19 1008 84 3219 4.12 20 09:46 26.06.2023
1299 Mist 20 1009 92 8047 4.12 40 11:24 25.06.2023
1300 Mist 21 1008 93 9656 2.06 150 07:54 25.06.2023
1301 Clouds 22 1008 94 10000 1.54 260 03:52 25.06.2023
1302 Clear 21 1024 67 10000 2.57 170 14:21 22.06.2023
1303 Clouds 22 1024 58 10000 3.09 120 17:43 20.06.2023
1304 Clouds 22 1024 58 10000 3.09 120 17:18 20.06.2023
1305 Clouds 17 1020 71 10000 3.6 30 16:30 19.06.2023
1306 Clouds 15 1020 76 10000 5.66 50 15:23 19.06.2023
1307 Clouds 17 1007 83 10000 1.54 350 16:29 16.06.2023
1308 Rain 21 1001 69 10000 6.17 320 21:19 15.06.2023
1309 Clouds 18 999 81 10000 4.63 230 13:55 15.06.2023
1310 Clouds 26 1005 53 10000 3.6 100 03:48 13.06.2023
1311 Clouds 26 1008 42 10000 5.66 80 18:39 12.06.2023
1312 Clear 25 1011 45 10000 3.09 210 18:38 11.06.2023
1313 Clouds 20 1007 55 10000 2.06 0 19:47 10.06.2023
1314 Clouds 14 1008 80 10000 3.6 10 16:39 09.06.2023
1315 Clouds 14 1002 64 10000 6.69 330 16:25 07.06.2023
1316 Smoke 18 1006 54 10000 5.66 40 17:51 06.06.2023
1317 Clear 10 1016 81 10000 2.57 360 11:39 05.06.2023
1318 Clear 9 1021 50 10000 4.63 10 09:53 04.06.2023
1319 Clouds 20 1022 34 10000 9.77 60 22:36 03.06.2023
1320 Clouds 20 1022 35 10000 9.77 60 22:18 03.06.2023
1321 Clear 19 1023 32 10000 9.77 50 21:42 03.06.2023
1322 Clear 19 1023 31 10000 9.77 50 21:23 03.06.2023
1323 Clear 19 1023 36 10000 11.32 30 20:26 03.06.2023
1324 Clear 27 1018 48 10000 4.12 230 16:22 01.06.2023
1325 Clear 27 1020 39 10000 5.14 240 17:58 31.05.2023
1326 Clear 24 1018 49 10000 3.09 180 03:43 31.05.2023
1327 Clear 12 1019 62 10000 3.6 20 09:20 30.05.2023
1328 Clear 19 1022 35 10000 5.66 90 16:20 29.05.2023
1329 Clouds 22 1016 27 10000 5.66 30 05:45 29.05.2023
1330 Clear 31 1012 24 10000 8.75 250 23:45 28.05.2023
1331 Clear 15 1019 56 10000 6.17 230 12:18 28.05.2023
1332 Clear 15 1026 49 10000 1.54 350 16:49 26.05.2023
1333 Clear 17 1021 30 10000 4.12 10 02:26 26.05.2023
1334 Clouds 10 1021 61 10000 7.72 360 04:44 25.05.2023
1335 Clouds 15 1016 65 10000 3.6 330 14:46 24.05.2023
1336 Clouds 15 1015 54 10000 3.6 230 11:52 24.05.2023
1337 Clouds 15 1015 48 10000 1.03 160 09:27 24.05.2023
1338 Clear 15 1016 43 10000 4.12 210 07:20 24.05.2023
1339 Clear 18 1018 33 10000 3.6 200 04:45 24.05.2023
1340 Clear 19 1018 28 10000 4.12 240 02:39 24.05.2023
1341 Clear 23 1020 19 10000 4.12 250 23:31 23.05.2023
1342 Clear 23 1021 22 10000 5.14 240 22:53 23.05.2023
1343 Clear 22 1023 25 10000 2.57 230 20:41 23.05.2023
1344 Clear 20 1025 30 10000 2.06 110 18:31 23.05.2023
1345 Clear 16 1026 38 10000 2.57 130 16:30 23.05.2023
1346 Clear 10 1027 69 10000 1.54 40 13:49 23.05.2023
1347 Clear 8 1026 59 10000 1.03 160 06:23 23.05.2023
1348 Clear 9 1026 56 10000 1.03 240 05:25 23.05.2023
1349 Clear 11 1027 41 10000 4.63 40 17:52 22.05.2023
1350 Clear 19 1015 39 10000 5.14 320 02:39 22.05.2023
1351 Clouds 12 1008 87 10000 6.69 250 14:59 21.05.2023
1352 Clouds 16 1017 67 10000 7.2 180 14:54 20.05.2023
1353 Clouds 20 1017 53 10000 5.66 180 04:43 20.05.2023
1354 Clouds 21 1016 49 10000 5.66 180 02:28 20.05.2023
1355 Clear 7 1021 62 10000 1.54 140 09:56 19.05.2023
1356 Clear 9 1022 53 10000 3.6 160 07:36 19.05.2023
1357 Clear 9 1022 55 10000 3.6 160 07:18 19.05.2023
1358 Clear 15 1022 31 10000 5.14 240 00:19 19.05.2023
1359 Clouds 7 1014 38 10000 6.69 310 20:23 17.05.2023
1360 Clouds 3 1010 62 10000 7.2 330 13:18 17.05.2023
1361 Clouds 17 1009 43 10000 6.69 240 04:42 16.05.2023
1362 Clouds 18 1018 40 10000 9.77 270 17:59 13.05.2023
1363 Clear 20 1014 37 10000 7.72 230 02:51 11.05.2023
1364 Clear 5 1015 59 10000 1.54 40 11:56 09.05.2023
1365 Clear 16 1011 30 10000 5.14 360 19:48 08.05.2023
1366 Clouds 11 1017 68 10000 4.12 240 11:58 07.05.2023
1367 Clouds 14 1025 63 10000 5.66 10 18:56 05.05.2023
1368 Clouds 6 1013 84 10000 7.2 30 14:20 04.05.2023
1369 Clear 10 993 76 10000 5.14 140 02:38 02.05.2023
1370 Clouds 15 1003 67 10000 6.17 80 21:57 30.04.2023
1371 Clouds 14 1007 70 10000 7.2 120 17:28 30.04.2023
1372 Rain 11 1015 74 10000 8.75 180 22:27 29.04.2023
1373 Clear 18 1021 39 10000 6.69 100 19:55 28.04.2023
1374 Clear 4 1023 77 10000 0.89 354 09:34 28.04.2023
1375 Clouds 10 1022 61 10000 3.6 350 19:50 26.04.2023
1376 Clouds 9 1017 81 10000 3.09 230 19:36 24.04.2023
1377 Clouds 8 1013 85 10000 4.63 40 12:41 22.04.2023
1378 Clouds 3 1022 67 10000 7.2 50 11:20 21.04.2023
1379 Clouds 6 1014 66 10000 7.72 240 19:40 19.04.2023
1380 Rain 9 1002 91 10000 5.66 240 18:54 17.04.2023
1381 Clear 10 1002 83 10000 5.14 30 11:49 17.04.2023
1382 Clear 23 1010 40 10000 5.66 20 22:21 15.04.2023
1383 Clear 23 1010 40 10000 5.66 20 22:21 15.04.2023
1384 Clear 23 1010 40 10000 5.66 20 22:21 15.04.2023
1385 Clear 23 1010 40 10000 5.66 20 22:21 15.04.2023
1386 Clear 23 1010 40 10000 5.66 20 22:21 15.04.2023
1387 Clear 13 1014 43 10000 8.23 40 14:47 14.04.2023
1388 Clear 27 1003 34 10000 8.23 250 23:31 13.04.2023
1389 Clouds 12 1014 51 10000 7.72 240 15:56 11.04.2023
1390 Clear 7 1028 52 10000 6.69 220 15:30 10.04.2023
1391 Clear 5 1031 34 10000 5.14 270 22:37 08.04.2023
1392 Clouds 2 1026 43 10000 10.8 280 18:36 07.04.2023
1393 Mist 1 1016 94 4828 1.54 330 15:28 06.04.2023
1394 Snow -2 1026 85 4023 11.83 30 17:35 05.04.2023
1395 Snow -2 1027 64 10000 10.29 50 15:53 05.04.2023
1396 Clouds -2 1028 58 10000 8.23 50 14:50 05.04.2023
1397 Clear 2 1028 51 10000 7.72 30 04:54 05.04.2023
1398 Clear 2 1028 51 10000 7.72 30 04:54 05.04.2023
1399 Clouds 2 1015 55 10000 7.2 170 15:30 03.04.2023
1400 Clear -6 1016 52 10000 6.69 300 15:51 02.04.2023
1401 Clear -2 1024 53 10000 4.12 240 04:58 31.03.2023
1402 Clear -4 1019 81 10000 1.54 110 12:45 29.03.2023
1403 Clouds 3 1019 65 10000 3.09 50 05:34 28.03.2023
1404 Clouds 1 1015 79 10000 3.09 290 08:39 27.03.2023
1405 Clouds 2 1002 91 10000 5.14 170 09:35 26.03.2023
1406 Snow 1 1008 93 2414 7.72 70 00:28 26.03.2023
1407 Clouds 0 1017 70 10000 7.2 50 18:45 25.03.2023
1408 Snow 0 1018 68 10000 7.2 50 17:34 25.03.2023
1409 Clear 0 1019 67 10000 8.75 50 15:46 25.03.2023
1410 Clear -1 1021 68 10000 5.66 30 14:23 25.03.2023
1411 Clear -1 1021 69 10000 4.12 80 13:20 25.03.2023
1412 Clear -3 1021 74 10000 4.12 40 11:27 25.03.2023
1413 Clear -2 1021 73 10000 4.12 30 09:29 25.03.2023
1414 Clear -2 1021 74 10000 2.57 360 06:25 25.03.2023
1415 Clear 0 1020 67 10000 3.6 270 03:56 25.03.2023
1416 Clear 4 1017 51 10000 6.69 240 22:51 24.03.2023
1417 Clouds 5 1016 48 10000 6.69 240 20:52 24.03.2023
1418 Clouds 4 1016 49 10000 5.14 260 19:35 24.03.2023
1419 Clear 3 1015 54 10000 6.69 280 17:31 24.03.2023
1420 Clear 2 1015 55 10000 5.66 300 15:35 24.03.2023
1421 Clear 1 1014 66 10000 8.75 320 13:27 24.03.2023
1422 Clear 0 1013 71 10000 5.14 290 12:45 24.03.2023
1423 Clear 0 1013 73 10000 5.14 290 12:24 24.03.2023
1424 Clear 0 1013 74 10000 4.63 280 11:24 24.03.2023
1425 Clouds 2 1009 86 10000 3.6 260 07:53 24.03.2023
1426 Clouds 2 1008 91 10000 4.63 290 06:39 24.03.2023
1427 Mist 1 1005 94 8047 4.12 270 01:36 24.03.2023
1428 Mist 2 1004 93 4828 2.57 230 23:38 23.03.2023
1429 Mist 2 1004 93 4828 1.03 10 21:27 23.03.2023
1430 Mist 2 1005 92 3219 3.6 320 19:40 23.03.2023
1431 Snow 1 1009 87 6437 2.06 50 16:46 23.03.2023
1432 Rain 0 1011 82 10000 5.14 30 14:40 23.03.2023
1433 Clouds 0 1013 72 10000 4.63 30 11:58 23.03.2023
1434 Snow 0 1015 68 10000 3.6 40 10:37 23.03.2023
1435 Snow 0 1018 64 10000 4.12 60 07:59 23.03.2023
1436 Clouds 0 1022 56 10000 8.23 40 02:44 23.03.2023
1437 Clouds 0 1024 51 10000 6.17 40 00:40 23.03.2023
1438 Clear 1 1025 50 10000 6.69 40 21:33 22.03.2023
1439 Clear 1 1027 50 10000 5.66 40 20:33 22.03.2023
1440 Clouds 1 1028 51 10000 6.17 40 19:51 22.03.2023
1441 Clouds 0 1028 51 10000 6.17 40 19:18 22.03.2023
1442 Clear 0 1030 51 10000 6.17 30 18:43 22.03.2023
1443 Clear -1 1031 52 10000 6.69 50 17:38 22.03.2023
1444 Clear -2 1032 54 10000 7.72 40 16:27 22.03.2023
1445 Clear -5 1032 62 10000 7.72 40 13:59 22.03.2023
1446 Clear -5 1032 63 10000 7.72 40 13:28 22.03.2023
1447 Clear -4 1032 63 10000 5.14 30 10:32 22.03.2023
1448 Clear -3 1031 59 10000 5.66 40 09:31 22.03.2023
1449 Clear -2 1031 57 10000 4.12 40 07:57 22.03.2023
1450 Clear -2 1030 54 10000 3.09 10 06:52 22.03.2023
1451 Clouds -1 1029 60 10000 2.06 340 04:40 22.03.2023
1452 Clear 2 1028 62 10000 2.06 260 01:21 22.03.2023
1453 Clouds 2 1027 65 10000 4.12 100 00:44 22.03.2023
1454 Clouds 4 1026 59 10000 4.12 260 22:29 21.03.2023
1455 Clouds 4 1026 62 10000 5.14 270 21:29 21.03.2023
1456 Clouds 4 1025 68 10000 3.6 40 19:57 21.03.2023
1457 Clouds 4 1025 70 10000 5.14 360 19:36 21.03.2023
1458 Clouds 3 1025 73 10000 7.2 340 18:45 21.03.2023
1459 Clouds 4 1024 66 10000 6.69 270 17:56 21.03.2023
1460 Clouds 5 1024 62 10000 6.69 270 17:19 21.03.2023
1461 Clouds 4 1022 59 10000 5.14 230 15:24 21.03.2023
1462 Clouds 3 1022 70 10000 3.09 150 14:45 21.03.2023
1463 Clouds 2 1022 73 10000 1.54 140 13:54 21.03.2023
1464 Clouds 2 1022 76 10000 1.54 140 13:23 21.03.2023
1465 Clouds 1 1022 75 10000 2.57 160 12:27 21.03.2023
1466 Clouds 0 1021 78 10000 2.57 140 10:19 21.03.2023
1467 Clouds 1 1021 75 10000 4.12 210 08:30 21.03.2023
1468 Clouds 2 1021 74 10000 4.12 230 07:34 21.03.2023
1469 Clouds 2 1020 72 10000 4.12 240 05:46 21.03.2023
1470 Clouds 2 1020 72 10000 4.12 240 05:21 21.03.2023
1471 Clouds 2 1020 70 10000 3.6 240 04:49 21.03.2023
1472 Clouds 2 1020 70 10000 3.6 240 04:25 21.03.2023
1473 Clear 2 1020 69 10000 4.63 240 03:41 21.03.2023
1474 Clear 2 1020 69 10000 4.63 240 03:41 21.03.2023
1475 Clear 2 1020 69 10000 4.63 240 03:41 21.03.2023
1476 Clouds 4 1018 63 10000 8.75 240 23:52 20.03.2023
1477 Clouds 4 1018 58 10000 9.77 240 21:55 20.03.2023
1478 Clouds 5 1017 52 10000 11.32 230 20:30 20.03.2023
1479 Clouds 5 1017 52 10000 8.75 240 19:58 20.03.2023
1480 Clouds 4 1017 56 10000 9.77 230 18:21 20.03.2023
1481 Clouds 3 1017 56 10000 11.83 230 17:19 20.03.2023
1482 Clouds 3 1017 59 10000 11.32 230 16:41 20.03.2023
1483 Clouds 1 1017 69 10000 9.26 230 14:39 20.03.2023
1484 Clear 0 1016 73 10000 6.17 230 13:58 20.03.2023
1485 Clear -1 1016 75 10000 6.69 240 12:54 20.03.2023
1486 Clouds -1 1016 74 10000 6.69 240 11:39 20.03.2023
1487 Clouds -1 1015 74 10000 6.69 240 10:35 20.03.2023
1488 Clouds -4 1015 71 10000 5.66 220 08:56 20.03.2023
1489 Clouds -4 1015 70 10000 5.66 220 08:24 20.03.2023
1490 Clouds -5 1016 70 10000 2.57 190 07:43 20.03.2023
1491 Clear -6 1015 51 10000 6.69 270 01:24 20.03.2023
1492 Clouds -5 1012 49 10000 9.77 260 22:40 19.03.2023
1493 Clouds -5 1011 48 10000 12.35 240 21:36 19.03.2023
1494 Clouds -4 1011 49 10000 12.35 240 20:35 19.03.2023
1495 Clouds -4 1009 57 10000 13.38 240 18:19 19.03.2023
1496 Clouds -5 1008 59 10000 11.83 250 17:36 19.03.2023
1497 Clouds -5 1007 70 10000 8.23 240 16:46 19.03.2023
1498 Clouds -5 1007 71 10000 9.26 240 16:26 19.03.2023
1499 Clouds -4 1007 74 9656 8.23 260 15:37 19.03.2023
1500 Clouds -5 1006 72 10000 9.77 260 14:41 19.03.2023
1501 Snow -5 1006 69 8047 7.72 250 13:49 19.03.2023
1502 Clouds -5 1006 66 10000 10.8 240 13:18 19.03.2023
1503 Clear -6 1006 66 10000 8.23 250 11:37 19.03.2023
1504 Clear -6 1006 65 10000 8.23 250 11:19 19.03.2023
1505 Clear -5 1006 63 10000 7.2 250 10:32 19.03.2023
1506 Clouds -5 1005 65 10000 10.29 240 08:53 19.03.2023
1507 Snow -4 1005 64 10000 12.86 230 07:48 19.03.2023
1508 Snow -3 1005 63 10000 14.92 250 07:26 19.03.2023
1509 Snow -1 1004 61 10000 11.83 240 05:56 19.03.2023
1510 Snow -1 1004 63 10000 11.83 240 05:38 19.03.2023
1511 Snow -1 1004 63 10000 10.29 250 05:19 19.03.2023
1512 Snow -1 1004 66 10000 7.2 220 04:31 19.03.2023
1513 Clouds 2 1004 64 10000 8.23 230 00:27 19.03.2023
1514 Clouds 4 1003 57 10000 4.12 200 22:51 18.03.2023
1515 Clouds 4 1004 56 10000 7.2 230 20:51 18.03.2023
1516 Clouds 4 1004 58 10000 7.2 230 20:20 18.03.2023
1517 Clouds 3 1005 59 10000 7.72 220 19:28 18.03.2023
1518 Clouds 3 1005 58 10000 7.2 230 18:39 18.03.2023
1519 Clouds 3 1006 58 10000 5.66 240 17:58 18.03.2023
1520 Clouds 2 1006 56 10000 5.66 270 16:24 18.03.2023
1521 Clouds 1 1006 61 10000 5.66 280 14:44 18.03.2023
1522 Clouds 1 1004 68 10000 9.26 250 11:51 18.03.2023
1523 Clouds 2 1002 71 10000 8.23 240 10:26 18.03.2023
1524 Clouds 5 997 91 10000 8.75 230 05:59 18.03.2023
1525 Clouds 5 996 93 10000 6.69 220 03:29 18.03.2023
1526 Rain 4 997 90 8047 4.12 120 21:52 17.03.2023
1527 Rain 4 998 88 10000 4.12 130 20:35 17.03.2023
1528 Rain 4 999 86 10000 4.63 170 19:40 17.03.2023
1529 Rain 4 999 84 10000 4.63 170 19:21 17.03.2023
1530 Clouds 5 1001 69 10000 5.14 100 17:33 17.03.2023
1531 Clouds 4 1005 74 10000 3.09 90 15:53 17.03.2023
1532 Clouds 4 1005 75 10000 3.09 90 15:30 17.03.2023
1533 Clouds 3 1005 81 10000 4.63 40 14:42 17.03.2023
1534 Clouds 2 1007 81 10000 4.63 70 13:28 17.03.2023
1535 Clouds 1 1009 84 10000 3.6 110 09:37 17.03.2023
1536 Clouds 1 1011 87 10000 2.06 170 07:33 17.03.2023
1537 Mist 1 1011 88 8047 2.57 170 05:39 17.03.2023
1538 Clouds 1 1012 87 10000 5.66 230 00:36 17.03.2023
1539 Clouds 2 1012 78 10000 5.66 230 22:18 16.03.2023
1540 Clouds 2 1012 76 10000 7.2 240 20:49 16.03.2023
1541 Clouds 2 1013 80 10000 6.17 250 19:53 16.03.2023
1542 Clouds 3 1013 63 10000 6.69 250 17:27 16.03.2023
1543 Clouds 1 1014 65 10000 5.66 270 14:29 16.03.2023
1544 Clouds 0 1014 59 10000 6.17 240 12:48 16.03.2023
1545 Clouds 0 1013 58 10000 5.14 240 10:43 16.03.2023
1546 Clouds 0 1014 59 10000 4.12 240 08:32 16.03.2023
1547 Clear 2 1014 54 10000 4.63 290 03:46 16.03.2023
1548 Clear 6 1011 44 10000 9.26 290 23:32 15.03.2023
1549 Clear 6 1011 42 10000 7.2 290 22:18 15.03.2023
1550 Clear 6 1010 43 10000 5.14 350 21:25 15.03.2023
1551 Clear 6 1010 45 10000 6.69 330 20:37 15.03.2023
1552 Clear 5 1011 52 10000 4.63 330 19:51 15.03.2023
1553 Clear 4 1011 51 10000 7.72 340 18:46 15.03.2023
1554 Clouds 3 1011 56 10000 8.23 330 17:51 15.03.2023
1555 Clouds 3 1011 57 10000 8.23 330 17:23 15.03.2023
1556 Clouds 1 1010 66 10000 9.26 340 15:47 15.03.2023
1557 Clouds 1 1010 67 10000 9.26 340 15:19 15.03.2023
1558 Clouds 0 1010 69 10000 9.26 330 14:18 15.03.2023
1559 Clouds 1 1006 74 10000 9.26 340 10:24 15.03.2023
1560 Clouds 2 1005 76 10000 8.75 330 08:43 15.03.2023
1561 Rain 2 1005 79 10000 8.23 340 06:54 15.03.2023
1562 Clouds 3 1006 84 10000 7.72 350 03:38 15.03.2023
1563 Clouds 2 1006 85 10000 8.75 360 22:34 14.03.2023
1564 Snow 2 1006 87 10000 7.72 20 21:33 14.03.2023
1565 Snow 2 1006 84 10000 10.29 10 19:45 14.03.2023
1566 Clouds 1 1007 89 10000 8.75 30 18:28 14.03.2023
1567 Snow 1 1008 92 3621 8.23 40 15:52 14.03.2023
1568 Snow 1 1009 94 4828 5.66 50 13:42 14.03.2023
1569 Snow 1 1009 94 4023 4.63 50 13:18 14.03.2023
1570 Snow 1 1008 94 6437 3.6 40 11:26 14.03.2023
1571 Snow 1 1009 91 6437 4.12 50 09:51 14.03.2023
1572 Clouds 2 1010 90 10000 4.63 30 07:27 14.03.2023
1573 Rain 3 1012 82 10000 2.57 140 02:27 14.03.2023
1574 Rain 3 1012 79 10000 3.6 110 00:26 14.03.2023
1575 Rain 4 1013 74 10000 8.23 130 20:28 13.03.2023
1576 Rain 4 1014 72 10000 6.69 160 19:59 13.03.2023
1577 Snow 3 1014 77 10000 5.66 140 18:56 13.03.2023
1578 Clouds 2 1015 69 10000 5.14 130 15:25 13.03.2023
1579 Clouds 1 1014 71 10000 4.63 130 13:47 13.03.2023
1580 Clouds -1 1014 71 10000 2.57 130 11:33 13.03.2023
1581 Clouds -1 1014 72 10000 2.57 100 10:23 13.03.2023
1582 Clouds -1 1015 72 10000 2.06 80 08:26 13.03.2023
1583 Clouds -1 1015 71 10000 1.54 190 07:29 13.03.2023
1584 Clear -1 1016 66 10000 2.57 50 02:57 13.03.2023
1585 Clear 0 1016 64 10000 2.57 50 02:38 13.03.2023
1586 Clouds 2 1016 58 10000 3.09 50 00:21 13.03.2023
1587 Clear 3 1016 49 10000 4.63 30 22:19 12.03.2023
1588 Clear 4 1017 49 10000 3.09 50 20:42 12.03.2023
1589 Clear 2 1018 55 10000 3.6 40 19:27 12.03.2023
1590 Clear 2 1019 56 10000 3.09 10 18:25 12.03.2023
1591 Clear 2 1019 56 10000 3.09 10 18:25 12.03.2023
1592 Clear 2 1019 56 10000 3.09 10 18:25 12.03.2023
1593 Clear 1 1019 59 10000 4.12 30 17:41 12.03.2023
1594 Clear -1 1019 68 10000 4.63 50 15:49 12.03.2023
1595 Clear -3 1019 72 10000 5.66 50 14:43 12.03.2023
1596 Clear -4 1019 77 10000 4.12 40 13:38 12.03.2023
1597 Clear -5 1018 76 10000 2.57 350 09:39 12.03.2023
1598 Clear -3 1018 75 10000 2.06 350 07:57 12.03.2023
1599 Clear -2 1017 71 10000 2.57 290 03:58 12.03.2023
1600 Clear 1 1016 61 10000 1.54 330 00:32 12.03.2023
1601 Clear 3 1014 52 10000 4.12 20 22:59 11.03.2023
1602 Clear 3 1014 53 10000 4.12 20 22:32 11.03.2023
1603 Clear 2 1014 53 10000 5.14 30 21:43 11.03.2023
1604 Clouds 2 1014 59 10000 4.63 20 20:41 11.03.2023
1605 Clear 2 1015 60 10000 6.69 10 18:51 11.03.2023
1606 Clear -1 1015 66 10000 7.72 10 16:43 11.03.2023
1607 Clear -4 1014 76 10000 6.17 10 13:58 11.03.2023
1608 Clear -5 1014 77 10000 6.17 10 13:23 11.03.2023
1609 Clouds -5 1012 78 10000 6.17 20 10:59 11.03.2023
1610 Clear -5 1012 78 10000 7.2 20 09:36 11.03.2023
1611 Clear -5 1012 76 10000 7.2 10 08:48 11.03.2023
1612 Clouds -5 1012 76 10000 7.2 20 07:38 11.03.2023
1613 Clouds -3 1013 71 10000 2.57 160 00:21 11.03.2023
1614 Clear -1 1014 66 10000 1.54 10 22:41 10.03.2023
1615 Clouds -1 1016 67 10000 2.57 60 20:35 10.03.2023
1616 Clouds -1 1017 69 10000 2.06 60 19:39 10.03.2023
1617 Clouds -2 1017 69 10000 2.06 60 19:18 10.03.2023
1618 Clouds -3 1019 70 10000 4.12 20 17:23 10.03.2023
1619 Clouds -3 1020 72 10000 5.66 20 15:56 10.03.2023
1620 Clouds -5 1021 77 10000 2.57 360 13:45 10.03.2023
1621 Clouds -6 1021 81 10000 2.06 360 12:41 10.03.2023
1622 Clear -5 1022 78 10000 2.57 330 11:25 10.03.2023
1623 Clear -5 1022 77 10000 3.09 340 10:44 10.03.2023
1624 Clear -6 1022 79 10000 2.06 360 09:22 10.03.2023
1625 Clear -4 1023 76 10000 0 0 06:48 10.03.2023
1626 Clear -1 1024 69 10000 4.63 230 02:26 10.03.2023
1627 Clouds 1 1025 64 10000 7.2 220 21:53 09.03.2023
1628 Clouds 1 1025 63 10000 5.14 210 20:43 09.03.2023
1629 Clouds 1 1025 63 10000 3.6 240 19:50 09.03.2023
1630 Clouds 1 1025 65 10000 4.63 240 18:32 09.03.2023
1631 Clouds 0 1025 66 10000 3.6 330 17:55 09.03.2023
1632 Clouds 0 1025 66 10000 2.57 250 16:56 09.03.2023
1633 Clouds 0 1025 66 10000 2.57 250 16:26 09.03.2023
1634 Clouds -2 1025 71 10000 3.09 260 14:40 09.03.2023
1635 Clouds -2 1024 73 10000 3.09 260 12:51 09.03.2023
1636 Clouds -2 1024 74 10000 3.6 280 10:50 09.03.2023
1637 Clouds -2 1024 73 10000 3.6 280 10:25 09.03.2023
1638 Clouds -1 1024 68 10000 4.12 280 07:31 09.03.2023
1639 Clouds 0 1024 65 10000 5.14 270 02:43 09.03.2023
1640 Clouds 0 1024 63 10000 7.2 240 23:28 08.03.2023
1641 Clouds 0 1024 61 10000 7.72 230 22:19 08.03.2023
1642 Clouds 1 1025 60 10000 8.23 240 21:35 08.03.2023
1643 Clouds 0 1025 62 10000 7.72 220 20:56 08.03.2023
1644 Clouds 0 1025 62 10000 6.69 230 19:51 08.03.2023
1645 Clouds -2 1026 65 10000 6.17 260 17:53 08.03.2023
1646 Clouds -2 1026 67 10000 6.17 260 17:35 08.03.2023
1647 Clouds -3 1026 70 10000 5.14 260 16:34 08.03.2023
1648 Clouds -4 1026 75 10000 6.17 270 15:21 08.03.2023
1649 Clouds -4 1025 79 10000 5.14 260 14:46 08.03.2023
1650 Clouds -5 1025 78 4023 6.17 270 13:29 08.03.2023
1651 Clouds -4 1023 72 10000 3.6 280 10:49 08.03.2023
1652 Clouds -4 1023 73 10000 3.6 280 10:30 08.03.2023
1653 Clouds -4 1022 74 10000 4.63 280 09:45 08.03.2023
1654 Clouds -4 1022 77 10000 4.12 260 08:27 08.03.2023
1655 Clouds -2 1020 68 10000 4.12 300 03:31 08.03.2023
1656 Clouds -2 1017 64 10000 5.66 300 23:32 07.03.2023
1657 Snow -1 1016 63 10000 6.69 290 22:27 07.03.2023
1658 Snow -1 1014 58 10000 5.14 300 21:32 07.03.2023
1659 Snow -1 1013 59 10000 5.14 300 20:41 07.03.2023
1660 Snow -2 1013 58 10000 5.66 280 19:41 07.03.2023
1661 Clouds -2 1013 61 10000 5.66 270 18:21 07.03.2023
1662 Clouds -3 1012 63 10000 5.14 350 17:25 07.03.2023
1663 Clouds -3 1012 67 10000 5.66 320 16:52 07.03.2023
1664 Snow -4 1012 70 10000 7.2 350 15:45 07.03.2023
1665 Snow -4 1012 71 10000 7.2 330 14:25 07.03.2023
1666 Clouds -5 1011 76 10000 6.17 330 13:22 07.03.2023
1667 Snow -4 1011 76 10000 5.66 330 11:37 07.03.2023
1668 Snow -4 1011 75 10000 4.63 350 10:53 07.03.2023
1669 Clouds -2 1011 51 10000 6.17 330 08:29 07.03.2023
1670 Clouds 0 1013 41 10000 5.66 310 04:18 07.03.2023
1671 Clear 3 1014 34 10000 7.2 320 00:50 07.03.2023
1672 Clear 5 1015 28 10000 8.23 290 22:30 06.03.2023
1673 Clear 4 1016 30 10000 9.26 300 21:30 06.03.2023
1674 Clear 4 1016 36 10000 8.75 280 20:52 06.03.2023
1675 Clear 4 1016 36 10000 8.75 280 20:52 06.03.2023
1676 Clear 4 1016 36 10000 8.75 280 20:52 06.03.2023
1677 Clear 4 1016 36 10000 8.75 280 20:52 06.03.2023
1678 Clear 4 1016 36 10000 8.75 280 20:52 06.03.2023
1679 Clear 4 1016 36 10000 8.75 280 20:23 06.03.2023
1680 Clear 3 1017 40 10000 8.75 270 19:30 06.03.2023
1681 Clear 1 1020 45 10000 6.17 270 16:54 06.03.2023
1682 Clear -1 1021 51 10000 4.63 310 14:52 06.03.2023
1683 Clear -2 1021 54 10000 5.14 300 13:51 06.03.2023
1684 Clear -3 1021 62 10000 3.09 290 12:59 06.03.2023
1685 Clear -2 1021 61 10000 3.6 280 11:42 06.03.2023
1686 Clear -2 1020 69 10000 3.6 290 10:57 06.03.2023
1687 Clear -1 1020 71 10000 3.6 300 09:28 06.03.2023
1688 Clear 0 1020 70 10000 4.12 290 06:58 06.03.2023
1689 Clear 0 1019 75 10000 3.6 280 05:39 06.03.2023
1690 Clear 3 1019 70 10000 6.69 280 02:45 06.03.2023
1691 Clear 4 1018 65 10000 6.69 270 22:39 05.03.2023
1692 Clear 4 1018 62 10000 5.66 240 20:26 05.03.2023
1693 Clear 2 1018 78 10000 5.66 230 18:40 05.03.2023
1694 Clouds 2 1018 79 10000 5.14 220 17:47 05.03.2023
1695 Clouds 1 1019 83 10000 4.12 220 16:50 05.03.2023
1696 Mist 0 1018 88 9656 2.57 210 15:25 05.03.2023
1697 Mist -2 1018 92 4828 1.54 190 13:51 05.03.2023
1698 Mist -3 1018 95 4828 1.54 190 13:29 05.03.2023
1699 Mist -3 1017 92 8047 3.6 230 10:44 05.03.2023
1700 Clouds -2 1016 93 8047 2.57 250 08:36 05.03.2023
1701 Clouds -2 1016 93 10000 2.57 270 06:55 05.03.2023
1702 Snow -2 1013 93 9656 3.09 360 01:50 05.03.2023
1703 Snow -1 1011 91 4828 5.66 20 23:34 04.03.2023
1704 Snow -1 1008 89 2816 6.17 40 20:41 04.03.2023
1705 Snow -2 1007 89 4023 6.17 30 18:58 04.03.2023
1706 Snow -3 1006 90 1609 8.23 30 17:26 04.03.2023
1707 Snow -3 1006 90 1609 8.23 30 17:25 04.03.2023
1708 Snow -3 1006 91 2012 7.2 30 15:57 04.03.2023
1709 Snow -5 1005 91 805 8.75 40 13:48 04.03.2023
1710 Snow -6 1006 87 8047 8.75 30 10:33 04.03.2023
1711 Snow -6 1007 87 3621 5.66 20 08:47 04.03.2023
1712 Clouds -6 1014 63 10000 6.69 30 02:46 04.03.2023
1713 Clouds -7 1016 61 10000 6.69 40 01:25 04.03.2023
1714 Clear -4 1018 55 10000 4.12 20 21:49 03.03.2023
1715 Clear -5 1022 56 10000 3.09 100 18:52 03.03.2023
1716 Clouds -5 1022 58 10000 3.09 50 17:41 03.03.2023
1717 Clouds -6 1022 61 10000 2.57 50 16:37 03.03.2023
1718 Clouds -7 1022 64 10000 3.6 70 15:38 03.03.2023
1719 Clouds -8 1021 66 10000 3.09 60 14:58 03.03.2023
1720 Clear -11 1020 69 10000 3.6 20 12:39 03.03.2023
1721 Clear -8 1018 63 10000 4.12 340 10:35 03.03.2023
1722 Clear -4 1015 62 10000 4.12 360 07:57 03.03.2023
1723 Clouds 0 1011 74 10000 4.63 310 03:33 03.03.2023
1724 Snow 1 1005 88 4023 3.6 290 21:39 02.03.2023
1725 Snow 1 1004 88 2816 6.17 360 20:23 02.03.2023
1726 Snow 0 1003 89 2816 6.17 350 19:48 02.03.2023
1727 Snow 0 1003 89 8047 5.66 350 18:59 02.03.2023
1728 Snow -1 1003 91 2012 6.17 10 17:47 02.03.2023
1729 Snow -1 1003 91 8047 6.17 30 16:59 02.03.2023
1730 Snow -1 1004 92 2414 7.72 10 15:33 02.03.2023
1731 Snow -1 1005 92 2816 7.72 20 14:32 02.03.2023
1732 Snow -1 1006 89 9656 7.2 30 11:55 02.03.2023
1733 Snow 0 1009 82 10000 5.14 30 08:51 02.03.2023
1734 Snow 0 1013 80 10000 4.63 80 05:33 02.03.2023
1735 Clouds 1 1016 68 10000 2.57 80 00:44 02.03.2023
1736 Clouds 2 1016 67 10000 2.57 130 22:50 01.03.2023
1737 Clouds 2 1016 67 10000 2.57 130 22:26 01.03.2023
1738 Clear 2 1018 67 10000 2.06 220 19:43 01.03.2023
1739 Clear 1 1019 71 10000 3.09 200 18:44 01.03.2023
1740 Clear 1 1019 69 10000 3.09 200 18:18 01.03.2023
1741 Clear 0 1019 72 10000 3.09 250 16:58 01.03.2023
1742 Clear -2 1019 77 10000 4.12 210 14:44 01.03.2023
1743 Clouds -3 1019 80 10000 4.12 240 13:33 01.03.2023
1744 Clouds -2 1018 78 10000 4.12 230 11:41 01.03.2023
1745 Clear -2 1017 74 10000 5.14 250 10:34 01.03.2023
1746 Clear -2 1016 77 10000 6.69 240 09:38 01.03.2023
1747 Clouds 0 1012 83 10000 7.72 260 04:47 01.03.2023
1748 Snow 0 1005 94 2012 10.29 170 23:21 28.02.2023
1749 Snow -1 1005 92 3219 8.23 150 21:54 28.02.2023
1750 Snow -1 1005 92 1207 7.72 150 21:24 28.02.2023
1751 Snow -2 1005 90 805 5.66 90 20:27 28.02.2023
1752 Snow -3 1006 90 1006 5.66 80 18:34 28.02.2023
1753 Snow -4 1006 88 1006 6.69 70 17:26 28.02.2023
1754 Snow -4 1007 87 604 7.72 70 16:36 28.02.2023
1755 Snow -4 1007 87 2816 7.72 80 15:39 28.02.2023
1756 Snow -4 1007 86 1609 6.69 70 14:50 28.02.2023
1757 Snow -5 1007 80 4023 6.17 80 12:21 28.02.2023
1758 Snow -6 1007 82 10000 5.66 50 11:24 28.02.2023
1759 Clouds -6 1008 72 10000 6.17 40 08:21 28.02.2023
1760 Clouds -7 1010 70 10000 7.2 40 06:31 28.02.2023
1761 Clouds -7 1012 68 10000 7.2 50 03:31 28.02.2023
1762 Clouds -7 1014 65 10000 5.14 50 00:38 28.02.2023
1763 Clear -6 1015 61 10000 3.6 90 22:44 27.02.2023
1764 Clear -5 1016 61 10000 3.09 110 21:41 27.02.2023
1765 Clouds -5 1016 59 10000 2.06 70 20:48 27.02.2023
1766 Clouds -5 1016 60 10000 2.06 70 20:18 27.02.2023
1767 Clear -6 1018 60 10000 4.12 90 18:19 27.02.2023
1768 Clear -7 1018 69 10000 4.12 50 16:53 27.02.2023
1769 Mist -10 1018 78 2816 2.06 360 14:52 27.02.2023
1770 Clear -16 1017 87 3219 1.54 80 12:29 27.02.2023
1771 Mist -15 1017 89 4828 1.03 210 11:34 27.02.2023
1772 Mist -11 1014 87 2816 3.6 340 08:25 27.02.2023
1773 Clouds -9 1011 89 3621 2.06 290 06:22 27.02.2023
1774 Mist -9 1007 79 9656 1.03 330 23:55 26.02.2023
1775 Clear -7 1007 74 10000 3.09 330 22:45 26.02.2023
1776 Clouds -7 1006 75 10000 3.09 10 20:58 26.02.2023
1777 Snow -8 1006 79 8047 4.63 350 19:38 26.02.2023
1778 Snow -8 1006 77 9656 4.12 80 18:25 26.02.2023
1779 Snow -9 1009 78 10000 3.6 90 16:44 26.02.2023
1780 Snow -9 1010 79 10000 4.12 90 16:21 26.02.2023
1781 Clouds -13 1012 85 10000 4.12 40 14:39 26.02.2023
1782 Clouds -14 1014 84 10000 4.12 30 13:19 26.02.2023
1783 Clouds -14 1016 84 10000 3.09 60 10:39 26.02.2023
1784 Clouds -14 1016 84 10000 3.09 60 10:18 26.02.2023
1785 Clouds -15 1019 85 10000 2.06 160 08:53 26.02.2023
1786 Clouds -16 1019 87 10000 1.54 120 08:29 26.02.2023
1787 Snow -13 1025 78 8047 1.54 170 23:49 25.02.2023
1788 Snow -12 1026 74 4828 2.06 170 22:29 25.02.2023
1789 Snow -13 1027 72 3219 2.06 160 21:33 25.02.2023
1790 Snow -13 1028 71 2414 2.06 210 20:50 25.02.2023
1791 Clouds -13 1028 71 2414 2.06 210 20:24 25.02.2023
1792 Clouds -13 1030 54 10000 2.06 230 18:53 25.02.2023
1793 Clouds -13 1031 55 10000 3.09 180 17:44 25.02.2023
1794 Clear -15 1033 63 10000 1.54 360 15:51 25.02.2023
1795 Clear -17 1034 67 10000 1.54 200 14:25 25.02.2023
1796 Clear -19 1036 67 10000 2.06 50 10:35 25.02.2023
1797 Clear -17 1036 59 10000 1.54 310 08:29 25.02.2023
1798 Clear -15 1035 49 10000 3.09 280 05:40 25.02.2023
1799 Clear -13 1035 45 10000 3.6 290 03:30 25.02.2023
1800 Clouds -9 1029 53 10000 7.72 260 21:34 24.02.2023
1801 Clouds -10 1029 57 10000 7.72 270 20:50 24.02.2023
1802 Snow -10 1028 61 10000 5.66 290 19:40 24.02.2023
1803 Clouds -12 1028 65 10000 5.14 320 17:57 24.02.2023
1804 Clouds -12 1028 64 10000 5.14 320 17:23 24.02.2023
1805 Clouds -13 1026 66 10000 5.66 360 15:47 24.02.2023
1806 Clouds -14 1024 70 10000 6.69 360 14:58 24.02.2023
1807 Clouds -14 1024 71 10000 6.69 360 14:23 24.02.2023
1808 Clouds -14 1023 73 9656 7.72 10 13:52 24.02.2023
1809 Clouds -12 1020 76 10000 4.12 20 12:35 24.02.2023
1810 Clouds -12 1019 77 10000 5.14 340 11:54 24.02.2023
1811 Clouds -11 1018 78 10000 4.63 330 10:19 24.02.2023
1812 Snow -12 1016 83 9656 6.69 320 08:26 24.02.2023
1813 Clouds -11 1014 85 6437 4.63 360 06:29 24.02.2023
1814 Snow -11 1016 79 10000 7.72 50 22:40 23.02.2023
1815 Snow -11 1016 79 10000 7.72 50 22:22 23.02.2023
1816 Snow -11 1018 81 1006 10.29 40 20:45 23.02.2023
1817 Snow -11 1018 82 1609 8.75 40 19:58 23.02.2023
1818 Snow -11 1019 83 1609 8.75 40 19:23 23.02.2023
1819 Snow -11 1019 81 3219 10.29 30 17:52 23.02.2023
1820 Snow -12 1019 80 4828 10.8 40 16:57 23.02.2023
1821 Snow -12 1019 80 4828 10.8 40 16:23 23.02.2023
1822 Snow -12 1020 82 1609 9.77 30 14:51 23.02.2023
1823 Snow -12 1020 83 2012 9.77 30 12:29 23.02.2023
1824 Snow -12 1020 80 2012 10.29 20 11:45 23.02.2023
1825 Snow -11 1020 66 2816 8.75 40 09:31 23.02.2023
1826 Clouds -10 1022 56 10000 9.26 50 07:36 23.02.2023
1827 Clouds -7 1024 54 10000 4.63 70 04:21 23.02.2023
1828 Clouds -7 1023 56 10000 4.12 60 03:46 23.02.2023
1829 Clouds -7 1023 59 10000 3.09 80 02:49 23.02.2023
1830 Clouds -7 1024 51 10000 2.06 90 00:18 23.02.2023
1831 Clear -5 1024 50 10000 2.57 250 22:26 22.02.2023
1832 Clear -6 1024 50 10000 3.6 260 20:27 22.02.2023
1833 Clear -6 1024 54 10000 4.63 230 19:18 22.02.2023
1834 Clear -7 1023 55 10000 3.6 310 18:51 22.02.2023
1835 Clear -7 1023 56 10000 3.6 310 18:19 22.02.2023
1836 Clear -8 1024 58 10000 4.12 270 17:31 22.02.2023
1837 Clear -8 1023 60 10000 3.09 260 16:36 22.02.2023
1838 Clear -10 1022 66 10000 4.63 290 14:47 22.02.2023
1839 Clouds -10 1020 71 10000 3.6 280 13:50 22.02.2023
1840 Clouds -9 1018 68 10000 5.14 270 11:32 22.02.2023
1841 Clouds -8 1014 73 10000 6.17 280 09:32 22.02.2023
1842 Clouds -7 1013 74 10000 7.72 270 08:43 22.02.2023
1843 Clouds -5 1009 81 10000 4.63 250 06:40 22.02.2023
1844 Clouds -6 1005 84 10000 4.12 220 03:27 22.02.2023
1845 Clouds -6 998 66 10000 7.2 30 22:23 21.02.2023
1846 Clear -7 1000 67 10000 6.17 40 20:40 21.02.2023
1847 Clouds -8 1001 66 10000 6.17 30 19:46 21.02.2023
1848 Clear -9 1003 66 10000 7.2 50 18:44 21.02.2023
1849 Clear -10 1004 68 10000 7.72 50 17:18 21.02.2023
1850 Clouds -12 1006 69 10000 5.66 20 15:42 21.02.2023
1851 Clear -14 1008 71 10000 5.66 40 12:25 21.02.2023
1852 Clear -13 1009 71 10000 6.17 50 11:33 21.02.2023
1853 Clear -10 1009 65 10000 4.63 10 07:39 21.02.2023
1854 Clouds -5 1009 63 10000 5.66 360 03:58 21.02.2023
1855 Clouds 3 1003 55 10000 8.23 280 22:20 20.02.2023
1856 Clouds 2 1002 78 10000 5.14 290 21:20 20.02.2023
1857 Clouds 4 1001 81 10000 7.2 220 19:50 20.02.2023
1858 Clouds 4 1001 77 10000 6.69 260 18:38 20.02.2023
1859 Clouds 5 1002 76 10000 6.17 220 16:38 20.02.2023
1860 Clouds 4 1002 71 10000 4.63 190 14:40 20.02.2023
1861 Clouds 4 1003 70 10000 6.69 170 11:26 20.02.2023
1862 Clouds 4 1004 68 10000 5.14 170 09:46 20.02.2023
1863 Clouds 4 1006 68 10000 5.14 190 07:58 20.02.2023
1864 Clouds 4 1007 63 10000 7.2 180 05:47 20.02.2023
1865 Clouds 4 1009 62 10000 10.29 170 00:33 20.02.2023
1866 Clouds 4 1009 63 10000 8.75 170 23:37 19.02.2023
1867 Clear 4 1011 61 10000 10.8 160 22:43 19.02.2023
1868 Clouds 4 1013 62 10000 8.75 140 21:49 19.02.2023
1869 Clear 4 1015 65 10000 9.26 160 20:40 19.02.2023
1870 Clear 4 1017 68 10000 8.23 170 19:38 19.02.2023
1871 Clear 3 1018 68 10000 8.23 170 19:20 19.02.2023
1872 Clear 3 1020 67 10000 6.17 140 18:28 19.02.2023
1873 Clouds 3 1021 68 10000 6.69 160 17:39 19.02.2023
1874 Clouds 2 1021 69 10000 6.69 160 17:21 19.02.2023
1875 Clouds 1 1024 76 10000 3.09 160 15:39 19.02.2023
1876 Clouds 0 1024 72 10000 3.09 160 15:18 19.02.2023
1877 Clouds -2 1024 76 10000 3.6 150 14:25 19.02.2023
1878 Clouds -2 1025 84 10000 3.09 170 13:21 19.02.2023
1879 Clear -3 1025 88 10000 3.09 200 11:32 19.02.2023
1880 Clear -1 1025 80 10000 3.6 230 09:45 19.02.2023
1881 Clouds 0 1024 74 10000 6.69 240 07:58 19.02.2023
1882 Clouds 0 1024 76 10000 7.72 250 06:19 19.02.2023
1883 Clouds -1 1020 83 10000 8.75 230 23:47 18.02.2023
1884 Snow -2 1019 78 10000 8.75 230 21:54 18.02.2023
1885 Clouds -2 1020 74 10000 7.72 250 19:53 18.02.2023
1886 Clouds -4 1021 72 10000 6.69 210 18:36 18.02.2023
1887 Clouds -4 1021 72 10000 6.69 210 18:36 18.02.2023
1888 Clouds -6 1022 72 10000 7.2 210 17:31 18.02.2023
1889 Clouds -7 1023 73 10000 6.17 200 16:35 18.02.2023
1890 Clear -13 1022 78 10000 3.6 240 12:44 18.02.2023
1891 Clouds -11 1021 71 10000 1.03 280 08:35 18.02.2023
1892 Clouds -10 1020 64 10000 2.06 350 07:53 18.02.2023
1893 Clear -10 1019 66 10000 4.12 350 05:49 18.02.2023
1894 Clouds -8 1017 65 10000 5.66 350 03:39 18.02.2023
1895 Clouds -7 1014 75 10000 3.6 10 23:29 17.02.2023
1896 Snow -7 1011 74 10000 6.69 340 21:39 17.02.2023
1897 Snow -7 1009 73 10000 6.69 340 20:24 17.02.2023
1898 Snow -7 1007 80 10000 8.23 360 18:31 17.02.2023
1899 Snow -8 1005 89 805 9.77 20 15:52 17.02.2023
1900 Snow -7 1004 88 1207 10.8 10 13:33 17.02.2023
1901 Snow -6 1005 88 2414 9.77 20 12:37 17.02.2023
1902 Snow -5 1005 89 2816 9.77 30 10:51 17.02.2023
1903 Snow -4 1009 85 3621 11.32 10 08:26 17.02.2023
1904 Snow -2 1011 72 10000 10.29 40 06:52 17.02.2023
1905 Clouds 2 1015 74 10000 2.06 10 02:29 17.02.2023
1906 Clouds 3 1016 66 10000 5.14 280 22:34 16.02.2023
1907 Clouds 3 1015 66 10000 4.12 280 21:33 16.02.2023
1908 Clouds 3 1015 66 10000 5.66 280 20:40 16.02.2023
1909 Clouds 3 1015 68 10000 5.66 280 20:18 16.02.2023
1910 Clouds 3 1016 65 10000 4.63 280 19:23 16.02.2023
1911 Clouds 4 1017 66 10000 5.14 280 17:30 16.02.2023
1912 Clouds 4 1016 65 10000 6.69 260 16:55 16.02.2023
1913 Clouds 4 1015 65 10000 8.23 250 15:23 16.02.2023
1914 Clouds 5 1011 73 10000 8.23 250 12:48 16.02.2023
1915 Clear 5 1009 75 10000 9.26 240 11:48 16.02.2023
1916 Clouds 7 1005 71 10000 10.8 250 06:52 16.02.2023
1917 Clouds 8 1002 77 10000 7.72 210 03:56 16.02.2023
1918 Clouds 8 1002 77 10000 7.72 210 03:37 16.02.2023
1919 Clouds 5 1003 88 10000 6.17 180 00:44 16.02.2023
1920 Clouds 6 1003 71 10000 8.23 180 21:55 15.02.2023
1921 Rain 7 1003 62 10000 8.75 180 20:38 15.02.2023
1922 Clouds 6 1003 62 10000 8.75 180 20:20 15.02.2023
1923 Rain 5 1006 66 10000 5.28 167 18:35 15.02.2023
1924 Clouds 4 1012 69 10000 7.72 190 15:21 15.02.2023
1925 Clouds 3 1012 71 10000 4.63 140 14:43 15.02.2023
1926 Clouds 3 1012 71 10000 4.63 140 14:43 15.02.2023
1927 Clouds 1 1014 74 10000 5.14 160 12:44 15.02.2023
1928 Clouds 0 1015 72 10000 4.63 140 10:26 15.02.2023
1929 Clear -1 1017 71 10000 4.12 150 08:58 15.02.2023
1930 Clear -2 1018 69 10000 4.12 150 07:24 15.02.2023
1931 Clear 0 1019 66 10000 3.6 140 03:56 15.02.2023
1932 Clear 1 1019 69 10000 1.54 200 01:33 15.02.2023
1933 Clear 5 1017 51 10000 6.17 220 21:47 14.02.2023
1934 Clear 5 1016 51 10000 4.63 210 20:54 14.02.2023
1935 Clear 5 1015 51 10000 4.12 280 19:19 14.02.2023
1936 Clear 4 1015 57 10000 4.63 260 18:38 14.02.2023
1937 Clouds 3 1015 64 10000 6.69 290 17:39 14.02.2023
1938 Clouds 3 1015 64 10000 6.69 290 17:20 14.02.2023
1939 Clouds 0 1008 83 10000 3.6 240 11:27 14.02.2023
1940 Clouds 0 1007 83 10000 3.09 250 10:39 14.02.2023
1941 Clouds 0 1001 80 10000 5.14 20 03:57 14.02.2023
1942 Clouds 3 999 70 10000 4.12 40 23:19 13.02.2023
1943 Clear 3 1000 65 10000 4.63 60 21:38 13.02.2023
1944 Clear 4 1001 59 10000 3.6 20 20:54 13.02.2023
1945 Clear 4 1001 59 10000 3.6 20 20:19 13.02.2023
1946 Clear 3 1003 61 10000 3.09 100 18:23 13.02.2023
1947 Clear 1 1006 73 10000 3.6 40 16:42 13.02.2023
1948 Clouds -2 1007 89 10000 4.63 30 14:28 13.02.2023
1949 Clear -4 1007 88 10000 4.12 20 13:44 13.02.2023
1950 Clear -4 1009 89 10000 4.12 30 10:53 13.02.2023
1951 Clear -4 1010 89 10000 3.09 10 09:42 13.02.2023
1952 Clear -3 1011 89 10000 3.6 360 08:18 13.02.2023
1953 Clouds 0 1014 81 10000 1.54 110 02:37 13.02.2023
1954 Clouds 0 1014 80 10000 1.54 90 01:59 13.02.2023
1955 Clouds 2 1015 72 10000 2.57 200 21:48 12.02.2023
1956 Clouds 2 1016 72 10000 4.12 260 19:58 12.02.2023
1957 Clouds 1 1017 72 10000 3.6 270 18:55 12.02.2023
1958 Clouds 1 1018 74 10000 4.63 250 17:41 12.02.2023
1959 Clouds 1 1018 76 10000 6.69 250 16:51 12.02.2023
1960 Clouds 0 1018 77 10000 5.14 250 15:49 12.02.2023
1961 Clouds 0 1018 72 10000 5.66 250 13:33 12.02.2023
1962 Clouds -1 1017 74 10000 5.14 240 12:46 12.02.2023
1963 Clear -2 1016 77 10000 5.66 240 10:27 12.02.2023
1964 Clear -2 1018 78 10000 4.63 220 06:40 12.02.2023
1965 Clouds -3 1021 68 10000 5.14 180 00:46 12.02.2023
1966 Clear -3 1022 60 10000 6.17 220 22:37 11.02.2023
1967 Clear -3 1023 61 10000 8.75 240 20:26 11.02.2023
1968 Clear -4 1025 55 10000 6.69 250 17:47 11.02.2023
1969 Clear -5 1025 58 10000 5.66 260 16:45 11.02.2023
1970 Clear -7 1023 69 10000 4.63 250 14:59 11.02.2023
1971 Clouds -6 1020 75 10000 4.12 310 12:38 11.02.2023
1972 Clouds -6 1019 80 10000 4.63 300 11:33 11.02.2023
1973 Snow -5 1018 89 10000 5.14 310 10:22 11.02.2023
1974 Clouds 1 1011 76 10000 6.69 280 00:58 11.02.2023
1975 Clouds 1 1011 76 10000 6.69 280 00:19 11.02.2023
1976 Clouds 2 1008 76 10000 9.26 280 22:37 10.02.2023
1977 Clouds 2 1008 76 10000 9.26 280 22:19 10.02.2023
1978 Clouds 3 1004 83 10000 12.35 250 19:57 10.02.2023
1979 Clouds 3 1004 83 10000 12.35 250 19:39 10.02.2023
1980 Clouds 3 1003 86 10000 13.38 240 18:22 10.02.2023
1981 Clouds 4 1002 86 10000 13.38 240 16:57 10.02.2023
1982 Clouds 4 1001 85 10000 10.8 230 15:41 10.02.2023
1983 Clouds 4 1001 83 10000 11.32 220 14:54 10.02.2023
1984 Clouds 5 1001 82 10000 11.32 220 14:19 10.02.2023
1985 Clouds 5 1001 84 10000 10.29 220 13:18 10.02.2023
1986 Clouds 4 1000 94 10000 6.69 210 11:19 10.02.2023
1987 Mist 3 999 95 4828 5.14 190 10:26 10.02.2023
1988 Mist 1 1000 95 2414 2.57 40 08:59 10.02.2023
1989 Snow 1 1003 96 2414 4.63 30 06:32 10.02.2023
1990 Snow 0 1013 94 4828 6.69 60 23:44 09.02.2023
1991 Snow 0 1015 93 2012 6.17 70 22:41 09.02.2023
1992 Snow 0 1017 88 4828 5.66 50 21:53 09.02.2023
1993 Clear 1 1021 82 10000 4.12 40 18:56 09.02.2023
1994 Clear 1 1022 81 10000 3.09 70 17:43 09.02.2023
1995 Clear 0 1023 84 10000 4.12 80 16:47 09.02.2023
1996 Clear -3 1024 90 10000 2.57 30 14:58 09.02.2023
1997 Clear -4 1024 90 10000 1.54 360 11:30 09.02.2023
1998 Clear -4 1024 91 10000 1.54 150 10:40 09.02.2023
1999 Clouds 1 1023 76 10000 1.54 50 03:32 09.02.2023
2000 Clouds 4 1019 65 10000 8.75 260 22:31 08.02.2023
2001 Clouds 4 1019 62 10000 7.2 250 21:34 08.02.2023
2002 Clouds 4 1019 65 10000 8.75 260 20:49 08.02.2023
2003 Clouds 4 1019 61 10000 7.2 260 19:23 08.02.2023
2004 Clouds 3 1019 70 10000 6.17 270 18:46 08.02.2023
2005 Clear 3 1018 71 10000 5.66 270 17:23 08.02.2023
2006 Clouds 3 1019 73 10000 6.17 270 16:57 08.02.2023
2007 Clouds 2 1017 82 10000 4.63 260 14:35 08.02.2023
2008 Clouds 2 1016 80 10000 6.17 270 13:52 08.02.2023
2009 Clouds 1 1016 81 10000 5.66 280 12:31 08.02.2023
2010 Clouds 1 1014 83 10000 5.14 270 10:47 08.02.2023
2011 Clouds 1 1014 83 10000 5.14 270 10:47 08.02.2023
2012 Clouds 1 1012 88 10000 4.63 270 07:50 08.02.2023
2013 Mist 1 1011 89 4023 9.26 180 03:53 08.02.2023
2014 Snow -1 1012 87 10000 5.66 170 00:53 08.02.2023
2015 Clear -1 1013 55 10000 4.63 130 20:46 07.02.2023
2016 Clear -4 1016 64 10000 6.17 80 19:31 07.02.2023
2017 Haze -7 1021 69 9656 4.12 90 17:49 07.02.2023
2018 Clear -13 1025 82 10000 3.6 40 14:41 07.02.2023
2019 Clouds -14 1027 99 9959 1.7 49 14:19 07.02.2023
2020 Clear -14 1026 85 10000 4.12 40 13:45 07.02.2023
2021 Clear -13 1028 83 10000 3.6 10 11:53 07.02.2023
2022 Clear -13 1028 86 10000 4.12 30 10:37 07.02.2023
2023 Clear -14 1029 82 10000 1.03 50 05:43 07.02.2023
2024 Clear -10 1028 67 10000 2.06 60 03:20 07.02.2023
2025 Clear -5 1026 58 10000 2.57 50 22:42 06.02.2023
2026 Clear -3 1025 62 10000 2.57 60 20:54 06.02.2023
2027 Clear -4 1025 63 10000 5.14 10 19:19 06.02.2023
2028 Clear -4 1023 73 10000 5.66 10 16:46 06.02.2023
2029 Mist -5 1022 82 9656 2.57 360 15:24 06.02.2023
2030 Mist -7 1017 88 9656 4.12 360 12:22 06.02.2023
2031 Snow -7 1015 87 8047 1.54 10 10:28 06.02.2023
2032 Snow -7 1012 86 10000 2.06 10 05:32 06.02.2023
2033 Snow -8 1011 82 10000 4.12 20 22:42 05.02.2023
2034 Snow -8 1011 79 10000 4.12 30 21:28 05.02.2023
2035 Snow -8 1011 77 10000 4.63 20 20:51 05.02.2023
2036 Clouds -8 1013 76 10000 4.63 10 18:41 05.02.2023
2037 Clouds -8 1014 76 10000 3.6 10 17:47 05.02.2023
2038 Clouds -13 1016 80 10000 3.6 10 13:31 05.02.2023
2039 Clouds -12 1017 82 9656 4.12 20 12:25 05.02.2023
2040 Clouds -13 1017 82 8047 5.66 20 11:44 05.02.2023
2041 Clouds -13 1018 80 9656 5.14 20 10:52 05.02.2023
2042 Snow -13 1021 69 10000 4.12 180 07:26 05.02.2023
2043 Clouds -16 1023 70 10000 3.6 150 05:21 05.02.2023
2044 Clouds -20 1030 54 10000 3.6 170 22:37 04.02.2023
2045 Clear -20 1031 53 10000 4.63 200 21:31 04.02.2023
2046 Clear -23 1034 55 10000 6.17 250 18:43 04.02.2023
2047 Clear -26 1036 53 10000 7.72 250 16:30 04.02.2023
2048 Clear -28 1035 57 10000 7.2 250 14:25 04.02.2023
2049 Clear -28 1035 57 10000 7.2 250 14:25 04.02.2023
2050 Clear -29 1034 58 10000 6.69 270 12:18 04.02.2023
2051 Clear -29 1034 58 10000 8.23 260 11:32 04.02.2023
2052 Clear -28 1033 60 10000 8.75 270 09:32 04.02.2023
2053 Clouds -27 1030 54 10000 9.26 280 06:20 04.02.2023
2054 Clouds -26 1026 50 10000 7.2 300 00:44 04.02.2023
2055 Clouds -26 1025 52 10000 8.23 290 23:42 03.02.2023
2056 Clouds -26 1023 49 10000 10.29 280 21:47 03.02.2023
2057 Clouds -25 1023 50 10000 10.29 280 21:29 03.02.2023
2058 Clouds -25 1021 51 10000 9.77 270 19:42 03.02.2023
2059 Clouds -25 1021 51 10000 9.26 300 18:30 03.02.2023
2060 Clouds -25 1021 51 10000 8.23 300 17:54 03.02.2023
2061 Clear -24 1019 53 10000 10.8 280 15:41 03.02.2023
2062 Clear -24 1018 50 10000 10.29 290 14:24 03.02.2023
2063 Clear -23 1017 52 10000 9.26 290 13:23 03.02.2023
2064 Clouds -19 1014 49 10000 7.72 300 11:58 03.02.2023
2065 Clouds -18 1013 49 10000 7.2 300 10:36 03.02.2023
2066 Clouds -17 1013 46 10000 8.23 300 09:54 03.02.2023
2067 Clear -16 1010 56 9656 7.72 290 08:22 03.02.2023
2068 Clear -14 1009 56 10000 10.8 290 07:56 03.02.2023
2069 Clear -14 1008 57 8047 10.8 290 07:30 03.02.2023
2070 Snow -2 1000 87 6437 10.29 210 03:23 03.02.2023
2071 Clouds -2 1001 87 4828 10.8 220 02:22 03.02.2023
2072 Clouds -2 1006 70 10000 7.72 200 21:40 02.02.2023
2073 Clouds -2 1012 80 9656 8.23 200 18:30 02.02.2023
2074 Snow -3 1015 81 10000 6.17 210 16:39 02.02.2023
2075 Clouds -4 1017 81 10000 6.17 230 15:32 02.02.2023
2076 Snow -5 1017 91 3219 6.17 230 12:23 02.02.2023
2077 Clouds -6 1018 73 10000 5.66 220 09:48 02.02.2023
2078 Clouds -7 1021 69 10000 5.66 220 05:41 02.02.2023
2079 Clouds -8 1021 72 10000 6.17 220 04:20 02.02.2023
2080 Clear -8 1021 69 10000 3.6 200 23:53 01.02.2023
2081 Clouds -7 1021 69 10000 4.63 210 21:34 01.02.2023
2082 Clear -8 1022 73 10000 4.63 230 20:47 01.02.2023
2083 Clouds -9 1022 78 10000 4.12 220 19:40 01.02.2023
2084 Clouds -12 1023 77 10000 2.57 190 17:25 01.02.2023
2085 Clear -21 1025 81 10000 1.03 120 14:22 01.02.2023
2086 Clear -22 1025 81 10000 2.57 320 13:20 01.02.2023
2087 Clear -22 1025 80 10000 1.54 110 12:27 01.02.2023
2088 Clear -22 1025 81 10000 1.03 130 11:52 01.02.2023
2089 Clear -20 1026 81 10000 1.54 140 08:42 01.02.2023
2090 Clear -12 1026 49 10000 4.63 230 23:58 31.01.2023
2091 Clear -9 1027 56 10000 5.14 220 21:26 31.01.2023
2092 Clear -10 1027 54 10000 4.12 260 19:32 31.01.2023
2093 Clear -11 1028 55 10000 3.6 280 17:54 31.01.2023
2094 Clear -12 1027 60 10000 5.66 320 15:36 31.01.2023
2095 Clear -13 1027 55 10000 5.14 320 15:18 31.01.2023
2096 Clear -12 1026 97 10000 1.78 248 13:45 31.01.2023
2097 Clouds -9 1022 80 10000 4.63 280 11:43 31.01.2023
2098 Clouds -8 1021 82 10000 4.63 260 10:26 31.01.2023
2099 Clouds -8 1020 88 10000 2.57 250 09:50 31.01.2023
2100 Clouds -8 1020 91 9656 2.06 260 08:59 31.01.2023
2101 Clouds -9 1020 91 10000 2.06 260 08:34 31.01.2023
2102 Snow -9 1020 90 6437 2.06 140 05:32 31.01.2023
2103 Snow -9 1022 87 3621 2.06 20 23:54 30.01.2023
2104 Snow -9 1022 85 3621 3.09 20 22:50 30.01.2023
2105 Snow -9 1022 85 9656 2.06 40 21:56 30.01.2023
2106 Snow -8 1022 84 4828 3.09 20 20:47 30.01.2023
2107 Snow -8 1023 85 2816 4.12 10 19:49 30.01.2023
2108 Clouds -9 1024 85 2816 2.57 10 17:28 30.01.2023
2109 Clouds -9 1025 88 9656 3.09 350 15:35 30.01.2023
2110 Clouds -12 1026 100 5488 1.3 297 14:26 30.01.2023
2111 Clouds -10 1025 100 3941 1.35 222 12:26 30.01.2023
2112 Clouds -8 1024 91 10000 3.09 250 10:43 30.01.2023
2113 Clouds -8 1024 90 10000 2.57 240 09:54 30.01.2023
2114 Clouds -8 1024 93 10000 1.54 250 08:41 30.01.2023
2115 Clouds -9 1023 88 8047 3.09 270 06:23 30.01.2023
2116 Clouds -8 1019 88 10000 4.12 360 01:38 30.01.2023
2117 Snow -9 1018 89 1207 5.14 20 23:34 29.01.2023
2118 Snow -9 1017 89 1609 7.72 20 22:37 29.01.2023
2119 Snow -9 1017 88 1609 6.17 20 21:30 29.01.2023
2120 Snow -9 1017 88 1207 7.72 20 20:36 29.01.2023
2121 Snow -10 1018 87 1207 8.23 20 19:33 29.01.2023
2122 Snow -10 1019 86 2012 8.75 20 18:42 29.01.2023
2123 Snow -10 1021 86 1006 7.72 30 17:28 29.01.2023
2124 Snow -10 1023 85 1609 10.8 40 16:20 29.01.2023
2125 Snow -9 1024 79 8047 8.23 40 14:43 29.01.2023
2126 Snow -8 1026 66 10000 6.17 40 13:25 29.01.2023
2127 Snow -7 1026 62 10000 6.17 30 12:39 29.01.2023
2128 Clouds -7 1026 62 10000 6.17 30 12:21 29.01.2023
2129 Clouds -7 1027 62 10000 5.66 40 11:42 29.01.2023
2130 Clouds -7 1027 62 10000 5.66 40 11:23 29.01.2023
2131 Clouds -4 1027 70 10000 2.57 40 08:55 29.01.2023
2132 Clouds -3 1026 69 10000 2.06 10 06:49 29.01.2023
2133 Clouds -1 1023 64 10000 5.66 260 00:19 29.01.2023
2134 Clouds 0 1019 68 10000 8.23 250 21:50 28.01.2023
2135 Clouds 1 1017 68 10000 8.23 240 20:24 28.01.2023
2136 Clouds 1 1016 64 10000 11.32 260 19:46 28.01.2023
2137 Clouds 2 1015 65 10000 10.8 250 18:23 28.01.2023
2138 Clouds 1 1014 82 10000 12.86 270 16:59 28.01.2023
2139 Clouds 1 1014 82 10000 12.86 270 16:59 28.01.2023
2140 Clouds 2 1014 85 10000 8.75 220 16:20 28.01.2023
2141 Clouds 1 1013 88 10000 7.2 230 15:38 28.01.2023
2142 Clouds 1 1013 88 10000 7.2 230 15:38 28.01.2023
2143 Snow -1 1012 93 4828 6.17 190 14:21 28.01.2023
2144 Snow -2 1011 91 2816 7.2 180 12:49 28.01.2023
2145 Snow -1 1012 87 10000 5.66 170 11:54 28.01.2023
2146 Snow -1 1012 82 10000 7.72 180 10:34 28.01.2023
2147 Clear -4 1015 83 10000 4.63 170 06:52 28.01.2023
2148 Clouds -4 1017 88 10000 1.54 130 01:36 28.01.2023
2149 Snow -4 1017 90 4828 2.57 100 00:23 28.01.2023
2150 Clouds -4 1016 78 6437 1.54 60 20:57 27.01.2023
2151 Clear -5 1017 65 10000 2.57 230 18:25 27.01.2023
2152 Clear -6 1018 71 10000 2.57 250 17:57 27.01.2023
2153 Clear -6 1018 68 10000 2.57 250 17:18 27.01.2023
2154 Clear -7 1018 71 10000 4.63 250 16:34 27.01.2023
2155 Clouds -12 1017 85 10000 1.54 280 14:55 27.01.2023
2156 Clouds -12 1017 85 10000 1.54 280 14:24 27.01.2023
2157 Clouds -10 1015 77 10000 3.09 240 12:49 27.01.2023
2158 Clouds -7 1012 72 10000 4.12 260 08:42 27.01.2023
2159 Clouds -5 1009 79 10000 4.63 240 05:58 27.01.2023
2160 Snow -5 1000 84 10000 8.23 260 22:56 26.01.2023
2161 Snow -4 999 86 9656 9.26 270 21:40 26.01.2023
2162 Snow -4 997 89 4828 7.2 260 20:39 26.01.2023
2163 Snow -5 996 87 8047 3.6 290 19:26 26.01.2023
2164 Snow -5 995 88 4828 5.66 320 17:42 26.01.2023
2165 Snow -6 995 89 9656 6.17 10 16:27 26.01.2023
2166 Snow -6 994 91 3219 5.66 10 15:56 26.01.2023
2167 Snow -7 994 91 2012 6.17 360 15:32 26.01.2023
2168 Snow -6 994 91 2414 6.69 10 14:58 26.01.2023
2169 Snow -6 995 93 2414 7.2 20 13:30 26.01.2023
2170 Snow -5 996 93 10000 9.77 30 11:53 26.01.2023
2171 Snow -5 998 92 2414 8.75 30 10:33 26.01.2023
2172 Snow -5 1000 92 2414 9.26 40 09:44 26.01.2023
2173 Snow -5 1002 92 2816 7.72 40 08:26 26.01.2023
2174 Snow -6 1006 92 2012 8.75 30 06:27 26.01.2023
2175 Snow -10 1019 82 2816 8.75 40 23:40 25.01.2023
2176 Snow -10 1021 74 10000 10.29 40 22:36 25.01.2023
2177 Clouds -9 1024 73 10000 6.17 50 21:25 25.01.2023
2178 Clouds -10 1023 73 10000 5.66 20 20:48 25.01.2023
2179 Clear -10 1025 68 10000 5.66 30 18:24 25.01.2023
2180 Clouds -11 1028 69 10000 4.63 40 15:57 25.01.2023
2181 Clear -13 1028 69 10000 4.63 40 13:58 25.01.2023
2182 Clear -12 1027 69 10000 4.12 50 11:53 25.01.2023
2183 Clear -10 1027 67 10000 3.6 30 09:52 25.01.2023
2184 Clear -10 1027 67 10000 3.6 30 09:18 25.01.2023
2185 Clouds -7 1024 64 10000 4.63 360 06:18 25.01.2023
2186 Clouds 0 1018 62 10000 6.17 300 00:27 25.01.2023
2187 Clouds 2 1014 78 10000 6.17 260 21:55 24.01.2023
2188 Clouds 2 1014 78 10000 7.2 270 21:27 24.01.2023
2189 Clouds 1 1012 80 10000 8.75 250 19:37 24.01.2023
2190 Clouds 1 1012 81 10000 7.72 260 18:30 24.01.2023
2191 Clouds 1 1012 82 10000 9.77 250 17:18 24.01.2023
2192 Clouds 1 1011 85 10000 10.29 250 16:52 24.01.2023
2193 Clouds 0 1009 90 2816 8.75 240 14:27 24.01.2023
2194 Clouds 0 1008 81 10000 8.23 240 12:24 24.01.2023
2195 Clouds 0 1008 80 10000 7.2 230 10:29 24.01.2023
2196 Clouds -1 1009 76 10000 5.66 240 08:20 24.01.2023
2197 Clouds -1 1008 74 10000 6.69 240 07:50 24.01.2023
2198 Clouds -1 1008 77 10000 6.17 280 02:57 24.01.2023
2199 Clouds -1 1008 78 10000 3.6 280 00:41 24.01.2023
2200 Clouds -1 1008 78 10000 4.12 260 23:34 23.01.2023
2201 Clouds 0 1006 76 10000 4.12 350 21:50 23.01.2023
2202 Clear 0 1006 77 10000 6.17 360 19:30 23.01.2023
2203 Clouds -2 1006 89 10000 7.72 20 17:41 23.01.2023
2204 Clouds -2 1008 91 10000 7.2 10 15:33 23.01.2023
2205 Mist -2 1008 93 10000 6.17 30 13:58 23.01.2023
2206 Mist -2 1008 93 10000 6.17 30 13:22 23.01.2023
2207 Mist -2 1008 93 10000 6.17 30 12:45 23.01.2023
2208 Mist -2 1009 94 10000 4.12 60 11:42 23.01.2023
2209 Clouds -2 1011 94 6437 3.09 20 08:27 23.01.2023
2210 Snow -1 1014 88 8047 3.6 180 02:49 23.01.2023
2211 Clouds 0 1015 89 10000 3.6 170 23:22 22.01.2023
2212 Clouds 0 1016 90 10000 4.63 180 21:33 22.01.2023
2213 Mist 0 1016 91 9656 2.06 180 20:50 22.01.2023
2214 Clouds 0 1016 93 6437 2.57 190 19:53 22.01.2023
2215 Clouds 0 1016 93 4828 4.12 190 19:19 22.01.2023
2216 Clouds -1 1018 91 10000 4.63 190 17:57 22.01.2023
2217 Clouds -1 1018 91 10000 4.63 190 17:57 22.01.2023
2218 Clouds -1 1018 91 10000 4.63 190 17:27 22.01.2023
2219 Clouds -1 1019 92 10000 3.6 180 16:39 22.01.2023
2220 Clouds -2 1019 93 4828 3.6 110 14:55 22.01.2023
2221 Clouds -2 1019 91 10000 2.06 130 13:49 22.01.2023
2222 Clouds -2 1019 88 9656 2.06 100 12:53 22.01.2023
2223 Clouds -2 1020 88 9656 3.09 170 11:39 22.01.2023
2224 Clouds -2 1021 87 10000 2.57 190 09:36 22.01.2023
2225 Clouds -2 1021 87 10000 3.6 230 08:44 22.01.2023
2226 Clouds -2 1022 83 10000 4.12 260 02:54 22.01.2023
2227 Clouds -3 1021 82 10000 5.14 230 23:42 21.01.2023
2228 Clouds -2 1021 82 10000 5.14 240 22:47 21.01.2023
2229 Clouds -2 1020 84 10000 2.57 160 20:43 21.01.2023
2230 Clouds -3 1021 88 10000 2.06 150 18:49 21.01.2023
2231 Clouds -4 1022 88 10000 2.57 120 15:19 21.01.2023
2232 Clouds -18 1022 100 5823 0.86 310 13:30 21.01.2023
2233 Clouds -18 1021 100 8412 0.84 319 12:42 21.01.2023
2234 Clouds -18 1020 100 7392 1.12 10 11:28 21.01.2023
2235 Clouds -18 1020 100 7392 1.12 10 10:46 21.01.2023
2236 Clear -5 1015 89 10000 3.6 10 05:40 21.01.2023
2237 Snow -2 1010 93 4828 7.72 20 00:27 21.01.2023
2238 Snow -2 1008 93 2012 8.75 30 22:26 20.01.2023
2239 Snow -2 1007 92 2816 8.75 30 21:35 20.01.2023
2240 Snow -2 1005 92 9656 9.26 40 20:42 20.01.2023
2241 Snow -2 1004 92 10000 9.77 30 18:23 20.01.2023
2242 Snow -2 1003 94 137 5.09 51 15:27 20.01.2023
2243 Snow -2 1003 92 2012 8.75 40 14:33 20.01.2023
2244 Snow -2 1003 95 2414 7.72 50 12:24 20.01.2023
2245 Snow -2 1003 94 4023 8.75 50 08:59 20.01.2023
2246 Snow -2 1004 94 3621 7.72 40 07:43 20.01.2023
2247 Snow -3 1009 81 10000 8.23 50 02:33 20.01.2023
2248 Clouds -2 1013 77 10000 5.66 60 22:38 19.01.2023
2249 Clouds -2 1013 77 10000 5.66 60 22:38 19.01.2023
2250 Clouds -2 1013 77 10000 5.66 60 22:18 19.01.2023
2251 Clouds -1 1014 75 10000 5.66 50 20:21 19.01.2023
2252 Clouds 0 1016 67 10000 5.14 40 18:57 19.01.2023
2253 Clouds 0 1018 71 10000 2.57 30 15:22 19.01.2023
2254 Clouds -1 1017 77 10000 2.06 300 10:52 19.01.2023
2255 Clouds -2 1017 84 10000 3.09 290 08:59 19.01.2023
2256 Clouds 1 1009 87 10000 4.63 250 23:19 18.01.2023
2257 Clouds 1 1006 87 10000 6.17 250 20:54 18.01.2023
2258 Clouds 1 1006 88 10000 6.17 250 20:18 18.01.2023
2259 Clouds 1 1006 89 10000 6.17 240 19:36 18.01.2023
2260 Snow 0 1005 94 10000 5.66 230 17:32 18.01.2023
2261 Snow 0 1004 95 2414 5.14 240 15:18 18.01.2023
2262 Mist -1 1003 95 2012 2.06 270 13:18 18.01.2023
2263 Mist -1 1001 95 3219 1.54 200 10:29 18.01.2023
2264 Mist -1 1001 93 3621 3.09 220 07:57 18.01.2023
2265 Clouds -2 1002 80 10000 4.12 240 01:26 18.01.2023
2266 Snow -3 1003 75 10000 3.09 200 23:22 17.01.2023
2267 Clear -2 1003 70 10000 3.6 220 20:31 17.01.2023
2268 Clear -2 1004 70 10000 3.6 210 19:27 17.01.2023
2269 Clear -4 1006 73 10000 4.63 220 17:56 17.01.2023
2270 Clouds -7 1007 78 10000 3.09 230 15:57 17.01.2023
2271 Clouds -10 1007 90 10000 4.12 220 14:55 17.01.2023
2272 Clouds -17 1008 99 7478 1.21 210 13:47 17.01.2023
2273 Clear -10 1007 86 10000 4.12 230 11:51 17.01.2023
2274 Clear -10 1007 86 10000 4.12 230 11:23 17.01.2023
2275 Clear -9 1008 87 10000 4.12 240 09:31 17.01.2023
2276 Clear -7 1009 81 10000 4.12 240 07:53 17.01.2023
2277 Clouds -5 1012 80 10000 2.57 260 03:55 17.01.2023
2278 Clouds -5 1014 79 10000 2.57 250 00:57 17.01.2023
2279 Clouds -5 1015 76 10000 3.6 260 23:32 16.01.2023
2280 Clouds -4 1015 68 10000 3.6 310 21:52 16.01.2023
2281 Clouds -4 1016 66 10000 3.6 220 20:24 16.01.2023
2282 Clouds -5 1017 68 10000 2.57 330 19:35 16.01.2023
2283 Clouds -5 1018 72 10000 2.06 260 18:53 16.01.2023
2284 Clouds -6 1018 72 10000 2.06 260 18:21 16.01.2023
2285 Clouds -7 1020 75 10000 2.06 290 17:34 16.01.2023
2286 Clear -12 1022 89 10000 1.54 360 14:38 16.01.2023
2287 Clear -11 1023 83 10000 1.54 360 13:38 16.01.2023
2288 Clear -13 1024 88 10000 1.54 350 10:32 16.01.2023
2289 Clear -10 1024 87 10000 4.12 10 09:53 16.01.2023
2290 Clear -7 1027 71 10000 0 0 23:22 15.01.2023
2291 Clear -6 1027 68 10000 2.57 40 21:42 15.01.2023
2292 Clear -5 1027 70 10000 4.12 10 20:35 15.01.2023
2293 Clear -5 1027 73 10000 2.06 20 19:49 15.01.2023
2294 Clear -7 1028 76 10000 3.09 360 17:46 15.01.2023
2295 Clear -9 1028 76 10000 4.12 360 15:44 15.01.2023
2296 Clouds -9 1027 81 10000 6.17 360 12:31 15.01.2023
2297 Clouds -9 1026 84 10000 5.14 360 11:35 15.01.2023
2298 Clouds -9 1025 82 10000 4.63 10 10:28 15.01.2023
2299 Clouds -8 1025 81 10000 3.09 10 09:35 15.01.2023
2300 Clouds -8 1022 87 10000 1.54 260 01:48 15.01.2023
2301 Clouds -5 1020 79 10000 2.06 260 22:57 14.01.2023
2302 Clouds -5 1018 80 10000 4.63 340 21:58 14.01.2023
2303 Clouds -5 1018 80 10000 4.63 340 21:36 14.01.2023
2304 Clouds -5 1018 80 10000 4.63 340 21:18 14.01.2023
2305 Clouds -5 1018 82 10000 4.12 360 20:39 14.01.2023
2306 Clouds -5 1018 80 10000 4.12 10 18:40 14.01.2023
2307 Clouds -6 1018 80 10000 5.14 10 16:59 14.01.2023
2308 Clouds -7 1018 73 10000 5.14 360 15:28 14.01.2023
2309 Clouds -7 1017 73 10000 5.66 350 14:25 14.01.2023
2310 Clouds -7 1017 77 10000 4.12 340 13:42 14.01.2023
2311 Clouds -6 1016 74 10000 5.66 360 11:46 14.01.2023
2312 Clouds -6 1016 77 10000 5.14 360 10:46 14.01.2023
2313 Clouds -5 1014 78 10000 3.6 350 08:19 14.01.2023
2314 Snow -4 1009 93 4828 5.66 340 23:36 13.01.2023
2315 Snow -3 1009 93 3219 5.66 340 22:47 13.01.2023
2316 Snow -3 1008 94 2012 5.14 330 22:29 13.01.2023
2317 Snow -3 1007 94 1609 5.66 330 21:35 13.01.2023
2318 Snow -3 1004 94 2012 6.69 330 19:43 13.01.2023
2319 Snow -2 1003 94 1207 10.29 360 18:21 13.01.2023
2320 Snow -1 1003 94 2816 10.29 20 16:35 13.01.2023
2321 Snow -2 1003 95 2414 8.75 20 13:24 13.01.2023
2322 Snow -2 1003 95 4023 9.77 20 12:20 13.01.2023
2323 Snow -2 1004 96 9656 9.77 20 10:26 13.01.2023
2324 Snow -2 1005 95 4828 8.23 20 09:46 13.01.2023
2325 Snow -2 1006 95 3219 8.75 20 08:56 13.01.2023
2326 Snow -2 1006 95 3219 7.72 20 08:25 13.01.2023
2327 Snow -2 1008 96 4828 7.72 20 06:53 13.01.2023
2328 Snow -2 1010 95 2414 7.2 30 05:23 13.01.2023
2329 Mist -1 1014 95 8047 5.66 20 00:37 13.01.2023
2330 Snow -1 1015 94 8047 4.63 20 22:44 12.01.2023
2331 Snow -1 1015 93 4828 5.14 20 20:55 12.01.2023
2332 Snow -2 1016 91 2012 5.14 40 19:46 12.01.2023
2333 Snow -3 1019 87 4023 4.63 20 17:53 12.01.2023
2334 Clouds -3 1020 89 10000 6.17 30 16:34 12.01.2023
2335 Clouds -6 1020 89 10000 6.69 30 14:45 12.01.2023
2336 Clouds -6 1020 89 10000 6.69 30 14:45 12.01.2023
2337 Clouds -6 1020 89 10000 6.69 30 14:45 12.01.2023
2338 Clouds -6 1020 89 10000 6.69 30 14:22 12.01.2023
2339 Snow -7 1021 88 8047 5.14 30 12:55 12.01.2023
2340 Snow -8 1022 84 8047 6.17 30 10:54 12.01.2023
2341 Clouds -8 1022 84 9656 6.17 30 09:29 12.01.2023
2342 Clouds -8 1024 79 10000 6.17 40 05:27 12.01.2023
2343 Clouds -9 1026 76 10000 5.66 40 23:59 11.01.2023
2344 Clouds -9 1026 76 10000 5.66 40 23:41 11.01.2023
2345 Clouds -9 1026 75 10000 5.66 40 23:21 11.01.2023
2346 Clear -9 1026 72 10000 5.66 50 21:47 11.01.2023
2347 Clear -8 1026 72 10000 5.14 30 20:37 11.01.2023
2348 Clear -9 1027 73 10000 4.12 20 18:39 11.01.2023
2349 Clear -10 1028 76 10000 4.12 40 17:24 11.01.2023
2350 Clear -12 1027 80 10000 5.66 40 15:23 11.01.2023
2351 Clear -13 1027 80 10000 4.12 20 13:51 11.01.2023
2352 Clear -13 1026 80 10000 3.6 20 12:20 11.01.2023
2353 Clear -12 1026 78 10000 3.6 20 10:45 11.01.2023
2354 Clear -12 1025 78 10000 4.12 20 08:21 11.01.2023
2355 Clear -11 1024 76 10000 4.12 30 07:26 11.01.2023
2356 Clear -8 1022 80 10000 3.09 240 01:46 11.01.2023
2357 Clear -6 1020 71 10000 4.12 260 22:46 10.01.2023
2358 Clear -6 1020 71 10000 4.12 260 22:46 10.01.2023
2359 Clear -6 1020 66 10000 3.09 270 21:44 10.01.2023
2360 Clear -5 1019 64 10000 4.63 260 20:43 10.01.2023
2361 Clouds -5 1019 65 10000 5.66 290 19:48 10.01.2023
2362 Clear -6 1019 65 10000 4.12 290 18:48 10.01.2023
2363 Clear -6 1019 65 10000 4.12 290 18:48 10.01.2023
2364 Clear -7 1019 66 10000 3.6 290 17:59 10.01.2023
2365 Clear -7 1019 67 10000 5.14 280 16:47 10.01.2023
2366 Clear -7 1018 69 10000 4.12 280 15:31 10.01.2023
2367 Clear -8 1017 73 10000 4.12 280 14:33 10.01.2023
2368 Clear -8 1016 74 10000 5.66 310 12:25 10.01.2023
2369 Clouds -5 1013 71 10000 6.17 290 09:42 10.01.2023
2370 Clouds -4 1012 73 10000 7.2 290 08:35 10.01.2023
2371 Clouds -3 1011 74 10000 6.17 330 07:34 10.01.2023
2372 Clouds 0 1009 88 10000 8.23 270 04:58 10.01.2023
2373 Snow -1 1009 88 4828 7.72 240 23:50 09.01.2023
2374 Clouds -2 1009 85 9656 8.23 220 21:55 09.01.2023
2375 Clouds -2 1009 85 8047 8.23 220 20:46 09.01.2023
2376 Snow -2 1010 83 10000 8.23 230 19:41 09.01.2023
2377 Clouds -2 1011 83 10000 6.69 250 18:21 09.01.2023
2378 Clouds -2 1012 83 10000 5.66 230 17:49 09.01.2023
2379 Clouds -3 1013 83 10000 6.17 240 16:33 09.01.2023
2380 Clouds -3 1013 82 10000 6.17 230 15:31 09.01.2023
2381 Clouds -4 1014 82 8047 4.63 260 14:53 09.01.2023
2382 Clouds -4 1013 83 10000 4.12 240 14:20 09.01.2023
2383 Clouds -4 1014 84 10000 2.57 280 12:49 09.01.2023
2384 Clouds -4 1014 85 10000 2.06 280 11:45 09.01.2023
2385 Clouds -4 1014 84 10000 2.57 240 11:19 09.01.2023
2386 Clouds -4 1017 84 10000 4.12 260 06:53 09.01.2023
2387 Clouds -6 1019 84 10000 4.12 250 02:55 09.01.2023
2388 Clouds -6 1021 83 10000 3.6 270 00:58 09.01.2023
2389 Clouds -6 1022 79 10000 5.66 240 21:50 08.01.2023
2390 Clouds -6 1022 79 10000 5.66 240 21:21 08.01.2023
2391 Clouds -6 1023 79 10000 6.69 220 20:33 08.01.2023
2392 Clouds -8 1026 82 8047 5.66 220 17:59 08.01.2023
2393 Clouds -8 1026 81 8047 5.66 230 17:21 08.01.2023
2394 Clouds -8 1027 82 9656 5.66 250 16:37 08.01.2023
2395 Clouds -8 1027 82 10000 5.14 250 15:34 08.01.2023
2396 Clouds -9 1028 81 10000 5.14 250 13:58 08.01.2023
2397 Clouds -9 1028 81 10000 5.14 250 13:30 08.01.2023
2398 Clouds -9 1028 80 10000 6.17 250 12:43 08.01.2023
2399 Clouds -8 1028 75 10000 3.6 280 09:55 08.01.2023
2400 Clouds -8 1028 74 10000 4.12 280 09:35 08.01.2023
2401 Clouds -8 1028 71 10000 3.09 290 07:45 08.01.2023
2402 Clouds -5 1024 77 10000 7.2 340 23:59 07.01.2023
2403 Clouds -4 1023 81 10000 5.66 280 22:47 07.01.2023
2404 Clouds -4 1023 82 10000 5.66 280 22:24 07.01.2023
2405 Clouds -4 1022 83 10000 5.14 280 21:47 07.01.2023
2406 Clouds -3 1021 84 10000 6.17 260 20:43 07.01.2023
2407 Clouds -3 1021 84 10000 6.17 260 20:22 07.01.2023
2408 Clouds -3 1020 83 10000 7.2 260 18:33 07.01.2023
2409 Clouds -3 1020 85 10000 6.69 260 17:50 07.01.2023
2410 Clouds -3 1020 85 10000 6.69 260 17:28 07.01.2023
2411 Clouds -3 1020 85 10000 6.17 260 16:37 07.01.2023
2412 Clouds -3 1019 86 10000 5.14 260 15:46 07.01.2023
2413 Clouds -3 1019 86 10000 5.14 260 15:26 07.01.2023
2414 Clouds -3 1019 85 10000 5.66 260 14:27 07.01.2023
2415 Clouds -3 1018 86 10000 4.63 280 13:47 07.01.2023
2416 Clouds -3 1018 86 10000 4.63 280 13:23 07.01.2023
2417 Clouds -2 1018 85 10000 5.14 280 12:22 07.01.2023
2418 Clouds -2 1017 88 10000 6.17 280 11:36 07.01.2023
2419 Clouds -1 1016 88 10000 5.14 280 10:25 07.01.2023
2420 Clouds 0 1016 91 10000 4.63 270 08:25 07.01.2023
2421 Clouds 0 1015 91 10000 4.63 260 07:44 07.01.2023
2422 Mist 0 1015 93 9656 5.66 260 06:50 07.01.2023
2423 Mist 0 1015 94 4828 2.06 220 00:42 07.01.2023
2424 Clouds 0 1015 94 4023 2.06 200 22:23 06.01.2023
2425 Snow 0 1015 93 4023 1.54 120 21:58 06.01.2023
2426 Snow 0 1014 92 4828 1.03 130 21:18 06.01.2023
2427 Mist -1 1014 94 8047 1.54 60 19:57 06.01.2023
2428 Mist -1 1014 94 8047 1.54 60 19:39 06.01.2023
2429 Mist -1 1014 94 8047 1.54 60 19:21 06.01.2023
2430 Mist -1 1015 94 9656 2.06 60 18:28 06.01.2023
2431 Mist -2 1015 95 9656 2.57 10 16:55 06.01.2023
2432 Clouds -2 1016 96 6437 2.57 10 16:24 06.01.2023
2433 Clouds -2 1015 96 4828 3.09 20 15:53 06.01.2023
2434 Clouds -3 1015 96 4828 3.09 20 15:34 06.01.2023
2435 Clouds -3 1015 95 805 2.57 10 13:56 06.01.2023
2436 Fog -3 1015 96 805 3.09 20 12:22 06.01.2023
2437 Mist -4 1015 96 2012 3.6 20 10:58 06.01.2023
2438 Clouds -4 1015 95 2012 5.14 20 08:55 06.01.2023
2439 Clouds -4 1016 94 10000 4.12 20 05:33 06.01.2023
2440 Mist -4 1016 94 10000 4.12 20 23:53 05.01.2023
2441 Snow -4 1016 95 4828 4.12 40 22:54 05.01.2023
2442 Snow -5 1016 95 3219 3.6 30 21:42 05.01.2023
2443 Snow -4 1015 95 2414 5.14 360 19:19 05.01.2023
2444 Snow -4 1015 95 2816 6.17 360 17:28 05.01.2023
2445 Clouds -3 1015 95 6437 6.17 350 15:59 05.01.2023
2446 Clouds -3 1015 94 4828 5.14 350 15:40 05.01.2023
2447 Mist -3 1014 96 6437 6.69 20 14:35 05.01.2023
2448 Mist -2 1013 96 3621 9.26 30 12:43 05.01.2023
2449 Rain -2 1012 95 6437 10.29 30 11:44 05.01.2023
2450 Snow -3 1013 93 8047 9.77 40 09:52 05.01.2023
2451 Snow -3 1013 93 10000 11.83 40 08:28 05.01.2023
2452 Snow -4 1014 92 4828 9.26 30 07:18 05.01.2023
2453 Snow -1 1016 76 10000 11.32 40 03:39 05.01.2023
2454 Clouds 2 1016 79 10000 7.2 50 22:53 04.01.2023
2455 Clouds 3 1015 78 10000 5.66 40 21:33 04.01.2023
2456 Clouds 3 1015 77 10000 5.14 40 20:26 04.01.2023
2457 Clouds 3 1015 77 10000 4.63 30 19:56 04.01.2023
2458 Clouds 3 1015 77 10000 4.63 30 19:56 04.01.2023
2459 Clouds 3 1015 78 10000 4.63 30 19:31 04.01.2023
2460 Clouds 2 1015 81 10000 4.12 40 18:30 04.01.2023
2461 Clouds 2 1015 89 10000 5.14 20 16:32 04.01.2023
2462 Mist 2 1014 92 9656 3.6 10 15:40 04.01.2023
2463 Mist 1 1013 92 6437 3.09 20 13:53 04.01.2023
2464 Mist 1 1011 93 6437 4.63 20 11:40 04.01.2023
2465 Mist 1 1011 93 6437 4.63 20 11:19 04.01.2023
2466 Mist 1 1011 94 6437 5.14 20 10:42 04.01.2023
2467 Mist 1 1011 94 6437 5.14 20 10:21 04.01.2023
2468 Mist 1 1010 92 8047 4.63 10 07:19 04.01.2023
2469 Clouds 2 1011 88 10000 4.12 20 01:43 04.01.2023
2470 Clouds 2 1011 86 10000 5.66 30 23:59 03.01.2023
2471 Clouds 2 1011 86 10000 5.66 30 23:32 03.01.2023
2472 Clouds 3 1012 83 10000 5.14 20 22:40 03.01.2023
2473 Clouds 4 1012 76 10000 3.09 50 20:52 03.01.2023
2474 Clouds 3 1013 82 10000 2.57 40 19:20 03.01.2023
2475 Clouds 3 1018 85 10000 3.09 110 16:55 03.01.2023
2476 Clouds 2 1018 87 10000 1.54 110 15:51 03.01.2023
2477 Clouds 1 1019 87 10000 2.06 140 13:52 03.01.2023
2478 Clouds 2 1019 87 10000 2.06 140 13:29 03.01.2023
2479 Clouds 2 1018 87 10000 2.57 200 12:57 03.01.2023
2480 Clouds 2 1018 87 10000 2.57 200 12:29 03.01.2023
2481 Clouds 2 1019 89 10000 3.09 220 10:30 03.01.2023
2482 Clouds 3 1020 87 10000 3.09 210 06:41 03.01.2023
2483 Clouds 3 1020 86 10000 4.12 220 04:18 03.01.2023
2484 Clouds 3 1020 86 10000 3.6 220 03:42 03.01.2023
2485 Clouds 3 1019 85 10000 5.14 250 00:36 03.01.2023
2486 Clouds 3 1018 87 10000 4.12 240 22:41 02.01.2023
2487 Mist 4 1017 87 10000 4.12 260 21:55 02.01.2023
2488 Mist 4 1017 90 9656 4.63 260 20:39 02.01.2023
2489 Mist 4 1016 93 6437 4.12 240 19:44 02.01.2023
2490 Mist 2 1017 96 4828 2.06 200 17:18 02.01.2023
2491 Snow 1 1016 92 3219 2.57 150 14:52 02.01.2023
2492 Clouds 1 1016 91 10000 2.06 180 13:23 02.01.2023
2493 Clouds 1 1016 87 10000 2.06 210 11:40 02.01.2023
2494 Clouds 1 1016 86 10000 1.54 200 10:34 02.01.2023
2495 Clouds 1 1015 87 10000 2.06 260 07:33 02.01.2023
2496 Clouds 2 1013 87 10000 4.63 260 00:58 02.01.2023
2497 Clouds 3 1011 93 10000 4.63 230 21:58 01.01.2023
2498 Clouds 3 1011 93 10000 4.63 230 21:24 01.01.2023
2499 Clouds 3 1010 95 10000 6.69 260 20:47 01.01.2023
2500 Mist 3 1010 97 4828 5.66 250 19:42 01.01.2023
2501 Mist 3 1010 96 6437 5.66 240 17:56 01.01.2023
2502 Mist 4 1010 96 8047 5.66 250 17:21 01.01.2023
2503 Mist 4 1010 95 8047 4.63 260 16:32 01.01.2023
2504 Mist 3 1008 95 4828 5.66 240 14:53 01.01.2023
2505 Mist 4 1007 96 8047 5.14 240 13:38 01.01.2023
2506 Mist 4 1006 96 8047 3.6 230 12:40 01.01.2023
2507 Mist 4 1005 97 8047 2.57 270 11:36 01.01.2023
2508 Mist 4 1004 97 3219 3.09 270 10:35 01.01.2023
2509 Mist 4 1003 96 4828 2.06 330 08:51 01.01.2023
2510 Mist 4 1003 97 3219 3.09 330 08:20 01.01.2023
2511 Mist 4 1003 96 6437 3.09 350 07:18 01.01.2023
2512 Fog 6 1007 98 604 1.54 100 01:42 01.01.2023
2513 Fog 6 1008 98 604 2.06 60 23:42 31.12.2022
2514 Fog 6 1008 95 201 2.57 120 22:33 31.12.2022
2515 Mist 7 1009 97 4023 2.06 120 21:36 31.12.2022
2516 Mist 7 1010 98 4828 2.06 140 21:18 31.12.2022
2517 Mist 7 1011 100 9656 1.54 160 19:33 31.12.2022
2518 Mist 6 1011 97 6437 1.54 150 18:42 31.12.2022
2519 Mist 6 1012 98 8047 1.03 190 18:18 31.12.2022
2520 Clouds 7 1012 98 10000 2.06 160 17:46 31.12.2022
2521 Mist 6 1013 97 4828 3.6 130 16:50 31.12.2022
2522 Mist 6 1013 98 3621 3.09 130 16:22 31.12.2022
2523 Fog 6 1014 98 604 1.54 210 14:39 31.12.2022
2524 Fog 6 1014 99 805 2.57 180 13:38 31.12.2022
2525 Fog 6 1014 97 402 3.6 180 12:40 31.12.2022
2526 Fog 6 1014 99 402 2.57 170 12:19 31.12.2022
2527 Fog 6 1014 96 402 2.57 190 11:50 31.12.2022
2528 Mist 6 1015 95 1006 3.6 250 10:36 31.12.2022
2529 Fog 6 1015 98 402 3.09 200 09:54 31.12.2022
2530 Fog 6 1015 97 402 3.09 200 09:35 31.12.2022
2531 Rain 7 1015 96 2012 5.14 210 07:49 31.12.2022
2532 Clouds 7 1016 89 10000 4.12 190 00:37 31.12.2022
2533 Clouds 7 1016 87 9656 3.6 160 23:47 30.12.2022
2534 Rain 8 1016 81 10000 3.6 170 22:49 30.12.2022
2535 Clouds 7 1016 83 10000 4.12 160 21:44 30.12.2022
2536 Clouds 7 1016 83 10000 4.12 160 21:26 30.12.2022
2537 Clouds 6 1017 82 10000 4.12 150 18:59 30.12.2022
2538 Clouds 7 1018 81 10000 6.17 190 17:51 30.12.2022
2539 Clouds 6 1018 81 10000 6.17 190 17:32 30.12.2022
2540 Clouds 5 1019 84 10000 3.6 180 15:57 30.12.2022
2541 Clouds 5 1019 84 10000 4.63 170 14:53 30.12.2022
2542 Clouds 5 1019 83 10000 4.63 180 11:58 30.12.2022
2543 Clouds 5 1020 82 10000 3.09 190 08:21 30.12.2022
2544 Clouds 4 1020 78 10000 1.54 170 03:40 30.12.2022
2545 Clouds 3 1019 78 10000 2.57 180 01:53 30.12.2022
2546 Clouds 3 1018 75 10000 3.6 190 22:58 29.12.2022
2547 Clouds 3 1018 75 10000 3.6 190 21:31 29.12.2022
2548 Clear 4 1018 71 10000 5.14 190 20:54 29.12.2022
2549 Clear 4 1018 74 10000 5.14 190 20:25 29.12.2022
2550 Clouds 3 1019 79 10000 5.66 190 18:30 29.12.2022
2551 Clouds 2 1019 82 10000 5.66 180 17:33 29.12.2022
2552 Mist 2 1020 83 10000 4.12 180 16:55 29.12.2022
2553 Mist 1 1020 85 10000 4.12 180 16:21 29.12.2022
2554 Mist 0 1020 87 10000 3.6 170 15:33 29.12.2022
2555 Mist -1 1021 90 10000 3.6 20 13:34 29.12.2022
2556 Mist -2 1021 90 10000 3.09 20 11:33 29.12.2022
2557 Clear -1 1021 90 10000 2.06 120 08:22 29.12.2022
2558 Snow -1 1021 92 3219 4.12 170 00:23 29.12.2022
2559 Snow -1 1021 92 2816 4.63 160 23:28 28.12.2022
2560 Snow -1 1020 90 1609 4.63 180 21:22 28.12.2022
2561 Snow -1 1019 89 2414 5.14 180 20:50 28.12.2022
2562 Snow -1 1019 87 10000 6.69 180 19:25 28.12.2022
2563 Snow -2 1020 88 10000 6.17 190 16:56 28.12.2022
2564 Snow -3 1020 90 2816 5.66 180 15:25 28.12.2022
2565 Snow -4 1021 90 4828 5.14 170 12:56 28.12.2022
2566 Snow -4 1021 91 3219 5.14 170 12:23 28.12.2022
2567 Snow -4 1022 92 1609 4.63 160 11:29 28.12.2022
2568 Snow -4 1022 89 4828 3.6 220 09:18 28.12.2022
2569 Clouds -5 1022 85 8047 6.17 200 07:27 28.12.2022
2570 Clouds -6 1022 84 10000 3.6 180 06:43 28.12.2022
2571 Clouds -8 1022 83 10000 2.06 100 00:24 28.12.2022
2572 Clouds -6 1021 73 10000 4.63 250 20:31 27.12.2022
2573 Clouds -6 1021 73 10000 5.14 260 19:40 27.12.2022
2574 Clouds -6 1021 79 10000 5.66 280 17:47 27.12.2022
2575 Clouds -7 1021 84 9656 6.69 250 16:43 27.12.2022
2576 Snow -7 1021 84 6437 6.69 260 15:31 27.12.2022
2577 Snow -5 1018 88 3219 6.69 240 12:36 27.12.2022
2578 Snow -5 1018 88 1207 6.69 230 11:30 27.12.2022
2579 Snow -5 1018 88 1207 6.69 230 11:30 27.12.2022
2580 Snow -5 1017 86 4023 6.69 240 09:47 27.12.2022
2581 Clouds -5 1017 86 4828 6.69 240 09:23 27.12.2022
2582 Clouds -4 1017 81 10000 8.75 230 08:20 27.12.2022
2583 Clouds -4 1018 81 10000 8.75 240 04:32 27.12.2022
2584 Clouds -4 1017 81 10000 5.14 230 22:48 26.12.2022
2585 Clouds -4 1017 80 10000 4.12 240 21:25 26.12.2022
2586 Clouds -5 1017 79 10000 5.66 250 20:42 26.12.2022
2587 Clouds -6 1017 77 10000 4.63 270 18:44 26.12.2022
2588 Clouds -6 1017 77 10000 5.66 270 17:51 26.12.2022
2589 Clouds -7 1017 79 10000 4.12 260 16:21 26.12.2022
2590 Clouds -8 1015 82 10000 3.6 270 14:34 26.12.2022
2591 Clouds -8 1013 78 10000 4.12 270 12:51 26.12.2022
2592 Clouds -7 1010 80 10000 5.14 250 08:27 26.12.2022
2593 Snow -5 1003 84 4828 8.75 260 23:59 25.12.2022
2594 Clouds -5 1003 83 4828 8.75 260 23:38 25.12.2022
2595 Snow -5 1002 83 4828 8.23 240 22:38 25.12.2022
2596 Snow -5 1002 84 9656 6.17 260 21:49 25.12.2022
2597 Snow -5 999 78 10000 11.32 220 18:51 25.12.2022
2598 Snow -5 999 80 8047 12.35 220 17:52 25.12.2022
2599 Snow -6 999 79 4828 12.35 220 17:34 25.12.2022
2600 Clouds -7 999 78 10000 12.35 230 15:41 25.12.2022
2601 Clouds -7 997 72 10000 12.86 220 12:45 25.12.2022
2602 Clouds -8 997 73 10000 10.29 210 09:28 25.12.2022
2603 Clouds -8 995 67 10000 11.83 210 23:51 24.12.2022
2604 Clouds -8 995 71 8047 13.38 200 21:54 24.12.2022
2605 Clouds -8 994 64 10000 12.86 210 19:36 24.12.2022
2606 Clouds -9 993 66 10000 13.89 210 16:46 24.12.2022
2607 Clouds -9 991 71 9656 13.38 210 14:55 24.12.2022
2608 Clouds -9 989 73 2816 13.38 210 13:30 24.12.2022
2609 Snow -9 987 79 1609 13.89 220 11:26 24.12.2022
2610 Snow -9 986 81 1207 17.49 220 10:22 24.12.2022
2611 Snow -9 985 83 2816 14.4 210 09:37 24.12.2022
2612 Snow -9 983 88 1609 13.38 210 06:56 24.12.2022
2613 Snow -6 979 89 604 15.43 230 02:50 24.12.2022
2614 Snow -2 977 82 10000 15.43 240 23:47 23.12.2022
2615 Snow 0 977 90 10000 15.95 240 22:28 23.12.2022
2616 Clouds 6 974 92 10000 9.77 90 20:41 23.12.2022
2617 Clouds 6 978 95 10000 9.26 80 19:39 23.12.2022
2618 Rain 6 978 95 10000 9.26 80 19:21 23.12.2022
2619 Rain 6 980 93 9656 9.77 80 18:46 23.12.2022
2620 Rain 6 981 93 8047 8.23 60 18:20 23.12.2022
2621 Clouds 5 986 86 10000 13.38 100 16:35 23.12.2022
2622 Rain 4 988 88 10000 10.8 80 15:42 23.12.2022
2623 Snow 1 1001 94 10000 10.29 50 11:58 23.12.2022
2624 Mist 1 1007 95 10000 9.26 50 09:37 23.12.2022
2625 Rain 0 1011 95 10000 10.29 50 08:45 23.12.2022
2626 Snow -2 1015 95 2012 9.26 40 07:19 23.12.2022
2627 Snow -2 1016 93 2012 10.29 40 06:48 23.12.2022
2628 Clouds -5 1027 81 10000 6.69 40 23:23 22.12.2022
2629 Clear -6 1027 81 10000 7.72 50 22:57 22.12.2022
2630 Clear -5 1028 78 10000 5.66 40 21:26 22.12.2022
2631 Clouds -5 1029 79 10000 7.72 40 19:26 22.12.2022
2632 Clouds -5 1029 79 10000 7.72 40 19:26 22.12.2022
2633 Clear -5 1030 79 10000 7.2 30 18:51 22.12.2022
2634 Clear -6 1030 80 10000 7.2 40 17:31 22.12.2022
2635 Clouds -6 1031 80 10000 6.69 40 16:39 22.12.2022
2636 Clouds -7 1032 81 10000 7.2 50 15:35 22.12.2022
2637 Clouds -7 1033 84 10000 7.72 50 14:51 22.12.2022
2638 Clear -8 1033 87 10000 4.12 20 13:35 22.12.2022
2639 Clouds -7 1033 86 10000 4.63 30 12:59 22.12.2022
2640 Clouds -8 1033 86 10000 4.12 30 10:55 22.12.2022
2641 Clouds -8 1033 85 10000 4.12 30 10:30 22.12.2022
2642 Clear -7 1033 83 10000 3.09 30 09:21 22.12.2022
2643 Clouds -7 1033 83 10000 1.54 30 08:28 22.12.2022
2644 Clouds -7 1033 81 10000 1.54 300 06:41 22.12.2022
2645 Clouds -4 1033 75 10000 2.57 340 04:18 22.12.2022
2646 Clouds -1 1029 73 10000 5.66 270 23:51 21.12.2022
2647 Clouds 0 1028 75 10000 6.17 240 22:24 21.12.2022
2648 Clouds 0 1028 76 10000 5.66 240 21:24 21.12.2022
2649 Clouds 1 1028 76 10000 7.72 220 20:54 21.12.2022
2650 Clouds 0 1028 78 10000 7.72 220 20:29 21.12.2022
2651 Clouds 0 1027 79 10000 6.69 230 19:44 21.12.2022
2652 Clouds 0 1027 79 10000 6.69 230 19:25 21.12.2022
2653 Clouds 0 1028 79 10000 7.2 180 18:47 21.12.2022
2654 Clouds 0 1028 80 10000 5.66 170 17:49 21.12.2022
2655 Clouds -3 1029 84 10000 5.66 170 14:59 21.12.2022
2656 Clouds -4 1029 87 10000 3.6 170 13:28 21.12.2022
2657 Clouds -5 1030 88 10000 5.14 130 11:47 21.12.2022
2658 Clouds -5 1030 88 10000 5.14 130 11:20 21.12.2022
2659 Clouds -5 1030 86 10000 3.6 170 09:47 21.12.2022
2660 Clouds -4 1030 83 10000 5.66 230 07:48 21.12.2022
2661 Clouds -5 1030 85 10000 5.66 240 03:48 21.12.2022
2662 Clear -4 1030 84 10000 4.63 240 22:56 20.12.2022
2663 Clouds -2 1030 81 10000 6.17 240 21:23 20.12.2022
2664 Clouds -2 1029 80 10000 5.66 250 20:24 20.12.2022
2665 Clouds -2 1029 80 10000 6.69 240 19:41 20.12.2022
2666 Clouds -2 1030 81 10000 5.14 220 18:37 20.12.2022
2667 Clouds -2 1030 82 10000 5.14 220 18:19 20.12.2022
2668 Clouds -2 1030 83 10000 5.14 240 17:46 20.12.2022
2669 Clouds -3 1030 86 10000 4.63 230 16:37 20.12.2022
2670 Clouds -3 1030 86 10000 5.66 240 15:36 20.12.2022
2671 Clouds -3 1029 86 10000 4.63 240 14:48 20.12.2022
2672 Clouds -3 1029 86 10000 4.63 240 14:28 20.12.2022
2673 Clouds -3 1028 86 10000 3.6 250 12:58 20.12.2022
2674 Clouds -3 1028 86 10000 4.12 260 12:28 20.12.2022
2675 Clouds -3 1028 86 10000 4.12 260 11:37 20.12.2022
2676 Clouds -2 1027 85 10000 6.17 270 08:49 20.12.2022
2677 Clouds -2 1024 78 10000 4.12 270 03:40 20.12.2022
2678 Clouds -1 1021 77 10000 5.14 290 22:42 19.12.2022
2679 Clouds 0 1020 78 10000 4.63 280 21:56 19.12.2022
2680 Clear 0 1018 81 10000 4.12 280 19:58 19.12.2022
2681 Clear 0 1018 81 10000 4.12 280 19:39 19.12.2022
2682 Clouds -1 1018 84 10000 4.63 280 18:33 19.12.2022
2683 Clouds -2 1018 86 10000 5.14 240 16:52 19.12.2022
2684 Clouds -3 1016 90 10000 4.12 230 13:41 19.12.2022
2685 Clouds -3 1016 89 10000 4.12 260 12:21 19.12.2022
2686 Clouds -3 1015 89 10000 3.6 210 10:55 19.12.2022
2687 Clouds -2 1014 86 10000 4.63 250 07:44 19.12.2022
2688 Clouds -2 1013 85 10000 3.6 280 03:42 19.12.2022
2689 Clear -2 1010 86 10000 6.17 240 22:40 18.12.2022
2690 Clear -1 1010 84 10000 6.69 240 21:46 18.12.2022
2691 Clear -1 1010 85 10000 6.17 230 21:22 18.12.2022
2692 Clear -1 1010 85 10000 6.17 230 21:22 18.12.2022
2693 Clouds 0 1009 84 10000 5.66 240 20:32 18.12.2022
2694 Clouds 0 1008 85 10000 6.17 250 19:41 18.12.2022
2695 Clouds -1 1008 86 10000 4.12 250 18:29 18.12.2022
2696 Snow -1 1008 88 10000 4.12 240 17:22 18.12.2022
2697 Clouds -2 1008 90 10000 6.69 250 15:40 18.12.2022
2698 Clouds -2 1008 90 10000 6.69 250 15:20 18.12.2022
2699 Clouds -1 1008 90 10000 5.14 240 14:20 18.12.2022
2700 Clouds -1 1007 92 10000 4.63 250 12:57 18.12.2022
2701 Clouds -1 1007 92 10000 4.63 250 12:30 18.12.2022
2702 Clouds -1 1007 92 10000 5.66 240 11:20 18.12.2022
2703 Clouds -1 1007 92 10000 5.14 250 09:20 18.12.2022
2704 Clouds -1 1006 92 10000 4.12 240 08:45 18.12.2022
2705 Mist 0 1005 91 9656 4.12 240 06:24 18.12.2022
2706 Clouds 0 1006 94 4828 3.6 240 03:41 18.12.2022
2707 Snow 0 1006 95 4828 3.09 250 01:48 18.12.2022
2708 Clouds 0 1005 94 1609 2.06 280 22:24 17.12.2022
2709 Snow 0 1004 94 4023 3.09 350 19:46 17.12.2022
2710 Snow 0 1004 95 1207 4.12 20 17:19 17.12.2022
2711 Snow -1 1004 95 4023 5.14 30 14:44 17.12.2022
2712 Snow -1 1005 96 2012 6.69 40 12:29 17.12.2022
2713 Snow -1 1005 96 2012 6.17 40 10:51 17.12.2022
2714 Snow -1 1005 96 1609 7.2 40 09:57 17.12.2022
2715 Snow 0 1006 96 4023 7.72 40 08:35 17.12.2022
2716 Clouds 0 1006 95 2816 7.2 40 06:46 17.12.2022
2717 Snow 0 1010 95 4023 8.23 50 00:18 17.12.2022
2718 Clouds 1 1012 91 10000 8.23 50 21:39 16.12.2022
2719 Rain 0 1012 93 10000 8.23 50 20:24 16.12.2022
2720 Snow -1 1015 93 2414 8.75 50 17:47 16.12.2022
2721 Snow 0 1017 91 1006 7.72 80 14:52 16.12.2022
2722 Snow 0 1018 88 2414 9.77 80 14:27 16.12.2022
2723 Clouds 1 1018 73 10000 9.26 80 12:22 16.12.2022
2724 Clouds 2 1018 75 10000 8.75 80 11:35 16.12.2022
2725 Clouds 2 1019 79 10000 7.2 50 09:39 16.12.2022
2726 Clouds 2 1020 82 10000 6.69 50 08:27 16.12.2022
2727 Clouds 1 1020 84 10000 6.69 50 07:54 16.12.2022
2728 Clouds 1 1020 84 10000 6.69 50 07:54 16.12.2022
2729 Clouds 2 1023 78 10000 6.69 60 00:22 16.12.2022
2730 Clear 3 1023 73 10000 7.72 60 22:33 15.12.2022
2731 Clear 4 1023 71 10000 7.72 50 21:24 15.12.2022
2732 Clouds 5 1024 69 10000 6.69 60 19:41 15.12.2022
2733 Clouds 4 1025 71 10000 6.17 80 18:51 15.12.2022
2734 Clear 4 1026 75 10000 7.2 60 17:27 15.12.2022
2735 Clear 2 1027 81 10000 8.23 50 15:45 15.12.2022
2736 Clear 1 1027 84 10000 7.2 50 14:38 15.12.2022
2737 Clouds 1 1028 81 10000 6.69 40 12:48 15.12.2022
2738 Clouds 2 1028 80 10000 6.69 50 11:41 15.12.2022
2739 Clouds 2 1028 78 10000 5.14 40 08:55 15.12.2022
2740 Clouds 2 1028 77 10000 5.66 50 07:58 15.12.2022
2741 Clouds 1 1027 73 10000 3.6 40 05:36 15.12.2022
2742 Clouds -1 1025 66 10000 4.12 240 22:40 14.12.2022
2743 Clouds 0 1024 62 10000 3.09 270 21:24 14.12.2022
2744 Clouds 0 1024 60 10000 3.6 260 20:36 14.12.2022
2745 Clouds 0 1024 62 10000 3.6 250 19:51 14.12.2022
2746 Clouds -4 1025 69 10000 5.14 250 16:58 14.12.2022
2747 Clouds -4 1025 70 10000 5.14 250 16:38 14.12.2022
2748 Clouds -7 1024 76 10000 4.12 270 14:50 14.12.2022
2749 Clear -8 1023 71 10000 3.09 300 12:56 14.12.2022
2750 Clear -8 1022 70 10000 4.63 310 10:45 14.12.2022
2751 Clear -8 1022 70 10000 4.63 310 10:22 14.12.2022
2752 Clouds -7 1023 66 10000 6.69 330 06:37 14.12.2022
2753 Clouds 0 1022 65 10000 7.72 260 21:57 13.12.2022
2754 Clouds 0 1022 64 10000 7.72 260 21:37 13.12.2022
2755 Clear 0 1022 64 10000 7.72 250 20:47 13.12.2022
2756 Clear -3 1024 67 10000 8.75 240 18:55 13.12.2022
2757 Clouds -5 1026 74 10000 6.69 250 16:36 13.12.2022
2758 Clear -8 1026 82 10000 5.66 240 14:59 13.12.2022
2759 Clear -8 1026 80 10000 4.12 260 13:33 13.12.2022
2760 Clear -8 1026 77 10000 3.6 230 10:49 13.12.2022
2761 Clear -8 1026 77 10000 3.6 230 10:26 13.12.2022
2762 Clear -7 1026 74 10000 3.6 250 08:18 13.12.2022
2763 Clear -4 1027 53 10000 3.09 270 22:37 12.12.2022
2764 Clear -4 1027 49 10000 2.06 280 21:58 12.12.2022
2765 Clear -4 1027 51 10000 3.09 290 19:46 12.12.2022
2766 Clear -5 1028 57 10000 3.09 360 18:25 12.12.2022
2767 Clear -8 1028 70 10000 5.14 30 15:41 12.12.2022
2768 Clear -9 1026 77 10000 4.63 20 13:51 12.12.2022
2769 Clouds -8 1025 80 10000 6.17 30 09:46 12.12.2022
2770 Clouds -8 1025 79 10000 6.17 30 09:18 12.12.2022
2771 Clouds -6 1023 74 10000 6.69 20 04:51 12.12.2022
2772 Clouds -5 1023 66 10000 8.75 30 01:51 12.12.2022
2773 Clouds -5 1024 68 10000 6.69 50 22:18 11.12.2022
2774 Clouds -5 1024 68 10000 7.2 40 20:37 11.12.2022
2775 Clouds -6 1025 67 10000 8.23 40 19:39 11.12.2022
2776 Clouds -6 1026 68 10000 7.72 40 18:40 11.12.2022
2777 Clouds -6 1027 69 10000 6.69 40 17:53 11.12.2022
2778 Clouds -7 1028 69 10000 8.75 30 16:53 11.12.2022
2779 Clouds -7 1028 71 10000 8.75 30 16:29 11.12.2022
2780 Clouds -7 1028 73 10000 7.2 20 15:45 11.12.2022
2781 Clouds -8 1028 75 10000 6.17 30 13:35 11.12.2022
2782 Clouds -8 1029 74 10000 6.17 50 12:42 11.12.2022
2783 Clouds -8 1030 76 10000 8.23 40 10:44 11.12.2022
2784 Clear -8 1033 79 10000 6.17 40 03:38 11.12.2022
2785 Clear -6 1035 71 10000 7.72 50 00:28 11.12.2022
2786 Clear -5 1034 66 10000 6.17 40 22:38 10.12.2022
2787 Clear -5 1034 65 10000 6.17 40 22:19 10.12.2022
2788 Clear -5 1034 64 10000 7.72 40 21:18 10.12.2022
2789 Clear -5 1034 64 10000 7.72 40 20:19 10.12.2022
2790 Clear -6 1036 66 10000 9.26 50 17:54 10.12.2022
2791 Clear -7 1037 68 10000 10.8 50 16:47 10.12.2022
2792 Clear -8 1037 71 10000 8.23 30 15:52 10.12.2022
2793 Clear -8 1037 71 10000 8.23 30 15:33 10.12.2022
2794 Clear -10 1037 74 10000 8.75 40 13:44 10.12.2022
2795 Clear -10 1037 74 10000 7.72 30 12:27 10.12.2022
2796 Clear -10 1036 76 10000 6.17 40 10:57 10.12.2022
2797 Clear -9 1036 74 10000 6.69 40 09:52 10.12.2022
2798 Clear -9 1036 75 10000 6.17 40 07:23 10.12.2022
2799 Clear -9 1036 68 10000 9.26 30 06:54 10.12.2022
2800 Clear -4 1033 65 10000 5.14 20 23:51 09.12.2022
2801 Clear -2 1032 61 10000 5.66 20 22:43 09.12.2022
2802 Clear -2 1032 54 10000 3.6 360 21:41 09.12.2022
2803 Clear -1 1032 52 10000 3.6 350 20:59 09.12.2022
2804 Clear -1 1032 51 10000 5.14 10 19:47 09.12.2022
2805 Clear -3 1032 59 10000 4.63 20 17:56 09.12.2022
2806 Clear -3 1032 59 10000 4.63 20 17:56 09.12.2022
2807 Clear -3 1032 61 10000 4.63 20 17:32 09.12.2022
2808 Clear -3 1033 67 10000 5.14 350 16:27 09.12.2022
2809 Clear -4 1032 68 10000 5.14 20 15:31 09.12.2022
2810 Clear -5 1031 79 10000 4.12 10 12:52 09.12.2022
2811 Clear -4 1030 80 10000 3.09 360 10:51 09.12.2022
2812 Clear -4 1030 81 10000 3.09 360 10:23 09.12.2022
2813 Clear -2 1029 80 10000 3.09 10 07:29 09.12.2022
2814 Clouds -1 1028 79 10000 3.6 20 03:18 09.12.2022
2815 Clear 2 1027 73 10000 2.06 10 23:36 08.12.2022
2816 Clear 5 1025 62 10000 4.63 10 20:56 08.12.2022
2817 Clear 5 1025 66 10000 4.12 350 18:59 08.12.2022
2818 Clouds 4 1026 73 10000 6.17 360 16:50 08.12.2022
2819 Clouds 3 1025 81 10000 4.63 360 14:35 08.12.2022
2820 Clouds 3 1024 86 10000 3.09 290 13:40 08.12.2022
2821 Clouds 4 1023 90 10000 2.57 290 10:37 08.12.2022
2822 Clouds 4 1023 92 10000 2.57 290 09:32 08.12.2022
2823 Clouds 5 1021 90 10000 3.6 260 07:58 08.12.2022
2824 Mist 7 1018 96 2816 3.09 270 22:44 07.12.2022
2825 Rain 7 1018 96 2414 3.09 240 22:18 07.12.2022
2826 Mist 8 1018 96 8047 3.09 250 21:47 07.12.2022
2827 Mist 8 1018 96 4828 2.57 200 20:35 07.12.2022
2828 Mist 9 1018 95 9656 3.09 190 18:33 07.12.2022
2829 Mist 9 1019 95 4828 4.63 160 15:44 07.12.2022
2830 Mist 9 1019 95 9656 3.6 140 13:36 07.12.2022
2831 Rain 8 1020 92 10000 5.14 150 10:56 07.12.2022
2832 Clouds 8 1020 92 10000 4.12 120 10:26 07.12.2022
2833 Clouds 8 1020 92 10000 4.12 130 09:31 07.12.2022
2834 Clouds 8 1021 93 10000 4.12 100 07:41 07.12.2022
2835 Mist 7 1022 95 2816 3.6 100 05:25 07.12.2022
2836 Mist 4 1023 95 2012 2.57 20 02:57 07.12.2022
2837 Rain 4 1025 92 8047 4.12 340 21:59 06.12.2022
2838 Rain 5 1025 83 10000 3.6 210 19:35 06.12.2022
2839 Clouds 8 1026 72 10000 1.34 208 17:19 06.12.2022
2840 Clouds 7 1025 71 10000 7.2 170 16:30 06.12.2022
2841 Clouds 7 1025 71 10000 6.69 180 15:37 06.12.2022
2842 Clouds 6 1024 72 10000 7.72 170 14:40 06.12.2022
2843 Clouds 5 1024 71 10000 7.72 170 14:19 06.12.2022
2844 Clouds 5 1023 67 10000 8.75 170 12:41 06.12.2022
2845 Clouds 5 1022 62 10000 7.72 170 11:58 06.12.2022
2846 Clouds 5 1022 59 10000 7.72 170 07:51 06.12.2022
2847 Clouds 4 1021 58 10000 7.2 170 03:26 06.12.2022
2848 Clouds 4 1019 62 10000 8.23 170 23:45 05.12.2022
2849 Clear 5 1018 61 10000 6.69 170 21:56 05.12.2022
2850 Clear 5 1017 59 10000 7.2 170 20:55 05.12.2022
2851 Clear 5 1017 59 10000 7.2 170 20:23 05.12.2022
2852 Clear 5 1016 55 10000 7.72 180 19:37 05.12.2022
2853 Clear 4 1017 55 10000 9.77 190 16:55 05.12.2022
2854 Clear 3 1017 59 10000 10.29 180 15:39 05.12.2022
2855 Clouds 2 1017 63 10000 8.23 180 14:56 05.12.2022
2856 Clouds 1 1016 66 10000 8.23 180 12:58 05.12.2022
2857 Clouds 1 1016 66 10000 8.23 180 12:38 05.12.2022
2858 Clouds 1 1016 68 10000 6.69 180 11:45 05.12.2022
2859 Clouds 1 1016 70 10000 5.14 180 09:32 05.12.2022
2860 Clouds -1 1017 66 10000 5.66 140 00:19 05.12.2022
2861 Clouds -1 1018 61 10000 5.14 130 22:44 04.12.2022
2862 Clouds -1 1018 60 10000 5.14 130 22:20 04.12.2022
2863 Clouds -1 1019 58 10000 4.12 170 21:39 04.12.2022
2864 Clouds -1 1019 59 10000 3.6 210 20:26 04.12.2022
2865 Clouds -1 1020 57 10000 3.09 180 19:25 04.12.2022
2866 Clouds -1 1020 56 10000 3.6 200 18:37 04.12.2022
2867 Clear -2 1021 56 10000 2.57 290 17:23 04.12.2022
2868 Clear -2 1022 59 10000 4.63 310 16:37 04.12.2022
2869 Clear -2 1022 59 10000 4.63 310 16:19 04.12.2022
2870 Clear -3 1023 62 10000 4.12 300 15:44 04.12.2022
2871 Clear -4 1022 65 10000 3.09 290 14:43 04.12.2022
2872 Clouds -4 1022 65 10000 4.63 280 13:18 04.12.2022
2873 Clouds -4 1022 65 10000 4.12 280 12:42 04.12.2022
2874 Clouds -3 1021 65 10000 4.63 300 11:46 04.12.2022
2875 Clouds -2 1019 61 10000 9.26 290 09:20 04.12.2022
2876 Clouds 0 1017 67 10000 10.8 280 06:34 04.12.2022
2877 Clouds 6 1005 80 10000 20.06 250 23:44 03.12.2022
2878 Clouds 8 1003 82 10000 14.4 230 22:51 03.12.2022
2879 Clouds 8 1001 89 10000 10.8 220 21:55 03.12.2022
2880 Clouds 7 1001 91 10000 7.72 170 21:19 03.12.2022
2881 Clouds 6 1004 91 10000 7.72 180 19:28 03.12.2022
2882 Clouds 6 1005 91 10000 7.72 180 18:39 03.12.2022
2883 Rain 4 1010 87 9656 9.77 170 15:53 03.12.2022
2884 Rain 4 1011 80 10000 10.8 170 14:23 03.12.2022
2885 Clouds 5 1012 66 10000 9.77 170 12:54 03.12.2022
2886 Clouds 5 1012 67 10000 9.77 170 12:22 03.12.2022
2887 Clouds 4 1014 66 10000 8.75 170 10:21 03.12.2022
2888 Clouds 4 1018 68 10000 8.75 170 06:56 03.12.2022
2889 Clouds 3 1025 72 10000 7.2 140 00:31 03.12.2022
2890 Clouds 3 1026 72 10000 6.69 140 22:41 02.12.2022
2891 Clouds 4 1027 69 10000 4.63 140 20:53 02.12.2022
2892 Clouds 3 1028 70 10000 4.12 170 19:23 02.12.2022
2893 Clouds 0 1030 79 10000 2.57 160 15:59 02.12.2022
2894 Clear -2 1030 81 10000 2.57 160 14:43 02.12.2022
2895 Clear -3 1030 82 10000 2.57 160 14:23 02.12.2022
2896 Clear -3 1030 76 10000 3.09 210 12:55 02.12.2022
2897 Clouds -4 1029 76 10000 2.06 210 11:40 02.12.2022
2898 Clear -3 1029 72 10000 2.06 260 08:35 02.12.2022
2899 Clear -2 1028 69 10000 1.54 250 07:24 02.12.2022
2900 Clouds 1 1022 59 10000 8.23 260 23:49 01.12.2022
2901 Clouds 1 1019 59 10000 10.29 270 21:49 01.12.2022
2902 Clouds 1 1019 58 10000 10.29 270 21:31 01.12.2022
2903 Clouds 1 1016 64 10000 9.26 280 19:48 01.12.2022
2904 Clouds 1 1014 62 10000 11.83 280 18:23 01.12.2022
2905 Clouds 0 1011 78 10000 8.75 260 15:59 01.12.2022
2906 Clouds 0 1007 69 10000 10.29 230 11:55 01.12.2022
2907 Clouds 0 1007 68 10000 10.8 240 10:28 01.12.2022
2908 Clouds 1 1006 67 10000 11.83 250 09:54 01.12.2022
2909 Clouds 1 1006 67 10000 11.83 250 09:36 01.12.2022
2910 Clouds 5 1001 80 10000 11.32 250 02:00 01.12.2022
2911 Rain 8 996 94 10000 8.75 200 22:39 30.11.2022
2912 Rain 6 997 94 8047 6.69 160 21:19 30.11.2022
2913 Rain 6 998 92 8047 7.2 160 20:47 30.11.2022
2914 Rain 6 998 92 8047 7.2 160 20:23 30.11.2022
2915 Rain 5 1002 90 9656 10.8 140 18:34 30.11.2022
2916 Mist 4 1005 86 8047 11.32 140 17:36 30.11.2022
2917 Clouds 4 1009 81 10000 9.77 140 16:19 30.11.2022
2918 Clouds 4 1012 74 10000 9.77 140 14:39 30.11.2022
2919 Clouds 3 1012 74 10000 9.77 140 14:20 30.11.2022
2920 Clouds 1 1015 74 10000 6.17 120 11:35 30.11.2022
2921 Clouds 1 1020 75 10000 4.12 100 08:40 30.11.2022
2922 Clouds 1 1021 75 10000 5.14 110 07:58 30.11.2022
2923 Clouds 1 1024 74 10000 5.66 120 04:24 30.11.2022
2924 Clouds 0 1025 73 10000 4.12 80 23:22 29.11.2022
2925 Clouds 0 1025 72 10000 3.09 100 21:47 29.11.2022
2926 Clouds 0 1025 71 10000 4.12 130 20:38 29.11.2022
2927 Clouds 0 1025 71 10000 3.6 80 19:20 29.11.2022
2928 Clouds 0 1026 71 10000 2.57 100 17:36 29.11.2022
2929 Clouds -1 1026 73 10000 3.09 100 16:27 29.11.2022
2930 Clouds -2 1025 73 10000 2.06 50 14:51 29.11.2022
2931 Clouds -2 1025 72 10000 2.57 40 13:36 29.11.2022
2932 Clouds -2 1024 73 10000 3.09 30 12:35 29.11.2022
2933 Clouds -2 1023 73 10000 3.6 50 11:30 29.11.2022
2934 Clouds -2 1023 72 10000 4.12 30 10:23 29.11.2022
2935 Clouds -2 1022 73 10000 4.63 40 08:42 29.11.2022
2936 Clouds -1 1019 71 10000 3.6 20 05:52 29.11.2022
2937 Clouds 1 1014 67 10000 6.17 350 23:38 28.11.2022
2938 Clouds 1 1014 67 10000 6.17 350 23:19 28.11.2022
2939 Clouds 2 1011 68 10000 5.14 350 21:55 28.11.2022
2940 Clouds 2 1011 67 10000 5.14 350 21:36 28.11.2022
2941 Clouds 3 1009 67 10000 5.66 330 20:19 28.11.2022
2942 Clear 4 1007 68 10000 6.69 340 18:39 28.11.2022
2943 Clouds 5 1006 69 10000 7.72 320 17:51 28.11.2022
2944 Clouds 4 1005 75 10000 6.17 320 16:59 28.11.2022
2945 Clouds 4 1002 84 10000 4.12 310 14:30 28.11.2022
2946 Clouds 4 1002 88 10000 3.6 320 13:52 28.11.2022
2947 Clouds 4 1000 91 10000 3.6 320 12:43 28.11.2022
2948 Mist 3 998 93 4828 3.6 290 10:55 28.11.2022
2949 Clouds 3 994 93 10000 5.66 360 07:53 28.11.2022
2950 Clouds 4 994 88 10000 3.6 30 04:45 28.11.2022
2951 Mist 4 994 87 10000 5.14 50 03:59 28.11.2022
2952 Clouds 4 995 88 10000 6.17 50 03:20 28.11.2022
2953 Clouds 7 998 72 10000 4.12 40 23:43 27.11.2022
2954 Clouds 9 1000 63 10000 3.6 150 21:49 27.11.2022
2955 Clouds 10 1001 56 10000 4.12 180 20:36 27.11.2022
2956 Clouds 9 1003 62 10000 4.63 220 18:18 27.11.2022
2957 Clear 6 1006 71 10000 2.57 200 15:36 27.11.2022
2958 Clear 4 1007 74 10000 2.57 180 13:34 27.11.2022
2959 Clear 4 1007 72 10000 3.6 220 10:57 27.11.2022
2960 Clear 5 1007 69 10000 4.12 210 08:57 27.11.2022
2961 Clear 6 1007 64 10000 8.75 230 04:47 27.11.2022
2962 Clear 7 1007 66 10000 7.2 230 22:39 26.11.2022
2963 Clear 7 1008 64 10000 7.2 220 20:56 26.11.2022
2964 Clear 7 1008 69 10000 9.77 210 19:37 26.11.2022
2965 Clouds 5 1011 70 10000 7.72 240 18:26 26.11.2022
2966 Clouds 3 1013 77 10000 6.69 240 16:25 26.11.2022
2967 Clouds 1 1014 73 10000 2.06 220 13:51 26.11.2022
2968 Clouds 1 1014 70 10000 4.63 300 12:23 26.11.2022
2969 Clouds 1 1013 71 10000 3.09 280 10:52 26.11.2022
2970 Clouds 2 1013 67 10000 6.17 280 09:32 26.11.2022
2971 Clouds 2 1012 72 10000 5.66 280 07:21 26.11.2022
2972 Clouds 4 1004 85 10000 7.72 270 21:47 25.11.2022
2973 Clouds 4 1003 86 10000 7.72 270 21:27 25.11.2022
2974 Mist 4 1001 91 9656 8.23 270 19:57 25.11.2022
2975 Mist 3 1003 92 8047 5.14 180 16:50 25.11.2022
2976 Clouds 2 1005 90 10000 4.63 160 14:45 25.11.2022
2977 Clouds -2 1012 86 10000 2.57 360 09:36 25.11.2022
2978 Clouds -2 1014 86 10000 3.6 20 08:41 25.11.2022
2979 Clouds -3 1016 84 10000 3.09 30 06:55 25.11.2022
2980 Clouds -3 1016 85 10000 3.09 30 06:26 25.11.2022
2981 Clear 0 1021 81 10000 2.06 90 00:29 25.11.2022
2982 Clear 1 1023 78 10000 3.6 100 22:57 24.11.2022
2983 Clear 1 1023 75 10000 4.63 130 21:59 24.11.2022
2984 Clear 3 1024 72 10000 4.63 130 20:45 24.11.2022
2985 Clouds 2 1025 72 10000 3.6 120 19:20 24.11.2022
2986 Clouds 1 1027 71 10000 1.54 100 17:43 24.11.2022
2987 Clouds 1 1027 72 10000 1.54 100 17:20 24.11.2022
2988 Clouds -1 1028 72 10000 1.54 50 15:29 24.11.2022
2989 Clouds -3 1029 74 10000 2.06 140 13:55 24.11.2022
2990 Clouds -3 1029 77 10000 1.54 30 11:59 24.11.2022
2991 Clouds -3 1029 74 10000 3.09 60 10:37 24.11.2022
2992 Clouds -3 1029 70 10000 2.57 70 07:54 24.11.2022
2993 Clouds -2 1028 78 10000 4.12 60 03:23 24.11.2022
2994 Clouds 1 1026 78 10000 3.09 240 23:46 23.11.2022
2995 Clouds 1 1025 75 10000 3.6 220 22:24 23.11.2022
2996 Clouds 2 1024 71 10000 3.09 200 21:30 23.11.2022
2997 Clouds 2 1024 71 10000 3.09 210 20:45 23.11.2022
2998 Clouds 2 1024 72 10000 3.09 210 19:27 23.11.2022
2999 Clouds 2 1024 72 10000 3.09 210 19:27 23.11.2022
3000 Clouds 2 1024 72 10000 3.09 210 19:27 23.11.2022
3001 Clouds 2 1023 76 10000 2.06 240 18:41 23.11.2022
3002 Clouds 0 1023 83 10000 2.57 240 16:42 23.11.2022
3003 Clouds -1 1021 85 10000 3.09 270 13:40 23.11.2022
3004 Clouds -1 1021 88 10000 3.09 270 13:21 23.11.2022
3005 Clouds -1 1020 87 10000 2.57 270 12:21 23.11.2022
3006 Clouds -1 1019 87 10000 1.03 240 11:41 23.11.2022
3007 Clouds -1 1019 87 10000 1.54 300 10:43 23.11.2022
3008 Clouds -1 1019 85 10000 2.06 220 09:44 23.11.2022
3009 Clouds -1 1019 85 10000 2.57 200 09:25 23.11.2022
3010 Clouds -1 1018 84 9656 1.54 230 08:37 23.11.2022
3011 Clouds -1 1019 77 10000 2.57 200 06:23 23.11.2022
3012 Clouds 0 1019 70 10000 1.34 203 05:18 23.11.2022
3013 Clouds -1 1022 63 10000 3.09 160 23:24 22.11.2022
3014 Clouds -1 1022 64 10000 3.6 240 22:33 22.11.2022
3015 Clear -1 1023 61 10000 5.14 250 21:34 22.11.2022
3016 Clear 0 1023 59 10000 4.63 210 20:50 22.11.2022
3017 Clear 0 1024 58 10000 5.14 230 19:57 22.11.2022
3018 Clear -1 1026 58 10000 5.14 220 17:56 22.11.2022
3019 Clear -2 1026 58 10000 5.14 220 17:26 22.11.2022
3020 Clear -2 1026 58 10000 5.14 220 17:26 22.11.2022
3021 Clouds -2 1027 62 10000 1.79 334 15:56 22.11.2022
3022 Clear -5 1027 69 10000 3.09 260 13:47 22.11.2022
3023 Clear -4 1026 63 10000 5.14 290 11:52 22.11.2022
3024 Clear -2 1023 65 10000 7.72 300 09:25 22.11.2022
3025 Clouds 0 1019 65 10000 9.77 300 07:55 22.11.2022
3026 Clouds 4 1012 65 10000 10.8 240 03:47 22.11.2022
3027 Clouds 0 1013 68 10000 6.69 180 23:41 21.11.2022
3028 Clouds 0 1013 71 10000 7.72 180 22:49 21.11.2022
3029 Clouds 0 1014 69 10000 8.23 170 21:59 21.11.2022
3030 Clouds 0 1015 68 10000 10.29 170 20:56 21.11.2022
3031 Clouds 0 1017 66 10000 8.75 170 19:42 21.11.2022
3032 Clouds -1 1019 67 10000 7.72 170 18:54 21.11.2022
3033 Clouds -2 1019 67 10000 7.72 170 18:34 21.11.2022
3034 Clouds -4 1022 67 10000 4.63 180 16:56 21.11.2022
3035 Clouds -4 1023 67 10000 4.63 170 16:37 21.11.2022
3036 Clouds -5 1024 64 10000 5.66 150 15:53 21.11.2022
3037 Clouds -6 1025 62 10000 4.63 160 14:58 21.11.2022
3038 Clouds -8 1025 70 10000 4.63 170 13:52 21.11.2022
3039 Clear -10 1025 70 10000 3.6 220 11:39 21.11.2022
3040 Clear -9 1025 70 10000 5.66 240 09:19 21.11.2022
3041 Clear -9 1024 67 10000 4.63 230 07:42 21.11.2022
3042 Clouds -5 1015 53 10000 10.29 270 22:48 20.11.2022
3043 Snow -4 1013 51 4828 13.38 260 21:36 20.11.2022
3044 Clouds -3 1011 45 8047 12.86 270 20:33 20.11.2022
3045 Clouds -1 1011 62 10000 10.8 240 18:46 20.11.2022
3046 Clouds -2 1010 74 10000 9.26 250 16:46 20.11.2022
3047 Clouds -3 1009 77 10000 10.8 240 15:32 20.11.2022
3048 Clouds -2 1008 74 10000 10.8 240 14:54 20.11.2022
3049 Clouds -2 1008 75 10000 9.77 250 13:34 20.11.2022
3050 Clouds -2 1008 80 10000 5.14 240 12:44 20.11.2022
3051 Clouds -2 1008 85 9656 7.72 210 11:38 20.11.2022
3052 Clouds -2 1008 85 3219 7.2 210 10:51 20.11.2022
3053 Clouds -2 1009 77 10000 5.66 170 09:42 20.11.2022
3054 Clouds -2 1010 77 10000 5.14 180 08:47 20.11.2022
3055 Clouds -2 1011 77 10000 7.72 220 07:30 20.11.2022
3056 Clouds -1 1012 68 10000 7.72 220 05:23 20.11.2022
3057 Clouds 0 1014 75 10000 9.26 220 01:23 20.11.2022
3058 Clouds 0 1015 78 10000 7.2 220 00:42 20.11.2022
3059 Clouds 0 1015 81 10000 4.12 160 00:24 20.11.2022
3060 Clouds 0 1015 81 10000 6.69 230 23:54 19.11.2022
3061 Clouds 0 1015 81 10000 6.69 230 23:25 19.11.2022
3062 Clouds 0 1015 80 10000 4.12 130 22:41 19.11.2022
3063 Clouds 1 1015 74 10000 5.14 240 21:36 19.11.2022
3064 Clouds 1 1015 74 10000 5.14 240 21:18 19.11.2022
3065 Clouds 1 1016 72 10000 5.66 220 20:38 19.11.2022
3066 Clouds 1 1016 75 10000 8.75 220 19:34 19.11.2022
3067 Clouds 1 1017 76 10000 8.75 230 17:42 19.11.2022
3068 Clouds 1 1017 76 10000 8.75 230 17:23 19.11.2022
3069 Clouds 0 1018 77 10000 7.2 230 16:35 19.11.2022
3070 Clouds -2 1018 86 10000 4.12 240 14:40 19.11.2022
3071 Mist -3 1017 91 4828 6.17 200 12:54 19.11.2022
3072 Clouds -3 1017 93 6437 2.57 150 11:20 19.11.2022
3073 Mist -3 1017 93 6437 2.06 120 09:44 19.11.2022
3074 Snow -3 1016 93 2816 1.54 20 07:52 19.11.2022
3075 Clouds -3 1016 88 8047 1.54 140 04:43 19.11.2022
3076 Clouds -3 1014 85 10000 3.09 240 00:30 19.11.2022
3077 Clouds -3 1013 84 10000 4.12 280 23:26 18.11.2022
3078 Clouds -2 1013 86 10000 2.57 250 22:18 18.11.2022
3079 Clouds -2 1013 86 10000 2.57 250 22:18 18.11.2022
3080 Clouds -2 1012 86 9656 1.03 0 21:35 18.11.2022
3081 Clouds -2 1012 85 4023 1.03 0 20:56 18.11.2022
3082 Clouds -2 1012 85 10000 3.09 340 20:20 18.11.2022
3083 Clouds -2 1012 83 10000 1.03 0 19:34 18.11.2022
3084 Clouds -3 1012 84 4828 1.03 160 17:45 18.11.2022
3085 Snow -5 1013 87 10000 2.57 140 14:47 18.11.2022
3086 Clouds -7 1013 84 10000 2.57 170 11:49 18.11.2022
3087 Clear -7 1013 86 10000 2.57 180 10:22 18.11.2022
3088 Clear -5 1013 78 10000 3.6 270 07:52 18.11.2022
3089 Clouds -4 1013 76 10000 5.66 250 05:27 18.11.2022
3090 Clouds -3 1012 69 10000 7.2 270 01:57 18.11.2022
3091 Clouds -2 1009 70 10000 9.77 270 22:56 17.11.2022
3092 Clouds -1 1008 70 10000 7.2 260 20:48 17.11.2022
3093 Clouds -1 1007 69 10000 8.75 260 19:51 17.11.2022
3094 Clouds -1 1007 70 10000 8.75 260 19:20 17.11.2022
3095 Clouds 0 1007 69 10000 9.77 260 18:27 17.11.2022
3096 Clouds -1 1007 71 10000 9.26 260 17:30 17.11.2022
3097 Clouds -1 1007 71 10000 9.26 260 17:30 17.11.2022
3098 Clouds -1 1007 79 10000 7.2 270 15:42 17.11.2022
3099 Clouds -1 1007 82 10000 5.66 250 12:19 17.11.2022
3100 Clouds -1 1008 84 10000 5.14 250 10:30 17.11.2022
3101 Clouds -1 1008 86 10000 6.17 250 07:20 17.11.2022
3102 Clouds 0 1009 92 10000 4.12 310 00:54 17.11.2022
3103 Clouds 0 1009 95 10000 3.09 300 23:21 16.11.2022
3104 Clouds 1 1009 93 10000 2.06 360 21:54 16.11.2022
3105 Snow 1 1009 94 3621 2.57 40 20:31 16.11.2022
3106 Snow 1 1011 94 2816 3.6 50 18:49 16.11.2022
3107 Snow 0 1011 94 1609 3.6 50 18:27 16.11.2022
3108 Snow 0 1015 92 2012 5.14 50 15:41 16.11.2022
3109 Snow -1 1019 88 9656 4.63 40 11:23 16.11.2022
3110 Clouds 0 1026 73 10000 6.69 50 06:54 16.11.2022
3111 Clouds -1 1029 70 10000 3.09 70 01:38 16.11.2022
3112 Clouds 0 1030 67 10000 4.12 70 23:31 15.11.2022
3113 Clouds 1 1031 63 10000 3.09 10 21:42 15.11.2022
3114 Clouds 1 1032 60 10000 2.06 30 19:48 15.11.2022
3115 Clouds 1 1032 60 10000 2.06 350 18:51 15.11.2022
3116 Clouds 1 1033 61 10000 1.54 0 17:36 15.11.2022
3117 Clear 0 1033 63 10000 2.57 80 16:20 15.11.2022
3118 Clear 0 1033 63 10000 2.57 80 16:20 15.11.2022
3119 Clear 0 1034 66 10000 2.57 360 15:37 15.11.2022
3120 Clear -3 1033 75 10000 2.57 320 13:57 15.11.2022
3121 Clear -2 1033 70 10000 3.09 320 12:54 15.11.2022
3122 Clear -2 1032 68 10000 2.57 300 11:22 15.11.2022
3123 Clouds -1 1031 66 10000 2.57 300 09:39 15.11.2022
3124 Clouds 1 1028 60 10000 5.66 290 00:44 15.11.2022
3125 Clouds 1 1028 60 10000 5.66 290 00:23 15.11.2022
3126 Clouds 2 1026 57 10000 7.2 260 21:56 14.11.2022
3127 Clouds 2 1025 56 10000 7.72 260 20:44 14.11.2022
3128 Clouds 2 1025 55 10000 8.23 280 19:46 14.11.2022
3129 Clouds 2 1025 57 10000 8.23 270 18:27 14.11.2022
3130 Clear -2 1022 69 10000 5.66 270 12:55 14.11.2022
3131 Clear -2 1022 69 10000 5.66 270 12:55 14.11.2022
3132 Clear -2 1021 70 10000 5.14 270 11:49 14.11.2022
3133 Clear -2 1020 70 10000 5.66 280 10:59 14.11.2022
3134 Clouds -2 1019 67 10000 5.14 280 08:34 14.11.2022
3135 Clear -1 1018 64 10000 6.17 280 07:52 14.11.2022
3136 Clouds 0 1017 66 10000 7.2 280 04:24 14.11.2022
3137 Clouds 2 1014 67 10000 6.69 280 23:23 13.11.2022
3138 Clouds 3 1012 69 10000 7.72 270 21:42 13.11.2022
3139 Clouds 4 1012 74 10000 7.2 270 20:48 13.11.2022
3140 Clouds 4 1011 85 10000 7.2 270 18:55 13.11.2022
3141 Rain 4 1012 86 10000 5.14 270 17:50 13.11.2022
3142 Clouds 4 1012 84 10000 3.09 310 15:55 13.11.2022
3143 Drizzle 4 1012 85 10000 3.6 300 14:39 13.11.2022
3144 Clouds 5 1011 84 10000 3.09 340 12:56 13.11.2022
3145 Clouds 5 1010 82 10000 2.06 320 11:55 13.11.2022
3146 Clouds 6 1010 78 10000 2.57 330 10:42 13.11.2022
3147 Clouds 7 1008 71 10000 2.06 270 05:53 13.11.2022
3148 Clouds 9 1005 74 10000 6.69 280 23:55 12.11.2022
3149 Clouds 12 1002 79 10000 8.75 280 21:42 12.11.2022
3150 Clouds 12 1002 78 10000 8.75 280 21:19 12.11.2022
3151 Clouds 13 1000 90 10000 9.26 260 19:46 12.11.2022
3152 Mist 10 999 95 4023 3.09 170 16:58 12.11.2022
3153 Mist 10 998 95 3621 2.06 150 15:59 12.11.2022
3154 Clouds 9 997 94 10000 1.54 280 14:46 12.11.2022
3155 Rain 8 994 96 10000 6.17 350 10:39 12.11.2022
3156 Mist 11 996 96 9656 4.63 20 07:48 12.11.2022
3157 Rain 15 1007 89 10000 6.17 150 00:40 12.11.2022
3158 Clouds 17 1010 72 10000 5.14 170 21:31 11.11.2022
3159 Clouds 17 1011 70 10000 3.6 160 20:44 11.11.2022
3160 Clear 17 1012 69 10000 3.6 160 19:28 11.11.2022
3161 Clear 16 1013 69 10000 3.09 180 18:40 11.11.2022
3162 Clear 15 1014 70 10000 3.6 190 17:40 11.11.2022
3163 Clear 13 1015 77 10000 5.14 180 15:21 11.11.2022
3164 Clear 12 1015 81 10000 5.14 170 14:18 11.11.2022
3165 Clear 10 1015 79 10000 4.63 170 12:46 11.11.2022
3166 Clear 10 1016 73 10000 4.63 180 09:32 11.11.2022
3167 Clear 10 1016 72 10000 4.12 180 08:27 11.11.2022
3168 Clouds 13 1016 60 10000 4.63 170 03:48 11.11.2022
3169 Clear 14 1016 55 10000 4.63 170 22:54 10.11.2022
3170 Clouds 15 1017 48 10000 5.14 180 21:51 10.11.2022
3171 Clouds 16 1017 47 10000 5.14 180 21:30 10.11.2022
3172 Clouds 16 1017 47 10000 6.69 230 20:48 10.11.2022
3173 Clouds 16 1017 46 10000 6.69 230 20:20 10.11.2022
3174 Clouds 15 1018 47 10000 5.66 220 18:59 10.11.2022
3175 Clouds 13 1019 50 10000 4.63 180 17:59 10.11.2022
3176 Clouds 11 1020 54 10000 2.06 200 16:25 10.11.2022
3177 Clouds 9 1021 57 10000 4.63 170 13:41 10.11.2022
3178 Clouds 8 1021 57 10000 4.63 180 11:29 10.11.2022
3179 Clouds 8 1022 55 10000 5.66 190 08:33 10.11.2022
3180 Clouds 8 1026 55 10000 4.63 190 01:29 10.11.2022
3181 Clouds 8 1028 52 10000 3.09 160 23:30 09.11.2022
3182 Clouds 8 1029 52 10000 4.63 150 22:28 09.11.2022
3183 Clear 8 1032 52 10000 3.6 170 20:48 09.11.2022
3184 Clear 9 1032 51 10000 3.6 170 20:29 09.11.2022
3185 Clear 7 1033 52 10000 3.09 150 19:41 09.11.2022
3186 Clear 7 1035 52 10000 3.09 160 18:49 09.11.2022
3187 Clear 3 1038 61 10000 3.09 110 15:56 09.11.2022
3188 Clear 1 1039 68 10000 1.54 80 14:47 09.11.2022
3189 Clear 1 1039 70 10000 1.54 80 14:24 09.11.2022
3190 Clear -3 1039 78 10000 2.06 20 13:18 09.11.2022
3191 Clear -2 1039 74 10000 1.54 360 11:36 09.11.2022
3192 Clear -1 1040 73 10000 1.54 330 08:35 09.11.2022
3193 Clear -1 1040 72 10000 2.06 320 07:42 09.11.2022
3194 Clear 4 1039 51 10000 4.63 340 00:54 09.11.2022
3195 Clear 7 1038 44 10000 5.14 310 21:45 08.11.2022
3196 Clear 7 1038 44 10000 5.14 310 21:26 08.11.2022
3197 Clear 8 1038 44 10000 6.69 270 20:41 08.11.2022
3198 Clear 7 1038 45 10000 4.12 320 19:37 08.11.2022
3199 Clear 6 1038 47 10000 6.17 320 18:31 08.11.2022
3200 Clear 5 1038 49 10000 5.14 310 16:47 08.11.2022
3201 Clear 3 1037 54 10000 6.69 300 14:56 08.11.2022
3202 Clear 2 1036 57 10000 4.63 300 13:41 08.11.2022
3203 Clear 2 1036 57 10000 4.63 300 13:22 08.11.2022
3204 Clouds 6 1030 55 10000 7.72 330 09:20 08.11.2022
3205 Clear 7 1028 57 10000 6.69 270 07:25 08.11.2022
3206 Clear 11 1023 44 10000 6.69 280 00:33 08.11.2022
3207 Clouds 12 1021 44 10000 12.35 280 22:25 07.11.2022
3208 Clouds 13 1019 43 10000 12.35 270 21:22 07.11.2022
3209 Clouds 14 1018 45 10000 10.8 270 20:40 07.11.2022
3210 Clear 15 1017 44 10000 14.4 280 18:53 07.11.2022
3211 Clouds 15 1016 46 10000 9.26 280 17:28 07.11.2022
3212 Clear 15 1016 57 10000 11.32 240 15:35 07.11.2022
3213 Clear 14 1015 66 10000 10.29 230 14:49 07.11.2022
3214 Clear 13 1014 72 10000 7.2 210 12:55 07.11.2022
3215 Clear 13 1014 74 10000 6.69 230 11:44 07.11.2022
3216 Clear 14 1014 76 10000 6.69 230 09:49 07.11.2022
3217 Clouds 15 1014 71 10000 5.66 240 07:54 07.11.2022
3218 Clouds 16 1014 76 10000 5.66 230 06:25 07.11.2022
3219 Clouds 18 1014 74 10000 4.63 210 01:42 07.11.2022
3220 Clouds 18 1015 75 10000 4.63 220 22:31 06.11.2022
3221 Clouds 19 1014 72 10000 7.72 230 21:21 06.11.2022
3222 Clouds 19 1014 72 10000 6.69 220 20:32 06.11.2022
3223 Clouds 19 1014 74 10000 7.2 230 19:55 06.11.2022
3224 Clouds 18 1015 74 10000 7.72 200 18:41 06.11.2022
3225 Clouds 18 1015 76 10000 8.23 200 18:20 06.11.2022
3226 Clouds 17 1015 84 10000 8.75 210 17:22 06.11.2022
3227 Clouds 17 1015 88 10000 8.75 200 16:46 06.11.2022
3228 Rain 17 1015 91 10000 7.72 200 15:54 06.11.2022
3229 Rain 17 1015 92 4828 6.17 220 14:36 06.11.2022
3230 Drizzle 19 1013 75 10000 8.75 180 12:42 06.11.2022
3231 Clouds 20 1012 72 10000 7.72 180 10:49 06.11.2022
3232 Clouds 19 1012 72 10000 9.26 180 09:51 06.11.2022
3233 Clear 20 1012 73 10000 9.77 190 06:40 06.11.2022
3234 Clear 21 1014 74 10000 7.2 180 23:22 05.11.2022
3235 Clear 23 1015 60 10000 7.72 190 19:59 05.11.2022
3236 Clouds 23 1016 60 10000 6.69 200 18:22 05.11.2022
3237 Clear 21 1017 65 10000 5.66 190 16:23 05.11.2022
3238 Clear 16 1017 77 10000 6.17 180 14:34 05.11.2022
3239 Clear 14 1017 80 10000 5.14 180 13:21 05.11.2022
3240 Clear 14 1017 79 10000 6.17 180 10:43 05.11.2022
3241 Clear 14 1018 76 10000 5.66 170 08:49 05.11.2022
3242 Clear 14 1018 73 10000 4.63 170 07:22 05.11.2022
3243 Clouds 14 1018 71 10000 5.14 190 06:54 05.11.2022
3244 Clouds 17 1019 63 10000 4.63 180 23:36 04.11.2022
3245 Clouds 17 1019 61 10000 4.63 180 23:18 04.11.2022
3246 -273 0 0 0 0 0 20:32 04.11.2022
3247 Clear 20 1020 52 10000 6.17 170 20:32 04.11.2022
3248 Clear 20 1020 52 10000 6.17 170 20:32 04.11.2022
3249 Clear 20 1020 51 10000 6.17 160 19:24 04.11.2022
3250 Clear 17 1022 54 10000 4.12 170 17:23 04.11.2022
3251 Clear 9 1022 81 10000 1.54 180 13:52 04.11.2022
3252 Clear 8 1022 83 10000 2.57 140 12:27 04.11.2022
3253 Clear 9 1022 83 10000 1.54 150 10:51 04.11.2022
3254 Clear 8 1022 85 10000 3.09 170 08:53 04.11.2022
3255 Clear 10 1022 82 10000 2.06 170 07:46 04.11.2022
3256 Clear 11 1022 80 10000 2.57 240 05:24 04.11.2022
3257 Clear 15 1022 64 10000 3.6 170 23:28 03.11.2022
3258 Clear 18 1023 56 10000 4.63 220 20:51 03.11.2022
3259 Clear 18 1023 56 10000 4.63 220 20:29 03.11.2022
3260 Clear 17 1024 56 10000 3.6 240 19:40 03.11.2022
3261 Clear 15 1026 60 10000 2.57 230 17:51 03.11.2022
3262 Clear 12 1026 65 10000 2.06 200 16:53 03.11.2022
3263 Haze 6 1027 83 6437 1.54 200 14:20 03.11.2022
3264 Clear 4 1027 87 10000 2.06 140 13:19 03.11.2022
3265 Haze 4 1027 86 9656 2.57 140 12:30 03.11.2022
3266 Clear 4 1028 85 10000 2.06 80 09:43 03.11.2022
3267 Clear 4 1028 81 10000 1.54 40 07:43 03.11.2022
3268 Haze 14 1028 43 8047 1.54 220 21:37 02.11.2022
3269 Clear 15 1028 44 10000 1.03 10 20:44 02.11.2022
3270 Clear 15 1028 44 10000 2.57 200 19:59 02.11.2022
3271 Clear 13 1029 51 10000 1.54 350 17:30 02.11.2022
3272 Clear 12 1029 56 10000 3.09 50 16:22 02.11.2022
3273 Clear 9 1028 82 10000 2.57 360 14:58 02.11.2022
3274 Mist 6 1026 93 9656 2.06 320 12:48 02.11.2022
3275 Fog 6 1025 94 805 1.03 360 11:55 02.11.2022
3276 Fog 9 1023 95 604 1.54 260 09:27 02.11.2022
3277 Fog 10 1020 93 10000 3.6 230 06:48 02.11.2022
3278 Clear 12 1016 85 10000 4.63 260 00:55 02.11.2022
3279 Clouds 14 1015 82 10000 5.14 270 22:20 01.11.2022
3280 Clouds 14 1014 84 10000 4.63 280 21:42 01.11.2022
3281 Clouds 14 1014 88 10000 5.66 250 20:27 01.11.2022
3282 Mist 14 1014 89 9656 4.12 220 19:57 01.11.2022
3283 Mist 14 1014 89 9656 4.12 220 19:39 01.11.2022
3284 Mist 12 1014 94 4828 1.54 210 17:36 01.11.2022
3285 Mist 11 1015 93 2816 2.06 340 16:23 01.11.2022
3286 Mist 11 1014 94 4023 1.03 190 14:33 01.11.2022
3287 Mist 10 1014 90 8047 1.03 180 12:31 01.11.2022
3288 Clouds 10 1013 87 10000 2.06 190 11:38 01.11.2022
3289 Clouds 10 1013 87 10000 2.06 190 11:20 01.11.2022
3290 Clouds 10 1013 84 10000 2.57 130 08:51 01.11.2022
3291 Clouds 10 1013 82 10000 1.54 200 07:48 01.11.2022
3292 Clouds 10 1013 81 10000 1.54 180 07:26 01.11.2022
3293 Clouds 10 1013 79 10000 2.57 290 06:45 01.11.2022
3294 Clouds 10 1013 70 10000 1.54 100 03:57 01.11.2022
3295 Clouds 14 1013 52 10000 2.06 150 22:22 31.10.2022
3296 Clouds 15 1013 49 10000 1.03 310 21:26 31.10.2022
3297 Clouds 15 1013 48 10000 1.54 210 19:56 31.10.2022
3298 Clear 15 1014 48 10000 3.09 260 18:35 31.10.2022
3299 Clear 14 1015 49 10000 4.12 190 16:44 31.10.2022
3300 Clouds 10 1016 64 10000 2.57 140 14:30 31.10.2022
3301 Clouds 7 1015 74 10000 2.06 130 12:18 31.10.2022
3302 Clear 7 1015 75 10000 1.54 190 09:34 31.10.2022
3303 Clouds 7 1016 70 10000 0.51 260 05:40 31.10.2022
3304 Clouds 8 1017 63 10000 1.03 120 02:38 31.10.2022
3305 Clear 8 1017 64 10000 1.54 120 01:46 31.10.2022
3306 Clear 16 1019 37 10000 3.6 180 21:51 30.10.2022
3307 Clear 17 1020 38 10000 4.12 190 20:37 30.10.2022
3308 Clear 16 1021 38 10000 2.57 170 19:33 30.10.2022
3309 Clear 12 1023 50 10000 4.63 220 16:28 30.10.2022
3310 Clear 7 1024 72 10000 3.09 200 14:23 30.10.2022
3311 Clear 5 1024 73 10000 2.06 160 13:33 30.10.2022
3312 Clear 4 1025 77 10000 2.06 220 11:58 30.10.2022
3313 Clear 6 1024 74 10000 4.63 220 09:56 30.10.2022
3314 Clear 6 1025 71 10000 5.14 180 08:54 30.10.2022
3315 Clear 5 1025 71 10000 2.57 230 07:27 30.10.2022
3316 Clear 12 1027 57 10000 3.09 200 00:29 30.10.2022
3317 Clear 13 1028 50 10000 4.12 250 23:45 29.10.2022
3318 Clear 15 1029 49 10000 4.12 240 21:45 29.10.2022
3319 Clear 11 1031 58 10000 4.63 210 18:38 29.10.2022
3320 Clear 10 1031 63 10000 3.6 200 17:22 29.10.2022
3321 Clear 5 1032 77 10000 2.06 180 15:38 29.10.2022
3322 Clear 2 1032 86 10000 1.54 160 14:52 29.10.2022
3323 Clear 0 1031 93 10000 1.54 120 12:36 29.10.2022
3324 Clear 0 1031 91 10000 1.03 100 11:58 29.10.2022
3325 Clear 1 1032 81 10000 1.54 160 08:56 29.10.2022
3326 Clouds 2 1033 79 10000 1.03 100 06:48 29.10.2022
3327 Clear 3 1033 75 10000 1.03 60 05:53 29.10.2022
3328 Clear 8 1034 54 10000 2.06 120 23:43 28.10.2022
3329 Clear 10 1035 49 10000 2.06 180 21:31 28.10.2022
3330 Clear 9 1036 51 10000 1.54 140 19:57 28.10.2022
3331 Clear 8 1038 53 10000 1.54 260 18:33 28.10.2022
3332 Clear 7 1038 55 10000 1.54 0 17:39 28.10.2022
3333 Clear 1 1037 81 10000 1.34 343 14:51 28.10.2022
3334 Clear 0 1036 83 10000 1.03 270 13:43 28.10.2022
3335 Clear 0 1035 80 10000 1.03 360 11:55 28.10.2022
3336 Clear 0 1035 79 10000 1.03 360 11:32 28.10.2022
3337 Clear 0 1035 80 10000 1.03 240 10:45 28.10.2022
3338 Clear 1 1035 76 10000 1.03 220 09:36 28.10.2022
3339 Clear 3 1033 69 10000 4.63 340 06:57 28.10.2022
3340 Clear 7 1029 61 10000 5.14 310 01:44 28.10.2022
3341 Clouds 9 1027 54 10000 7.2 290 23:46 27.10.2022
3342 Clear 10 1026 52 10000 6.69 290 22:37 27.10.2022
3343 Clear 10 1024 53 10000 7.72 270 20:58 27.10.2022
3344 Clouds 9 1023 59 10000 6.69 290 18:33 27.10.2022
3345 Clouds 9 1022 62 10000 7.2 270 17:22 27.10.2022
3346 Clouds 9 1013 77 10000 9.26 280 12:54 27.10.2022
3347 Clouds 15 1004 87 10000 8.75 230 07:50 27.10.2022
3348 Rain 17 1003 91 9656 4.12 190 02:56 27.10.2022
3349 Clear 22 1002 65 10000 7.2 150 23:53 26.10.2022
3350 Clear 23 1003 63 10000 7.2 170 22:44 26.10.2022
3351 Clouds 24 1004 64 10000 7.2 170 21:38 26.10.2022
3352 Clear 22 1008 72 10000 6.69 150 18:38 26.10.2022
3353 Clear 20 1009 82 10000 6.17 160 16:22 26.10.2022
3354 Clear 16 1010 90 10000 3.6 130 13:34 26.10.2022
3355 Clear 16 1011 89 10000 3.6 120 12:34 26.10.2022
3356 Clear 16 1012 89 10000 3.6 120 09:31 26.10.2022
3357 Clear 17 1013 88 10000 2.06 130 08:53 26.10.2022
3358 Clear 17 1013 86 10000 3.6 140 07:57 26.10.2022
3359 Clear 21 1014 78 10000 7.2 170 00:42 26.10.2022
3360 Clear 22 1014 77 10000 7.2 170 00:20 26.10.2022
3361 Clouds 24 1015 71 10000 1.79 170 21:47 25.10.2022
3362 Clear 24 1016 69 10000 5.66 180 20:50 25.10.2022
3363 Clouds 23 1017 73 10000 2.57 170 19:19 25.10.2022
3364 Clouds 19 1018 84 10000 4.63 180 17:51 25.10.2022
3365 Fog 12 1019 94 805 3.09 20 13:57 25.10.2022
3366 Mist 12 1019 94 9656 2.57 350 11:38 25.10.2022
3367 Clear 13 1019 94 10000 2.06 110 10:37 25.10.2022
3368 Mist 13 1019 92 9656 3.09 110 09:33 25.10.2022
3369 Mist 13 1020 92 8047 1.54 60 08:18 25.10.2022
3370 Mist 13 1020 92 8047 1.54 60 07:54 25.10.2022
3371 Clouds 13 1020 91 10000 2.57 80 06:56 25.10.2022
3372 Mist 14 1021 85 9656 1.54 10 03:46 25.10.2022
3373 Clouds 18 1021 67 10000 3.09 80 00:37 25.10.2022
3374 Clouds 19 1022 60 10000 3.6 110 23:47 24.10.2022
3375 Clouds 20 1022 57 10000 3.6 90 22:24 24.10.2022
3376 Clear 19 1022 47 10000 5.14 100 21:33 24.10.2022
3377 Haze 19 1023 46 9656 4.12 50 20:42 24.10.2022
3378 Clouds 16 1025 62 10000 3.6 20 18:52 24.10.2022
3379 Clouds 16 1025 67 10000 2.57 30 17:50 24.10.2022
3380 Clouds 14 1025 73 10000 2.06 70 16:34 24.10.2022
3381 Clouds 10 1025 84 10000 2.57 10 14:22 24.10.2022
3382 Clouds 10 1025 85 10000 3.6 50 13:34 24.10.2022
3383 Clouds 10 1025 85 10000 2.06 30 11:54 24.10.2022
3384 Clear 10 1025 81 10000 2.57 40 08:45 24.10.2022
3385 Clear 16 1025 59 10000 1.03 330 00:50 24.10.2022
3386 Clear 21 1025 42 10000 2.06 80 21:23 23.10.2022
3387 Clear 20 1026 44 10000 1.03 0 19:51 23.10.2022
3388 Clear 17 1027 55 10000 2.06 150 17:59 23.10.2022
3389 Clear 17 1027 57 10000 2.06 150 17:27 23.10.2022
3390 Clear 12 1027 75 10000 1.54 180 15:19 23.10.2022
3391 Clear 12 1027 75 10000 1.54 180 15:19 23.10.2022
3392 Clear 8 1025 81 10000 1.03 110 12:59 23.10.2022
3393 Clear 9 1025 77 10000 1.03 180 10:59 23.10.2022
3394 Clear 10 1024 73 10000 1.54 180 08:18 23.10.2022
3395 Clear 18 1019 47 10000 6.17 180 23:40 22.10.2022
3396 Clear 20 1019 44 10000 7.72 170 22:31 22.10.2022
3397 Clear 20 1018 46 10000 6.69 180 21:42 22.10.2022
3398 Clouds 20 1018 45 10000 5.14 160 20:49 22.10.2022
3399 Clear 19 1019 46 10000 6.17 170 19:45 22.10.2022
3400 Clear 19 1019 46 10000 6.17 170 19:24 22.10.2022
3401 Clear 16 1019 52 10000 7.2 170 17:36 22.10.2022
3402 Clear 12 1019 63 10000 4.12 180 15:37 22.10.2022
3403 Clear 9 1018 66 10000 4.12 180 14:39 22.10.2022
3404 Clear 9 1018 69 10000 6.69 180 13:45 22.10.2022
3405 Clear 9 1017 66 10000 6.17 170 09:59 22.10.2022
3406 Clear 9 1017 65 10000 6.17 170 09:36 22.10.2022
3407 Clouds 9 1016 62 10000 4.63 180 07:45 22.10.2022
3408 Clouds 12 1015 54 10000 8.23 180 02:55 22.10.2022
3409 Clouds 13 1015 52 10000 6.17 170 23:49 21.10.2022
3410 Clear 14 1015 47 10000 6.17 180 21:35 21.10.2022
3411 Clear 14 1016 48 10000 5.14 230 20:57 21.10.2022
3412 Clear 13 1017 53 10000 6.69 210 19:26 21.10.2022
3413 Clear 10 1018 62 10000 6.17 220 16:51 21.10.2022
3414 Clouds 5 1015 77 10000 3.09 170 13:57 21.10.2022
3415 Clouds 5 1015 78 10000 3.09 180 12:57 21.10.2022
3416 Clouds 6 1014 78 10000 5.14 220 10:59 21.10.2022
3417 Clouds 6 1014 78 10000 7.2 230 09:50 21.10.2022
3418 Clouds 7 1014 75 10000 6.69 240 08:39 21.10.2022
3419 Clouds 7 1013 71 10000 9.77 240 07:28 21.10.2022
3420 Clouds 7 1010 83 10000 8.23 230 00:59 21.10.2022
3421 Clouds 7 1009 82 10000 6.17 210 22:26 20.10.2022
3422 Clouds 6 1008 82 10000 6.17 250 20:38 20.10.2022
3423 Clouds 7 1008 77 10000 6.17 240 19:38 20.10.2022
3424 Clouds 6 1008 77 10000 6.17 230 17:53 20.10.2022
3425 Clouds 6 1008 77 10000 6.17 230 17:33 20.10.2022
3426 Clouds 6 1006 78 10000 5.14 190 12:37 20.10.2022
3427 Clouds 6 1006 79 10000 5.14 190 12:18 20.10.2022
3428 Clouds 6 1005 80 10000 7.72 220 11:20 20.10.2022
3429 Clouds 6 1005 81 10000 9.26 210 10:45 20.10.2022
3430 Clouds 7 1005 75 10000 5.66 170 08:18 20.10.2022
3431 Clouds 6 1005 72 10000 4.63 200 05:38 20.10.2022
3432 Clouds 6 1006 87 10000 2.57 230 01:49 20.10.2022
3433 Clouds 9 1005 75 10000 7.72 240 22:45 19.10.2022
3434 Clouds 10 1004 70 10000 6.69 220 21:57 19.10.2022
3435 Clouds 11 1005 65 10000 4.63 200 20:53 19.10.2022
3436 Clouds 11 1005 68 10000 2.06 140 18:50 19.10.2022
3437 Clouds 9 1006 73 10000 2.57 250 17:38 19.10.2022
3438 Clear 7 1006 83 10000 0.51 50 15:47 19.10.2022
3439 Clouds 4 1005 91 10000 1.54 290 13:51 19.10.2022
3440 Clouds 5 1005 86 10000 1.54 300 09:42 19.10.2022
3441 Clouds 5 1005 85 10000 2.57 290 08:35 19.10.2022
3442 Clouds 6 1005 87 10000 3.6 300 06:25 19.10.2022
3443 Clouds 10 1004 77 10000 3.09 290 01:26 19.10.2022
3444 Clear 12 1002 65 10000 2.57 220 23:19 18.10.2022
3445 Clouds 12 1002 65 10000 2.06 140 21:45 18.10.2022
3446 Clouds 11 1001 70 10000 2.06 240 20:59 18.10.2022
3447 Clouds 11 1001 71 10000 2.06 240 20:18 18.10.2022
3448 Clouds 10 1001 80 10000 4.12 270 17:48 18.10.2022
3449 Clouds 9 1001 86 10000 4.63 250 16:52 18.10.2022
3450 Mist 9 1000 91 10000 2.57 280 14:51 18.10.2022
3451 Clouds 9 1000 93 10000 2.57 290 12:34 18.10.2022
3452 Mist 9 1001 93 9656 2.06 300 11:22 18.10.2022
3453 Clouds 9 1001 93 10000 1.54 320 09:59 18.10.2022
3454 Clouds 9 1002 92 10000 1.54 180 07:57 18.10.2022
3455 Clouds 11 1002 89 10000 2.06 220 04:35 18.10.2022
3456 Rain 13 1003 74 10000 4.63 140 22:54 17.10.2022
3457 Clouds 16 1003 54 10000 4.12 130 20:55 17.10.2022
3458 Clouds 16 1003 54 10000 4.12 130 20:33 17.10.2022
3459 Clear 16 1004 54 10000 8.23 100 19:52 17.10.2022
3460 Clear 16 1004 55 10000 8.23 100 19:30 17.10.2022
3461 Clouds 12 1005 65 10000 4.12 110 17:28 17.10.2022
3462 Clouds 10 1006 69 10000 5.14 110 15:46 17.10.2022
3463 Clouds 8 1006 76 10000 4.12 100 14:35 17.10.2022
3464 Clear 7 1007 81 10000 4.12 110 11:56 17.10.2022
3465 Clouds 10 1010 67 10000 2.57 130 06:42 17.10.2022
3466 Clouds 12 1012 64 10000 2.06 110 00:24 17.10.2022
3467 Clouds 14 1013 52 10000 2.57 240 22:21 16.10.2022
3468 Clouds 15 1013 50 10000 3.6 240 20:59 16.10.2022
3469 Clouds 14 1014 48 10000 3.6 220 19:47 16.10.2022
3470 Clear 13 1014 51 10000 4.12 190 17:58 16.10.2022
3471 Clear 13 1014 52 10000 4.12 190 17:39 16.10.2022
3472 Clear 10 1015 61 10000 4.63 210 15:58 16.10.2022
3473 Clear 7 1015 69 10000 5.14 200 14:45 16.10.2022
3474 Clear 6 1015 74 10000 4.63 190 12:23 16.10.2022
3475 Clear 7 1015 72 10000 3.6 210 10:28 16.10.2022
3476 Clear 7 1015 67 10000 3.6 220 09:39 16.10.2022
3477 Clouds 13 1012 61 10000 7.72 230 03:22 16.10.2022
3478 Clouds 17 1008 53 10000 9.77 170 23:41 15.10.2022
3479 Clouds 18 1009 49 10000 10.8 150 21:29 15.10.2022
3480 Clear 18 1010 51 10000 10.8 140 20:57 15.10.2022
3481 Clouds 17 1012 61 10000 7.2 130 19:30 15.10.2022
3482 Clouds 9 1015 90 10000 2.06 70 16:18 15.10.2022
3483 Fog 8 1016 94 10000 3.6 80 15:43 15.10.2022
3484 Fog 5 1016 95 201 1.54 10 13:18 15.10.2022
3485 Fog 5 1016 94 402 1.03 10 11:37 15.10.2022
3486 Fog 6 1017 92 604 1.03 130 09:26 15.10.2022
3487 Clear 7 1017 92 10000 1.03 70 06:35 15.10.2022
3488 Clear 13 1014 74 10000 2.57 110 00:40 15.10.2022
3489 Clouds 15 1013 63 10000 2.06 190 22:36 14.10.2022
3490 Clouds 15 1013 64 10000 2.06 190 22:18 14.10.2022
3491 Clouds 15 1012 72 10000 2.57 200 20:28 14.10.2022
3492 Clouds 13 1012 84 10000 3.09 110 18:39 14.10.2022
3493 Clouds 11 1012 93 10000 3.09 120 15:32 14.10.2022
3494 Clouds 10 1011 97 10000 3.09 150 12:46 14.10.2022
3495 Rain 11 1010 94 8047 4.63 210 10:54 14.10.2022
3496 Rain 11 1010 96 9656 5.14 190 08:25 14.10.2022
3497 Rain 12 1010 95 8047 4.63 160 06:45 14.10.2022
3498 Rain 12 1009 94 6437 3.09 140 06:18 14.10.2022
3499 Rain 12 1010 94 8047 3.6 140 05:41 14.10.2022
3500 Rain 13 1009 93 4023 1.03 0 02:18 14.10.2022
3501 Rain 17 1005 84 10000 14.92 260 23:22 13.10.2022
3502 Clouds 18 1005 81 10000 11.83 150 21:32 13.10.2022
3503 Rain 17 1006 85 10000 10.29 160 20:22 13.10.2022
3504 Rain 17 1006 84 10000 8.75 140 19:42 13.10.2022
3505 Rain 17 1007 77 10000 10.8 140 18:51 13.10.2022
3506 Clouds 17 1007 73 10000 10.8 140 18:20 13.10.2022
3507 Clouds 17 1008 73 10000 7.2 140 15:49 13.10.2022
3508 Clear 15 1008 76 10000 6.17 170 14:59 13.10.2022
3509 Clouds 14 1008 78 10000 6.17 160 13:50 13.10.2022
3510 Clear 14 1009 77 10000 6.17 140 12:38 13.10.2022
3511 Clouds 14 1010 72 10000 5.14 150 10:31 13.10.2022
3512 Clouds 14 1011 69 10000 5.14 160 08:34 13.10.2022
3513 Clouds 14 1011 69 10000 5.14 160 08:34 13.10.2022
3514 Clouds 14 1012 67 10000 4.63 170 07:36 13.10.2022
3515 Clear 16 1014 64 10000 6.69 150 03:46 13.10.2022
3516 Clouds 17 1014 60 10000 5.66 170 01:40 13.10.2022
3517 Clouds 18 1014 57 10000 6.69 150 00:24 13.10.2022
3518 Clear 20 1015 56 10000 5.66 170 22:44 12.10.2022
3519 Clouds 20 1016 56 10000 6.17 170 21:40 12.10.2022
3520 Clouds 20 1016 57 10000 6.17 170 21:18 12.10.2022
3521 Clouds 20 1016 57 10000 7.72 170 20:28 12.10.2022
3522 Clouds 19 1018 63 10000 5.14 170 19:22 12.10.2022
3523 Clouds 17 1019 69 10000 3.6 170 17:55 12.10.2022
3524 Clear 15 1020 76 10000 3.6 180 16:54 12.10.2022
3525 Clouds 10 1020 90 10000 2.06 130 14:26 12.10.2022
3526 Clouds 9 1020 92 10000 2.57 130 13:50 12.10.2022
3527 Mist 8 1020 88 9656 1.54 130 11:47 12.10.2022
3528 Clear 8 1020 85 10000 1.54 120 09:27 12.10.2022
3529 Clear 7 1020 83 10000 1.54 150 07:42 12.10.2022
3530 Clear 8 1020 79 10000 2.57 200 06:44 12.10.2022
3531 Clear 9 1021 76 10000 1.34 175 05:18 12.10.2022
3532 Clear 15 1020 48 10000 6.17 240 23:56 11.10.2022
3533 Clear 16 1021 57 10000 5.14 260 21:25 11.10.2022
3534 Clear 15 1022 60 10000 5.66 250 20:26 11.10.2022
3535 Clear 13 1024 59 10000 4.12 230 18:25 11.10.2022
3536 Clear 8 1025 70 10000 3.6 190 15:56 11.10.2022
3537 Clear 3 1024 83 10000 1.54 170 13:44 11.10.2022
3538 Clear 1 1024 85 10000 1.54 150 10:48 11.10.2022
3539 Clear 1 1024 84 10000 1.54 150 10:26 11.10.2022
3540 Clear 3 1024 82 10000 1.54 160 08:46 11.10.2022
3541 Clear 4 1024 73 10000 1.03 270 05:25 11.10.2022
3542 Clear 7 1023 63 10000 3.09 260 01:52 11.10.2022
3543 Clouds 10 1022 52 10000 4.63 250 00:23 11.10.2022
3544 Haze 11 1022 48 9656 6.17 240 21:18 10.10.2022
3545 Clear 11 1022 50 10000 3.09 260 19:45 10.10.2022
3546 Clear 10 1022 54 10000 3.09 0 18:18 10.10.2022
3547 Clouds 7 1023 69 10000 2.06 20 16:39 10.10.2022
3548 Clouds 3 1022 84 10000 2.06 30 14:31 10.10.2022
3549 Clouds 3 1020 85 10000 1.54 20 12:24 10.10.2022
3550 Clouds 2 1020 86 10000 1.03 280 10:57 10.10.2022
3551 Clouds 2 1020 83 10000 1.03 200 07:47 10.10.2022
3552 Clear 3 1020 78 10000 1.54 170 05:39 10.10.2022
3553 Clear 6 1018 63 10000 2.06 340 02:50 10.10.2022
3554 Clouds 9 1017 52 10000 5.14 310 00:25 10.10.2022
3555 Clouds 12 1015 51 10000 7.72 300 22:27 09.10.2022
3556 Clouds 12 1015 51 10000 7.72 300 22:27 09.10.2022
3557 Clouds 12 1015 51 10000 5.66 300 21:54 09.10.2022
3558 Clouds 12 1015 55 10000 6.17 280 20:57 09.10.2022
3559 Clouds 11 1014 64 10000 5.14 290 19:53 09.10.2022
3560 Clouds 11 1014 67 10000 5.14 290 19:32 09.10.2022
3561 Clouds 10 1014 79 10000 6.17 260 18:32 09.10.2022
3562 Clouds 8 1013 88 10000 6.69 250 16:56 09.10.2022
3563 Mist 8 1013 88 9656 7.2 240 16:32 09.10.2022
3564 Rain 9 1013 84 10000 5.14 220 15:37 09.10.2022
3565 Clouds 9 1012 80 10000 6.69 240 14:29 09.10.2022
3566 Clouds 8 1012 78 10000 7.2 230 12:58 09.10.2022
3567 Clouds 8 1013 80 10000 6.69 230 11:50 09.10.2022
3568 Clouds 8 1013 77 10000 6.69 220 10:37 09.10.2022
3569 Clouds 8 1015 79 10000 7.72 250 08:29 09.10.2022
3570 Clouds 7 1017 69 10000 2.57 180 03:37 09.10.2022
3571 Clouds 7 1017 68 10000 3.09 240 02:39 09.10.2022
3572 Clouds 7 1017 59 10000 6.17 250 00:26 09.10.2022
3573 Clouds 8 1017 57 10000 9.26 250 22:53 08.10.2022
3574 Clouds 9 1018 58 10000 9.77 240 21:48 08.10.2022
3575 Clouds 8 1019 60 10000 9.77 250 20:26 08.10.2022
3576 Clouds 7 1020 65 10000 8.23 250 18:37 08.10.2022
3577 Clouds 5 1021 66 10000 6.17 260 16:18 08.10.2022
3578 Clouds 3 1020 75 10000 4.12 270 14:52 08.10.2022
3579 Clear 2 1020 81 10000 3.6 240 13:25 08.10.2022
3580 Clear 3 1020 79 10000 4.12 280 10:39 08.10.2022
3581 Clear 3 1020 79 10000 4.12 280 10:21 08.10.2022
3582 Clear 4 1019 80 10000 3.6 270 08:48 08.10.2022
3583 Clear 7 1017 76 10000 7.2 290 03:53 08.10.2022
3584 Clouds 10 1014 76 10000 7.72 270 00:37 08.10.2022
3585 Clouds 12 1013 73 10000 7.72 270 23:21 07.10.2022
3586 Clouds 13 1012 70 10000 8.75 270 22:50 07.10.2022
3587 Clouds 14 1011 68 10000 8.75 260 21:38 07.10.2022
3588 Clouds 14 1011 79 10000 8.75 250 19:42 07.10.2022
3589 Clouds 16 1010 79 10000 7.2 230 17:48 07.10.2022
3590 Clouds 17 1010 76 10000 6.17 190 16:41 07.10.2022
3591 Clouds 15 1010 83 10000 6.17 170 15:00 07.10.2022
3592 Clouds 15 1010 83 10000 5.66 180 13:23 07.10.2022
3593 Clouds 15 1010 81 10000 5.66 180 11:19 07.10.2022
3594 Clouds 16 1011 79 10000 4.63 180 09:25 07.10.2022
3595 Clouds 16 1011 78 10000 4.12 160 08:19 07.10.2022
3596 Clouds 18 1012 65 10000 4.12 240 02:29 07.10.2022
3597 Clouds 22 1012 49 10000 3.6 240 22:53 06.10.2022
3598 Clear 23 1012 47 10000 6.17 220 21:52 06.10.2022
3599 Clear 23 1012 47 10000 6.17 220 21:30 06.10.2022
3600 Clear 22 1012 51 10000 5.66 230 20:38 06.10.2022
3601 Clear 20 1013 62 10000 6.17 230 18:56 06.10.2022
3602 Clear 20 1013 63 10000 6.17 230 18:31 06.10.2022
3603 Clear 14 1013 80 10000 4.12 230 15:38 06.10.2022
3604 Clear 11 1013 82 10000 3.09 230 12:49 06.10.2022
3605 Clear 11 1013 72 10000 2.57 220 08:51 06.10.2022
3606 Clear 13 1014 63 10000 2.06 230 04:42 06.10.2022
3607 Clear 17 1014 51 10000 2.06 170 00:51 06.10.2022
3608 Clear 21 1015 35 10000 2.06 260 21:54 05.10.2022
3609 Clear 19 1016 45 10000 1.03 0 19:44 05.10.2022
3610 Clear 16 1017 58 10000 1.54 250 17:37 05.10.2022
3611 Clear 14 1018 68 10000 1.03 60 16:45 05.10.2022
3612 Clear 8 1018 87 10000 1.03 0 14:59 05.10.2022
3613 Clear 7 1018 87 10000 1.03 0 14:37 05.10.2022
3614 Clear 5 1018 90 10000 0.51 220 12:45 05.10.2022
3615 Clear 4 1018 84 10000 0.51 280 11:38 05.10.2022
3616 Clear 6 1018 80 10000 1.03 20 08:25 05.10.2022
3617 Clear 7 1019 80 10000 1.54 80 07:19 05.10.2022
3618 Mist 8 1019 72 9656 1.54 140 05:31 05.10.2022
3619 Clear 10 1020 68 10000 1.03 240 02:31 05.10.2022
3620 Clear 15 1019 50 10000 2.06 260 00:28 05.10.2022
3621 Clear 17 1020 42 10000 2.06 220 23:22 04.10.2022
3622 Clouds 18 1021 37 10000 2.57 240 21:22 04.10.2022
3623 Clear 17 1022 44 10000 1.54 0 19:56 04.10.2022
3624 Clear 15 1023 50 10000 1.03 360 18:55 04.10.2022
3625 Clear 14 1023 56 10000 1.54 340 17:57 04.10.2022
3626 Clear 12 1024 67 10000 1.54 10 16:56 04.10.2022
3627 Clear 6 1024 88 10000 1.03 40 14:31 04.10.2022
3628 Clear 4 1024 84 10000 0.51 250 10:23 04.10.2022
3629 Clear 4 1025 82 10000 1.03 250 08:28 04.10.2022
3630 Clear 6 1025 78 10000 0 0 04:48 04.10.2022
3631 Clear 14 1026 48 10000 2.06 330 23:59 03.10.2022
3632 Clear 15 1026 43 10000 1.54 20 22:45 03.10.2022
3633 Clear 15 1027 43 10000 2.57 340 21:41 03.10.2022
3634 Clear 14 1028 47 10000 3.09 360 20:36 03.10.2022
3635 Clear 13 1029 54 10000 2.06 0 18:52 03.10.2022
3636 Clear 11 1030 62 10000 2.57 30 17:35 03.10.2022
3637 Clear 9 1030 72 10000 3.6 20 16:22 03.10.2022
3638 Clear 4 1029 81 10000 2.57 340 14:30 03.10.2022
3639 Clear 2 1029 86 10000 2.06 340 12:46 03.10.2022
3640 Clear 2 1029 86 10000 2.06 10 11:37 03.10.2022
3641 Clear 2 1028 88 10000 1.03 20 09:59 03.10.2022
3642 Clear 3 1029 86 10000 2.06 340 08:47 03.10.2022
3643 Clear 5 1029 79 10000 2.57 350 04:45 03.10.2022
3644 Clear 12 1028 47 10000 5.14 30 23:51 02.10.2022
3645 Clear 13 1028 43 10000 4.63 10 22:19 02.10.2022
3646 Clear 12 1029 45 10000 8.23 20 20:18 02.10.2022
3647 Clear 10 1030 54 10000 7.2 40 17:58 02.10.2022
3648 Clear 10 1030 58 10000 7.2 40 17:20 02.10.2022
3649 Clear 9 1030 61 10000 6.69 40 16:33 02.10.2022
3650 Clear 7 1030 65 10000 7.2 20 15:39 02.10.2022
3651 Clear 5 1029 75 10000 7.72 20 13:46 02.10.2022
3652 Clear 5 1028 75 10000 7.2 30 12:42 02.10.2022
3653 Clear 5 1028 74 10000 7.2 30 12:23 02.10.2022
3654 Clear 5 1028 72 10000 7.72 20 11:34 02.10.2022
3655 Clear 6 1027 70 10000 8.23 20 10:29 02.10.2022
3656 Clear 7 1027 70 10000 8.23 30 08:31 02.10.2022
3657 Clouds 10 1026 66 10000 7.72 30 05:23 02.10.2022
3658 Clear 12 1024 76 10000 3.6 40 02:49 02.10.2022
3659 Clouds 15 1023 72 10000 4.63 50 00:39 02.10.2022
3660 Clouds 15 1023 72 10000 4.63 50 00:39 02.10.2022
3661 Clouds 16 1022 69 10000 5.14 20 23:36 01.10.2022
3662 Clear 17 1021 64 10000 4.63 30 22:24 01.10.2022
3663 Clear 16 1022 63 10000 2.57 10 19:31 01.10.2022
3664 Clear 15 1022 71 10000 1.54 130 17:46 01.10.2022
3665 Clear 12 1022 80 10000 1.03 20 16:24 01.10.2022
3666 Clear 9 1022 91 10000 1.54 240 14:19 01.10.2022
3667 Clear 8 1022 90 10000 2.57 240 12:35 01.10.2022
3668 Clear 8 1021 88 10000 1.54 220 11:57 01.10.2022
3669 Clear 8 1021 88 10000 1.54 220 11:18 01.10.2022
3670 Clear 9 1021 87 10000 2.06 250 10:30 01.10.2022
3671 Clear 9 1021 85 10000 3.09 250 09:26 01.10.2022
3672 Clear 9 1022 84 10000 3.09 240 08:40 01.10.2022
3673 Clear 12 1023 69 10000 3.09 200 03:52 01.10.2022
3674 Clear 12 1023 67 10000 3.09 200 03:28 01.10.2022
3675 Clear 17 1024 47 10000 4.63 200 23:30 30.09.2022
3676 Clear 18 1024 46 10000 5.14 180 22:19 30.09.2022
3677 Clear 18 1024 46 10000 5.14 180 22:19 30.09.2022
3678 Clear 18 1025 49 10000 5.14 190 21:22 30.09.2022
3679 Clear 17 1026 52 10000 5.14 220 20:42 30.09.2022
3680 Clear 16 1027 55 10000 4.63 210 19:30 30.09.2022
3681 Clear 14 1028 65 10000 3.6 270 17:27 30.09.2022
3682 Clear 8 1029 87 10000 1.54 150 14:55 30.09.2022
3683 Clear 4 1029 91 10000 1.03 90 13:24 30.09.2022
3684 Clear 5 1029 89 10000 1.54 240 11:56 30.09.2022
3685 Clear 6 1029 88 10000 1.54 130 10:18 30.09.2022
3686 Clear 6 1029 86 10000 1.03 110 08:21 30.09.2022
3687 Clear 8 1030 77 10000 2.57 250 04:55 30.09.2022
3688 Clear 10 1029 72 10000 2.57 240 02:27 30.09.2022
3689 Clear 14 1029 54 10000 4.12 190 22:24 29.09.2022
3690 Clear 14 1030 55 10000 3.09 280 21:26 29.09.2022
3691 Clouds 13 1030 58 10000 3.6 250 20:31 29.09.2022
3692 Clouds 11 1031 64 10000 4.12 290 18:32 29.09.2022
3693 Clouds 10 1031 66 10000 3.6 320 17:22 29.09.2022
3694 Clouds 10 1031 69 10000 4.12 350 16:28 29.09.2022
3695 Clouds 9 1031 74 10000 4.12 310 15:35 29.09.2022
3696 Clouds 8 1030 81 10000 3.6 310 14:24 29.09.2022
3697 Clouds 10 1027 73 10000 4.63 340 09:21 29.09.2022
3698 Clouds 11 1026 77 10000 3.6 290 06:45 29.09.2022
3699 Clouds 13 1023 72 10000 6.17 310 02:45 29.09.2022
3700 Clouds 16 1021 66 10000 6.17 290 23:54 28.09.2022
3701 Clouds 16 1020 62 10000 5.66 300 22:32 28.09.2022
3702 Clouds 17 1020 62 10000 5.14 310 21:29 28.09.2022
3703 Clouds 17 1019 64 10000 4.63 310 20:22 28.09.2022
3704 Clouds 16 1018 71 10000 4.63 330 18:20 28.09.2022
3705 Clouds 13 1015 92 10000 2.57 300 14:51 28.09.2022
3706 Clouds 12 1013 93 10000 2.57 300 12:49 28.09.2022
3707 Clouds 12 1012 94 10000 2.57 280 10:51 28.09.2022
3708 Clouds 12 1011 93 10000 2.57 250 08:33 28.09.2022
3709 Clear 12 1010 93 10000 4.12 230 06:50 28.09.2022
3710 Clouds 13 1008 87 10000 1.54 170 01:56 28.09.2022
3711 Clouds 14 1008 86 10000 1.54 170 01:33 28.09.2022
3712 Clouds 16 1007 80 10000 5.14 250 23:20 27.09.2022
3713 Clouds 15 1006 89 10000 6.17 250 21:42 27.09.2022
3714 Mist 14 1005 89 4828 7.2 220 20:38 27.09.2022
3715 Clouds 14 1005 89 10000 6.17 230 19:47 27.09.2022
3716 Clouds 14 1004 90 10000 6.69 190 18:40 27.09.2022
3717 Clouds 13 1004 94 10000 5.14 160 17:44 27.09.2022
3718 Rain 12 1004 92 8047 4.63 170 15:31 27.09.2022
3719 Clouds 12 1004 92 10000 3.6 140 14:55 27.09.2022
3720 Clouds 12 1003 91 10000 3.09 150 12:50 27.09.2022
3721 Clouds 12 1003 93 10000 3.09 170 11:32 27.09.2022
3722 Clouds 13 1004 90 10000 4.63 170 08:50 27.09.2022
3723 Mist 13 1003 91 9656 5.14 160 06:46 27.09.2022
3724 Clouds 14 1002 92 10000 3.09 240 01:57 27.09.2022
3725 Clouds 14 1002 92 10000 2.57 230 01:29 27.09.2022
3726 Rain 16 1000 84 10000 2.57 340 23:26 26.09.2022
3727 Mist 17 1000 79 10000 2.06 50 22:38 26.09.2022
3728 Clouds 18 1000 77 10000 2.06 80 20:46 26.09.2022
3729 Clouds 17 1001 79 10000 3.6 0 19:32 26.09.2022
3730 Clouds 16 1001 86 10000 3.09 130 18:32 26.09.2022
3731 Drizzle 14 1001 88 10000 1.54 110 16:36 26.09.2022
3732 Clouds 13 1000 91 10000 1.54 330 14:37 26.09.2022
3733 Mist 12 999 94 3219 2.57 10 11:35 26.09.2022
3734 Mist 12 999 92 4023 3.6 360 10:41 26.09.2022
3735 Mist 13 999 93 4023 3.6 360 10:21 26.09.2022
3736 Mist 13 999 92 4023 2.06 360 09:55 26.09.2022
3737 Mist 13 999 92 4828 2.06 350 09:24 26.09.2022
3738 Mist 13 999 92 4023 2.57 20 08:57 26.09.2022
3739 Clouds 13 1001 86 10000 3.09 120 02:57 26.09.2022
3740 Clouds 14 1001 77 10000 4.63 130 00:35 26.09.2022
3741 Clouds 16 1002 72 10000 4.12 160 22:59 25.09.2022
3742 Clouds 17 1002 65 10000 4.63 120 21:41 25.09.2022
3743 Clouds 18 1003 64 10000 4.63 150 20:49 25.09.2022
3744 Clouds 18 1004 65 10000 4.63 140 19:55 25.09.2022
3745 Clouds 17 1004 70 10000 3.09 200 18:43 25.09.2022
3746 Clouds 17 1004 69 10000 3.09 200 18:20 25.09.2022
3747 Clouds 14 1006 79 10000 3.09 190 16:49 25.09.2022
3748 Clouds 13 1006 84 10000 1.54 170 15:45 25.09.2022
3749 Clouds 11 1006 88 10000 2.06 170 14:30 25.09.2022
3750 Clouds 11 1006 88 10000 3.6 170 13:19 25.09.2022
3751 Clouds 11 1007 88 10000 3.6 210 10:36 25.09.2022
3752 Clouds 11 1008 84 10000 4.12 240 08:25 25.09.2022
3753 Clear 12 1009 77 10000 5.66 250 06:24 25.09.2022
3754 Clear 14 1009 63 10000 5.14 260 03:20 25.09.2022
3755 Clear 19 1010 48 10000 7.72 260 23:23 24.09.2022
3756 Clouds 19 1011 51 10000 7.72 260 21:19 24.09.2022
3757 Clear 18 1012 54 10000 8.23 270 19:23 24.09.2022
3758 Clear 17 1013 58 10000 5.14 240 18:25 24.09.2022
3759 Clear 13 1014 65 10000 5.66 280 16:36 24.09.2022
3760 Clear 10 1014 73 10000 6.17 270 15:23 24.09.2022
3761 Clear 8 1014 79 10000 6.69 280 14:18 24.09.2022
3762 Clear 7 1014 84 10000 5.66 270 12:59 24.09.2022
3763 Clear 6 1014 84 10000 5.66 270 12:20 24.09.2022
3764 Clear 7 1015 78 10000 4.12 280 09:57 24.09.2022
3765 Clear 7 1015 76 10000 3.6 280 08:50 24.09.2022
3766 Clear 7 1015 75 10000 3.09 280 07:39 24.09.2022
3767 Clear 9 1016 69 10000 4.12 290 04:50 24.09.2022
3768 Clear 9 1015 67 10000 4.12 290 03:44 24.09.2022
3769 Clear 14 1014 45 10000 7.2 300 22:48 23.09.2022
3770 Clouds 14 1014 48 10000 7.2 300 21:32 23.09.2022
3771 Clouds 13 1014 50 10000 5.66 280 20:57 23.09.2022
3772 Clouds 13 1014 51 10000 5.66 280 20:26 23.09.2022
3773 Clouds 12 1014 54 10000 7.72 290 19:19 23.09.2022
3774 Clouds 8 1015 67 10000 6.17 300 15:29 23.09.2022
3775 Clouds 7 1012 72 10000 5.14 310 11:47 23.09.2022
3776 Clouds 9 1010 67 10000 7.2 340 09:36 23.09.2022
3777 Clouds 9 1009 72 10000 6.17 310 06:39 23.09.2022
3778 Clouds 14 1003 58 10000 7.2 350 00:42 23.09.2022
3779 Clouds 15 1002 63 10000 6.69 310 23:23 22.09.2022
3780 Clouds 15 1001 66 10000 7.72 320 22:27 22.09.2022
3781 Clouds 16 1000 66 10000 7.2 310 21:19 22.09.2022
3782 Clouds 15 1000 80 10000 5.66 330 19:58 22.09.2022
3783 Clouds 18 1000 70 10000 6.17 290 17:41 22.09.2022
3784 Clouds 16 999 92 10000 5.14 250 13:38 22.09.2022
3785 Clouds 18 998 93 10000 4.63 210 10:37 22.09.2022
3786 Clouds 18 998 93 10000 4.63 210 10:18 22.09.2022
3787 Thunderstorm 18 999 88 8047 3.09 200 07:36 22.09.2022
3788 Clear 18 1002 85 10000 5.14 170 04:37 22.09.2022
3789 Clear 18 1007 78 10000 4.63 120 23:33 21.09.2022
3790 Clouds 18 1008 75 10000 3.09 190 22:26 21.09.2022
3791 Clouds 17 1010 78 10000 4.63 170 20:54 21.09.2022
3792 Clouds 15 1014 82 10000 2.57 180 17:55 21.09.2022
3793 Clouds 15 1014 82 10000 2.57 180 17:22 21.09.2022
3794 Clouds 13 1014 90 10000 1.03 150 15:18 21.09.2022
3795 Clouds 12 1015 94 10000 1.54 40 13:38 21.09.2022
3796 Clouds 11 1014 93 10000 2.06 10 11:34 21.09.2022
3797 Clouds 11 1014 94 10000 2.06 20 10:50 21.09.2022
3798 Clouds 11 1014 94 10000 2.06 20 10:50 21.09.2022
3799 Clouds 11 1014 93 10000 2.57 350 09:38 21.09.2022
3800 Clouds 12 1015 94 10000 2.57 20 08:23 21.09.2022
3801 Mist 13 1015 95 9656 4.63 20 02:51 21.09.2022
3802 Mist 13 1015 95 9656 4.63 20 02:51 21.09.2022
3803 Mist 13 1015 95 4828 4.63 20 02:33 21.09.2022
3804 Mist 13 1015 94 4023 4.63 360 01:49 21.09.2022
3805 Clouds 14 1013 89 10000 4.12 350 23:50 20.09.2022
3806 Clouds 14 1013 91 10000 5.14 340 21:33 20.09.2022
3807 Mist 13 1013 92 4828 4.12 330 20:23 20.09.2022
3808 Clouds 13 1012 94 10000 4.63 360 17:41 20.09.2022
3809 Mist 12 1011 97 9656 4.12 10 14:59 20.09.2022
3810 Mist 12 1010 97 9656 3.09 360 13:59 20.09.2022
3811 Mist 11 1010 98 2414 2.06 350 11:24 20.09.2022
3812 Mist 11 1009 98 4828 4.63 360 08:29 20.09.2022
3813 Mist 11 1009 98 2414 5.14 340 07:31 20.09.2022
3814 Mist 13 1008 98 2816 4.12 360 04:30 20.09.2022
3815 Clouds 13 1008 96 10000 4.12 350 01:28 20.09.2022
3816 Mist 13 1008 96 10000 6.17 40 22:33 19.09.2022
3817 Rain 12 1009 95 10000 6.17 40 21:28 19.09.2022
3818 Mist 12 1009 95 10000 6.17 20 20:39 19.09.2022
3819 Clouds 12 1011 95 10000 4.12 10 18:42 19.09.2022
3820 Clouds 11 1012 95 10000 6.69 20 16:37 19.09.2022
3821 Clouds 10 1013 91 10000 4.63 50 13:45 19.09.2022
3822 Mist 11 1013 89 10000 6.17 60 11:43 19.09.2022
3823 Clouds 11 1014 87 10000 3.6 10 09:35 19.09.2022
3824 Clouds 12 1014 88 10000 4.63 30 08:20 19.09.2022
3825 Clouds 13 1014 94 10000 5.14 30 03:28 19.09.2022
3826 Rain 13 1013 94 4828 6.69 30 23:39 18.09.2022
3827 Clouds 13 1014 94 10000 5.66 40 22:32 18.09.2022
3828 Clouds 13 1014 93 10000 3.09 40 20:47 18.09.2022
3829 Mist 13 1015 91 10000 5.14 30 19:33 18.09.2022
3830 Clouds 13 1015 91 10000 5.66 40 17:51 18.09.2022
3831 Mist 13 1015 93 8047 6.69 20 16:46 18.09.2022
3832 Clouds 14 1014 89 10000 4.63 30 14:44 18.09.2022
3833 Clouds 14 1013 87 10000 4.12 20 13:34 18.09.2022
3834 Clouds 15 1013 86 10000 1.54 180 11:55 18.09.2022
3835 Clouds 15 1014 81 10000 1.54 180 09:25 18.09.2022
3836 Clouds 17 1019 59 10000 3.09 130 01:43 18.09.2022
3837 Clouds 17 1019 57 10000 3.09 130 01:19 18.09.2022
3838 Clouds 20 1021 48 10000 2.57 210 22:56 17.09.2022
3839 Clear 19 1023 46 10000 2.06 0 20:53 17.09.2022
3840 Clear 19 1024 49 10000 2.57 240 19:37 17.09.2022
3841 Clear 17 1025 56 10000 2.57 150 17:44 17.09.2022
3842 Clear 9 1026 82 10000 2.57 30 14:22 17.09.2022
3843 Clear 7 1026 87 10000 1.54 70 13:26 17.09.2022
3844 Clear 8 1025 87 10000 1.03 280 10:49 17.09.2022
3845 Clear 10 1024 78 10000 1.54 40 06:53 17.09.2022
3846 Clear 11 1024 78 10000 1.54 40 06:19 17.09.2022
3847 Clouds 17 1022 53 10000 4.12 220 23:41 16.09.2022
3848 Clouds 18 1022 49 10000 3.6 250 22:19 16.09.2022
3849 Clouds 18 1022 51 10000 4.12 360 20:53 16.09.2022
3850 Clouds 16 1023 54 10000 4.63 280 19:29 16.09.2022
3851 Clear 15 1023 59 10000 5.14 10 16:24 16.09.2022
3852 Clear 13 1023 67 10000 2.57 310 14:52 16.09.2022
3853 Clouds 12 1022 73 10000 3.09 300 13:21 16.09.2022
3854 Clouds 12 1022 70 10000 3.09 290 10:24 16.09.2022
3855 Clouds 13 1022 66 10000 3.09 280 07:26 16.09.2022
3856 Clouds 13 1022 66 10000 3.6 280 06:48 16.09.2022
3857 Clouds 13 1021 64 10000 2.06 310 05:57 16.09.2022
3858 Clear 14 1021 57 10000 3.6 300 02:30 16.09.2022
3859 Clear 17 1021 45 10000 5.66 270 21:47 15.09.2022
3860 Clear 17 1022 46 10000 6.69 290 20:38 15.09.2022
3861 Clear 16 1023 50 10000 5.66 330 19:31 15.09.2022
3862 Clear 13 1023 55 10000 5.66 10 17:58 15.09.2022
3863 Clear 13 1023 56 10000 5.66 10 17:28 15.09.2022
3864 Clouds 12 1023 65 10000 6.17 340 15:47 15.09.2022
3865 Clear 9 1021 82 10000 4.63 300 12:51 15.09.2022
3866 Clear 9 1020 81 10000 4.12 310 11:48 15.09.2022
3867 Clouds 10 1019 79 10000 4.63 310 09:46 15.09.2022
3868 Clouds 11 1018 73 10000 4.63 290 07:44 15.09.2022
3869 Clouds 14 1016 62 10000 7.2 350 03:48 15.09.2022
3870 Clouds 19 1012 68 10000 8.75 310 23:22 14.09.2022
3871 Clouds 23 1011 60 10000 8.23 280 20:47 14.09.2022
3872 Clouds 23 1010 58 10000 7.72 290 19:33 14.09.2022
3873 Clouds 22 1009 66 10000 7.72 300 17:48 14.09.2022
3874 Clouds 21 1008 76 10000 8.75 290 16:37 14.09.2022
3875 Clouds 20 1007 86 10000 6.69 270 15:27 14.09.2022
3876 Mist 17 1004 94 9656 6.17 250 12:50 14.09.2022
3877 Clouds 17 1004 92 10000 6.69 240 09:53 14.09.2022
3878 Clouds 17 1004 93 10000 7.2 250 08:38 14.09.2022
3879 Clouds 17 1005 91 10000 6.69 260 06:50 14.09.2022
3880 Clouds 17 1005 92 10000 6.69 260 06:30 14.09.2022
3881 Clouds 17 1005 92 10000 6.69 260 06:30 14.09.2022
3882 Mist 18 1005 95 6437 7.2 250 02:58 14.09.2022
3883 Mist 18 1004 94 9656 6.17 290 01:36 14.09.2022
3884 Rain 19 1004 94 10000 5.14 300 00:53 14.09.2022
3885 Rain 20 1004 94 10000 7.2 290 23:55 13.09.2022
3886 Rain 20 1004 94 3219 6.69 190 23:37 13.09.2022
3887 Mist 21 1004 95 2816 3.6 310 23:19 13.09.2022
3888 Clouds 21 1004 94 10000 1.54 320 22:29 13.09.2022
3889 Clouds 21 1005 94 10000 1.54 350 21:39 13.09.2022
3890 Rain 20 1007 96 9656 2.06 160 19:26 13.09.2022
3891 Clouds 22 1007 83 10000 2.57 170 16:45 13.09.2022
3892 Clouds 21 1007 84 10000 2.06 120 15:38 13.09.2022
3893 Clouds 20 1007 84 10000 2.06 100 13:41 13.09.2022
3894 Clouds 20 1007 81 10000 1.54 90 11:23 13.09.2022
3895 Clouds 21 1008 77 10000 2.06 90 08:20 13.09.2022
3896 Clear 22 1008 72 10000 1.54 50 02:58 13.09.2022
3897 Clear 28 1008 54 10000 3.6 120 23:23 12.09.2022
3898 Clear 27 1009 56 10000 1.54 120 22:45 12.09.2022
3899 Clear 27 1009 57 10000 3.6 170 21:35 12.09.2022
3900 Clouds 27 1010 58 10000 3.09 120 20:23 12.09.2022
3901 Clear 26 1011 62 10000 1.54 200 18:40 12.09.2022
3902 Clear 22 1012 79 10000 2.06 260 15:53 12.09.2022
3903 Clouds 18 1013 91 10000 1.03 140 12:57 12.09.2022
3904 Clouds 19 1013 89 10000 2.57 240 10:34 12.09.2022
3905 Clouds 19 1013 89 10000 2.06 220 09:33 12.09.2022
3906 Clouds 22 1015 72 10000 5.66 270 04:42 12.09.2022
3907 Clouds 24 1015 63 10000 4.63 250 02:57 12.09.2022
3908 Clouds 28 1016 50 10000 4.63 180 22:51 11.09.2022
3909 Clouds 29 1016 50 10000 2.06 200 21:40 11.09.2022
3910 Clouds 29 1017 49 10000 3.09 170 20:44 11.09.2022
3911 Clear 28 1018 51 10000 3.09 200 19:46 11.09.2022
3912 Clear 28 1018 52 10000 3.09 200 19:22 11.09.2022
3913 Clear 27 1019 56 10000 2.57 170 17:57 11.09.2022
3914 Clear 24 1019 66 10000 1.54 150 16:23 11.09.2022
3915 Clear 19 1020 89 10000 1.03 130 14:18 11.09.2022
3916 Clear 17 1020 91 10000 1.54 190 12:32 11.09.2022
3917 Clouds 19 1021 84 10000 1.54 240 08:27 11.09.2022
3918 Clear 20 1021 78 10000 1.54 180 06:33 11.09.2022
3919 Clear 27 1020 56 10000 4.12 210 00:49 11.09.2022
3920 Clear 29 1020 53 10000 4.63 240 22:26 10.09.2022
3921 Clear 29 1021 55 10000 4.12 230 20:55 10.09.2022
3922 Clear 28 1022 57 10000 4.12 190 19:46 10.09.2022
3923 Clear 27 1022 58 10000 4.12 190 19:27 10.09.2022
3924 Clear 26 1022 63 10000 4.63 220 17:59 10.09.2022
3925 Clear 22 1022 81 10000 2.06 150 15:49 10.09.2022
3926 Clear 19 1022 89 10000 2.06 120 14:40 10.09.2022
3927 Clear 16 1021 94 10000 1.54 130 12:52 10.09.2022
3928 Clear 17 1020 91 10000 1.54 150 10:35 10.09.2022
3929 Clear 18 1020 90 10000 2.06 140 09:24 10.09.2022
3930 Clear 19 1020 87 10000 2.06 200 08:27 10.09.2022
3931 Clear 20 1019 82 10000 1.54 200 05:50 10.09.2022
3932 Clear 26 1017 54 10000 4.12 220 00:19 10.09.2022
3933 Clear 27 1017 53 10000 4.12 210 23:31 09.09.2022
3934 Clear 28 1017 53 10000 5.14 190 21:38 09.09.2022
3935 Clear 27 1017 56 10000 4.12 220 20:31 09.09.2022
3936 Clear 26 1017 62 10000 4.12 220 19:24 09.09.2022
3937 Clear 26 1018 66 10000 4.12 240 18:38 09.09.2022
3938 Clear 22 1018 75 10000 2.57 190 16:23 09.09.2022
3939 Clear 16 1016 91 10000 2.06 130 13:48 09.09.2022
3940 Clear 15 1016 89 10000 2.06 250 11:58 09.09.2022
3941 Clear 16 1015 86 10000 2.57 230 09:53 09.09.2022
3942 Clear 20 1013 71 10000 3.6 240 04:57 09.09.2022
3943 Clear 22 1013 65 10000 3.09 220 02:54 09.09.2022
3944 Clear 28 1012 50 10000 5.14 190 21:52 08.09.2022
3945 Clear 27 1013 51 10000 3.6 180 20:51 08.09.2022
3946 Clear 27 1013 53 10000 3.6 180 20:31 08.09.2022
3947 Clear 26 1013 57 10000 3.6 210 19:49 08.09.2022
3948 Clear 24 1014 70 10000 2.57 180 17:48 08.09.2022
3949 Clear 22 1014 76 10000 2.57 200 16:19 08.09.2022
3950 Clear 17 1014 88 10000 2.57 250 14:40 08.09.2022
3951 Clear 15 1014 92 10000 2.06 170 13:26 08.09.2022
3952 Clear 15 1014 91 10000 2.06 210 11:39 08.09.2022
3953 Clear 15 1014 90 10000 1.54 200 10:52 08.09.2022
3954 Clear 16 1014 89 10000 2.06 140 08:21 08.09.2022
3955 Clear 17 1015 85 10000 1.03 250 06:41 08.09.2022
3956 Clear 20 1015 72 10000 1.54 170 02:37 08.09.2022
3957 Clear 20 1015 70 10000 1.54 170 02:18 08.09.2022
3958 Clear 24 1015 56 10000 2.57 220 00:56 08.09.2022
3959 Clear 26 1016 52 10000 2.57 160 22:44 07.09.2022
3960 Clear 25 1016 54 10000 3.09 220 21:42 07.09.2022
3961 Clear 25 1017 57 10000 2.57 0 20:49 07.09.2022
3962 Clear 24 1018 60 10000 2.06 10 19:40 07.09.2022
3963 Clear 22 1019 69 10000 2.06 40 17:49 07.09.2022
3964 Fog 14 1019 94 604 2.06 340 12:52 07.09.2022
3965 Clouds 15 1019 93 10000 2.06 360 10:48 07.09.2022
3966 Clouds 16 1019 91 10000 2.06 10 09:19 07.09.2022
3967 Clouds 17 1020 89 10000 3.09 10 07:23 07.09.2022
3968 Clouds 20 1020 78 10000 4.12 40 03:19 07.09.2022
3969 Clouds 21 1020 75 10000 5.66 40 22:59 06.09.2022
3970 Clouds 21 1020 72 10000 5.14 60 21:41 06.09.2022
3971 Clouds 20 1021 73 10000 5.66 40 20:24 06.09.2022
3972 Clouds 18 1021 78 10000 5.66 50 18:45 06.09.2022
3973 Clouds 18 1021 80 10000 5.66 50 18:22 06.09.2022
3974 Clouds 16 1022 82 10000 6.69 20 17:22 06.09.2022
3975 Clouds 15 1022 85 10000 6.69 30 16:37 06.09.2022
3976 Clouds 14 1022 84 10000 7.72 30 15:22 06.09.2022
3977 Clouds 13 1021 86 10000 7.2 30 13:45 06.09.2022
3978 Clouds 12 1021 86 10000 7.2 30 13:23 06.09.2022
3979 Clouds 13 1020 89 10000 5.66 20 11:57 06.09.2022
3980 Clouds 13 1020 89 10000 5.66 20 10:41 06.09.2022
3981 Clouds 13 1021 86 10000 5.14 40 08:50 06.09.2022
3982 Clouds 14 1021 84 10000 6.17 50 07:37 06.09.2022
3983 Clear 17 1021 81 10000 3.09 60 02:44 06.09.2022
3984 Clouds 19 1021 70 10000 4.12 40 23:23 05.09.2022
3985 Clouds 19 1022 70 10000 4.12 60 21:53 05.09.2022
3986 Clouds 19 1022 69 10000 4.63 70 20:33 05.09.2022
3987 Clouds 19 1022 68 10000 5.14 50 19:20 05.09.2022
3988 Clouds 18 1022 69 10000 5.14 50 18:45 05.09.2022
3989 Clouds 18 1022 70 10000 5.14 50 18:21 05.09.2022
3990 Clouds 15 1023 76 10000 5.66 30 16:37 05.09.2022
3991 Clouds 14 1023 79 10000 5.14 30 15:47 05.09.2022
3992 Clouds 12 1022 88 10000 5.66 10 13:26 05.09.2022
3993 Clouds 12 1022 89 10000 4.63 20 12:27 05.09.2022
3994 Clouds 12 1022 83 10000 4.12 20 09:44 05.09.2022
3995 Clear 13 1023 80 10000 5.14 30 06:41 05.09.2022
3996 Clear 16 1022 70 10000 3.09 70 02:19 05.09.2022
3997 Clear 19 1022 60 10000 4.63 60 23:18 04.09.2022
3998 Clouds 19 1022 64 10000 2.57 70 22:27 04.09.2022
3999 Clouds 16 1023 66 10000 3.09 30 20:50 04.09.2022
4000 Clouds 15 1023 73 10000 4.12 30 19:32 04.09.2022
4001 Clouds 14 1024 75 10000 4.12 30 18:19 04.09.2022
4002 Clouds 14 1024 80 10000 5.14 360 16:44 04.09.2022
4003 Clouds 13 1023 87 10000 4.12 20 14:30 04.09.2022
4004 Mist 13 1022 88 10000 4.63 40 13:49 04.09.2022
4005 Clouds 15 1021 83 10000 8.75 20 11:54 04.09.2022
4006 Clouds 16 1020 86 10000 8.23 20 10:47 04.09.2022
4007 Clouds 20 1019 91 10000 2.57 250 08:20 04.09.2022
4008 Clouds 21 1019 86 10000 2.06 320 05:35 04.09.2022
4009 Clear 26 1018 61 10000 5.66 170 00:50 04.09.2022
4010 Clear 28 1019 57 10000 5.66 170 22:24 03.09.2022
4011 Clear 28 1020 57 10000 4.63 170 21:23 03.09.2022
4012 Clear 28 1020 57 10000 4.63 170 21:23 03.09.2022
4013 Clear 27 1021 59 10000 4.12 170 19:42 03.09.2022
4014 Clear 24 1022 64 10000 5.14 180 17:28 03.09.2022
4015 Clear 23 1022 66 10000 5.66 170 16:33 03.09.2022
4016 Clear 19 1022 77 10000 3.6 170 14:46 03.09.2022
4017 Clear 19 1022 78 10000 3.6 170 14:26 03.09.2022
4018 Clear 16 1023 85 10000 2.06 140 12:32 03.09.2022
4019 Clear 17 1023 83 10000 2.06 140 10:49 03.09.2022
4020 Clear 17 1022 79 10000 3.09 170 08:30 03.09.2022
4021 Clear 17 1022 79 10000 3.09 170 08:30 03.09.2022
4022 Clear 18 1022 74 10000 2.57 150 06:58 03.09.2022
4023 Clear 19 1023 69 10000 2.57 180 04:38 03.09.2022
4024 Clear 24 1022 52 10000 5.66 170 00:32 03.09.2022
4025 Clear 24 1022 56 10000 4.63 160 23:20 02.09.2022
4026 Clear 24 1022 57 10000 6.69 150 21:19 02.09.2022
4027 Clear 24 1023 56 10000 4.63 200 20:39 02.09.2022
4028 Clear 23 1023 56 10000 4.63 210 19:30 02.09.2022
4029 Clouds 22 1023 59 10000 4.63 200 18:43 02.09.2022
4030 Clouds 22 1023 59 10000 4.63 200 18:24 02.09.2022
4031 Clouds 19 1024 68 10000 4.63 210 16:49 02.09.2022
4032 Clear 17 1023 73 10000 3.09 190 15:35 02.09.2022
4033 Clear 10 1022 89 10000 1.03 190 12:43 02.09.2022
4034 Clear 10 1020 86 10000 2.06 130 10:25 02.09.2022
4035 Clear 11 1020 86 10000 3.09 190 09:41 02.09.2022
4036 Clear 12 1019 83 10000 3.09 200 07:54 02.09.2022
4037 Clear 12 1019 80 10000 2.57 240 06:41 02.09.2022
4038 Clear 13 1018 71 10000 2.57 280 03:53 02.09.2022
4039 Clouds 16 1015 57 10000 7.2 270 22:54 01.09.2022
4040 Clouds 17 1015 55 10000 6.69 270 21:45 01.09.2022
4041 Clouds 17 1015 55 10000 6.69 270 21:25 01.09.2022
4042 Clouds 17 1014 56 10000 7.2 280 20:46 01.09.2022
4043 Clouds 16 1013 55 10000 7.72 270 19:20 01.09.2022
4044 Clouds 15 1012 62 10000 8.23 290 17:48 01.09.2022
4045 Clouds 15 1012 69 10000 5.14 270 16:29 01.09.2022
4046 Clear 14 1010 77 10000 7.2 280 14:33 01.09.2022
4047 Clouds 14 1008 85 10000 5.14 270 12:59 01.09.2022
4048 Clouds 14 1008 85 10000 4.63 290 11:55 01.09.2022
4049 Clouds 14 1008 85 10000 4.63 290 11:36 01.09.2022
4050 Clouds 14 1007 83 10000 4.12 280 10:45 01.09.2022
4051 Clouds 15 1005 89 10000 4.63 240 08:31 01.09.2022
4052 Clouds 16 1005 83 10000 3.09 200 06:23 01.09.2022
4053 Clear 21 1004 55 10000 9.77 220 01:34 01.09.2022
4054 Clouds 22 1004 58 10000 9.26 230 00:18 01.09.2022
4055 Clouds 22 1004 58 10000 7.2 240 21:44 31.08.2022
4056 Clouds 22 1005 54 10000 9.26 260 19:59 31.08.2022
4057 Clouds 21 1005 68 10000 10.29 240 18:19 31.08.2022
4058 Clouds 20 1005 77 10000 11.32 240 16:31 31.08.2022
4059 Clouds 19 1004 86 10000 6.69 250 14:36 31.08.2022
4060 Clouds 19 1003 92 10000 4.63 200 12:24 31.08.2022
4061 Clouds 19 1003 91 10000 7.72 240 11:29 31.08.2022
4062 Clouds 19 1003 92 10000 5.14 180 09:20 31.08.2022
4063 Clouds 19 1004 93 10000 4.63 190 06:18 31.08.2022
4064 Clouds 27 1004 69 10000 7.72 240 23:21 30.08.2022
4065 Clouds 29 1005 61 10000 6.69 230 21:43 30.08.2022
4066 Clouds 29 1006 62 10000 7.2 230 20:57 30.08.2022
4067 Clouds 29 1007 68 10000 7.2 230 18:32 30.08.2022
4068 Clouds 25 1008 82 10000 7.72 220 15:29 30.08.2022
4069 Clouds 23 1008 90 10000 4.12 200 13:24 30.08.2022
4070 Clear 22 1008 91 10000 3.09 180 11:22 30.08.2022
4071 Clouds 22 1008 90 10000 4.12 190 10:57 30.08.2022
4072 Clouds 23 1009 91 10000 3.6 190 07:46 30.08.2022
4073 Clouds 27 1009 73 10000 6.17 170 02:34 30.08.2022
4074 Clear 31 1010 64 10000 6.69 170 23:22 29.08.2022
4075 Clear 31 1011 62 10000 7.2 180 22:32 29.08.2022
4076 Clear 31 1012 62 10000 7.2 160 21:27 29.08.2022
4077 Clouds 30 1013 64 10000 5.66 200 20:19 29.08.2022
4078 Clouds 28 1015 69 10000 5.14 220 17:58 29.08.2022
4079 Clouds 27 1015 69 10000 5.14 220 17:25 29.08.2022
4080 Clear 26 1015 72 10000 5.14 180 16:40 29.08.2022
4081 Clear 24 1016 80 10000 4.63 180 15:18 29.08.2022
4082 Clouds 20 1016 88 10000 4.63 180 13:23 29.08.2022
4083 Clouds 20 1016 86 10000 2.57 180 11:20 29.08.2022
4084 Clouds 19 1016 85 10000 2.06 100 10:19 29.08.2022
4085 Clear 19 1016 82 10000 2.06 170 08:38 29.08.2022
4086 Clear 20 1017 76 10000 2.06 150 05:52 29.08.2022
4087 Clear 25 1018 61 10000 3.09 170 01:24 29.08.2022
4088 Clear 26 1019 50 10000 4.12 230 22:50 28.08.2022
4089 Clear 27 1019 50 10000 2.57 170 21:44 28.08.2022
4090 Clear 26 1020 50 10000 1.54 260 20:56 28.08.2022
4091 Clear 25 1021 55 10000 2.06 0 19:29 28.08.2022
4092 Clear 24 1021 59 10000 3.09 110 18:21 28.08.2022
4093 Clear 23 1022 63 10000 4.63 140 17:25 28.08.2022
4094 Clear 21 1022 73 10000 3.09 140 16:28 28.08.2022
4095 Clouds 17 1022 86 10000 1.54 140 14:44 28.08.2022
4096 Mist 13 1021 94 9656 1.54 110 12:48 28.08.2022
4097 Mist 14 1021 92 8047 1.03 210 10:51 28.08.2022
4098 Mist 14 1021 89 8047 1.54 140 09:56 28.08.2022
4099 Clear 15 1021 88 10000 2.06 160 08:38 28.08.2022
4100 Clear 15 1021 87 10000 1.03 210 07:45 28.08.2022
4101 Clear 18 1019 74 10000 2.06 130 02:59 28.08.2022
4102 Clear 22 1019 59 10000 2.06 350 00:29 28.08.2022
4103 Clear 22 1019 62 10000 1.54 340 22:38 27.08.2022
4104 Clouds 21 1019 65 10000 1.54 100 21:40 27.08.2022
4105 Clouds 20 1020 73 10000 5.14 20 19:57 27.08.2022
4106 Clouds 19 1020 76 10000 2.06 10 18:27 27.08.2022
4107 Clouds 17 1019 85 10000 3.6 60 15:53 27.08.2022
4108 Drizzle 17 1019 86 10000 4.63 40 15:25 27.08.2022
4109 Clouds 16 1017 91 10000 1.54 30 12:31 27.08.2022
4110 Clouds 16 1016 91 10000 1.54 20 11:47 27.08.2022
4111 Clouds 16 1016 87 10000 3.09 350 09:50 27.08.2022
4112 Clouds 16 1016 87 10000 2.06 10 08:45 27.08.2022
4113 Clouds 17 1014 83 10000 5.14 30 03:58 27.08.2022
4114 Clouds 18 1012 83 10000 5.14 360 00:20 27.08.2022
4115 Clouds 19 1011 81 10000 5.14 360 23:23 26.08.2022
4116 Clouds 20 1011 79 10000 4.63 20 21:39 26.08.2022
4117 Clouds 18 1012 84 10000 6.69 20 19:24 26.08.2022
4118 Clouds 20 1012 73 10000 3.09 130 17:25 26.08.2022
4119 Clouds 19 1013 73 10000 5.14 80 15:35 26.08.2022
4120 Clouds 18 1014 78 10000 4.63 50 14:42 26.08.2022
4121 Clouds 17 1015 76 10000 4.63 50 12:54 26.08.2022
4122 Clouds 18 1015 75 10000 3.6 40 11:37 26.08.2022
4123 Clouds 18 1015 75 10000 4.63 40 10:47 26.08.2022
4124 Clouds 19 1017 69 10000 1.03 190 07:32 26.08.2022
4125 Clouds 21 1018 60 10000 3.6 150 02:31 26.08.2022
4126 Clear 23 1018 52 10000 2.06 180 23:44 25.08.2022
4127 Clear 24 1018 49 10000 2.06 0 21:46 25.08.2022
4128 Clouds 24 1019 50 10000 3.6 50 20:51 25.08.2022
4129 Clouds 23 1019 50 10000 3.6 20 19:25 25.08.2022
4130 Clear 23 1019 56 10000 3.6 10 18:28 25.08.2022
4131 Clear 22 1020 61 10000 3.6 30 17:31 25.08.2022
4132 Clouds 20 1019 65 10000 4.12 20 16:25 25.08.2022
4133 Clouds 19 1019 69 10000 5.14 30 15:27 25.08.2022
4134 Clouds 18 1018 70 10000 3.09 20 12:56 25.08.2022
4135 Clouds 19 1017 69 10000 4.63 10 10:49 25.08.2022
4136 Clouds 19 1016 70 10000 4.12 360 09:44 25.08.2022
4137 Rain 21 1016 74 10000 3.6 10 06:45 25.08.2022
4138 Clear 26 1013 55 10000 6.17 290 01:57 25.08.2022
4139 Clouds 28 1012 58 10000 5.14 270 23:28 24.08.2022
4140 Clouds 28 1012 57 10000 6.17 230 22:43 24.08.2022
4141 Clear 28 1012 62 10000 6.69 220 21:37 24.08.2022
4142 Clear 27 1013 63 10000 5.66 240 20:56 24.08.2022
4143 Clouds 27 1013 67 10000 5.66 190 19:34 24.08.2022
4144 Clouds 24 1013 76 10000 3.6 260 16:49 24.08.2022
4145 Clear 22 1013 83 10000 2.57 290 15:52 24.08.2022
4146 Mist 19 1012 95 9656 2.06 260 13:48 24.08.2022
4147 Mist 18 1011 95 8047 1.54 340 11:59 24.08.2022
4148 Mist 19 1011 94 9656 2.06 320 11:18 24.08.2022
4149 Clouds 19 1010 94 10000 2.06 330 08:28 24.08.2022
4150 Rain 21 1010 90 10000 3.6 10 03:44 24.08.2022
4151 Clouds 24 1008 83 10000 2.57 100 23:47 23.08.2022
4152 Clouds 23 1009 83 10000 2.57 80 22:33 23.08.2022
4153 Clouds 23 1008 86 10000 3.6 50 21:46 23.08.2022
4154 Clouds 22 1009 87 10000 3.6 70 20:33 23.08.2022
4155 Rain 21 1010 95 10000 21.09 50 18:53 23.08.2022
4156 Rain 20 1010 95 4828 22.64 40 17:51 23.08.2022
4157 Rain 20 1010 94 2414 22.64 40 17:18 23.08.2022
4158 Rain 20 1010 94 2414 22.64 40 17:18 23.08.2022
4159 Rain 20 1010 95 2816 22.64 50 15:49 23.08.2022
4160 Rain 20 1010 94 9656 2.57 70 13:36 23.08.2022
4161 Rain 20 1010 93 10000 2.57 260 12:45 23.08.2022
4162 Rain 21 1010 94 10000 1.54 60 10:53 23.08.2022
4163 Mist 21 1010 93 10000 1.54 60 10:32 23.08.2022
4164 Rain 21 1010 93 10000 1.54 60 10:32 23.08.2022
4165 Clouds 21 1010 93 10000 3.6 30 08:55 23.08.2022
4166 Clouds 21 1010 92 10000 3.6 30 08:22 23.08.2022
4167 Clouds 21 1011 91 10000 3.6 20 07:48 23.08.2022
4168 Clouds 21 1011 90 10000 4.63 20 06:58 23.08.2022
4169 Clouds 21 1011 89 10000 4.63 20 06:19 23.08.2022
4170 Clouds 25 1011 59 10000 2.06 160 01:42 23.08.2022
4171 Clouds 26 1011 57 10000 2.57 150 00:26 23.08.2022
4172 Clouds 26 1011 58 10000 2.57 120 23:30 22.08.2022
4173 Clouds 27 1012 63 10000 4.12 110 22:19 22.08.2022
4174 Clouds 26 1013 70 10000 3.09 140 19:56 22.08.2022
4175 Clouds 27 1013 70 10000 3.09 140 19:36 22.08.2022
4176 Clouds 26 1014 73 10000 3.09 110 18:36 22.08.2022
4177 Clouds 24 1014 81 10000 4.12 170 15:45 22.08.2022
4178 Clouds 22 1015 88 10000 1.54 70 14:48 22.08.2022
4179 Clouds 20 1014 93 10000 2.06 150 11:20 22.08.2022
4180 Clouds 20 1015 93 10000 3.09 180 09:24 22.08.2022
4181 Rain 21 1015 91 10000 5.14 210 05:44 22.08.2022
4182 Clouds 22 1015 88 10000 2.06 50 00:56 22.08.2022
4183 Clouds 22 1015 88 10000 1.54 300 00:36 22.08.2022
4184 Thunderstorm 22 1016 88 9656 3.6 340 22:57 21.08.2022
4185 Rain 24 1016 79 10000 9.77 240 21:55 21.08.2022
4186 Thunderstorm 28 1016 66 10000 6.17 230 21:18 21.08.2022
4187 Clear 30 1016 57 10000 4.12 160 19:42 21.08.2022
4188 Clouds 29 1017 54 10000 3.6 230 18:35 21.08.2022
4189 Clear 27 1018 60 10000 3.6 170 16:48 21.08.2022
4190 Clouds 26 1018 69 10000 2.06 170 15:52 21.08.2022
4191 Clouds 23 1018 75 10000 3.09 190 14:41 21.08.2022
4192 Clouds 21 1018 78 10000 2.06 150 13:48 21.08.2022
4193 Clear 20 1018 82 10000 1.54 150 12:55 21.08.2022
4194 Clouds 21 1017 78 10000 2.06 120 10:36 21.08.2022
4195 Clouds 22 1017 72 10000 1.54 110 08:57 21.08.2022
4196 Clouds 22 1017 71 10000 1.54 110 08:39 21.08.2022
4197 Clouds 22 1017 72 10000 1.54 110 07:53 21.08.2022
4198 Haze 23 1018 64 9656 2.06 100 06:33 21.08.2022
4199 Clear 28 1018 49 10000 4.12 150 01:47 21.08.2022
4200 Clear 31 1018 44 10000 3.6 140 23:32 20.08.2022
4201 Clear 31 1019 42 10000 3.6 260 21:51 20.08.2022
4202 Clear 30 1020 46 10000 3.6 200 20:51 20.08.2022
4203 Clear 30 1020 49 10000 3.6 210 19:42 20.08.2022
4204 Clear 29 1020 53 10000 3.09 220 18:48 20.08.2022
4205 Clear 28 1020 54 10000 3.09 220 18:26 20.08.2022
4206 Clear 27 1021 58 10000 3.09 250 17:21 20.08.2022
4207 Clear 24 1020 64 10000 4.12 230 15:57 20.08.2022
4208 Clear 21 1020 73 10000 2.06 220 14:20 20.08.2022
4209 Clear 18 1019 80 10000 4.12 170 11:58 20.08.2022
4210 Clear 18 1019 80 10000 4.12 170 11:37 20.08.2022
4211 Clear 20 1018 78 10000 3.09 230 09:20 20.08.2022
4212 Clear 21 1018 74 10000 4.12 220 07:30 20.08.2022
4213 Clear 23 1017 69 10000 3.09 220 04:50 20.08.2022
4214 Clear 28 1015 50 10000 5.66 260 00:58 20.08.2022
4215 Clouds 29 1015 48 10000 6.69 270 23:45 19.08.2022
4216 Clouds 30 1014 46 10000 6.17 250 22:45 19.08.2022
4217 Clouds 30 1014 47 10000 7.2 250 21:20 19.08.2022
4218 Clear 27 1015 58 10000 5.66 240 18:59 19.08.2022
4219 Clear 27 1015 58 10000 5.66 240 18:59 19.08.2022
4220 Clear 27 1015 58 10000 5.66 240 18:59 19.08.2022
4221 Clear 27 1015 58 10000 5.66 240 18:59 19.08.2022
4222 Clear 23 1015 67 10000 4.12 250 16:23 19.08.2022
4223 Clouds 18 1013 88 10000 2.57 240 13:44 19.08.2022
4224 Clouds 17 1012 89 10000 0.51 250 11:51 19.08.2022
4225 Clouds 17 1012 90 10000 1.54 150 10:33 19.08.2022
4226 Clouds 18 1012 87 10000 1.54 80 08:43 19.08.2022
4227 Clouds 18 1011 85 10000 2.57 250 04:39 19.08.2022
4228 Clouds 20 1010 80 10000 5.66 30 00:40 19.08.2022
4229 Clouds 20 1010 79 10000 5.66 30 00:19 19.08.2022
4230 Rain 21 1009 71 10000 4.12 20 22:57 18.08.2022
4231 Rain 21 1009 70 10000 3.09 20 22:23 18.08.2022
4232 Rain 21 1009 68 10000 5.66 360 21:49 18.08.2022
4233 Clouds 22 1009 60 10000 5.66 330 20:47 18.08.2022
4234 Clouds 22 1009 56 10000 5.66 360 19:35 18.08.2022
4235 Clouds 22 1009 51 10000 4.12 320 18:43 18.08.2022
4236 Clouds 22 1009 54 10000 3.09 10 17:32 18.08.2022
4237 Clouds 20 1010 67 10000 3.09 330 15:53 18.08.2022
4238 Clouds 19 1010 81 10000 0.45 348 14:21 18.08.2022
4239 Clouds 19 1010 84 10000 3.09 300 13:44 18.08.2022
4240 Clouds 18 1010 87 10000 1.54 310 12:28 18.08.2022
4241 Clouds 18 1011 86 10000 2.06 360 11:20 18.08.2022
4242 Rain 19 1012 80 10000 2.57 310 09:43 18.08.2022
4243 Clouds 19 1013 78 10000 2.57 320 07:27 18.08.2022
4244 Clouds 20 1014 77 10000 2.06 360 06:30 18.08.2022
4245 Clear 24 1015 54 10000 6.17 50 01:44 18.08.2022
4246 Clear 26 1016 52 10000 6.17 70 22:45 17.08.2022
4247 Clear 26 1017 60 10000 5.66 30 20:21 17.08.2022
4248 Clear 26 1018 62 10000 5.66 10 19:58 17.08.2022
4249 Clear 24 1018 67 10000 4.12 20 18:33 17.08.2022
4250 Clouds 21 1019 73 10000 4.63 20 16:52 17.08.2022
4251 Clouds 20 1020 75 10000 5.14 20 15:46 17.08.2022
4252 Clear 18 1020 77 10000 5.14 20 14:40 17.08.2022
4253 Clear 17 1019 76 10000 5.14 20 12:29 17.08.2022
4254 Clear 17 1019 72 10000 5.14 30 11:23 17.08.2022
4255 Clear 19 1019 72 10000 4.12 30 09:19 17.08.2022
4256 Clouds 21 1019 72 10000 4.63 50 06:29 17.08.2022
4257 Clouds 23 1019 65 10000 3.09 90 01:22 17.08.2022
4258 Clouds 25 1019 54 10000 7.2 80 23:27 16.08.2022
4259 Clouds 27 1019 50 10000 4.12 70 21:32 16.08.2022
4260 Clear 28 1019 54 10000 3.09 60 20:20 16.08.2022
4261 Clear 27 1019 57 10000 4.63 60 19:26 16.08.2022
4262 Clear 25 1020 63 10000 4.12 60 17:55 16.08.2022
4263 Clear 23 1019 69 10000 4.63 40 16:48 16.08.2022
4264 Clear 21 1019 73 10000 4.63 20 15:45 16.08.2022
4265 Clear 20 1019 76 10000 5.14 20 14:54 16.08.2022
4266 Clear 19 1019 78 10000 5.14 20 14:36 16.08.2022
4267 Clear 17 1018 81 10000 2.57 350 12:33 16.08.2022
4268 Clouds 17 1018 77 10000 2.57 20 10:23 16.08.2022
4269 Clouds 18 1018 75 10000 4.12 20 08:54 16.08.2022
4270 Clouds 18 1018 75 10000 4.12 20 08:26 16.08.2022
4271 Clear 18 1018 72 10000 3.6 20 06:48 16.08.2022
4272 Clouds 27 1016 41 10000 2.06 50 00:32 16.08.2022
4273 Clear 27 1016 43 10000 3.09 200 22:24 15.08.2022
4274 Clear 27 1016 42 10000 2.57 190 21:51 15.08.2022
4275 Clear 27 1016 42 10000 3.6 210 20:35 15.08.2022
4276 Clear 27 1017 42 10000 3.09 200 19:59 15.08.2022
4277 Haze 25 1017 52 9656 1.54 0 18:00 15.08.2022
4278 Clear 23 1017 60 10000 1.54 0 16:25 15.08.2022
4279 Clear 22 1017 66 10000 1.54 20 15:54 15.08.2022
4280 Clear 17 1017 80 10000 1.54 140 13:54 15.08.2022
4281 Clear 16 1016 85 10000 1.54 190 11:25 15.08.2022
4282 Clear 16 1017 81 10000 1.54 140 09:42 15.08.2022
4283 Clear 17 1017 74 10000 1.54 10 07:44 15.08.2022
4284 Clear 20 1017 63 10000 2.06 240 04:35 15.08.2022
4285 Clear 26 1016 40 10000 4.63 200 00:54 15.08.2022
4286 Clear 27 1016 38 10000 5.14 220 22:38 14.08.2022
4287 Clear 27 1016 38 10000 5.14 220 21:37 14.08.2022
4288 Haze 26 1017 47 9656 2.57 210 19:48 14.08.2022
4289 Clear 26 1017 53 10000 2.57 230 18:58 14.08.2022
4290 Clear 25 1017 55 10000 2.57 230 18:18 14.08.2022
4291 Clear 22 1018 62 10000 2.06 180 16:52 14.08.2022
4292 Clear 20 1018 68 10000 1.03 270 15:48 14.08.2022
4293 Clear 17 1018 79 10000 2.57 260 14:27 14.08.2022
4294 Clear 16 1018 84 10000 2.06 130 13:50 14.08.2022
4295 Clear 15 1018 86 10000 2.06 130 13:19 14.08.2022
4296 Clear 13 1018 88 10000 1.54 130 12:23 14.08.2022
4297 Clear 14 1018 85 10000 2.06 240 10:49 14.08.2022
4298 Clear 15 1018 77 10000 2.57 230 08:51 14.08.2022
4299 Clear 17 1018 73 10000 1.54 260 06:22 14.08.2022
4300 Clear 20 1018 57 10000 3.09 210 02:49 14.08.2022
4301 Clear 24 1018 44 10000 4.63 230 23:53 13.08.2022
4302 Clouds 25 1019 44 10000 3.6 190 22:52 13.08.2022
4303 Haze 24 1020 44 8047 2.57 0 20:58 13.08.2022
4304 Clouds 24 1020 44 10000 2.57 0 20:33 13.08.2022
4305 Clear 23 1020 46 10000 2.06 310 19:37 13.08.2022
4306 Clear 22 1021 55 10000 2.57 320 17:42 13.08.2022
4307 Clear 19 1021 68 10000 1.54 340 15:31 13.08.2022
4308 Clear 16 1021 76 10000 2.06 10 14:28 13.08.2022
4309 Clear 15 1021 81 10000 2.06 320 13:40 13.08.2022
4310 Clouds 13 1020 88 10000 1.03 340 11:52 13.08.2022
4311 Clouds 14 1019 86 10000 1.54 350 10:31 13.08.2022
4312 Clear 16 1019 80 10000 3.6 300 08:45 13.08.2022
4313 Clouds 18 1020 72 10000 2.06 280 05:34 13.08.2022
4314 Clouds 20 1018 60 10000 4.12 300 23:58 12.08.2022
4315 Clouds 20 1018 61 10000 3.09 300 21:46 12.08.2022
4316 Clouds 20 1018 61 10000 3.09 290 20:54 12.08.2022
4317 Clouds 19 1018 62 10000 3.09 350 19:42 12.08.2022
4318 Clouds 19 1018 63 10000 3.09 320 18:48 12.08.2022
4319 Clouds 18 1018 62 10000 4.12 310 17:25 12.08.2022
4320 Clouds 18 1018 69 10000 3.6 310 15:52 12.08.2022
4321 Clouds 16 1018 74 10000 3.6 300 14:44 12.08.2022
4322 Clouds 15 1017 74 10000 2.06 320 12:55 12.08.2022
4323 Clouds 15 1016 77 10000 2.57 310 11:19 12.08.2022
4324 Clear 15 1016 76 10000 1.54 330 08:31 12.08.2022
4325 Clear 17 1016 69 10000 3.6 350 06:56 12.08.2022
4326 Clear 20 1014 58 10000 5.66 320 03:20 12.08.2022
4327 Clear 24 1011 59 10000 6.17 290 00:27 12.08.2022
4328 Clouds 25 1011 64 10000 3.09 0 23:35 11.08.2022
4329 Clear 24 1011 70 10000 4.12 230 22:28 11.08.2022
4330 Clouds 24 1011 64 10000 3.6 270 21:43 11.08.2022
4331 Thunderstorm 23 1011 70 10000 4.63 250 21:19 11.08.2022
4332 Clouds 25 1011 70 10000 5.14 180 20:27 11.08.2022
4333 Clouds 25 1011 70 10000 5.14 230 19:33 11.08.2022
4334 Clouds 23 1012 73 10000 3.6 210 18:36 11.08.2022
4335 Clouds 21 1012 78 10000 3.09 230 16:38 11.08.2022
4336 Clouds 20 1012 81 10000 4.63 220 15:37 11.08.2022
4337 Clouds 19 1012 85 10000 2.06 210 13:51 11.08.2022
4338 Clear 18 1012 83 10000 6.69 220 11:26 11.08.2022
4339 Clear 19 1014 83 10000 4.63 200 07:56 11.08.2022
4340 Clouds 20 1014 74 10000 2.45 183 04:44 11.08.2022
4341 Clouds 23 1014 66 10000 1.73 211 01:54 11.08.2022
4342 Clouds 25 1016 58 10000 0.89 237 22:54 10.08.2022
4343 Clouds 24 1017 62 10000 0.89 229 21:44 10.08.2022
4344 Clouds 23 1017 66 10000 1.34 239 20:56 10.08.2022
4345 Clouds 23 1017 69 10000 1.34 209 19:58 10.08.2022
4346 Clouds 23 1018 68 10000 0.45 271 18:45 10.08.2022
4347 Clouds 22 1019 72 10000 0.89 268 17:20 10.08.2022
4348 Clouds 17 1019 89 10000 1.03 0 13:49 10.08.2022
4349 Clouds 17 1018 90 10000 0.51 320 12:50 10.08.2022
4350 Clouds 17 1018 89 10000 1.54 320 10:21 10.08.2022
4351 Clouds 17 1018 88 10000 1.03 300 08:37 10.08.2022
4352 Clouds 17 1018 87 10000 1.54 300 07:21 10.08.2022
4353 Clouds 18 1018 84 10000 2.06 360 04:49 10.08.2022
4354 Clouds 19 1016 79 10000 3.6 20 00:50 10.08.2022
4355 Clouds 19 1016 79 10000 5.14 10 23:27 09.08.2022
4356 Clouds 18 1016 83 10000 5.66 10 21:38 09.08.2022
4357 Drizzle 18 1016 86 10000 5.14 340 20:56 09.08.2022
4358 Clouds 17 1015 89 10000 4.63 360 18:56 09.08.2022
4359 Drizzle 16 1014 91 10000 5.14 10 17:31 09.08.2022
4360 Drizzle 16 1014 91 10000 5.14 10 17:31 09.08.2022
4361 Drizzle 16 1014 92 10000 4.12 10 16:43 09.08.2022
4362 Drizzle 15 1013 94 10000 5.14 20 15:59 09.08.2022
4363 Mist 15 1012 95 10000 4.12 40 14:43 09.08.2022
4364 Clouds 14 1009 97 10000 5.14 20 10:53 09.08.2022
4365 Rain 14 1007 97 2816 6.17 30 08:52 09.08.2022
4366 Mist 15 1008 96 9656 6.17 20 07:57 09.08.2022
4367 Clouds 15 1009 95 10000 8.23 20 04:49 09.08.2022
4368 Clouds 17 1009 89 10000 4.63 50 00:36 09.08.2022
4369 Clouds 17 1010 90 10000 5.66 40 23:24 08.08.2022
4370 Clouds 17 1011 90 10000 7.2 40 22:40 08.08.2022
4371 Clouds 17 1012 91 10000 5.66 50 21:44 08.08.2022
4372 Mist 16 1013 93 9656 6.17 40 20:34 08.08.2022
4373 Mist 16 1014 93 8047 6.69 50 19:35 08.08.2022
4374 Clouds 16 1014 92 10000 5.66 50 18:18 08.08.2022
4375 Drizzle 16 1015 92 10000 5.66 30 15:48 08.08.2022
4376 Clouds 16 1015 92 10000 6.17 20 15:28 08.08.2022
4377 Clouds 16 1015 93 10000 6.17 20 12:30 08.08.2022
4378 Rain 16 1015 91 8047 7.72 20 10:28 08.08.2022
4379 Clouds 19 1015 85 10000 5.66 60 07:51 08.08.2022
4380 Clouds 23 1015 85 10000 5.14 30 03:45 08.08.2022
4381 Clouds 28 1013 67 10000 7.2 10 23:28 07.08.2022
4382 Clouds 32 1013 62 10000 9.26 230 21:41 07.08.2022
4383 Clouds 32 1013 60 10000 8.75 220 20:55 07.08.2022
4384 Clouds 32 1013 62 10000 8.75 220 20:18 07.08.2022
4385 Clouds 32 1014 64 10000 9.26 220 19:51 07.08.2022
4386 Clear 31 1015 66 10000 7.2 220 18:49 07.08.2022
4387 Clouds 30 1016 68 10000 6.17 250 17:31 07.08.2022
4388 Clouds 29 1016 72 10000 6.17 230 16:52 07.08.2022
4389 Clouds 27 1016 75 10000 6.17 240 15:29 07.08.2022
4390 Clear 25 1017 80 10000 6.17 240 13:58 07.08.2022
4391 Clear 24 1016 83 10000 4.63 230 12:40 07.08.2022
4392 Clear 25 1016 80 10000 5.66 240 10:48 07.08.2022
4393 Clear 25 1016 79 10000 5.66 240 10:20 07.08.2022
4394 Clear 27 1017 74 10000 4.12 220 04:37 07.08.2022
4395 Clouds 29 1016 68 10000 5.66 180 02:18 07.08.2022
4396 Clear 32 1017 56 10000 4.12 220 22:34 06.08.2022
4397 Clear 32 1018 54 10000 5.14 250 21:52 06.08.2022
4398 Clear 31 1020 48 10000 2.06 240 19:46 06.08.2022
4399 Clouds 30 1021 54 10000 2.57 210 18:49 06.08.2022
4400 Clear 28 1021 59 10000 1.54 120 17:45 06.08.2022
4401 Clear 25 1022 63 10000 2.57 20 16:24 06.08.2022
4402 Clear 19 1022 78 10000 2.57 10 13:51 06.08.2022
4403 Clear 17 1022 82 10000 1.54 80 12:27 06.08.2022
4404 Clear 17 1022 83 10000 2.06 360 11:21 06.08.2022
4405 Clear 18 1022 77 10000 2.57 30 09:41 06.08.2022
4406 Clear 22 1022 67 10000 3.09 90 04:43 06.08.2022
4407 Clear 26 1021 54 10000 2.57 70 01:47 06.08.2022
4408 Haze 28 1021 52 9656 3.09 80 22:36 05.08.2022
4409 Clear 28 1021 52 10000 3.6 80 21:18 05.08.2022
4410 Clouds 26 1022 56 10000 3.09 40 19:18 05.08.2022
4411 Clear 25 1022 55 10000 4.63 30 18:41 05.08.2022
4412 Clouds 23 1021 61 10000 6.69 20 16:53 05.08.2022
4413 Clouds 22 1020 69 10000 6.17 10 15:55 05.08.2022
4414 Clouds 22 1020 76 10000 5.66 30 14:54 05.08.2022
4415 Clouds 21 1019 81 10000 5.66 30 13:39 05.08.2022
4416 Clouds 21 1019 82 10000 5.66 30 13:19 05.08.2022
4417 Clouds 22 1017 89 10000 4.63 20 11:58 05.08.2022
4418 Clouds 23 1017 87 10000 4.63 20 10:24 05.08.2022
4419 Clear 23 1016 89 10000 2.57 220 07:58 05.08.2022
4420 Clear 24 1015 88 10000 3.09 220 05:25 05.08.2022
4421 Clouds 26 1015 77 10000 4.12 230 23:50 04.08.2022
4422 Clouds 26 1015 77 10000 4.12 230 23:50 04.08.2022
4423 Clouds 26 1015 76 10000 5.14 240 21:58 04.08.2022
4424 Clouds 26 1015 76 10000 5.14 240 21:25 04.08.2022
4425 Clouds 26 1015 77 10000 4.63 250 20:41 04.08.2022
4426 Rain 26 1014 76 10000 8.23 240 19:21 04.08.2022
4427 Clouds 26 1014 73 10000 5.66 220 18:34 04.08.2022
4428 Clouds 25 1014 78 10000 4.63 200 17:28 04.08.2022
4429 Clouds 22 1013 86 10000 3.6 220 13:35 04.08.2022
4430 Clouds 23 1012 71 10000 3.6 190 11:47 04.08.2022
4431 Clouds 23 1012 70 10000 4.12 200 10:48 04.08.2022
4432 Clear 23 1012 69 10000 4.63 150 07:51 04.08.2022
4433 Clouds 24 1012 71 10000 3.6 160 04:28 04.08.2022
4434 Clouds 25 1012 60 10000 3.09 180 02:20 04.08.2022
4435 Clear 26 1012 58 10000 4.63 120 23:43 03.08.2022
4436 Clear 26 1013 52 10000 5.14 220 21:50 03.08.2022
4437 Clear 25 1014 52 10000 4.63 230 20:37 03.08.2022
4438 Clear 24 1015 53 10000 4.12 220 19:29 03.08.2022
4439 Clear 23 1016 58 10000 2.57 170 17:58 03.08.2022
4440 Clear 21 1016 62 10000 3.6 190 16:24 03.08.2022
4441 Clear 21 1016 62 10000 3.6 190 16:24 03.08.2022
4442 Clear 19 1016 69 10000 1.54 130 14:45 03.08.2022
4443 Clear 14 1015 86 10000 1.03 280 12:30 03.08.2022
4444 Clear 15 1015 78 10000 2.57 300 08:26 03.08.2022
4445 Clouds 19 1013 64 10000 3.6 340 04:47 03.08.2022
4446 Clouds 20 1012 62 10000 4.63 330 03:30 03.08.2022
4447 Clouds 24 1010 57 10000 6.69 320 01:35 03.08.2022
4448 Clear 27 1008 53 10000 7.72 290 23:23 02.08.2022
4449 Clouds 26 1007 59 10000 8.23 290 21:55 02.08.2022
4450 Clouds 26 1007 61 10000 8.23 290 21:30 02.08.2022
4451 Clouds 26 1006 73 10000 4.63 210 18:59 02.08.2022
4452 Clouds 23 1006 88 10000 4.63 210 16:38 02.08.2022
4453 Clouds 22 1005 79 10000 5.14 230 12:55 02.08.2022
4454 Clouds 22 1004 77 10000 4.12 170 09:42 02.08.2022
4455 Clouds 23 1005 69 10000 4.63 210 08:26 02.08.2022
4456 Clouds 23 1005 69 10000 4.63 200 07:50 02.08.2022
4457 Clear 25 1006 63 10000 3.09 220 04:55 02.08.2022
4458 Clouds 28 1007 55 10000 6.17 230 01:26 02.08.2022
4459 Clouds 30 1009 50 10000 5.66 220 22:57 01.08.2022
4460 Clear 29 1010 53 10000 5.14 250 20:57 01.08.2022
4461 Clouds 29 1011 56 10000 5.66 230 19:44 01.08.2022
4462 Clear 28 1012 58 10000 5.14 240 18:53 01.08.2022
4463 Clear 26 1012 66 10000 5.14 220 16:54 01.08.2022
4464 Clear 25 1012 66 10000 5.14 220 16:29 01.08.2022
4465 Clouds 24 1013 68 10000 4.12 240 15:33 01.08.2022
4466 Clouds 23 1013 73 10000 3.6 200 14:43 01.08.2022
4467 Clouds 21 1014 81 10000 3.09 180 12:57 01.08.2022
4468 Clouds 21 1014 80 10000 2.06 190 10:47 01.08.2022
4469 Clear 21 1015 78 10000 3.6 220 08:45 01.08.2022
4470 Clear 22 1015 77 10000 5.14 200 06:50 01.08.2022
4471 Clear 23 1016 71 10000 3.09 220 04:31 01.08.2022
4472 Clear 26 1017 59 10000 6.69 220 00:58 01.08.2022
4473 Clear 26 1017 57 10000 7.72 200 22:44 31.07.2022
4474 Clear 26 1017 57 10000 7.72 200 22:18 31.07.2022
4475 Clear 26 1018 60 10000 8.23 230 20:21 31.07.2022
4476 Clear 25 1019 62 10000 7.2 210 18:39 31.07.2022
4477 Haze 23 1019 71 9656 5.66 210 16:26 31.07.2022
4478 Clouds 21 1020 83 10000 5.66 220 14:33 31.07.2022
4479 Clear 18 1020 90 10000 3.09 250 12:58 31.07.2022
4480 Clear 17 1019 89 10000 3.6 250 11:37 31.07.2022
4481 Clear 18 1019 87 10000 4.12 230 08:46 31.07.2022
4482 Clear 19 1019 80 10000 3.6 220 05:20 31.07.2022
4483 Clouds 23 1018 66 10000 6.17 260 01:21 31.07.2022
4484 Clouds 23 1017 64 10000 6.17 300 22:46 30.07.2022
4485 Clouds 23 1016 64 10000 6.69 270 21:52 30.07.2022
4486 Clouds 23 1016 64 10000 6.69 270 21:33 30.07.2022
4487 Clouds 23 1016 63 10000 8.23 300 20:33 30.07.2022
4488 Clouds 23 1016 66 10000 6.17 270 19:50 30.07.2022
4489 Clouds 22 1015 68 10000 7.72 260 18:19 30.07.2022
4490 Clouds 21 1014 68 10000 6.69 290 16:38 30.07.2022
4491 Clear 21 1014 68 10000 5.14 270 15:33 30.07.2022
4492 Clear 18 1012 76 10000 5.14 260 13:23 30.07.2022
4493 Clear 17 1012 80 10000 5.14 250 12:32 30.07.2022
4494 Clear 18 1011 79 10000 5.14 250 11:53 30.07.2022
4495 Clear 18 1011 78 10000 4.12 250 10:20 30.07.2022
4496 Clouds 19 1011 76 10000 3.6 220 08:55 30.07.2022
4497 Clouds 20 1011 69 10000 5.14 230 07:33 30.07.2022
4498 Clear 24 1009 60 10000 6.69 230 02:33 30.07.2022
4499 Clouds 25 1009 52 10000 7.2 240 00:32 30.07.2022
4500 Clouds 25 1010 51 10000 6.69 260 21:38 29.07.2022
4501 Clouds 25 1010 53 10000 6.17 260 20:51 29.07.2022
4502 Clouds 24 1009 53 10000 7.72 250 19:48 29.07.2022
4503 Clouds 23 1009 57 10000 7.72 270 17:39 29.07.2022
4504 Clear 20 1008 72 10000 7.72 260 14:51 29.07.2022
4505 Clear 19 1007 83 10000 6.17 230 12:55 29.07.2022
4506 Clear 20 1006 88 10000 4.63 240 09:35 29.07.2022
4507 Clouds 21 1006 90 10000 5.66 230 08:46 29.07.2022
4508 Clouds 21 1006 87 10000 5.66 240 07:30 29.07.2022
4509 Clouds 22 1005 85 10000 4.12 210 01:46 29.07.2022
4510 Thunderstorm 26 1005 71 8047 8.75 210 21:55 28.07.2022
4511 Clouds 29 1006 59 10000 5.14 190 20:55 28.07.2022
4512 Clouds 29 1006 57 10000 5.14 190 20:22 28.07.2022
4513 Clouds 29 1006 54 10000 4.12 170 19:41 28.07.2022
4514 Clouds 28 1007 56 10000 4.63 150 18:26 28.07.2022
4515 Clouds 27 1007 59 10000 4.12 130 17:42 28.07.2022
4516 Clear 26 1008 60 10000 4.12 120 16:41 28.07.2022
4517 Clear 22 1009 71 10000 2.06 160 14:58 28.07.2022
4518 Clear 19 1009 85 10000 2.06 120 12:49 28.07.2022
4519 Clouds 19 1009 79 10000 2.06 130 09:45 28.07.2022
4520 Clouds 21 1010 68 10000 2.57 160 06:24 28.07.2022
4521 Clouds 22 1010 67 10000 3.6 160 05:26 28.07.2022
4522 Clear 26 1010 50 10000 7.2 230 00:45 28.07.2022
4523 Clear 27 1011 45 10000 6.69 220 22:31 27.07.2022
4524 Clear 27 1012 50 10000 7.2 220 20:56 27.07.2022
4525 Clear 26 1012 51 10000 5.66 230 19:34 27.07.2022
4526 Clear 25 1012 62 10000 4.63 220 17:38 27.07.2022
4527 Clear 22 1013 69 10000 4.12 210 15:52 27.07.2022
4528 Clear 20 1013 75 10000 3.09 210 14:55 27.07.2022
4529 Clear 20 1013 75 10000 3.09 210 14:33 27.07.2022
4530 Clear 18 1013 84 10000 4.12 240 12:49 27.07.2022
4531 Clear 19 1013 77 10000 5.14 250 07:53 27.07.2022
4532 Clear 19 1013 77 10000 5.14 250 07:53 27.07.2022
4533 Clear 20 1013 74 10000 4.63 230 06:19 27.07.2022
4534 Clouds 24 1012 57 10000 9.26 240 01:34 27.07.2022
4535 Clouds 24 1013 57 10000 7.72 240 22:26 26.07.2022
4536 Clouds 24 1013 58 10000 7.2 250 21:20 26.07.2022
4537 Clouds 25 1013 57 10000 9.26 210 20:28 26.07.2022
4538 Clouds 24 1013 63 10000 8.75 220 18:43 26.07.2022
4539 Clear 23 1014 67 10000 7.2 200 17:58 26.07.2022
4540 Clear 21 1014 70 10000 6.17 230 15:59 26.07.2022
4541 Clear 21 1014 70 10000 6.17 230 15:30 26.07.2022
4542 Clear 18 1013 77 10000 4.63 250 13:38 26.07.2022
4543 Clouds 17 1012 79 10000 5.14 230 11:20 26.07.2022
4544 Clear 18 1012 73 10000 3.09 240 08:57 26.07.2022
4545 Clear 19 1012 66 10000 3.09 270 05:53 26.07.2022
4546 Clouds 24 1009 54 10000 9.26 270 00:37 26.07.2022
4547 Clouds 25 1008 51 10000 8.75 270 23:32 25.07.2022
4548 Clouds 26 1007 49 10000 11.83 270 22:26 25.07.2022
4549 Clouds 26 1006 48 10000 11.32 280 21:43 25.07.2022
4550 Clouds 26 1006 49 10000 11.83 270 20:42 25.07.2022
4551 Clouds 26 1005 54 10000 11.32 280 19:46 25.07.2022
4552 Clouds 26 1005 58 10000 12.86 250 18:19 25.07.2022
4553 Clouds 26 1005 64 10000 9.26 260 17:27 25.07.2022
4554 Clouds 23 1004 88 10000 7.2 250 15:20 25.07.2022
4555 Clouds 21 1004 92 10000 8.23 190 12:22 25.07.2022
4556 Clouds 21 1004 94 10000 6.69 230 09:58 25.07.2022
4557 Rain 23 1005 90 10000 4.63 200 06:32 25.07.2022
4558 Clouds 27 1006 67 10000 6.17 240 23:55 24.07.2022
4559 Clouds 27 1006 67 10000 6.17 240 23:18 24.07.2022
4560 Rain 28 1006 68 10000 4.63 210 22:34 24.07.2022
4561 Clouds 29 1007 66 10000 4.63 160 21:25 24.07.2022
4562 Clouds 29 1008 65 10000 5.66 130 20:51 24.07.2022
4563 Clouds 30 1008 64 10000 5.66 130 20:26 24.07.2022
4564 Clear 29 1010 63 10000 6.17 230 18:56 24.07.2022
4565 Clear 27 1012 68 10000 7.2 220 16:48 24.07.2022
4566 Clouds 26 1012 73 10000 5.14 220 15:51 24.07.2022
4567 Clouds 25 1012 74 10000 4.63 220 14:38 24.07.2022
4568 Clear 23 1011 79 10000 3.6 200 12:55 24.07.2022
4569 Clear 23 1011 79 10000 3.6 200 12:18 24.07.2022
4570 Clear 23 1011 78 10000 4.63 210 11:26 24.07.2022
4571 Clear 24 1012 73 10000 6.17 240 08:56 24.07.2022
4572 Clear 24 1012 69 10000 5.14 240 07:52 24.07.2022
4573 Clear 26 1012 65 10000 5.14 210 06:27 24.07.2022
4574 Clouds 29 1011 51 10000 8.23 230 01:50 24.07.2022
4575 Clear 31 1011 53 10000 7.72 230 22:25 23.07.2022
4576 Clear 31 1012 52 10000 8.75 220 20:35 23.07.2022
4577 Clear 29 1012 58 10000 6.69 220 18:51 23.07.2022
4578 Clear 28 1012 61 10000 8.23 210 17:42 23.07.2022
4579 Clear 28 1012 64 10000 8.23 210 17:23 23.07.2022
4580 Clear 26 1012 65 10000 5.14 220 15:42 23.07.2022
4581 Clear 26 1012 66 10000 5.14 220 15:20 23.07.2022
4582 Clouds 24 1012 70 10000 4.63 230 14:36 23.07.2022
4583 Clouds 22 1012 74 10000 3.6 240 13:53 23.07.2022
4584 Clear 20 1011 78 10000 3.6 150 11:46 23.07.2022
4585 Clear 21 1011 75 10000 3.09 240 10:28 23.07.2022
4586 Clear 21 1011 72 10000 3.6 160 09:26 23.07.2022
4587 Clear 24 1010 68 10000 4.63 220 05:58 23.07.2022
4588 Clear 27 1009 52 10000 5.14 230 02:54 23.07.2022
4589 Clouds 30 1008 44 10000 9.77 240 23:57 22.07.2022
4590 Clouds 29 1008 56 10000 8.23 230 21:18 22.07.2022
4591 Clear 28 1008 58 10000 7.72 230 19:55 22.07.2022
4592 Clear 27 1008 63 10000 1.34 241 18:36 22.07.2022
4593 Clouds 26 1008 65 10000 8.23 240 17:37 22.07.2022
4594 Clear 24 1007 71 10000 6.17 250 15:30 22.07.2022
4595 Clear 21 1006 83 10000 4.12 210 12:33 22.07.2022
4596 Clear 22 1004 74 10000 5.14 270 09:45 22.07.2022
4597 Clear 23 1004 75 10000 5.14 270 09:19 22.07.2022
4598 Clouds 24 1003 66 10000 5.66 250 07:23 22.07.2022
4599 Clouds 24 1002 76 10000 10.8 250 04:19 22.07.2022
4600 Clouds 30 998 56 10000 11.32 240 23:27 21.07.2022
4601 Clouds 31 998 55 10000 9.77 230 21:37 21.07.2022
4602 Clear 30 998 58 10000 9.26 250 19:35 21.07.2022
4603 Clouds 29 999 65 10000 8.75 220 18:29 21.07.2022
4604 Clouds 28 999 70 10000 7.72 240 17:20 21.07.2022
4605 Clouds 27 999 70 10000 6.17 190 15:49 21.07.2022
4606 Clouds 27 999 72 10000 6.17 180 14:46 21.07.2022
4607 Clouds 26 999 72 10000 6.17 160 13:22 21.07.2022
4608 Clouds 26 999 72 10000 5.66 180 11:48 21.07.2022
4609 Clouds 26 999 71 10000 7.2 160 09:51 21.07.2022
4610 Clouds 26 1000 73 10000 6.69 160 08:53 21.07.2022
4611 Clouds 26 1000 80 10000 5.14 160 07:50 21.07.2022
4612 Clouds 26 1001 82 10000 3.09 130 06:26 21.07.2022
4613 Clouds 29 1003 73 10000 2.57 150 02:23 21.07.2022
4614 Clear 30 1004 62 10000 3.6 260 22:46 20.07.2022
4615 Clear 30 1004 63 10000 3.6 260 22:18 20.07.2022
4616 Clouds 29 1005 66 10000 3.6 200 20:46 20.07.2022
4617 Clouds 28 1005 67 10000 3.6 210 19:46 20.07.2022
4618 Clouds 27 1005 65 10000 3.09 150 18:53 20.07.2022
4619 Clouds 27 1006 66 10000 3.09 150 18:30 20.07.2022
4620 Clouds 26 1006 63 10000 3.09 150 17:24 20.07.2022
4621 Clear 25 1006 59 10000 3.09 90 15:32 20.07.2022
4622 Clouds 23 1006 66 10000 4.12 40 14:36 20.07.2022
4623 Clouds 21 1006 86 10000 1.03 20 12:51 20.07.2022
4624 Clear 20 1005 88 10000 2.57 360 10:29 20.07.2022
4625 Clouds 23 1005 82 10000 2.57 220 06:21 20.07.2022
4626 Clouds 29 1003 44 10000 6.69 290 01:40 20.07.2022
4627 Clouds 29 1003 47 10000 7.2 270 00:41 20.07.2022
4628 Clouds 29 1003 54 10000 8.23 280 22:36 19.07.2022
4629 Clouds 29 1003 55 10000 8.75 270 21:54 19.07.2022
4630 Clouds 29 1003 58 10000 8.75 250 20:49 19.07.2022
4631 Clouds 28 1003 63 10000 9.26 270 19:32 19.07.2022
4632 Clear 27 1003 68 10000 7.2 260 18:42 19.07.2022
4633 Clear 26 1002 74 10000 7.2 250 17:54 19.07.2022
4634 Clouds 22 1003 89 10000 6.69 260 15:49 19.07.2022
4635 Clouds 20 1003 95 10000 5.66 240 13:46 19.07.2022
4636 Clouds 20 1002 95 10000 4.12 240 11:34 19.07.2022
4637 Clear 20 1002 96 10000 4.12 280 09:53 19.07.2022
4638 Clouds 20 1001 95 10000 3.6 320 08:48 19.07.2022
4639 Clouds 20 1001 95 10000 3.6 320 08:21 19.07.2022
4640 Clouds 20 1001 95 10000 4.63 330 07:18 19.07.2022
4641 Mist 20 1001 95 2816 3.6 10 05:20 19.07.2022
4642 Mist 21 1001 94 6437 4.63 20 04:40 19.07.2022
4643 Rain 21 1004 95 2816 5.14 90 00:21 19.07.2022
4644 Rain 22 1005 93 2816 3.6 100 23:21 18.07.2022
4645 Mist 22 1006 92 8047 5.66 140 22:51 18.07.2022
4646 Rain 23 1008 90 10000 4.12 160 21:27 18.07.2022
4647 Rain 24 1009 86 10000 4.63 180 20:49 18.07.2022
4648 Rain 26 1010 72 10000 5.14 170 19:21 18.07.2022
4649 Clear 26 1011 65 10000 2.06 200 16:45 18.07.2022
4650 Clouds 25 1012 67 10000 3.09 180 15:41 18.07.2022
4651 Clouds 22 1012 76 10000 2.57 140 13:41 18.07.2022
4652 Clouds 21 1013 79 10000 1.54 180 12:29 18.07.2022
4653 Clear 20 1013 80 10000 1.03 110 10:34 18.07.2022
4654 Clear 22 1013 74 10000 0.51 220 08:21 18.07.2022
4655 Clear 23 1014 68 10000 0.51 230 06:48 18.07.2022
4656 Clear 31 1014 40 10000 5.14 230 23:31 17.07.2022
4657 Clear 31 1014 43 10000 5.66 190 22:32 17.07.2022
4658 Clear 31 1014 42 10000 5.14 190 21:44 17.07.2022
4659 Clear 30 1014 45 10000 5.66 200 20:54 17.07.2022
4660 Clear 30 1014 44 10000 5.66 200 20:35 17.07.2022
4661 Clear 30 1015 48 10000 5.14 190 19:26 17.07.2022
4662 Clear 28 1015 52 10000 4.12 200 18:26 17.07.2022
4663 Clear 28 1016 56 10000 4.12 210 17:38 17.07.2022
4664 Clear 26 1016 59 10000 2.57 190 16:50 17.07.2022
4665 Clear 25 1016 61 10000 2.57 190 16:25 17.07.2022
4666 Clear 22 1016 66 10000 2.57 240 14:37 17.07.2022
4667 Clear 20 1015 72 10000 2.06 240 13:30 17.07.2022
4668 Clear 18 1015 76 10000 2.57 250 11:32 17.07.2022
4669 Clouds 20 1014 69 10000 3.6 220 08:50 17.07.2022
4670 Clear 24 1014 56 10000 3.09 230 03:43 17.07.2022
4671 Clouds 26 1014 41 10000 5.14 260 02:32 17.07.2022
4672 Clear 29 1014 41 10000 7.72 230 23:20 16.07.2022
4673 Clear 28 1015 43 10000 7.2 220 21:25 16.07.2022
4674 Clear 27 1016 44 10000 7.2 270 19:30 16.07.2022
4675 Clear 26 1017 48 10000 6.17 220 18:27 16.07.2022
4676 Clear 24 1018 56 10000 6.69 220 16:31 16.07.2022
4677 Clouds 20 1018 65 10000 4.12 230 13:49 16.07.2022
4678 Haze 19 1018 70 6437 4.12 230 10:53 16.07.2022
4679 Clouds 20 1019 67 10000 2.57 190 09:33 16.07.2022
4680 Clear 19 1019 67 10000 2.57 220 08:43 16.07.2022
4681 Clear 20 1019 67 10000 2.57 220 08:19 16.07.2022
4682 Clear 21 1018 63 10000 3.09 230 04:21 16.07.2022
4683 Clear 24 1018 45 10000 4.12 260 02:49 16.07.2022
4684 Clouds 27 1019 38 10000 6.17 280 23:30 15.07.2022
4685 Clouds 27 1019 40 10000 3.6 250 22:41 15.07.2022
4686 Clouds 27 1019 41 10000 5.66 240 21:29 15.07.2022
4687 Clouds 26 1019 42 10000 7.2 200 20:26 15.07.2022
4688 Clear 26 1020 52 10000 4.63 190 18:42 15.07.2022
4689 Clear 25 1020 55 10000 4.63 200 17:38 15.07.2022
4690 Clear 20 1020 68 10000 1.54 210 14:54 15.07.2022
4691 Clear 16 1020 85 10000 2.06 260 12:58 15.07.2022
4692 Clear 15 1019 87 10000 2.57 250 11:44 15.07.2022
4693 Clear 15 1019 84 10000 3.09 250 10:23 15.07.2022
4694 Clear 17 1019 78 10000 2.06 280 06:30 15.07.2022
4695 Clouds 23 1017 52 10000 4.63 320 00:58 15.07.2022
4696 Clouds 23 1017 53 10000 4.63 320 00:22 15.07.2022
4697 Clouds 22 1017 59 10000 5.66 330 22:52 14.07.2022
4698 Clouds 23 1017 57 10000 3.6 300 21:51 14.07.2022
4699 Clouds 23 1017 57 10000 3.6 300 21:29 14.07.2022
4700 Clouds 22 1017 63 10000 4.12 300 20:45 14.07.2022
4701 Clouds 22 1017 65 10000 4.12 300 20:21 14.07.2022
4702 Rain 22 1017 66 10000 4.12 290 19:19 14.07.2022
4703 Clouds 20 1016 76 10000 5.14 220 16:23 14.07.2022
4704 Clouds 20 1016 75 10000 5.14 210 15:34 14.07.2022
4705 Clouds 20 1016 75 10000 5.66 190 14:31 14.07.2022
4706 Clouds 19 1015 76 10000 2.06 250 13:21 14.07.2022
4707 Clouds 18 1015 81 10000 2.57 250 11:56 14.07.2022
4708 Clouds 18 1015 81 10000 4.63 220 11:24 14.07.2022
4709 Rain 18 1014 82 10000 4.63 220 10:37 14.07.2022
4710 Rain 20 1014 63 10000 3.09 240 07:55 14.07.2022
4711 Clouds 24 1012 45 10000 3.6 280 01:28 14.07.2022
4712 Clear 25 1012 40 10000 4.12 290 00:54 14.07.2022
4713 Clear 26 1012 42 10000 6.17 270 23:35 13.07.2022
4714 Clouds 26 1012 41 10000 5.66 290 22:23 13.07.2022
4715 Clouds 26 1012 42 10000 6.17 300 21:21 13.07.2022
4716 Clear 26 1012 45 10000 7.2 270 20:23 13.07.2022
4717 Clouds 24 1012 57 10000 5.14 220 17:56 13.07.2022
4718 Clear 23 1011 63 10000 4.63 200 16:59 13.07.2022
4719 Clear 22 1011 66 10000 3.09 240 15:51 13.07.2022
4720 Clouds 19 1010 79 10000 3.09 240 13:44 13.07.2022
4721 Clouds 18 1008 84 10000 3.09 260 10:47 13.07.2022
4722 Clouds 18 1008 85 10000 3.09 260 10:28 13.07.2022
4723 Clouds 19 1008 84 10000 2.57 250 09:28 13.07.2022
4724 Clouds 19 1007 84 10000 2.57 280 08:21 13.07.2022
4725 Clouds 20 1005 86 10000 3.6 330 04:36 13.07.2022
4726 Clouds 25 1001 71 10000 6.69 250 00:25 13.07.2022
4727 Clouds 22 999 86 10000 5.66 240 22:28 12.07.2022
4728 Thunderstorm 22 999 79 4828 10.8 260 21:46 12.07.2022
4729 Clouds 26 998 65 10000 11.32 230 20:53 12.07.2022
4730 Clear 27 998 61 10000 9.77 230 19:48 12.07.2022
4731 Clear 26 998 69 10000 9.77 230 18:35 12.07.2022
4732 Clouds 22 998 88 10000 8.23 230 16:24 12.07.2022
4733 Rain 20 999 91 10000 7.2 190 14:32 12.07.2022
4734 Clouds 19 999 94 10000 5.66 170 13:35 12.07.2022
4735 Rain 19 1001 88 10000 6.69 200 11:54 12.07.2022
4736 Rain 21 1001 74 10000 7.2 220 10:26 12.07.2022
4737 Clouds 25 1001 41 10000 5.66 200 08:57 12.07.2022
4738 Clouds 24 1002 38 10000 5.14 180 07:48 12.07.2022
4739 Clouds 25 1003 46 10000 4.12 210 05:45 12.07.2022
4740 Clouds 25 1003 47 10000 5.66 190 04:57 12.07.2022
4741 Clear 28 1004 31 10000 7.72 230 01:31 12.07.2022
4742 Clouds 29 1005 42 10000 6.69 170 22:43 11.07.2022
4743 Clouds 28 1006 47 10000 5.66 230 21:34 11.07.2022
4744 Clear 27 1007 46 10000 6.69 240 20:32 11.07.2022
4745 Clouds 27 1008 45 10000 8.23 250 19:18 11.07.2022
4746 Clear 27 1009 44 10000 7.72 250 18:29 11.07.2022
4747 Clouds 24 1010 54 10000 6.17 220 16:31 11.07.2022
4748 Clouds 22 1010 59 10000 5.14 210 15:28 11.07.2022
4749 Clouds 19 1011 62 10000 4.63 240 13:19 11.07.2022
4750 Clouds 19 1011 65 10000 3.09 190 11:24 11.07.2022
4751 Clouds 19 1011 65 10000 3.09 190 11:24 11.07.2022
4752 Clouds 19 1011 65 10000 3.09 190 11:24 11.07.2022
4753 Clouds 19 1011 65 10000 3.6 250 10:18 11.07.2022
4754 Clouds 20 1012 63 10000 4.12 210 09:40 11.07.2022
4755 Clouds 20 1012 60 10000 4.63 230 08:32 11.07.2022
4756 Clear 26 1013 45 10000 6.17 220 01:54 11.07.2022
4757 Clear 27 1014 44 10000 7.72 240 23:55 10.07.2022
4758 Clear 27 1015 43 10000 8.23 220 22:52 10.07.2022
4759 Clear 26 1016 46 10000 6.17 200 21:20 10.07.2022
4760 Clear 26 1016 46 10000 7.2 220 20:37 10.07.2022
4761 Clear 25 1017 47 10000 7.72 210 19:40 10.07.2022
4762 Clear 25 1018 48 10000 8.23 250 18:43 10.07.2022
4763 Clear 23 1018 49 10000 5.66 250 17:35 10.07.2022
4764 Clear 22 1019 54 10000 4.63 200 16:24 10.07.2022
4765 Clear 20 1019 59 10000 4.12 220 15:20 10.07.2022
4766 Clear 17 1019 70 10000 3.09 250 13:48 10.07.2022
4767 Clear 14 1019 77 10000 2.57 240 12:26 10.07.2022
4768 Clear 14 1019 72 10000 1.03 120 09:57 10.07.2022
4769 Clear 15 1019 69 10000 2.06 300 08:44 10.07.2022
4770 Clear 15 1019 66 10000 2.57 290 07:29 10.07.2022
4771 Clear 23 1019 38 10000 5.14 300 01:31 10.07.2022
4772 Clouds 23 1019 40 10000 5.14 260 22:43 09.07.2022
4773 Clouds 23 1019 40 10000 5.14 260 22:19 09.07.2022
4774 Clear 22 1020 42 10000 5.66 350 20:45 09.07.2022
4775 Clear 21 1021 45 10000 2.06 330 18:37 09.07.2022
4776 Clear 20 1021 45 10000 3.6 0 17:45 09.07.2022
4777 Clear 19 1021 49 10000 2.57 20 16:44 09.07.2022
4778 Clear 18 1022 52 10000 4.12 30 15:41 09.07.2022
4779 Clear 16 1022 57 10000 3.6 360 14:36 09.07.2022
4780 Clear 15 1021 62 10000 3.6 340 13:50 09.07.2022
4781 Clear 13 1021 68 10000 3.09 350 12:45 09.07.2022
4782 Clear 12 1020 69 10000 2.06 330 11:22 09.07.2022
4783 Clear 13 1020 64 10000 2.57 360 10:22 09.07.2022
4784 Clear 16 1019 54 10000 4.12 360 07:53 09.07.2022
4785 Clear 19 1018 47 10000 6.17 360 05:24 09.07.2022
4786 Clouds 23 1015 40 10000 6.69 300 02:34 09.07.2022
4787 Clouds 26 1014 45 10000 7.2 280 22:59 08.07.2022
4788 Clouds 26 1013 46 10000 8.23 310 21:59 08.07.2022
4789 Clouds 26 1013 47 10000 7.2 300 20:42 08.07.2022
4790 Clouds 26 1013 48 10000 7.2 300 20:23 08.07.2022
4791 Clouds 25 1014 57 10000 6.17 260 18:26 08.07.2022
4792 Clear 24 1013 60 10000 4.12 230 16:49 08.07.2022
4793 Clear 21 1013 66 10000 5.66 240 14:54 08.07.2022
4794 Clouds 20 1013 67 10000 5.66 240 13:45 08.07.2022
4795 Clouds 18 1012 64 10000 4.63 240 11:59 08.07.2022
4796 Clouds 19 1012 65 10000 4.63 220 10:37 08.07.2022
4797 Clouds 20 1013 64 10000 4.12 210 08:37 08.07.2022
4798 Clear 20 1013 63 10000 2.57 210 06:50 08.07.2022
4799 Clear 25 1014 38 10000 5.66 270 01:49 08.07.2022
4800 Clear 25 1014 43 10000 4.63 260 23:30 07.07.2022
4801 Clear 25 1014 42 10000 4.63 190 22:35 07.07.2022
4802 Clear 25 1015 45 10000 5.66 230 20:40 07.07.2022
4803 Clouds 23 1016 56 10000 3.09 210 18:22 07.07.2022
4804 Clear 22 1017 55 10000 1.54 130 16:57 07.07.2022
4805 Clear 18 1018 66 10000 3.6 50 14:56 07.07.2022
4806 Clouds 16 1018 71 10000 4.12 30 13:25 07.07.2022
4807 Clear 14 1017 75 10000 3.6 20 12:24 07.07.2022
4808 Clouds 14 1017 75 10000 3.09 350 11:46 07.07.2022
4809 Clouds 14 1017 75 10000 3.09 350 11:27 07.07.2022
4810 Clear 14 1016 74 10000 3.6 20 10:42 07.07.2022
4811 Clear 14 1016 73 10000 3.6 20 10:24 07.07.2022
4812 Clear 16 1016 72 10000 2.06 360 07:22 07.07.2022
4813 Clear 21 1014 50 10000 3.09 350 02:55 07.07.2022
4814 Clear 25 1013 48 10000 2.14 249 23:36 06.07.2022
4815 Clear 24 1012 49 10000 0.9 272 23:18 06.07.2022
4816 Clouds 24 1013 50 10000 5.66 290 22:53 06.07.2022
4817 Clouds 24 1013 50 10000 5.66 290 22:34 06.07.2022
4818 Clouds 23 1013 55 10000 5.66 340 20:54 06.07.2022
4819 Clouds 23 1013 55 10000 4.12 20 19:35 06.07.2022
4820 Clear 21 1013 59 10000 6.17 10 17:32 06.07.2022
4821 Clouds 20 1012 70 10000 4.12 340 15:59 06.07.2022
4822 Clouds 18 1012 82 10000 4.12 350 14:33 06.07.2022
4823 Clouds 16 1010 91 10000 4.63 340 12:31 06.07.2022
4824 Clouds 16 1009 93 10000 4.12 350 11:45 06.07.2022
4825 Clouds 16 1008 94 10000 4.12 360 10:18 06.07.2022
4826 Mist 16 1007 94 9656 6.17 10 07:44 06.07.2022
4827 Mist 16 1007 94 4828 6.17 10 07:20 06.07.2022
4828 Rain 19 1009 84 9656 3.6 100 01:42 06.07.2022
4829 Clouds 21 1011 71 10000 4.12 80 22:45 05.07.2022
4830 Clouds 20 1012 70 10000 2.57 70 21:32 05.07.2022
4831 Clouds 20 1013 71 10000 3.09 80 20:38 05.07.2022
4832 Clouds 19 1014 79 10000 3.6 30 19:41 05.07.2022
4833 Rain 19 1014 80 10000 2.06 10 19:21 05.07.2022
4834 Rain 20 1016 70 10000 3.09 250 17:46 05.07.2022
4835 Rain 20 1016 67 10000 4.12 220 16:39 05.07.2022
4836 Clouds 20 1016 65 10000 3.09 210 15:24 05.07.2022
4837 Clouds 19 1016 69 10000 3.09 180 13:53 05.07.2022
4838 Clouds 18 1016 69 10000 2.57 170 12:42 05.07.2022
4839 Clouds 18 1017 71 10000 2.06 250 11:24 05.07.2022
4840 Clear 18 1017 70 10000 3.6 240 10:31 05.07.2022
4841 Clear 18 1017 71 10000 3.6 230 08:25 05.07.2022
4842 Clouds 19 1018 64 10000 3.6 210 07:31 05.07.2022
4843 Clear 20 1018 61 10000 3.6 240 04:47 05.07.2022
4844 Clear 21 1018 60 10000 3.6 240 04:20 05.07.2022
4845 Clouds 25 1017 42 10000 6.17 220 23:42 04.07.2022
4846 Clouds 26 1018 41 10000 5.66 250 22:59 04.07.2022
4847 Clouds 26 1018 41 10000 5.66 250 22:21 04.07.2022
4848 Clouds 25 1018 42 10000 7.2 210 21:20 04.07.2022
4849 Clouds 25 1018 42 10000 7.2 210 20:51 04.07.2022
4850 Clouds 25 1018 43 10000 7.2 210 20:33 04.07.2022
4851 Clouds 24 1019 42 10000 5.14 200 19:51 04.07.2022
4852 Clouds 24 1019 42 10000 5.14 200 19:33 04.07.2022
4853 Clear 23 1020 43 10000 4.12 190 17:42 04.07.2022
4854 Clear 21 1020 46 10000 3.6 340 15:44 04.07.2022
4855 Clear 20 1020 55 10000 2.57 340 14:54 04.07.2022
4856 Clear 17 1020 66 10000 2.06 340 13:29 04.07.2022
4857 Clear 15 1019 74 10000 2.57 320 12:20 04.07.2022
4858 Clear 15 1018 75 10000 3.09 300 10:33 04.07.2022
4859 Clear 16 1018 72 10000 3.6 300 09:40 04.07.2022
4860 Clear 17 1018 65 10000 3.09 300 07:21 04.07.2022
4861 Clouds 20 1016 54 10000 4.63 270 03:35 04.07.2022
4862 Clouds 24 1015 35 10000 6.69 290 00:30 04.07.2022
4863 Clouds 25 1015 40 10000 7.72 250 22:58 03.07.2022
4864 Clouds 24 1015 42 10000 7.2 270 20:51 03.07.2022
4865 Clouds 24 1015 42 10000 7.2 270 20:25 03.07.2022
4866 Clear 24 1015 42 10000 8.23 280 19:26 03.07.2022
4867 Clouds 23 1015 46 10000 8.75 240 18:32 03.07.2022
4868 Clear 22 1015 51 10000 6.17 240 17:43 03.07.2022
4869 Clouds 21 1015 57 10000 3.09 290 15:49 03.07.2022
4870 Clouds 19 1015 62 10000 3.09 300 14:58 03.07.2022
4871 Clouds 18 1014 68 10000 3.09 240 13:59 03.07.2022
4872 Clouds 17 1014 70 10000 3.09 240 13:33 03.07.2022
4873 Clouds 16 1013 74 10000 2.57 260 12:33 03.07.2022
4874 Clouds 16 1013 74 10000 3.09 260 11:20 03.07.2022
4875 Clouds 16 1012 74 10000 2.57 220 10:38 03.07.2022
4876 Clear 17 1012 70 10000 2.06 220 09:31 03.07.2022
4877 Clear 19 1011 63 10000 4.12 260 07:34 03.07.2022
4878 Clouds 26 1009 44 10000 8.75 240 01:42 03.07.2022
4879 Clouds 26 1009 45 10000 8.23 230 23:50 02.07.2022
4880 Clouds 26 1009 43 10000 8.23 220 22:33 02.07.2022
4881 Clouds 26 1009 40 10000 6.69 240 20:50 02.07.2022
4882 Clouds 25 1010 40 10000 8.23 250 19:52 02.07.2022
4883 Clouds 25 1010 41 10000 8.23 250 19:20 02.07.2022
4884 Clear 24 1010 48 10000 6.69 280 17:41 02.07.2022
4885 Clear 23 1010 56 10000 7.72 250 16:49 02.07.2022
4886 Clear 22 1009 65 10000 6.17 280 14:31 02.07.2022
4887 Clear 20 1008 78 10000 4.63 250 12:21 02.07.2022
4888 Clear 21 1007 77 10000 5.66 240 11:26 02.07.2022
4889 Clouds 22 1006 72 10000 5.14 250 10:37 02.07.2022
4890 Clear 23 1006 65 10000 7.2 240 08:55 02.07.2022
4891 Clear 23 1006 65 10000 7.2 240 08:20 02.07.2022
4892 Clouds 24 1006 68 10000 4.63 210 06:59 02.07.2022
4893 Clouds 26 1008 62 10000 4.63 230 01:53 02.07.2022
4894 Clear 27 1008 59 10000 4.63 220 23:56 01.07.2022
4895 Clouds 27 1009 60 10000 3.6 230 22:41 01.07.2022
4896 Clouds 26 1010 63 10000 4.63 250 21:47 01.07.2022
4897 Clouds 26 1010 61 10000 4.63 250 21:27 01.07.2022
4898 Clouds 26 1010 63 10000 5.66 170 20:40 01.07.2022
4899 Clear 26 1010 64 10000 5.14 190 19:46 01.07.2022
4900 Clouds 25 1012 63 10000 7.72 270 17:53 01.07.2022
4901 Clouds 25 1011 65 10000 5.66 190 15:54 01.07.2022
4902 Clouds 21 1011 73 10000 4.12 190 13:54 01.07.2022
4903 Clouds 20 1012 74 10000 3.6 180 12:41 01.07.2022
4904 Clouds 19 1013 73 10000 4.12 190 10:20 01.07.2022
4905 Clouds 19 1013 73 10000 4.12 190 10:20 01.07.2022
4906 Clouds 20 1013 70 10000 5.14 180 09:43 01.07.2022
4907 Clouds 20 1016 66 10000 5.14 150 04:49 01.07.2022
4908 Clouds 23 1019 54 10000 3.6 170 00:26 01.07.2022
4909 Clouds 22 1019 54 10000 3.09 260 23:22 30.06.2022
4910 Clouds 22 1019 54 10000 4.12 240 22:44 30.06.2022
4911 Clouds 22 1019 53 10000 4.12 240 22:25 30.06.2022
4912 Clouds 23 1019 52 10000 5.14 210 21:45 30.06.2022
4913 Clouds 23 1020 56 10000 5.14 220 20:30 30.06.2022
4914 Clouds 22 1021 61 10000 3.6 180 19:54 30.06.2022
4915 Clouds 22 1021 61 10000 3.6 180 19:25 30.06.2022
4916 Clouds 21 1022 62 10000 3.09 110 18:42 30.06.2022
4917 Clouds 21 1023 62 10000 3.6 220 17:44 30.06.2022
4918 Clear 21 1023 62 10000 2.57 200 16:55 30.06.2022
4919 Clear 20 1024 65 10000 2.06 0 15:42 30.06.2022
4920 Clear 16 1023 81 10000 0 0 13:36 30.06.2022
4921 Clouds 14 1023 90 10000 2.06 270 12:35 30.06.2022
4922 Clouds 14 1023 91 10000 3.09 230 11:55 30.06.2022
4923 Clouds 13 1022 90 10000 3.09 300 09:55 30.06.2022
4924 Clouds 13 1022 89 10000 3.09 300 09:35 30.06.2022
4925 Clear 14 1021 85 10000 3.09 290 08:19 30.06.2022
4926 Clear 15 1021 83 10000 3.09 320 07:24 30.06.2022
4927 Clouds 19 1020 77 10000 5.14 260 02:38 30.06.2022
4928 Clouds 19 1020 77 10000 7.72 260 23:36 29.06.2022
4929 Clouds 19 1019 80 10000 9.26 280 22:41 29.06.2022
4930 Clouds 22 1019 70 10000 6.69 290 21:43 29.06.2022
4931 Clouds 26 1019 49 10000 6.17 170 20:34 29.06.2022
4932 Clear 25 1020 50 10000 5.66 170 19:55 29.06.2022
4933 Clear 23 1021 51 10000 5.66 180 17:55 29.06.2022
4934 Clear 22 1021 52 10000 4.63 240 16:51 29.06.2022
4935 Clear 22 1021 52 10000 4.63 240 16:51 29.06.2022
4936 Clear 21 1021 54 10000 3.6 180 15:32 29.06.2022
4937 Clear 18 1021 63 10000 4.63 190 13:36 29.06.2022
4938 Clear 15 1021 71 10000 4.12 230 12:24 29.06.2022
4939 Clear 16 1020 67 10000 5.66 230 09:43 29.06.2022
4940 Clear 17 1020 68 10000 5.66 230 09:21 29.06.2022
4941 Clear 19 1020 73 10000 5.66 220 06:27 29.06.2022
4942 Clear 22 1019 51 10000 6.17 230 02:59 29.06.2022
4943 Clouds 23 1019 44 10000 7.72 250 00:52 29.06.2022
4944 Clouds 24 1019 45 10000 7.72 250 00:33 29.06.2022
4945 Clear 24 1019 50 10000 1.34 294 22:49 28.06.2022
4946 Clouds 23 1020 47 10000 7.72 210 21:57 28.06.2022
4947 Clear 23 1019 47 10000 0.89 234 21:38 28.06.2022
4948 Clouds 23 1020 48 10000 5.66 240 20:57 28.06.2022
4949 Clouds 22 1020 47 10000 7.2 200 19:54 28.06.2022
4950 Clouds 22 1020 46 10000 7.2 200 19:28 28.06.2022
4951 Clouds 22 1020 46 10000 4.12 240 18:38 28.06.2022
4952 Clear 21 1020 46 10000 2.57 230 16:47 28.06.2022
4953 Clouds 20 1020 52 10000 2.06 300 15:54 28.06.2022
4954 Clouds 18 1019 63 10000 3.09 340 14:49 28.06.2022
4955 Clouds 18 1019 67 10000 3.09 340 14:18 28.06.2022
4956 Clouds 17 1019 72 10000 2.06 300 13:45 28.06.2022
4957 Clouds 17 1018 79 10000 2.57 310 12:28 28.06.2022
4958 Clouds 17 1016 78 10000 3.09 300 09:53 28.06.2022
4959 Clear 17 1016 78 10000 3.6 310 08:55 28.06.2022
4960 Clear 17 1016 77 10000 3.6 310 08:33 28.06.2022
4961 Clouds 18 1015 73 10000 4.63 310 07:20 28.06.2022
4962 Clear 20 1014 57 10000 5.14 280 03:38 28.06.2022
4963 Clouds 23 1011 45 10000 9.77 250 23:51 27.06.2022
4964 Clouds 23 1011 47 10000 9.77 250 23:25 27.06.2022
4965 Clear 24 1010 46 10000 11.32 270 21:53 27.06.2022
4966 Clear 24 1010 46 10000 11.32 270 21:22 27.06.2022
4967 Clouds 24 1010 45 10000 10.29 280 20:21 27.06.2022
4968 Clear 23 1009 52 10000 10.8 270 18:50 27.06.2022
4969 Clear 24 1009 63 10000 8.23 260 17:38 27.06.2022
4970 Clouds 23 1008 85 10000 6.17 270 15:50 27.06.2022
4971 Clouds 22 1007 93 10000 6.17 250 14:18 27.06.2022
4972 Mist 22 1007 93 9656 3.6 230 12:58 27.06.2022
4973 Mist 22 1007 94 9656 1.54 280 11:40 27.06.2022
4974 Rain 21 1008 94 10000 2.06 170 09:49 27.06.2022
4975 Rain 21 1009 92 10000 2.57 190 08:43 27.06.2022
4976 Clouds 22 1009 90 10000 3.09 210 07:49 27.06.2022
4977 Rain 22 1010 88 10000 4.63 230 05:50 27.06.2022
4978 Clouds 30 1010 49 10000 5.66 210 01:24 27.06.2022
4979 Clouds 31 1011 51 10000 6.17 180 23:22 26.06.2022
4980 Clear 32 1012 50 10000 6.69 160 21:39 26.06.2022
4981 Clear 32 1013 51 10000 6.69 180 20:33 26.06.2022
4982 Clear 31 1015 55 10000 5.66 190 18:38 26.06.2022
4983 Clear 30 1015 58 10000 5.66 190 18:20 26.06.2022
4984 Clear 26 1017 66 10000 6.17 170 15:37 26.06.2022
4985 Clear 24 1017 74 10000 3.6 180 14:23 26.06.2022
4986 Clear 22 1017 82 10000 2.57 130 13:26 26.06.2022
4987 Clear 20 1017 87 10000 1.03 120 11:49 26.06.2022
4988 Mist 20 1017 85 8047 2.06 140 10:42 26.06.2022
4989 Clear 21 1017 84 10000 2.06 130 10:22 26.06.2022
4990 Clear 22 1018 78 10000 2.06 120 08:36 26.06.2022
4991 Clear 23 1018 74 10000 2.06 150 06:50 26.06.2022
4992 Clear 29 1018 51 10000 3.6 180 00:38 26.06.2022
4993 Clear 29 1018 51 10000 3.6 180 00:19 26.06.2022
4994 Clear 29 1018 52 10000 4.63 200 23:31 25.06.2022
4995 Clear 29 1018 51 10000 4.12 200 22:48 25.06.2022
4996 Clear 29 1018 51 10000 4.12 200 22:25 25.06.2022
4997 Clouds 29 1018 51 10000 4.12 210 21:22 25.06.2022
4998 Clear 29 1018 53 10000 3.09 240 20:48 25.06.2022
4999 Clear 29 1018 53 10000 3.09 240 20:25 25.06.2022
5000 Clear 27 1019 60 10000 3.09 190 18:26 25.06.2022
5001 Clear 26 1019 64 10000 2.57 190 17:27 25.06.2022
5002 Clouds 25 1019 66 10000 2.06 220 16:29 25.06.2022
5003 Clouds 21 1019 76 10000 3.09 240 14:43 25.06.2022
5004 Clear 19 1017 82 10000 3.09 230 12:51 25.06.2022
5005 Clear 19 1017 83 10000 3.09 230 12:32 25.06.2022
5006 Clear 19 1017 83 10000 3.09 230 12:32 25.06.2022
5007 Clear 19 1016 81 10000 3.6 230 09:40 25.06.2022
5008 Clear 20 1016 78 10000 3.09 220 08:56 25.06.2022
5009 Clear 20 1016 76 10000 3.09 220 08:25 25.06.2022
5010 Clear 21 1016 71 10000 2.57 220 06:46 25.06.2022
5011 Clear 26 1015 55 10000 5.66 230 01:53 25.06.2022
5012 Clear 27 1015 53 10000 5.66 210 00:20 25.06.2022
5013 Clear 27 1015 60 10000 5.14 220 22:29 24.06.2022
5014 Clear 26 1015 62 10000 4.63 210 21:29 24.06.2022
5015 Clear 25 1015 66 10000 4.63 200 20:25 24.06.2022
5016 Clouds 24 1016 69 10000 3.6 200 19:43 24.06.2022
5017 Clouds 24 1016 70 10000 3.6 200 19:18 24.06.2022
5018 Clouds 24 1016 70 10000 3.6 190 18:46 24.06.2022
5019 Clouds 23 1016 74 10000 3.6 190 18:28 24.06.2022
5020 Clouds 21 1016 78 10000 2.06 290 16:48 24.06.2022
5021 Clear 20 1016 84 10000 2.06 310 15:27 24.06.2022
5022 Clouds 19 1016 89 10000 2.57 350 14:25 24.06.2022
5023 Clouds 18 1015 94 10000 2.06 110 13:46 24.06.2022
5024 Clouds 16 1015 96 10000 1.54 170 11:42 24.06.2022
5025 Clouds 16 1015 96 10000 1.03 90 10:42 24.06.2022
5026 Clouds 17 1014 95 10000 1.03 100 09:42 24.06.2022
5027 Clouds 17 1015 95 10000 1.54 130 08:54 24.06.2022
5028 Clouds 17 1015 94 10000 1.54 130 08:32 24.06.2022
5029 Clouds 17 1015 94 10000 2.06 140 06:45 24.06.2022
5030 Clouds 17 1015 94 10000 2.06 140 06:26 24.06.2022
5031 Clouds 17 1015 95 10000 2.57 160 05:21 24.06.2022
5032 Rain 18 1014 94 10000 2.57 160 00:47 24.06.2022
5033 Rain 17 1014 95 10000 4.12 190 22:43 23.06.2022
5034 Rain 17 1014 93 10000 5.14 140 21:43 23.06.2022
5035 Clouds 17 1014 95 10000 3.6 190 20:43 23.06.2022
5036 Rain 16 1014 94 6437 3.09 160 19:57 23.06.2022
5037 Clouds 16 1014 93 10000 7.2 150 18:43 23.06.2022
5038 Rain 15 1013 94 10000 7.2 150 17:37 23.06.2022
5039 Mist 15 1013 94 9656 5.66 170 16:32 23.06.2022
5040 Clouds 15 1013 94 10000 5.66 170 15:26 23.06.2022
5041 Rain 15 1013 95 9656 6.69 170 14:45 23.06.2022
5042 Rain 15 1012 93 8047 6.17 180 11:49 23.06.2022
5043 Clouds 16 1011 91 10000 3.6 180 10:42 23.06.2022
5044 Clouds 16 1012 88 10000 6.69 200 09:19 23.06.2022
5045 Clouds 19 1011 75 10000 8.75 170 05:48 23.06.2022
5046 Clouds 21 1012 70 10000 9.77 160 01:21 23.06.2022
5047 Clouds 22 1012 66 10000 9.26 160 00:18 23.06.2022
5048 Clouds 23 1012 67 10000 9.26 140 23:22 22.06.2022
5049 Clouds 24 1012 65 10000 10.29 160 21:44 22.06.2022
5050 Clouds 24 1013 67 10000 9.77 180 20:52 22.06.2022
5051 Clouds 24 1013 67 10000 9.77 180 20:20 22.06.2022
5052 Clouds 24 1013 68 10000 8.75 170 19:43 22.06.2022
5053 Clouds 21 1013 74 10000 6.69 160 17:40 22.06.2022
5054 Clouds 20 1014 79 10000 6.69 170 16:43 22.06.2022
5055 Clouds 18 1014 85 10000 7.2 170 15:29 22.06.2022
5056 Clouds 17 1014 87 10000 5.66 170 14:57 22.06.2022
5057 Clouds 16 1014 91 10000 7.2 170 13:49 22.06.2022
5058 Clouds 16 1014 92 10000 7.2 170 13:24 22.06.2022
5059 Clouds 15 1013 93 10000 6.69 170 12:37 22.06.2022
5060 Clouds 15 1014 94 10000 6.17 170 11:46 22.06.2022
5061 Rain 15 1014 91 10000 5.66 180 10:50 22.06.2022
5062 Rain 15 1014 89 10000 6.17 180 09:42 22.06.2022
5063 Rain 15 1015 90 10000 5.14 170 07:22 22.06.2022
5064 Clouds 16 1016 90 10000 3.6 180 02:56 22.06.2022
5065 Rain 18 1016 70 10000 4.12 180 01:19 22.06.2022
5066 Clouds 19 1018 66 10000 3.6 160 22:57 21.06.2022
5067 Clouds 20 1018 65 10000 3.6 90 21:25 21.06.2022
5068 Clouds 19 1019 69 10000 2.57 310 19:43 21.06.2022
5069 Clouds 20 1019 63 10000 3.09 200 17:56 21.06.2022
5070 Clouds 19 1019 63 10000 3.6 200 16:52 21.06.2022
5071 Clouds 16 1019 63 10000 3.6 200 12:36 21.06.2022
5072 Clouds 15 1018 71 10000 2.06 180 10:55 21.06.2022
5073 Clear 16 1018 69 10000 3.6 230 09:39 21.06.2022
5074 Clear 17 1018 61 10000 4.63 240 07:56 21.06.2022
5075 Clear 19 1018 55 10000 3.6 210 05:33 21.06.2022
5076 Clear 25 1017 31 10000 5.66 220 00:37 21.06.2022
5077 Clear 25 1018 30 10000 6.69 250 22:23 20.06.2022
5078 Clear 24 1018 34 10000 7.2 230 21:49 20.06.2022
5079 Clear 23 1019 37 10000 6.17 210 20:32 20.06.2022
5080 Clear 23 1019 40 10000 5.14 230 19:38 20.06.2022
5081 Clear 22 1019 42 10000 4.63 200 18:44 20.06.2022
5082 Clear 21 1019 46 10000 3.6 210 17:52 20.06.2022
5083 Clear 20 1019 45 10000 3.6 210 17:29 20.06.2022
5084 Clear 19 1019 46 10000 2.57 40 15:53 20.06.2022
5085 Clear 13 1018 64 10000 2.06 340 12:41 20.06.2022
5086 Clear 12 1017 63 10000 2.57 330 10:41 20.06.2022
5087 Clear 13 1016 58 10000 3.09 320 09:30 20.06.2022
5088 Clear 13 1016 58 10000 5.14 320 08:44 20.06.2022
5089 Clear 17 1016 47 10000 4.63 320 05:35 20.06.2022
5090 Clear 20 1014 34 10000 5.66 330 02:27 20.06.2022
5091 Clear 22 1014 31 10000 7.72 320 00:26 20.06.2022
5092 Clear 22 1014 32 10000 9.77 350 22:53 19.06.2022
5093 Clear 22 1014 33 10000 8.23 340 21:58 19.06.2022
5094 Clear 22 1014 33 10000 8.23 340 21:40 19.06.2022
5095 Clear 21 1014 35 10000 9.26 330 20:39 19.06.2022
5096 Clear 20 1014 38 10000 6.69 310 19:47 19.06.2022
5097 Clear 18 1015 41 10000 7.2 340 18:46 19.06.2022
5098 Clear 18 1015 42 10000 7.2 340 18:26 19.06.2022
5099 Clear 17 1015 43 10000 9.26 340 17:22 19.06.2022
5100 Clear 15 1015 45 10000 8.23 10 16:35 19.06.2022
5101 Clear 14 1016 48 10000 8.75 350 15:41 19.06.2022
5102 Clear 13 1016 54 10000 6.69 350 14:57 19.06.2022
5103 Clear 13 1016 58 10000 6.69 350 14:20 19.06.2022
5104 Clear 12 1015 65 10000 7.72 330 13:36 19.06.2022
5105 Clear 10 1014 72 10000 6.69 330 11:38 19.06.2022
5106 Clear 10 1014 70 10000 7.2 330 10:31 19.06.2022
5107 Clear 11 1013 69 10000 7.72 330 08:49 19.06.2022
5108 Clear 11 1013 69 10000 7.72 330 08:19 19.06.2022
5109 Clouds 13 1012 63 10000 8.23 320 05:42 19.06.2022
5110 Clouds 15 1010 58 10000 6.69 310 02:32 19.06.2022
5111 Clouds 16 1009 60 10000 6.69 310 00:25 19.06.2022
5112 Clouds 15 1008 64 10000 8.23 330 23:36 18.06.2022
5113 Rain 14 1008 77 10000 5.66 300 22:45 18.06.2022
5114 Rain 12 1008 90 10000 7.2 300 21:43 18.06.2022
5115 Rain 11 1007 88 10000 8.75 290 20:49 18.06.2022
5116 Rain 11 1007 86 10000 7.2 290 19:40 18.06.2022
5117 Rain 11 1006 87 10000 7.2 280 18:54 18.06.2022
5118 Rain 10 1006 87 10000 7.2 280 17:43 18.06.2022
5119 Rain 10 1006 87 10000 7.2 280 17:22 18.06.2022
5120 Drizzle 10 1005 79 10000 6.69 280 15:37 18.06.2022
5121 Clouds 10 1005 78 10000 6.69 290 14:48 18.06.2022
5122 Rain 10 1004 75 10000 6.69 300 13:42 18.06.2022
5123 Clouds 11 1003 76 10000 6.17 280 11:58 18.06.2022
5124 Clouds 11 1003 78 10000 7.72 260 10:57 18.06.2022
5125 Clouds 11 1002 78 10000 6.17 260 09:28 18.06.2022
5126 Clouds 11 1002 78 10000 3.6 270 08:33 18.06.2022
5127 Clouds 11 1002 74 10000 4.63 320 07:32 18.06.2022
5128 Clouds 15 1000 87 10000 4.63 300 04:20 18.06.2022
5129 Mist 18 998 88 9656 5.14 270 01:27 18.06.2022
5130 Mist 18 998 88 9656 5.14 270 01:27 18.06.2022
5131 Rain 19 998 85 6437 7.2 300 00:50 18.06.2022
5132 Thunderstorm 22 997 62 10000 9.26 230 00:22 18.06.2022
5133 Clouds 26 997 46 10000 9.26 260 23:29 17.06.2022
5134 Clouds 26 998 47 10000 9.77 250 21:44 17.06.2022
5135 Clouds 25 999 48 10000 12.35 240 20:29 17.06.2022
5136 Clouds 25 999 51 10000 10.29 260 19:19 17.06.2022
5137 Clouds 24 1000 52 10000 12.35 240 17:47 17.06.2022
5138 Clear 24 1000 56 10000 11.32 230 16:44 17.06.2022
5139 Clear 23 1000 56 10000 11.32 230 16:21 17.06.2022
5140 Clear 23 1000 59 10000 10.8 250 15:37 17.06.2022
5141 Clouds 22 1000 73 10000 7.72 230 14:23 17.06.2022
5142 Clouds 21 1001 79 10000 7.72 230 13:58 17.06.2022
5143 Clouds 20 1001 80 10000 7.72 230 13:38 17.06.2022
5144 Clouds 20 1000 90 10000 4.63 250 12:24 17.06.2022
5145 Clouds 20 1000 92 10000 5.14 190 11:50 17.06.2022
5146 Clouds 20 1000 93 10000 5.14 190 11:32 17.06.2022
5147 Clear 19 1002 95 10000 5.14 170 08:56 17.06.2022
5148 Clear 19 1002 94 10000 5.14 170 08:25 17.06.2022
5149 Clouds 20 1004 93 10000 5.66 170 06:42 17.06.2022
5150 Clouds 20 1006 91 10000 8.23 170 03:42 17.06.2022
5151 Clouds 20 1006 93 10000 6.69 140 01:55 17.06.2022
5152 Thunderstorm 21 1006 90 10000 6.17 170 23:35 16.06.2022
5153 Thunderstorm 22 1008 87 2816 7.72 50 22:41 16.06.2022
5154 Clouds 26 1008 68 10000 11.83 170 21:21 16.06.2022
5155 Clouds 26 1009 68 10000 11.32 170 20:51 16.06.2022
5156 Clouds 26 1009 68 10000 11.32 170 20:27 16.06.2022
5157 Clouds 25 1010 69 10000 10.29 170 19:32 16.06.2022
5158 Clouds 21 1012 81 10000 7.72 170 17:57 16.06.2022
5159 Clouds 21 1012 82 10000 6.17 130 17:33 16.06.2022
5160 Clouds 22 1012 75 10000 7.72 170 16:24 16.06.2022
5161 Clouds 22 1014 74 10000 8.23 180 15:21 16.06.2022
5162 Clouds 22 1014 76 10000 8.23 170 14:28 16.06.2022
5163 Clouds 20 1014 82 10000 4.12 170 12:59 16.06.2022
5164 Clouds 20 1014 83 10000 4.12 170 12:35 16.06.2022
5165 Clouds 19 1015 85 10000 5.14 160 11:49 16.06.2022
5166 Clouds 19 1015 86 10000 5.66 150 10:42 16.06.2022
5167 Rain 20 1016 81 10000 3.6 160 09:43 16.06.2022
5168 Thunderstorm 20 1016 76 10000 3.6 160 09:20 16.06.2022
5169 Clouds 20 1017 69 10000 5.66 140 07:57 16.06.2022
5170 Clear 20 1017 70 10000 2.57 120 06:51 16.06.2022
5171 Clouds 22 1018 62 10000 1.54 110 04:28 16.06.2022
5172 Clear 24 1018 55 10000 3.09 150 01:53 16.06.2022
5173 Clear 24 1018 56 10000 3.09 150 01:34 16.06.2022
5174 Clear 25 1018 54 10000 4.12 160 00:36 16.06.2022
5175 Clear 25 1018 56 10000 2.57 150 23:23 15.06.2022
5176 Clear 24 1019 58 10000 3.6 100 21:59 15.06.2022
5177 Clear 24 1019 59 10000 3.6 100 21:20 15.06.2022
5178 Clear 24 1019 59 10000 3.09 130 20:38 15.06.2022
5179 Clear 24 1019 61 10000 3.09 130 20:19 15.06.2022
5180 Clear 23 1020 63 10000 1.54 30 18:51 15.06.2022
5181 Clear 22 1020 63 10000 3.09 90 17:55 15.06.2022
5182 Clear 21 1020 67 10000 4.12 20 16:38 15.06.2022
5183 Clear 20 1020 71 10000 4.63 20 15:35 15.06.2022
5184 Clear 17 1019 79 10000 6.17 40 13:43 15.06.2022
5185 Clear 16 1018 84 10000 3.6 40 12:53 15.06.2022
5186 Clear 15 1018 85 10000 4.12 30 11:48 15.06.2022
5187 Clear 16 1018 84 10000 3.6 30 10:24 15.06.2022
5188 Clear 16 1017 81 10000 3.09 10 09:38 15.06.2022
5189 Clear 17 1017 74 10000 4.12 30 08:30 15.06.2022
5190 Clear 19 1016 65 10000 3.6 40 06:33 15.06.2022
5191 Clouds 21 1014 67 10000 4.12 50 03:45 15.06.2022
5192 Clouds 25 1013 48 10000 4.12 50 01:54 15.06.2022
5193 Clear 25 1013 49 10000 5.66 30 00:50 15.06.2022
5194 Clouds 25 1013 49 10000 6.69 350 23:39 14.06.2022
5195 Clouds 25 1013 53 10000 6.69 350 23:18 14.06.2022
5196 Clouds 26 1013 49 10000 3.09 300 22:18 14.06.2022
5197 Clouds 25 1013 45 10000 2.06 350 21:33 14.06.2022
5198 Clouds 25 1013 51 10000 4.63 240 20:48 14.06.2022
5199 Clouds 25 1013 52 10000 4.63 240 20:28 14.06.2022
5200 Clouds 24 1013 51 10000 4.63 240 18:56 14.06.2022
5201 Clear 24 1013 54 10000 3.6 340 17:40 14.06.2022
5202 Clear 23 1013 57 10000 3.6 330 16:43 14.06.2022
5203 Clear 21 1013 62 10000 4.12 350 15:50 14.06.2022
5204 Clear 21 1013 63 10000 4.12 350 15:22 14.06.2022
5205 Clear 19 1014 68 10000 3.09 290 14:32 14.06.2022
5206 Clear 17 1013 77 10000 2.57 300 13:41 14.06.2022
5207 Clear 15 1013 83 10000 3.09 240 12:42 14.06.2022
5208 Clear 14 1013 84 10000 2.06 250 11:32 14.06.2022
5209 Clear 14 1013 82 10000 4.12 230 10:47 14.06.2022
5210 Clear 15 1013 79 10000 3.09 240 09:48 14.06.2022
5211 Clear 15 1013 78 10000 3.09 280 08:47 14.06.2022
5212 Clear 15 1013 74 10000 2.57 290 07:33 14.06.2022
5213 Clear 17 1013 66 10000 3.6 280 05:22 14.06.2022
5214 Clouds 20 1013 56 10000 6.17 280 02:58 14.06.2022
5215 Clouds 22 1012 50 10000 6.17 300 00:53 14.06.2022
5216 Clouds 22 1012 48 10000 5.66 290 23:39 13.06.2022
5217 Clouds 23 1012 48 10000 7.2 270 22:26 13.06.2022
5218 Clouds 22 1012 50 10000 7.72 250 21:50 13.06.2022
5219 Clouds 22 1012 51 10000 8.75 260 20:42 13.06.2022
5220 Clouds 22 1012 49 10000 8.23 280 19:35 13.06.2022
5221 Clouds 22 1012 49 10000 6.17 280 18:28 13.06.2022
5222 Clouds 22 1012 54 10000 7.72 250 17:47 13.06.2022
5223 Clouds 21 1011 61 10000 7.2 270 16:52 13.06.2022
5224 Clouds 20 1011 70 10000 4.12 260 15:40 13.06.2022
5225 Clouds 19 1011 78 10000 4.63 250 14:47 13.06.2022
5226 Clouds 18 1011 86 10000 4.12 230 13:55 13.06.2022
5227 Clouds 17 1010 91 10000 4.12 240 12:49 13.06.2022
5228 Clear 16 1010 91 10000 3.09 210 11:37 13.06.2022
5229 Clear 17 1009 90 10000 3.6 240 10:27 13.06.2022
5230 Clouds 18 1009 84 10000 4.12 230 09:42 13.06.2022
5231 Clouds 18 1009 86 10000 4.12 220 08:24 13.06.2022
5232 Clouds 19 1009 76 10000 3.09 190 06:33 13.06.2022
5233 Clouds 20 1009 82 10000 2.06 210 03:28 13.06.2022
5234 Clouds 20 1009 80 10000 1.54 90 01:38 13.06.2022
5235 Clouds 20 1009 78 10000 1.03 0 00:48 13.06.2022
5236 Rain 21 1010 73 10000 6.17 270 23:31 12.06.2022
5237 Clouds 22 1009 66 10000 2.57 140 22:23 12.06.2022
5238 Clouds 24 1010 58 10000 4.12 180 21:39 12.06.2022
5239 Clouds 25 1011 55 10000 7.2 170 20:40 12.06.2022
5240 Clouds 24 1011 56 10000 4.63 170 19:41 12.06.2022
5241 Rain 25 1012 53 10000 4.12 140 18:44 12.06.2022
5242 Clouds 22 1012 62 10000 4.12 170 16:44 12.06.2022
5243 Clouds 20 1013 65 10000 5.14 190 15:32 12.06.2022
5244 Clear 19 1012 65 10000 4.63 160 14:33 12.06.2022
5245 Clear 18 1012 70 10000 2.57 130 13:57 12.06.2022
5246 Clear 18 1012 71 10000 2.57 130 13:38 12.06.2022
5247 Clear 15 1012 80 10000 2.57 130 11:58 12.06.2022
5248 Clear 15 1012 79 10000 1.54 160 10:46 12.06.2022
5249 Clear 15 1012 76 10000 3.09 130 09:36 12.06.2022
5250 Clear 16 1011 73 10000 3.09 210 08:49 12.06.2022
5251 Clear 17 1011 71 10000 2.06 180 07:47 12.06.2022
5252 Clear 18 1011 67 10000 2.57 180 05:51 12.06.2022
5253 Clear 20 1010 49 10000 3.6 180 03:38 12.06.2022
5254 Clear 20 1010 49 10000 3.6 180 03:38 12.06.2022
5255 Clear 24 1009 36 10000 4.63 240 01:44 12.06.2022
5256 Clear 24 1009 38 10000 4.63 240 01:22 12.06.2022
5257 Clouds 24 1009 37 10000 6.69 230 00:36 12.06.2022
5258 Clouds 24 1009 42 10000 6.69 230 00:18 12.06.2022
5259 Clouds 24 1010 46 10000 8.23 220 22:53 11.06.2022
5260 Clouds 24 1010 46 10000 8.23 220 22:29 11.06.2022
5261 Clear 24 1010 46 10000 7.2 220 21:18 11.06.2022
5262 Clear 24 1011 43 10000 7.72 200 20:26 11.06.2022
5263 Clear 24 1011 44 10000 7.2 230 19:33 11.06.2022
5264 Clear 23 1012 51 10000 5.66 220 18:42 11.06.2022
5265 Clear 23 1012 52 10000 5.66 220 18:24 11.06.2022
5266 Clear 22 1012 57 10000 5.14 230 17:38 11.06.2022
5267 Clear 22 1012 59 10000 5.14 230 17:19 11.06.2022
5268 Clear 21 1012 68 10000 5.14 190 16:42 11.06.2022
5269 Clear 19 1012 68 10000 4.12 210 15:47 11.06.2022
5270 Clouds 17 1012 76 10000 4.63 240 14:23 11.06.2022
5271 Clouds 16 1011 82 10000 4.63 230 13:47 11.06.2022
5272 Clouds 14 1010 88 10000 4.12 240 11:46 11.06.2022
5273 Clouds 13 1010 88 10000 4.63 230 10:30 11.06.2022
5274 Clear 14 1010 88 10000 5.66 240 09:40 11.06.2022
5275 Clear 15 1009 86 10000 4.12 250 08:21 11.06.2022
5276 Clear 16 1009 82 10000 6.17 250 06:32 11.06.2022
5277 Clear 16 1009 85 10000 6.17 240 05:26 11.06.2022
5278 Clouds 19 1008 72 10000 6.17 240 02:42 11.06.2022
5279 Clouds 19 1007 72 10000 7.72 240 01:41 11.06.2022
5280 Clouds 20 1006 70 10000 9.77 250 00:54 11.06.2022
5281 Clouds 20 1005 65 10000 9.26 240 22:55 10.06.2022
5282 Clouds 21 1005 64 10000 9.26 240 22:20 10.06.2022
5283 Clouds 20 1005 67 10000 9.26 250 21:22 10.06.2022
5284 Clouds 20 1005 66 10000 9.26 220 20:37 10.06.2022
5285 Clouds 20 1005 67 10000 8.23 230 20:19 10.06.2022
5286 Clouds 19 1005 70 10000 9.26 240 19:19 10.06.2022
5287 Clouds 18 1005 69 10000 8.23 260 18:29 10.06.2022
5288 Clouds 18 1005 73 10000 7.2 260 17:42 10.06.2022
5289 Clouds 17 1005 73 10000 7.72 240 16:59 10.06.2022
5290 Clouds 17 1005 75 10000 7.72 240 16:23 10.06.2022
5291 Clouds 16 1004 82 10000 7.72 250 15:37 10.06.2022
5292 Clouds 14 1004 91 10000 6.69 250 13:57 10.06.2022
5293 Clouds 14 1003 92 10000 5.66 240 12:50 10.06.2022
5294 Rain 14 1003 89 10000 3.6 240 11:43 10.06.2022
5295 Clouds 14 1004 91 10000 5.14 250 10:45 10.06.2022
5296 Clouds 14 1004 90 10000 3.6 250 09:54 10.06.2022
5297 Clouds 14 1004 89 10000 5.14 240 08:42 10.06.2022
5298 Clear 14 1004 86 10000 4.12 260 07:26 10.06.2022
5299 Clouds 14 1004 86 10000 4.12 260 06:44 10.06.2022
5300 Clouds 14 1004 85 10000 4.12 260 06:25 10.06.2022
5301 Clouds 15 1004 82 10000 3.09 240 03:55 10.06.2022
5302 Clouds 16 1004 73 10000 2.57 310 01:41 10.06.2022
5303 Clouds 16 1004 75 10000 2.57 340 00:32 10.06.2022
5304 Clouds 16 1004 81 10000 3.6 360 23:47 09.06.2022
5305 Rain 15 1004 89 10000 4.63 10 22:18 09.06.2022
5306 Rain 15 1004 90 10000 4.12 20 21:33 09.06.2022
5307 Rain 15 1004 89 10000 5.66 30 20:54 09.06.2022
5308 Rain 15 1004 89 10000 5.66 30 20:21 09.06.2022
5309 Rain 15 1004 92 10000 5.14 30 19:29 09.06.2022
5310 Rain 15 1005 92 10000 4.63 50 18:34 09.06.2022
5311 Rain 14 1006 92 10000 4.12 50 16:56 09.06.2022
5312 Rain 14 1006 92 10000 5.14 20 15:49 09.06.2022
5313 Rain 14 1006 90 8047 3.6 40 14:38 09.06.2022
5314 Rain 14 1007 87 10000 5.14 50 13:55 09.06.2022
5315 Rain 15 1007 86 10000 5.14 50 13:28 09.06.2022
5316 Rain 15 1008 79 10000 4.63 40 12:21 09.06.2022
5317 Clouds 15 1008 80 10000 3.09 40 11:19 09.06.2022
5318 Clouds 15 1008 80 10000 2.57 50 09:50 09.06.2022
5319 Clouds 15 1008 80 10000 2.57 50 09:31 09.06.2022
5320 Clouds 16 1011 77 10000 3.6 130 07:56 09.06.2022
5321 Clear 17 1010 74 10000 2.06 100 06:55 09.06.2022
5322 Clear 19 1010 66 10000 2.06 50 03:22 09.06.2022
5323 Clouds 23 1009 48 10000 4.12 290 23:49 08.06.2022
5324 Clouds 23 1009 49 10000 6.17 290 22:58 08.06.2022
5325 Clouds 23 1009 50 10000 6.17 290 22:27 08.06.2022
5326 Clouds 23 1009 53 10000 6.69 270 21:57 08.06.2022
5327 Clouds 22 1009 53 10000 6.69 270 21:23 08.06.2022
5328 Clouds 21 1010 58 10000 8.23 260 20:22 08.06.2022
5329 Clouds 20 1010 64 10000 7.72 290 19:39 08.06.2022
5330 Clouds 20 1010 64 10000 7.72 290 19:39 08.06.2022
5331 Clouds 19 1010 67 10000 6.17 260 18:48 08.06.2022
5332 Clouds 18 1009 74 10000 7.72 260 17:30 08.06.2022
5333 Clouds 17 1008 83 10000 7.2 250 15:52 08.06.2022
5334 Clouds 17 1008 83 10000 7.2 240 14:18 08.06.2022
5335 Clouds 17 1007 91 10000 7.2 230 12:29 08.06.2022
5336 Clouds 17 1006 91 10000 8.23 240 11:34 08.06.2022
5337 Clouds 17 1005 93 10000 4.63 200 10:37 08.06.2022
5338 Mist 17 1005 95 8047 7.72 180 09:28 08.06.2022
5339 Mist 17 1005 94 4828 5.66 170 08:49 08.06.2022
5340 Clouds 17 1006 94 10000 8.23 170 06:36 08.06.2022
5341 Rain 18 1007 92 4023 6.17 190 04:35 08.06.2022
5342 Rain 21 1008 72 10000 5.66 200 00:57 08.06.2022
5343 Clear 25 1007 43 10000 10.8 180 23:31 07.06.2022
5344 Clear 25 1008 41 10000 9.77 180 22:50 07.06.2022
5345 Clear 25 1008 41 10000 9.77 180 22:31 07.06.2022
5346 Clouds 26 1008 43 10000 7.2 170 21:37 07.06.2022
5347 Clouds 26 1008 47 10000 7.2 170 21:18 07.06.2022
5348 Clouds 25 1009 49 10000 5.14 170 20:37 07.06.2022
5349 Clouds 23 1010 52 10000 4.63 170 19:49 07.06.2022
5350 Clouds 24 1011 49 10000 7.2 160 18:25 07.06.2022
5351 Clouds 21 1011 60 10000 5.66 180 17:31 07.06.2022
5352 Clouds 20 1012 65 10000 5.66 160 16:44 07.06.2022
5353 Rain 19 1012 68 10000 4.63 130 15:58 07.06.2022
5354 Clouds 18 1013 72 10000 4.63 170 15:30 07.06.2022
5355 Rain 18 1013 70 10000 4.12 160 14:56 07.06.2022
5356 Rain 18 1013 73 10000 4.12 160 14:38 07.06.2022
5357 Rain 18 1013 72 10000 3.6 160 13:33 07.06.2022
5358 Rain 18 1013 70 10000 3.6 190 12:54 07.06.2022
5359 Clouds 17 1013 64 10000 3.09 170 11:49 07.06.2022
5360 Clouds 18 1013 61 10000 2.06 120 10:48 07.06.2022
5361 Clouds 18 1014 58 10000 3.6 140 08:53 07.06.2022
5362 Clouds 18 1015 61 10000 1.54 130 07:47 07.06.2022
5363 Clouds 19 1015 52 10000 4.63 90 06:39 07.06.2022
5364 Clouds 20 1015 46 10000 4.12 100 04:39 07.06.2022
5365 Clouds 22 1015 46 10000 4.63 110 01:27 07.06.2022
5366 Clouds 24 1016 40 10000 5.14 80 23:53 06.06.2022
5367 Clouds 24 1016 38 10000 4.12 120 22:54 06.06.2022
5368 Clouds 24 1016 38 10000 4.12 120 22:29 06.06.2022
5369 Clear 23 1016 40 10000 2.06 40 20:47 06.06.2022
5370 Clear 23 1017 39 10000 3.6 110 19:28 06.06.2022
5371 Clear 22 1017 43 10000 3.6 130 18:49 06.06.2022
5372 Clear 22 1017 42 10000 3.6 130 18:21 06.06.2022
5373 Clear 21 1017 45 10000 4.63 120 17:26 06.06.2022
5374 Clear 20 1017 50 10000 4.12 120 16:18 06.06.2022
5375 Clear 19 1018 55 10000 3.09 100 15:23 06.06.2022
5376 Clear 17 1018 64 10000 2.06 90 14:30 06.06.2022
5377 Clear 15 1017 71 10000 2.57 40 13:22 06.06.2022
5378 Clear 13 1017 79 10000 2.06 40 12:36 06.06.2022
5379 Clear 11 1016 81 10000 1.03 40 11:53 06.06.2022
5380 Clear 12 1016 76 10000 1.03 0 10:40 06.06.2022
5381 Clouds 13 1016 73 10000 1.54 60 09:33 06.06.2022
5382 Clouds 13 1016 73 10000 2.57 90 08:32 06.06.2022
5383 Clouds 14 1015 67 10000 1.54 120 07:28 06.06.2022
5384 Clear 14 1015 64 10000 1.54 0 05:27 06.06.2022
5385 Clear 19 1014 48 10000 3.09 340 02:55 06.06.2022
5386 Clouds 21 1014 43 10000 4.63 310 01:18 06.06.2022
5387 Clouds 21 1014 43 10000 4.12 330 00:38 06.06.2022
5388 Clouds 21 1013 43 10000 5.66 330 23:34 05.06.2022
5389 Clouds 21 1014 44 10000 6.17 280 22:45 05.06.2022
5390 Clouds 20 1013 45 10000 7.72 290 20:47 05.06.2022
5391 Clouds 19 1013 49 10000 8.23 250 19:41 05.06.2022
5392 Clouds 18 1013 50 10000 7.2 270 18:30 05.06.2022
5393 Clouds 18 1013 50 10000 6.17 280 17:54 05.06.2022
5394 Clouds 17 1013 51 10000 6.17 280 17:25 05.06.2022
5395 Clouds 17 1013 55 10000 6.69 240 16:51 05.06.2022
5396 Clouds 16 1013 55 10000 6.69 240 16:32 05.06.2022
5397 Clouds 14 1013 68 10000 5.66 240 14:27 05.06.2022
5398 Clear 12 1012 74 10000 4.12 230 12:55 05.06.2022
5399 Clear 12 1012 74 10000 4.12 230 12:55 05.06.2022
5400 Clouds 11 1012 74 10000 3.6 240 11:47 05.06.2022
5401 Clouds 11 1011 70 10000 4.12 270 10:38 05.06.2022
5402 Clouds 11 1011 69 10000 4.12 270 10:20 05.06.2022
5403 Clear 12 1011 68 10000 5.14 260 08:34 05.06.2022
5404 Clear 13 1011 66 10000 4.12 250 07:48 05.06.2022
5405 Clear 14 1010 56 10000 3.6 270 05:22 05.06.2022
5406 Clear 15 1010 55 10000 7.2 280 04:19 05.06.2022
5407 Clouds 18 1009 46 10000 8.75 280 01:32 05.06.2022
5408 Clouds 18 1009 46 10000 8.75 280 01:32 05.06.2022
5409 Clouds 19 1008 41 10000 10.8 290 00:39 05.06.2022
5410 Clouds 21 1008 42 10000 11.83 250 22:36 04.06.2022
5411 Clear 22 1008 44 10000 13.89 240 20:33 04.06.2022
5412 Clear 22 1008 45 10000 9.26 250 18:45 04.06.2022
5413 Clear 21 1008 53 10000 4.12 220 16:47 04.06.2022
5414 Clear 21 1008 52 10000 4.12 220 16:18 04.06.2022
5415 Clouds 18 1009 61 10000 3.09 210 14:54 04.06.2022
5416 Clouds 17 1009 66 10000 4.12 200 13:36 04.06.2022
5417 Clouds 14 1008 81 10000 3.09 170 11:22 04.06.2022
5418 Clouds 15 1008 78 10000 2.57 180 10:49 04.06.2022
5419 Clouds 16 1009 74 10000 3.6 200 09:45 04.06.2022
5420 Clouds 16 1008 70 10000 3.09 230 08:43 04.06.2022
5421 Clouds 17 1009 69 10000 4.12 230 07:42 04.06.2022
5422 Clouds 19 1009 53 10000 3.6 240 05:30 04.06.2022
5423 Clear 23 1007 35 10000 4.63 280 02:20 04.06.2022
5424 Clear 24 1007 34 10000 6.17 250 00:19 04.06.2022
5425 Clouds 24 1006 41 10000 7.72 240 22:40 03.06.2022
5426 Clear 24 1006 42 10000 8.23 230 21:39 03.06.2022
5427 Clear 24 1006 46 10000 7.2 240 20:38 03.06.2022
5428 Clouds 22 1007 51 10000 5.14 260 18:41 03.06.2022
5429 Clouds 20 1007 59 10000 5.66 260 16:52 03.06.2022
5430 Clear 19 1006 62 10000 4.12 260 15:37 03.06.2022
5431 Clouds 16 1006 88 10000 1.54 20 13:48 03.06.2022
5432 Rain 16 1005 91 10000 3.6 240 11:50 03.06.2022
5433 Clouds 17 1005 86 10000 1.03 220 09:50 03.06.2022
5434 Clouds 17 1005 81 10000 1.54 300 09:28 03.06.2022
5435 Clouds 18 1006 79 10000 3.09 240 07:27 03.06.2022
5436 Clouds 18 1006 79 10000 2.06 210 06:44 03.06.2022
5437 Clouds 18 1006 81 10000 2.06 210 06:26 03.06.2022
5438 Clouds 21 1007 64 10000 1.54 110 01:23 03.06.2022
5439 Clouds 21 1007 62 10000 2.06 120 23:34 02.06.2022
5440 Clouds 21 1007 63 10000 2.57 80 21:57 02.06.2022
5441 Clouds 21 1007 63 10000 2.57 80 21:57 02.06.2022
5442 Clouds 20 1008 63 10000 2.06 80 20:25 02.06.2022
5443 Clouds 20 1008 64 10000 3.6 30 19:53 02.06.2022
5444 Clouds 20 1008 64 10000 3.6 30 19:35 02.06.2022
5445 Clouds 18 1009 65 10000 4.63 70 17:59 02.06.2022
5446 Clouds 16 1009 67 10000 6.69 50 16:28 02.06.2022
5447 Clouds 14 1009 78 10000 5.66 40 14:58 02.06.2022
5448 Clouds 12 1009 86 10000 5.14 20 13:30 02.06.2022
5449 Clouds 12 1008 90 10000 4.63 360 12:46 02.06.2022
5450 Clouds 12 1007 91 10000 5.14 40 10:32 02.06.2022
5451 Clouds 13 1008 90 10000 5.14 20 09:28 02.06.2022
5452 Clouds 13 1008 92 10000 6.17 50 08:30 02.06.2022
5453 Mist 13 1008 95 9656 7.2 40 07:58 02.06.2022
5454 Mist 14 1008 94 4023 7.2 30 06:20 02.06.2022
5455 Mist 15 1008 87 9656 3.09 80 03:49 02.06.2022
5456 Clouds 17 1010 77 10000 4.12 90 00:39 02.06.2022
5457 Clouds 17 1011 75 10000 5.14 80 22:57 01.06.2022
5458 Clouds 18 1012 74 10000 5.14 80 21:52 01.06.2022
5459 Clouds 18 1012 74 10000 5.14 80 21:22 01.06.2022
5460 Clouds 18 1012 72 10000 5.14 80 20:38 01.06.2022
5461 Clouds 17 1013 69 10000 5.66 80 19:50 01.06.2022
5462 Clouds 16 1014 59 10000 4.63 70 18:24 01.06.2022
5463 Clouds 15 1014 61 10000 5.66 30 16:56 01.06.2022
5464 Clouds 14 1015 63 10000 6.69 30 15:42 01.06.2022
5465 Clouds 14 1015 63 10000 6.69 30 15:42 01.06.2022
5466 Clouds 14 1015 62 10000 5.66 40 14:46 01.06.2022
5467 Clouds 14 1015 61 10000 8.23 40 13:18 01.06.2022
5468 Clouds 14 1015 56 10000 6.69 50 10:42 01.06.2022
5469 Clouds 15 1016 54 10000 5.66 50 09:28 01.06.2022
5470 Clouds 16 1017 55 10000 6.17 70 07:59 01.06.2022
5471 Clouds 16 1017 55 10000 6.17 70 07:20 01.06.2022
5472 Clouds 17 1017 55 10000 5.66 50 03:22 01.06.2022
5473 Clouds 19 1016 50 10000 6.17 40 23:47 31.05.2022
5474 Clouds 19 1016 53 10000 6.69 20 22:38 31.05.2022
5475 Clouds 19 1016 54 10000 6.69 20 22:19 31.05.2022
5476 Clouds 19 1017 57 10000 6.17 50 21:23 31.05.2022
5477 Clouds 18 1017 59 10000 6.69 60 20:43 31.05.2022
5478 Clouds 17 1017 64 10000 5.66 70 19:31 31.05.2022
5479 Clouds 15 1018 70 10000 6.17 30 18:26 31.05.2022
5480 Clouds 15 1018 69 10000 7.2 50 17:37 31.05.2022
5481 Clouds 13 1018 75 10000 7.72 40 15:45 31.05.2022
5482 Clouds 13 1018 77 10000 7.72 40 15:22 31.05.2022
5483 Clouds 14 1016 80 10000 7.72 20 12:41 31.05.2022
5484 Clouds 14 1016 80 10000 7.72 20 12:18 31.05.2022
5485 Clouds 15 1015 78 10000 6.17 30 10:25 31.05.2022
5486 Clouds 21 1012 72 10000 7.72 10 07:46 31.05.2022
5487 Clouds 23 1011 68 10000 6.17 250 06:19 31.05.2022
5488 Clouds 24 1011 64 10000 5.14 230 04:31 31.05.2022
5489 Clear 27 1012 51 10000 6.17 240 23:45 30.05.2022
5490 Clear 27 1012 51 10000 6.17 240 23:24 30.05.2022
5491 Clear 27 1013 51 10000 6.69 210 22:37 30.05.2022
5492 Clouds 26 1014 52 10000 5.66 250 21:40 30.05.2022
5493 Clouds 26 1015 55 10000 6.17 240 20:51 30.05.2022
5494 Clouds 25 1015 56 10000 2.06 190 19:44 30.05.2022
5495 Clouds 24 1016 58 10000 3.6 220 18:18 30.05.2022
5496 Clouds 21 1016 64 10000 4.12 230 17:23 30.05.2022
5497 Clouds 18 1016 73 10000 4.63 220 16:22 30.05.2022
5498 Clouds 17 1017 74 10000 4.63 230 13:32 30.05.2022
5499 Clouds 16 1016 74 10000 4.63 230 11:40 30.05.2022
5500 Clear 17 1016 72 10000 5.66 250 09:58 30.05.2022
5501 Clear 17 1016 67 10000 5.66 250 08:52 30.05.2022
5502 Clear 18 1016 56 10000 5.14 240 06:26 30.05.2022
5503 Clear 20 1016 50 10000 5.14 230 04:52 30.05.2022
5504 Clear 24 1014 42 10000 6.69 250 01:23 30.05.2022
5505 Clouds 25 1015 40 10000 7.2 220 22:49 29.05.2022
5506 Clouds 26 1015 43 10000 7.2 220 22:28 29.05.2022
5507 Clear 25 1016 41 10000 8.23 240 20:38 29.05.2022
5508 Clear 24 1016 48 10000 7.2 220 19:30 29.05.2022
5509 Clear 23 1016 51 10000 5.66 250 18:34 29.05.2022
5510 Clear 21 1016 62 10000 5.14 240 16:40 29.05.2022
5511 Clear 19 1016 66 10000 4.63 230 15:47 29.05.2022
5512 Clear 18 1015 70 10000 5.14 230 14:55 29.05.2022
5513 Clear 16 1015 77 10000 5.14 240 13:46 29.05.2022
5514 Clear 14 1014 84 10000 4.63 230 11:31 29.05.2022
5515 Clear 14 1013 81 10000 6.17 230 10:37 29.05.2022
5516 Clouds 15 1012 75 10000 3.6 230 08:36 29.05.2022
5517 Clouds 16 1011 67 10000 3.09 220 05:22 29.05.2022
5518 Clear 17 1011 65 10000 2.57 240 04:41 29.05.2022
5519 Clear 19 1009 59 10000 3.09 270 02:24 29.05.2022
5520 Clouds 21 1008 51 10000 6.17 330 23:48 28.05.2022
5521 Clouds 21 1007 51 10000 6.17 330 23:26 28.05.2022
5522 Clouds 20 1007 53 10000 6.17 320 22:25 28.05.2022
5523 Clouds 20 1007 57 10000 7.72 330 21:31 28.05.2022
5524 Clouds 19 1006 64 10000 6.17 290 19:24 28.05.2022
5525 Clouds 19 1006 68 10000 5.66 290 18:46 28.05.2022
5526 Clouds 18 1006 73 10000 6.17 290 17:35 28.05.2022
5527 Clouds 17 1005 81 10000 5.14 280 16:35 28.05.2022
5528 Rain 17 1004 86 10000 4.12 360 15:38 28.05.2022
5529 Clouds 18 1004 87 10000 5.14 310 14:18 28.05.2022
5530 Clouds 18 1002 94 10000 3.6 280 12:44 28.05.2022
5531 Clouds 18 1002 94 10000 5.14 250 11:57 28.05.2022
5532 Clouds 18 1002 95 10000 4.12 220 10:49 28.05.2022
5533 Clouds 18 1002 95 10000 4.12 230 09:57 28.05.2022
5534 Clouds 18 1002 96 10000 6.17 240 08:45 28.05.2022
5535 Rain 19 1002 96 10000 4.12 250 07:23 28.05.2022
5536 Rain 19 1002 95 9656 4.63 220 05:24 28.05.2022
5537 Rain 20 1003 86 10000 4.12 230 02:43 28.05.2022
5538 Clouds 21 1004 82 10000 4.63 210 00:32 28.05.2022
5539 Clouds 20 1005 90 10000 6.69 240 22:51 27.05.2022
5540 Clouds 20 1006 92 10000 6.17 210 21:43 27.05.2022
5541 Mist 20 1006 93 9656 6.69 220 20:49 27.05.2022
5542 Rain 20 1006 92 6437 6.69 220 20:24 27.05.2022
5543 Rain 20 1006 93 10000 5.66 240 19:42 27.05.2022
5544 Mist 20 1006 93 4828 5.66 220 19:21 27.05.2022
5545 Rain 19 1007 95 10000 4.12 170 17:52 27.05.2022
5546 Rain 18 1008 94 6437 6.69 180 16:38 27.05.2022
5547 Rain 18 1008 93 10000 4.12 180 15:22 27.05.2022
5548 Mist 17 1008 93 8047 5.14 150 13:53 27.05.2022
5549 Rain 17 1009 93 8047 5.66 180 12:39 27.05.2022
5550 Rain 17 1009 88 10000 5.66 180 11:33 27.05.2022
5551 Rain 18 1009 81 10000 5.14 180 10:55 27.05.2022
5552 Rain 19 1009 77 10000 5.14 180 10:29 27.05.2022
5553 Clouds 19 1009 75 10000 6.17 180 09:34 27.05.2022
5554 Clouds 20 1009 68 10000 6.17 180 07:50 27.05.2022
5555 Clouds 21 1010 62 10000 7.2 180 05:32 27.05.2022
5556 Clouds 22 1010 51 10000 6.17 180 02:26 27.05.2022
5557 Clouds 22 1012 46 10000 5.14 180 00:26 27.05.2022
5558 Clouds 21 1013 60 10000 6.17 190 22:35 26.05.2022
5559 Clouds 23 1014 41 10000 8.23 180 21:37 26.05.2022
5560 Clouds 23 1015 50 10000 8.23 180 19:58 26.05.2022
5561 Clouds 22 1016 47 10000 8.23 180 19:19 26.05.2022
5562 Clouds 18 1018 65 10000 6.69 170 17:51 26.05.2022
5563 Clouds 16 1019 75 10000 5.66 150 16:36 26.05.2022
5564 Clouds 16 1020 79 10000 5.66 140 15:45 26.05.2022
5565 Rain 16 1021 82 10000 4.12 180 14:28 26.05.2022
5566 Clouds 16 1022 73 10000 4.12 180 12:37 26.05.2022
5567 Clouds 16 1021 68 10000 3.6 110 11:23 26.05.2022
5568 Clouds 16 1021 68 10000 3.6 110 11:23 26.05.2022
5569 Clouds 16 1021 58 10000 2.57 130 09:44 26.05.2022
5570 Clouds 17 1022 56 10000 2.57 150 09:26 26.05.2022
5571 Clouds 17 1022 51 10000 3.09 120 08:30 26.05.2022
5572 Clouds 17 1024 53 10000 2.57 150 04:41 26.05.2022
5573 Clouds 22 1025 26 10000 1.03 180 00:48 26.05.2022
5574 Clear 23 1025 25 10000 3.6 250 23:40 25.05.2022
5575 Clear 23 1026 29 10000 2.06 190 21:59 25.05.2022
5576 Clear 23 1026 29 10000 2.06 190 21:32 25.05.2022
5577 Clear 22 1027 33 10000 2.06 250 20:35 25.05.2022
5578 Clear 21 1027 32 10000 3.09 0 19:24 25.05.2022
5579 Clear 21 1028 36 10000 1.54 60 17:43 25.05.2022
5580 Clear 20 1029 42 10000 2.06 0 16:38 25.05.2022
5581 Clouds 18 1029 49 10000 0.51 230 15:54 25.05.2022
5582 Clear 15 1028 56 10000 1.54 350 14:54 25.05.2022
5583 Clear 15 1028 57 10000 1.54 350 14:33 25.05.2022
5584 Clear 13 1028 65 10000 1.03 0 13:54 25.05.2022
5585 Clear 9 1028 76 10000 1.54 10 12:39 25.05.2022
5586 Clear 8 1027 80 10000 1.03 0 10:49 25.05.2022
5587 Clear 8 1027 79 10000 1.03 0 10:18 25.05.2022
5588 Clouds 9 1026 75 10000 0.92 10 08:41 25.05.2022
5589 Clouds 10 1026 70 10000 0.89 359 07:23 25.05.2022
5590 Clouds 13 1026 55 10000 1.03 250 04:22 25.05.2022
5591 Clouds 18 1025 35 10000 3.6 50 00:23 25.05.2022
5592 Clear 18 1026 35 10000 3.09 350 23:47 24.05.2022
5593 Clear 18 1026 36 10000 4.12 340 22:33 24.05.2022
5594 Clear 18 1026 36 10000 2.57 0 21:41 24.05.2022
5595 Clear 18 1026 36 10000 2.57 0 21:21 24.05.2022
5596 Clear 17 1027 39 10000 3.6 40 20:23 24.05.2022
5597 Clear 17 1028 39 10000 3.09 60 18:56 24.05.2022
5598 Clear 17 1028 39 10000 3.09 60 18:56 24.05.2022
5599 Clear 16 1029 44 10000 3.6 140 16:53 24.05.2022
5600 Clear 16 1029 42 10000 3.6 140 16:23 24.05.2022
5601 Clear 13 1029 61 10000 2.57 10 14:59 24.05.2022
5602 Clear 12 1029 65 10000 2.57 10 14:21 24.05.2022
5603 Clear 10 1029 75 10000 2.57 30 13:18 24.05.2022
5604 Clear 6 1028 83 10000 1.54 40 11:40 24.05.2022
5605 Clear 8 1027 77 10000 1.03 40 09:46 24.05.2022
5606 Clear 8 1027 75 10000 1.54 70 08:50 24.05.2022
5607 Clear 10 1027 73 10000 1.03 0 06:58 24.05.2022
5608 Clear 12 1027 63 10000 1.54 290 04:30 24.05.2022
5609 Clouds 14 1026 50 10000 2.57 320 02:42 24.05.2022
5610 Clouds 15 1026 48 10000 2.57 330 01:43 24.05.2022
5611 Clouds 16 1026 44 10000 3.6 250 23:43 23.05.2022
5612 Clouds 16 1026 44 10000 3.09 340 21:59 23.05.2022
5613 Clouds 16 1026 45 10000 3.09 340 21:41 23.05.2022
5614 Clouds 16 1026 46 10000 2.06 0 20:42 23.05.2022
5615 Clouds 16 1027 45 10000 4.12 90 19:41 23.05.2022
5616 Clear 15 1027 47 10000 3.6 60 19:00 23.05.2022
5617 Clear 14 1027 48 10000 3.6 60 18:37 23.05.2022
5618 Clear 14 1027 48 10000 6.17 20 17:55 23.05.2022
5619 Clear 11 1027 57 10000 4.63 10 15:47 23.05.2022
5620 Clear 9 1026 64 10000 4.63 10 13:44 23.05.2022
5621 Clear 9 1026 64 10000 4.63 10 13:44 23.05.2022
5622 Clear 7 1024 69 10000 4.12 30 11:40 23.05.2022
5623 Clear 8 1024 65 10000 5.66 30 10:44 23.05.2022
5624 Clouds 10 1023 64 10000 8.75 360 09:45 23.05.2022
5625 Clouds 11 1023 67 10000 5.14 340 08:44 23.05.2022
5626 Clouds 12 1022 70 10000 6.69 350 06:48 23.05.2022
5627 Clouds 12 1022 71 10000 6.69 350 06:24 23.05.2022
5628 Clouds 15 1018 80 10000 6.69 300 02:55 23.05.2022
5629 Clouds 15 1016 85 10000 7.72 260 01:50 23.05.2022
5630 Clouds 15 1016 86 10000 7.72 260 01:23 23.05.2022
5631 Clouds 18 1013 72 10000 7.2 300 22:48 22.05.2022
5632 Clouds 18 1013 71 10000 9.26 310 22:22 22.05.2022
5633 Clouds 21 1011 67 10000 10.8 310 21:51 22.05.2022
5634 Clouds 25 1011 66 10000 6.69 240 20:43 22.05.2022
5635 Clouds 26 1011 65 10000 6.69 240 20:20 22.05.2022
5636 Clouds 26 1011 63 10000 6.69 220 19:19 22.05.2022
5637 Clear 25 1012 63 10000 6.69 250 18:46 22.05.2022
5638 Clear 25 1012 63 10000 6.69 250 18:21 22.05.2022
5639 Clouds 23 1013 72 10000 7.72 240 16:51 22.05.2022
5640 Clouds 21 1014 79 10000 6.69 230 15:25 22.05.2022
5641 Clouds 20 1013 85 10000 4.12 230 14:47 22.05.2022
5642 Clouds 19 1013 90 10000 3.09 200 12:55 22.05.2022
5643 Clouds 19 1013 90 10000 3.09 200 12:33 22.05.2022
5644 Clouds 19 1013 88 10000 5.14 180 10:53 22.05.2022
5645 Clouds 19 1013 86 10000 2.57 260 09:31 22.05.2022
5646 Clouds 20 1014 82 10000 2.57 270 07:49 22.05.2022
5647 Clouds 20 1014 81 10000 2.57 270 07:20 22.05.2022
5648 Clear 21 1013 72 10000 2.57 250 04:30 22.05.2022
5649 Clear 24 1011 59 10000 9.77 260 01:19 22.05.2022
5650 Clouds 27 1011 61 10000 13.89 240 23:57 21.05.2022
5651 Clouds 28 1011 55 10000 13.89 240 23:32 21.05.2022
5652 Clouds 31 1009 48 10000 11.32 250 22:22 21.05.2022
5653 Clouds 31 1009 54 10000 7.2 230 21:39 21.05.2022
5654 Clouds 31 1009 53 10000 7.2 220 20:48 21.05.2022
5655 Clouds 31 1009 54 10000 7.2 220 20:19 21.05.2022
5656 Clear 31 1009 53 10000 6.69 220 19:24 21.05.2022
5657 Clear 28 1009 63 10000 8.75 220 17:35 21.05.2022
5658 Clear 24 1010 71 10000 7.72 180 15:37 21.05.2022
5659 Clouds 22 1010 76 10000 6.69 180 14:36 21.05.2022
5660 Clouds 20 1009 80 10000 7.72 170 13:39 21.05.2022
5661 Clouds 20 1009 82 10000 8.23 180 12:40 21.05.2022
5662 Clouds 19 1008 81 10000 8.75 180 11:54 21.05.2022
5663 Clouds 20 1007 78 10000 7.72 180 10:22 21.05.2022
5664 Clouds 20 1007 76 10000 8.75 180 09:20 21.05.2022
5665 Clear 20 1007 74 10000 7.72 180 08:47 21.05.2022
5666 Clouds 21 1008 65 10000 5.32 188 06:22 21.05.2022
5667 Clouds 25 1006 53 10000 8.23 180 02:26 21.05.2022
5668 Clear 26 1006 53 10000 8.23 180 23:47 20.05.2022
5669 Clear 26 1007 52 10000 7.72 160 22:42 20.05.2022
5670 Clear 26 1007 51 10000 7.72 160 22:23 20.05.2022
5671 Clear 25 1008 52 10000 9.26 160 21:32 20.05.2022
5672 Clear 24 1008 54 10000 9.26 160 20:53 20.05.2022
5673 Clear 22 1010 59 10000 8.75 120 19:56 20.05.2022
5674 Clouds 20 1011 62 10000 7.72 160 18:59 20.05.2022
5675 Clouds 19 1011 63 10000 7.72 160 18:28 20.05.2022
5676 Clouds 16 1012 76 10000 5.14 170 16:51 20.05.2022
5677 Clouds 14 1012 83 10000 5.14 150 15:57 20.05.2022
5678 Clouds 14 1012 84 10000 5.14 150 15:39 20.05.2022
5679 Clouds 13 1012 84 10000 3.6 120 14:29 20.05.2022
5680 Clear 12 1012 89 10000 3.09 180 13:44 20.05.2022
5681 Mist 10 1010 92 9656 2.06 270 10:56 20.05.2022
5682 Mist 10 1010 95 4828 3.09 230 09:50 20.05.2022
5683 Mist 11 1009 93 4023 0.51 280 08:41 20.05.2022
5684 Mist 11 1009 92 9656 2.06 220 06:46 20.05.2022
5685 Mist 11 1009 92 9656 2.06 220 06:21 20.05.2022
5686 Clouds 11 1008 91 10000 1.03 240 03:53 20.05.2022
5687 Clouds 12 1005 89 10000 2.57 80 23:54 19.05.2022
5688 Clouds 11 1005 89 10000 4.12 100 22:44 19.05.2022
5689 Mist 11 1005 88 9656 4.12 100 21:53 19.05.2022
5690 Rain 11 1005 88 10000 3.6 120 21:25 19.05.2022
5691 Rain 11 1005 88 10000 4.12 120 20:59 19.05.2022
5692 Clouds 11 1005 89 10000 4.12 140 20:21 19.05.2022
5693 Rain 11 1005 85 10000 6.17 130 19:34 19.05.2022
5694 Rain 13 1006 63 10000 5.14 140 17:59 19.05.2022
5695 Clouds 13 1006 63 10000 4.63 170 16:29 19.05.2022
5696 Clouds 11 1007 66 10000 3.6 120 14:52 19.05.2022
5697 Clouds 11 1007 67 10000 3.6 120 14:21 19.05.2022
5698 Clouds 8 1008 76 10000 2.57 100 12:35 19.05.2022
5699 Clouds 7 1008 78 10000 2.57 110 11:25 19.05.2022
5700 Clouds 9 1010 70 10000 3.09 180 08:59 19.05.2022
5701 Clouds 10 1011 65 10000 2.57 170 07:48 19.05.2022
5702 Clear 12 1010 60 10000 4.12 220 04:50 19.05.2022
5703 Clear 16 1011 42 10000 7.2 240 01:58 19.05.2022
5704 Clear 17 1012 40 10000 7.2 230 23:53 18.05.2022
5705 Clear 17 1012 40 10000 9.77 200 22:46 18.05.2022
5706 Clear 17 1012 40 10000 9.77 200 22:46 18.05.2022
5707 Clear 17 1013 36 10000 6.17 210 21:47 18.05.2022
5708 Clear 16 1013 37 10000 6.17 210 21:25 18.05.2022
5709 Clear 16 1014 40 10000 7.72 230 20:24 18.05.2022
5710 Clear 15 1014 40 10000 8.23 230 19:39 18.05.2022
5711 Clear 14 1015 38 10000 6.17 240 18:21 18.05.2022
5712 Clear 13 1015 39 10000 5.14 300 17:41 18.05.2022
5713 Clear 13 1015 39 10000 5.14 300 17:23 18.05.2022
5714 Clear 11 1015 40 10000 6.17 310 16:23 18.05.2022
5715 Clear 11 1015 40 10000 6.69 300 15:40 18.05.2022
5716 Clear 9 1014 42 10000 6.69 340 14:35 18.05.2022
5717 Clear 8 1014 49 10000 5.66 310 13:22 18.05.2022
5718 Clear 7 1013 56 10000 4.63 310 12:40 18.05.2022
5719 Clear 7 1012 58 10000 4.12 290 11:34 18.05.2022
5720 Clear 8 1011 57 10000 7.72 320 10:56 18.05.2022
5721 Clouds 10 1010 52 10000 5.66 300 08:53 18.05.2022
5722 Clouds 11 1010 53 10000 6.69 310 07:32 18.05.2022
5723 Clouds 11 1009 55 10000 9.26 310 05:34 18.05.2022
5724 Clouds 14 1004 59 10000 10.29 300 00:52 18.05.2022
5725 Clouds 14 1004 57 10000 10.29 300 00:21 18.05.2022
5726 Clouds 16 1002 66 10000 9.77 240 21:39 17.05.2022
5727 Clouds 15 1002 68 10000 9.77 240 21:19 17.05.2022
5728 Clouds 14 1001 78 10000 10.29 240 19:52 17.05.2022
5729 Clouds 14 1001 78 10000 10.29 240 19:27 17.05.2022
5730 Clouds 12 1000 88 10000 10.8 240 17:50 17.05.2022
5731 Rain 13 999 86 10000 12.86 240 16:58 17.05.2022
5732 Clouds 13 999 84 10000 11.83 240 16:29 17.05.2022
5733 Clouds 13 998 85 10000 9.26 240 15:24 17.05.2022
5734 Clouds 13 998 84 10000 11.83 240 14:30 17.05.2022
5735 Clouds 13 998 84 10000 11.83 240 14:30 17.05.2022
5736 Drizzle 12 998 87 10000 9.26 240 13:32 17.05.2022
5737 Clouds 11 997 87 10000 11.83 260 11:37 17.05.2022
5738 Clouds 12 996 85 10000 11.32 250 09:23 17.05.2022
5739 Clouds 13 995 86 10000 10.8 260 08:23 17.05.2022
5740 Clouds 14 995 88 10000 10.29 230 06:46 17.05.2022
5741 Clouds 18 995 92 10000 7.72 200 03:20 17.05.2022
5742 Rain 19 996 89 10000 2.57 250 00:36 17.05.2022
5743 Thunderstorm 23 997 78 10000 4.63 20 22:42 16.05.2022
5744 Clear 24 999 72 10000 5.14 20 21:37 16.05.2022
5745 Clouds 24 1000 71 10000 5.14 30 20:47 16.05.2022
5746 Clouds 24 1002 74 10000 4.12 20 19:43 16.05.2022
5747 Clouds 22 1003 80 10000 3.6 10 18:20 16.05.2022
5748 Clouds 19 1004 88 10000 2.57 180 15:50 16.05.2022
5749 Mist 17 1005 95 9656 2.57 180 13:56 16.05.2022
5750 Fog 16 1005 96 805 2.57 120 13:23 16.05.2022
5751 Fog 16 1005 95 402 3.09 110 11:25 16.05.2022
5752 Fog 17 1005 95 402 1.54 40 09:37 16.05.2022
5753 Mist 18 1007 94 4828 1.54 350 06:56 16.05.2022
5754 Clouds 19 1007 91 10000 4.12 50 03:58 16.05.2022
5755 Clouds 22 1007 76 10000 2.57 20 23:38 15.05.2022
5756 Clouds 23 1007 68 10000 2.57 330 22:30 15.05.2022
5757 Clouds 22 1007 77 10000 2.57 20 21:46 15.05.2022
5758 Clouds 21 1008 79 10000 3.6 0 20:54 15.05.2022
5759 Clouds 21 1009 79 10000 3.6 350 19:52 15.05.2022
5760 Clouds 19 1010 80 10000 1.54 50 17:52 15.05.2022
5761 Clouds 18 1010 81 10000 3.09 20 16:29 15.05.2022
5762 Clear 18 1010 76 10000 2.06 340 13:58 15.05.2022
5763 Clouds 18 1010 78 10000 1.54 350 12:57 15.05.2022
5764 Clouds 18 1010 78 10000 4.12 50 11:40 15.05.2022
5765 Clouds 19 1010 77 10000 2.57 30 10:29 15.05.2022
5766 Clouds 20 1011 79 10000 3.09 270 08:46 15.05.2022
5767 Clouds 21 1012 73 10000 1.54 190 06:58 15.05.2022
5768 Clouds 22 1012 71 10000 6.17 170 05:52 15.05.2022
5769 Clear 31 1011 30 10000 3.6 260 00:49 15.05.2022
5770 Clear 32 1011 30 10000 4.12 180 23:47 14.05.2022
5771 Clear 32 1011 33 10000 4.12 180 23:29 14.05.2022
5772 Clear 31 1013 39 10000 4.63 230 21:29 14.05.2022
5773 Clear 30 1014 43 10000 5.66 200 20:53 14.05.2022
5774 Haze 30 1014 48 8047 5.14 250 19:40 14.05.2022
5775 Clear 30 1014 51 10000 4.63 240 19:20 14.05.2022
5776 Clear 29 1015 54 10000 6.17 190 18:46 14.05.2022
5777 Clear 26 1016 60 10000 6.17 240 16:56 14.05.2022
5778 Clear 24 1017 63 10000 6.17 240 15:33 14.05.2022
5779 Clear 23 1017 65 10000 6.17 230 14:34 14.05.2022
5780 Clear 23 1017 65 10000 6.17 230 14:34 14.05.2022
5781 Clear 19 1017 74 10000 2.57 200 12:49 14.05.2022
5782 Clear 18 1017 75 10000 2.57 200 11:37 14.05.2022
5783 Clear 19 1017 70 10000 3.09 190 10:22 14.05.2022
5784 Clear 20 1017 70 10000 4.12 220 09:54 14.05.2022
5785 Clear 19 1017 69 10000 4.12 230 08:49 14.05.2022
5786 Clear 22 1018 62 10000 4.63 220 06:52 14.05.2022
5787 Clear 24 1017 50 10000 3.6 240 03:27 14.05.2022
5788 Clear 30 1017 34 10000 6.69 250 23:45 13.05.2022
5789 Haze 30 1017 35 8047 6.69 250 23:22 13.05.2022
5790 Clouds 30 1018 34 10000 8.75 240 22:51 13.05.2022
5791 Clear 31 1018 37 10000 8.75 240 22:19 13.05.2022
5792 Clear 30 1020 42 10000 7.72 220 20:56 13.05.2022
5793 Clear 30 1020 42 10000 7.72 220 20:28 13.05.2022
5794 Clear 29 1021 45 10000 7.72 240 19:40 13.05.2022
5795 Clear 29 1021 46 10000 7.2 240 18:41 13.05.2022
5796 Clear 28 1022 46 10000 8.23 250 17:29 13.05.2022
5797 Clear 26 1023 49 10000 6.69 210 16:23 13.05.2022
5798 Clear 25 1023 48 10000 5.14 180 15:43 13.05.2022
5799 Clear 20 1023 45 10000 3.6 200 13:57 13.05.2022
5800 Clear 17 1022 55 10000 3.6 160 12:33 13.05.2022
5801 Clear 16 1022 58 10000 2.06 180 11:29 13.05.2022
5802 Clear 18 1021 51 10000 2.06 210 09:43 13.05.2022
5803 Clear 18 1021 51 10000 2.06 210 09:43 13.05.2022
5804 Clear 18 1021 50 10000 3.09 190 08:51 13.05.2022
5805 Clear 20 1022 44 10000 3.6 190 07:49 13.05.2022
5806 Clear 19 1021 45 10000 3.6 130 06:44 13.05.2022
5807 Clear 21 1021 44 10000 1.03 0 04:48 13.05.2022
5808 Clear 30 1022 18 10000 3.09 180 00:42 13.05.2022
5809 Clear 31 1024 23 10000 4.12 200 22:47 12.05.2022
5810 Clear 31 1024 22 10000 3.09 180 21:59 12.05.2022
5811 Clear 30 1024 25 10000 2.57 160 20:38 12.05.2022
5812 Clear 28 1025 29 10000 2.06 120 19:24 12.05.2022
5813 Clear 26 1026 35 10000 3.09 0 17:59 12.05.2022
5814 Clear 23 1026 39 10000 1.54 130 16:34 12.05.2022
5815 Clear 19 1026 47 10000 3.6 50 14:51 12.05.2022
5816 Clear 17 1026 52 10000 3.09 50 13:47 12.05.2022
5817 Clear 14 1025 59 10000 2.06 360 11:25 12.05.2022
5818 Clear 16 1024 53 10000 0 0 09:37 12.05.2022
5819 Clear 16 1023 53 10000 2.06 150 08:52 12.05.2022
5820 Clear 17 1024 48 10000 1.54 150 07:57 12.05.2022
5821 Clouds 19 1024 43 10000 1.03 230 06:55 12.05.2022
5822 Clear 22 1024 29 10000 1.54 220 03:46 12.05.2022
5823 Clear 28 1023 16 10000 2.57 170 00:50 12.05.2022
5824 Clear 28 1024 20 10000 3.6 190 22:53 11.05.2022
5825 Clear 28 1025 23 10000 4.12 220 21:59 11.05.2022
5826 Clear 28 1025 23 10000 4.12 220 21:24 11.05.2022
5827 Clear 26 1026 28 10000 3.09 250 19:57 11.05.2022
5828 Clear 23 1028 30 10000 2.57 240 17:27 11.05.2022
5829 Clear 21 1027 37 10000 0.89 236 16:19 11.05.2022
5830 Clear 17 1028 44 10000 4.12 190 14:47 11.05.2022
5831 Clear 16 1028 46 10000 4.12 190 14:24 11.05.2022
5832 Clear 12 1027 56 10000 2.06 190 12:39 11.05.2022
5833 Clear 12 1027 58 10000 2.57 130 11:47 11.05.2022
5834 Clear 12 1026 56 10000 2.57 140 09:29 11.05.2022
5835 Clear 15 1026 46 10000 1.54 30 06:27 11.05.2022
5836 Clear 24 1026 20 10000 1.03 0 01:53 11.05.2022
5837 Clear 25 1027 22 10000 1.54 100 22:58 10.05.2022
5838 Clear 25 1027 23 10000 1.54 100 22:24 10.05.2022
5839 Clear 25 1028 22 10000 3.09 110 21:26 10.05.2022
5840 Clear 24 1029 24 10000 3.09 100 20:26 10.05.2022
5841 Clear 22 1030 24 10000 4.63 110 18:38 10.05.2022
5842 Clear 21 1031 25 10000 6.17 100 17:38 10.05.2022
5843 Clear 19 1032 21 10000 3.09 0 16:24 10.05.2022
5844 Clear 12 1031 47 10000 0 0 13:19 10.05.2022
5845 Clear 10 1030 50 10000 2.57 130 11:53 10.05.2022
5846 Clear 11 1030 50 10000 2.57 130 11:30 10.05.2022
5847 Clear 11 1029 47 10000 3.09 130 10:56 10.05.2022
5848 Clear 12 1028 44 10000 5.14 130 09:36 10.05.2022
5849 Clear 12 1027 46 10000 3.09 30 07:58 10.05.2022
5850 Clear 14 1027 39 10000 4.12 40 05:54 10.05.2022
5851 Clear 22 1027 20 10000 3.6 60 01:53 10.05.2022
5852 Clear 23 1026 19 10000 3.6 110 23:45 09.05.2022
5853 Clouds 23 1027 20 10000 1.54 40 22:35 09.05.2022
5854 Clear 23 1027 22 10000 5.14 60 21:38 09.05.2022
5855 Clear 21 1028 25 10000 4.63 20 19:56 09.05.2022
5856 Clear 20 1028 28 10000 4.12 60 18:25 09.05.2022
5857 Clear 18 1028 33 10000 4.63 30 17:25 09.05.2022
5858 Clear 15 1028 39 10000 3.09 360 16:19 09.05.2022
5859 Clear 14 1029 43 10000 4.63 20 15:47 09.05.2022
5860 Clear 11 1028 46 10000 4.63 20 14:36 09.05.2022
5861 Clear 9 1028 49 10000 4.63 20 13:57 09.05.2022
5862 Clear 8 1027 48 10000 4.63 20 13:21 09.05.2022
5863 Clear 6 1026 53 10000 5.14 20 11:53 09.05.2022
5864 Clear 7 1026 48 10000 5.66 20 10:48 09.05.2022
5865 Clear 7 1025 47 10000 5.66 20 10:23 09.05.2022
5866 Clear 9 1024 37 10000 4.12 350 07:57 09.05.2022
5867 Clear 11 1023 37 10000 3.6 30 04:52 09.05.2022
5868 Clear 19 1022 21 10000 5.66 10 00:30 09.05.2022
5869 Clear 18 1023 23 10000 5.66 30 23:28 08.05.2022
5870 Clear 18 1023 25 10000 4.63 50 22:29 08.05.2022
5871 Clear 18 1024 26 10000 3.6 50 20:54 08.05.2022
5872 Clear 17 1024 26 10000 3.6 50 20:23 08.05.2022
5873 Clear 16 1024 28 10000 2.57 20 19:33 08.05.2022
5874 Clear 16 1025 30 10000 4.63 80 18:35 08.05.2022
5875 Clear 14 1026 36 10000 5.14 30 17:36 08.05.2022
5876 Clear 11 1026 44 10000 5.14 20 15:46 08.05.2022
5877 Clear 10 1026 44 10000 5.14 20 15:22 08.05.2022
5878 Clear 4 1024 58 10000 4.63 360 12:46 08.05.2022
5879 Clear 5 1022 55 10000 5.66 20 10:59 08.05.2022
5880 Clear 5 1022 53 10000 5.66 20 10:22 08.05.2022
5881 Clear 5 1022 52 10000 5.14 30 09:51 08.05.2022
5882 Clear 7 1021 38 10000 5.66 40 07:44 08.05.2022
5883 Clear 9 1020 28 10000 4.12 40 05:57 08.05.2022
5884 Clouds 11 1020 29 10000 5.14 30 03:22 08.05.2022
5885 Clear 14 1019 28 10000 7.2 30 00:48 08.05.2022
5886 Clear 15 1019 29 10000 8.23 30 23:56 07.05.2022
5887 Clear 15 1019 30 10000 8.23 30 23:28 07.05.2022
5888 Clear 15 1018 31 10000 9.26 20 22:35 07.05.2022
5889 Clear 14 1019 32 10000 7.2 50 21:55 07.05.2022
5890 Clear 14 1019 32 10000 7.2 50 21:20 07.05.2022
5891 Clear 13 1019 33 10000 7.72 30 20:23 07.05.2022
5892 Clear 12 1020 35 10000 7.2 90 18:41 07.05.2022
5893 Clear 9 1020 41 10000 7.2 50 16:24 07.05.2022
5894 Clear 7 1020 49 10000 6.69 60 14:51 07.05.2022
5895 Clouds 4 1018 58 10000 6.17 30 11:23 07.05.2022
5896 Clear 5 1018 52 10000 5.66 30 09:42 07.05.2022
5897 Clear 6 1018 48 10000 8.75 20 08:30 07.05.2022
5898 Clouds 7 1018 46 10000 9.26 30 06:44 07.05.2022
5899 Clouds 8 1018 45 10000 9.26 30 06:24 07.05.2022
5900 Clear 10 1016 40 10000 6.17 50 03:54 07.05.2022
5901 Clear 15 1015 30 10000 4.12 160 23:44 06.05.2022
5902 Clear 15 1015 30 10000 4.63 10 22:35 06.05.2022
5903 Clear 14 1016 30 10000 3.6 30 21:52 06.05.2022
5904 Clear 14 1016 30 10000 3.6 30 21:24 06.05.2022
5905 Clear 13 1017 31 10000 5.66 350 19:43 06.05.2022
5906 Clear 12 1017 31 10000 5.66 350 19:21 06.05.2022
5907 Clear 11 1018 35 10000 4.63 340 18:29 06.05.2022
5908 Clear 11 1018 38 10000 4.63 10 17:34 06.05.2022
5909 Clouds 9 1019 42 10000 5.14 20 15:51 06.05.2022
5910 Clouds 9 1019 44 10000 5.14 20 15:18 06.05.2022
5911 Clouds 8 1018 43 10000 5.14 20 13:45 06.05.2022
5912 Clouds 8 1018 43 10000 4.63 20 12:47 06.05.2022
5913 Clouds 8 1017 45 10000 2.06 20 11:58 06.05.2022
5914 Clouds 9 1017 44 10000 2.57 10 10:41 06.05.2022
5915 Clouds 9 1017 45 10000 3.09 30 09:47 06.05.2022
5916 Clouds 8 1017 45 10000 3.6 40 08:59 06.05.2022
5917 Clear 9 1017 47 10000 2.06 10 07:40 06.05.2022
5918 Clear 10 1017 44 10000 2.06 340 06:25 06.05.2022
5919 Clear 15 1017 27 10000 4.12 320 02:54 06.05.2022
5920 Clear 16 1017 24 10000 5.66 310 01:57 06.05.2022
5921 Smoke 17 1017 32 10000 6.17 230 22:48 05.05.2022
5922 Smoke 16 1018 35 10000 7.2 250 21:46 05.05.2022
5923 Clear 15 1020 41 10000 8.75 250 20:34 05.05.2022
5924 Clear 12 1022 45 10000 6.17 190 18:43 05.05.2022
5925 Clear 9 1022 47 10000 2.06 0 16:40 05.05.2022
5926 Clear 7 1023 53 10000 3.6 360 14:59 05.05.2022
5927 Clear 5 1022 57 10000 5.14 360 13:29 05.05.2022
5928 Clear 5 1022 62 10000 4.12 20 12:55 05.05.2022
5929 Clear 6 1021 65 10000 5.14 360 10:59 05.05.2022
5930 Clear 7 1020 63 10000 4.12 360 09:40 05.05.2022
5931 Clear 8 1020 62 10000 3.6 360 08:30 05.05.2022
5932 Clouds 11 1019 58 10000 5.66 360 06:23 05.05.2022
5933 Clouds 14 1016 78 10000 2.57 220 02:20 05.05.2022
5934 Clear 16 1015 67 10000 1.54 210 01:37 05.05.2022
5935 Clouds 16 1015 69 10000 2.57 40 23:57 04.05.2022
5936 Clouds 15 1015 74 10000 2.57 100 22:54 04.05.2022
5937 Clouds 14 1015 79 10000 4.63 30 21:59 04.05.2022
5938 Clouds 14 1015 78 10000 4.63 30 21:30 04.05.2022
5939 Clouds 14 1015 79 10000 5.14 20 20:42 04.05.2022
5940 Clouds 14 1015 85 10000 5.66 30 19:59 04.05.2022
5941 Clouds 13 1015 89 10000 6.69 40 19:35 04.05.2022
5942 Clouds 12 1015 92 10000 6.69 30 18:23 04.05.2022
5943 Clouds 12 1015 93 10000 6.17 30 17:59 04.05.2022
5944 Mist 11 1014 92 4828 4.63 20 16:36 04.05.2022
5945 Mist 11 1014 92 6437 2.06 70 15:32 04.05.2022
5946 Mist 11 1014 93 4828 4.12 140 14:38 04.05.2022
5947 Mist 11 1014 93 8047 2.57 130 14:19 04.05.2022
5948 Mist 11 1014 92 6437 2.57 100 12:36 04.05.2022
5949 Rain 11 1014 92 10000 3.09 160 11:28 04.05.2022
5950 Rain 11 1014 91 10000 6.17 170 09:57 04.05.2022
5951 Clouds 11 1014 91 10000 6.17 170 09:20 04.05.2022
5952 Clouds 12 1016 92 10000 6.17 180 07:33 04.05.2022
5953 Clouds 16 1015 65 10000 4.12 140 04:45 04.05.2022
5954 Clouds 17 1016 59 10000 3.09 180 02:33 04.05.2022
5955 Clouds 18 1017 55 10000 5.66 150 22:59 03.05.2022
5956 Clouds 18 1018 55 10000 5.66 180 21:53 03.05.2022
5957 Clouds 18 1018 55 10000 5.66 180 21:31 03.05.2022
5958 Clouds 17 1019 58 10000 4.63 170 20:46 03.05.2022
5959 Clouds 17 1019 59 10000 3.09 150 19:33 03.05.2022
5960 Clouds 17 1020 57 10000 3.6 230 18:47 03.05.2022
5961 Clouds 15 1021 65 10000 5.14 210 17:22 03.05.2022
5962 Clouds 14 1020 74 10000 3.6 230 15:57 03.05.2022
5963 Clouds 11 1020 83 10000 3.6 190 14:24 03.05.2022
5964 Clouds 10 1019 87 10000 4.12 170 12:35 03.05.2022
5965 Clouds 11 1019 86 10000 3.6 170 11:39 03.05.2022
5966 Clouds 11 1019 86 10000 3.6 170 10:44 03.05.2022
5967 Mist 11 1019 85 3219 4.63 170 08:19 03.05.2022
5968 Clouds 11 1018 79 10000 4.63 180 06:45 03.05.2022
5969 Clouds 12 1018 68 10000 5.14 140 02:39 03.05.2022
5970 Clouds 14 1017 66 10000 7.72 150 23:32 02.05.2022
5971 Clouds 15 1016 56 10000 8.23 160 22:29 02.05.2022
5972 Clouds 15 1016 55 10000 6.17 150 21:47 02.05.2022
5973 Clouds 17 1016 45 10000 8.23 160 19:30 02.05.2022
5974 Clouds 18 1016 45 10000 9.26 140 18:26 02.05.2022
5975 Clouds 17 1017 46 10000 4.63 110 17:41 02.05.2022
5976 Clouds 17 1017 46 10000 4.63 110 17:41 02.05.2022
5977 Clear 15 1017 52 10000 5.14 40 16:43 02.05.2022
5978 Clear 13 1017 59 10000 5.14 40 15:44 02.05.2022
5979 Clear 11 1017 63 10000 5.66 40 14:51 02.05.2022
5980 Clear 9 1017 69 10000 5.14 20 13:42 02.05.2022
5981 Clear 7 1017 75 10000 6.17 20 11:41 02.05.2022
5982 Clear 8 1017 70 10000 6.69 30 09:59 02.05.2022
5983 Clear 9 1017 65 10000 7.2 30 08:31 02.05.2022
5984 Clear 10 1018 59 10000 7.2 50 06:56 02.05.2022
5985 Clear 19 1017 28 10000 1.03 360 00:47 02.05.2022
5986 Clear 19 1017 28 10000 1.03 360 00:22 02.05.2022
5987 Clouds 19 1018 25 10000 2.57 0 23:40 01.05.2022
5988 Clear 19 1018 34 10000 3.6 0 21:45 01.05.2022
5989 Clear 18 1019 35 10000 5.66 0 20:50 01.05.2022
5990 Clear 17 1019 33 10000 4.12 0 19:27 01.05.2022
5991 Clear 16 1020 34 10000 2.57 90 18:53 01.05.2022
5992 Clear 15 1021 37 10000 2.06 0 17:51 01.05.2022
5993 Clear 13 1021 41 10000 1.03 40 16:42 01.05.2022
5994 Clear 13 1021 39 10000 1.03 40 16:18 01.05.2022
5995 Clear 11 1022 46 10000 3.09 40 14:54 01.05.2022
5996 Clear 6 1021 60 10000 2.06 350 12:52 01.05.2022
5997 Clear 5 1020 62 10000 1.54 20 10:45 01.05.2022
5998 Clear 6 1020 56 10000 2.06 360 08:50 01.05.2022
5999 Clear 8 1020 53 10000 2.06 20 06:51 01.05.2022
6000 Clear 13 1019 37 10000 2.06 30 02:46 01.05.2022
6001 Clear 15 1020 34 10000 5.66 320 22:51 30.04.2022
6002 Clear 14 1020 34 10000 4.63 0 21:34 30.04.2022
6003 Clear 14 1021 36 10000 3.6 350 20:24 30.04.2022
6004 Clear 12 1021 38 10000 4.63 10 19:31 30.04.2022
6005 Clear 11 1022 36 10000 6.17 20 17:37 30.04.2022
6006 Clear 9 1022 39 10000 4.63 360 16:30 30.04.2022
6007 Clear 8 1022 42 10000 4.63 360 15:19 30.04.2022
6008 Clear 7 1022 43 10000 6.17 30 14:31 30.04.2022
6009 Clear 4 1021 51 10000 3.6 10 12:28 30.04.2022
6010 Clear 4 1021 48 10000 4.63 350 11:32 30.04.2022
6011 Clouds 5 1021 47 10000 6.17 340 10:30 30.04.2022
6012 Clouds 5 1020 45 10000 4.63 330 08:34 30.04.2022
6013 Clouds 8 1021 40 10000 3.09 360 05:19 30.04.2022
6014 Clouds 12 1019 23 10000 7.2 20 00:35 30.04.2022
6015 Clouds 13 1019 22 10000 9.26 10 23:29 29.04.2022
6016 Clouds 13 1018 18 10000 8.23 10 22:29 29.04.2022
6017 Clear 13 1018 18 10000 8.23 350 21:26 29.04.2022
6018 Clouds 13 1019 18 10000 9.26 320 20:38 29.04.2022
6019 Clear 12 1019 20 10000 7.72 350 19:36 29.04.2022
6020 Clear 9 1020 26 10000 7.72 330 17:48 29.04.2022
6021 Clear 8 1020 29 10000 8.23 350 16:56 29.04.2022
6022 Clear 4 1021 37 10000 8.75 330 14:50 29.04.2022
6023 Clear 3 1021 37 10000 8.75 330 14:19 29.04.2022
6024 Clear 1 1020 44 10000 5.14 310 12:43 29.04.2022
6025 Clear 1 1019 42 10000 6.17 330 10:58 29.04.2022
6026 Clear 3 1019 39 10000 6.17 340 08:18 29.04.2022
6027 Clear 3 1019 36 10000 7.72 340 07:27 29.04.2022
6028 Clear 4 1019 34 10000 6.69 340 06:37 29.04.2022
6029 Clear 6 1019 31 10000 6.69 340 03:34 29.04.2022
6030 Clear 10 1017 25 10000 9.26 340 00:18 29.04.2022
6031 Clear 10 1016 25 10000 7.72 340 23:26 28.04.2022
6032 Clear 10 1016 26 10000 10.8 330 22:41 28.04.2022
6033 Clear 10 1016 26 10000 8.75 330 21:46 28.04.2022
6034 Clear 10 1016 28 10000 7.72 330 20:55 28.04.2022
6035 Clear 9 1016 28 10000 7.72 330 20:22 28.04.2022
6036 Clear 9 1017 30 10000 8.75 310 19:41 28.04.2022
6037 Clear 9 1017 30 10000 7.2 360 19:21 28.04.2022
6038 Clear 7 1018 32 10000 7.72 330 18:35 28.04.2022
6039 Clear 5 1018 38 10000 6.69 320 16:59 28.04.2022
6040 Clear 4 1018 39 10000 6.69 320 16:22 28.04.2022
6041 Clouds 4 1018 41 10000 8.23 330 15:57 28.04.2022
6042 Clouds 3 1018 40 10000 8.23 330 15:27 28.04.2022
6043 Clouds 2 1017 49 10000 9.26 330 13:44 28.04.2022
6044 Clouds 2 1016 50 10000 8.75 330 12:42 28.04.2022
6045 Clouds 2 1015 56 10000 6.69 330 11:53 28.04.2022
6046 Clouds 2 1015 63 10000 6.17 320 10:44 28.04.2022
6047 Clouds 2 1015 66 10000 6.17 330 09:52 28.04.2022
6048 Clouds 2 1015 70 10000 5.14 300 08:30 28.04.2022
6049 Clouds 3 1015 67 10000 6.69 320 06:58 28.04.2022
6050 Clouds 3 1015 64 10000 5.66 330 05:55 28.04.2022
6051 Clouds 3 1015 64 10000 5.66 330 05:37 28.04.2022
6052 Clouds 3 1015 63 10000 7.2 340 04:38 28.04.2022
6053 Clouds 4 1012 85 10000 8.23 270 00:22 28.04.2022
6054 Rain 3 1012 91 10000 8.23 280 22:38 27.04.2022
6055 Rain 4 1011 91 10000 8.23 280 21:54 27.04.2022
6056 Rain 4 1011 89 10000 8.23 280 20:59 27.04.2022
6057 Rain 4 1010 89 10000 8.23 280 20:37 27.04.2022
6058 Rain 5 1010 90 10000 6.17 290 19:37 27.04.2022
6059 Rain 5 1009 91 10000 7.72 340 18:56 27.04.2022
6060 Rain 5 1009 91 10000 7.72 340 18:22 27.04.2022
6061 Rain 6 1010 92 10000 8.23 230 16:29 27.04.2022
6062 Rain 7 1010 90 10000 8.23 240 14:33 27.04.2022
6063 Clouds 8 1010 81 10000 5.66 240 12:23 27.04.2022
6064 Clouds 8 1010 81 10000 5.66 240 11:20 27.04.2022
6065 Clouds 9 1011 73 10000 5.66 250 09:20 27.04.2022
6066 Clouds 10 1012 73 10000 3.09 260 07:18 27.04.2022
6067 Clouds 11 1013 70 10000 5.14 250 04:30 27.04.2022
6068 Clouds 13 1013 65 10000 5.14 230 01:32 27.04.2022
6069 Clouds 14 1014 64 10000 6.17 230 00:37 27.04.2022
6070 Clouds 14 1014 64 10000 6.69 230 23:39 26.04.2022
6071 Clouds 14 1014 65 10000 6.69 230 23:18 26.04.2022
6072 Clouds 14 1014 68 10000 6.69 230 22:39 26.04.2022
6073 Clouds 15 1015 68 10000 6.69 220 21:35 26.04.2022
6074 Clouds 15 1015 66 10000 7.2 220 20:52 26.04.2022
6075 Clouds 15 1015 65 10000 7.2 220 20:30 26.04.2022
6076 Clouds 15 1015 65 10000 6.69 240 19:32 26.04.2022
6077 Clouds 15 1016 67 10000 6.17 220 18:45 26.04.2022
6078 Clouds 14 1016 70 10000 6.69 240 17:59 26.04.2022
6079 Clouds 13 1016 74 10000 7.72 240 16:58 26.04.2022
6080 Clouds 12 1016 84 10000 8.23 240 14:27 26.04.2022
6081 Clouds 11 1015 88 10000 6.69 240 13:33 26.04.2022
6082 Clouds 11 1014 89 10000 9.77 260 11:55 26.04.2022
6083 Clouds 11 1013 86 10000 6.17 180 10:37 26.04.2022
6084 Rain 12 1013 77 10000 5.14 190 09:25 26.04.2022
6085 Clouds 15 1012 50 10000 9.26 190 07:38 26.04.2022
6086 Clouds 17 1012 44 10000 10.8 150 04:33 26.04.2022
6087 Clouds 18 1014 49 10000 8.23 170 01:25 26.04.2022
6088 Rain 18 1014 47 10000 7.2 170 00:26 26.04.2022
6089 Clouds 19 1015 40 10000 13.89 170 22:36 25.04.2022
6090 Clouds 19 1016 40 10000 8.75 170 21:40 25.04.2022
6091 Clouds 18 1017 40 10000 8.23 170 20:40 25.04.2022
6092 Clouds 16 1018 41 10000 8.75 170 18:58 25.04.2022
6093 Clouds 16 1018 37 10000 10.29 170 17:54 25.04.2022
6094 Clouds 16 1018 38 10000 10.8 170 16:59 25.04.2022
6095 Clouds 14 1019 44 10000 10.29 150 15:29 25.04.2022
6096 Clouds 12 1019 52 10000 8.23 150 14:42 25.04.2022
6097 Clear 10 1018 59 10000 4.12 120 13:33 25.04.2022
6098 Clear 6 1018 64 10000 5.14 30 11:43 25.04.2022
6099 Clear 6 1018 65 10000 6.17 30 10:26 25.04.2022
6100 Clear 6 1020 65 10000 5.66 40 08:46 25.04.2022
6101 Clear 7 1020 61 10000 6.69 40 06:45 25.04.2022
6102 Clear 8 1021 56 10000 7.2 50 04:27 25.04.2022
6103 Clouds 12 1022 38 10000 5.14 60 00:57 25.04.2022
6104 Clouds 13 1022 32 10000 6.69 60 23:51 24.04.2022
6105 Clouds 13 1023 32 10000 6.17 60 22:45 24.04.2022
6106 Clouds 12 1023 32 10000 6.17 60 22:26 24.04.2022
6107 Clouds 12 1024 34 10000 5.66 70 21:26 24.04.2022
6108 Clouds 11 1025 33 10000 5.66 60 20:54 24.04.2022
6109 Clouds 11 1025 33 10000 5.66 60 20:35 24.04.2022
6110 Clouds 11 1025 34 10000 5.66 60 19:46 24.04.2022
6111 Clear 10 1026 35 10000 7.72 70 18:20 24.04.2022
6112 Clouds 8 1026 42 10000 6.17 50 17:28 24.04.2022
6113 Clouds 7 1027 46 10000 6.69 50 16:59 24.04.2022
6114 Clouds 6 1027 47 10000 6.69 50 16:32 24.04.2022
6115 Clouds 5 1027 48 10000 6.69 50 15:54 24.04.2022
6116 Clouds 4 1027 50 10000 6.69 50 15:29 24.04.2022
6117 Clouds 4 1027 50 10000 5.66 40 13:57 24.04.2022
6118 Clouds 3 1027 50 10000 5.66 40 13:25 24.04.2022
6119 Clouds 3 1027 52 10000 6.17 40 12:30 24.04.2022
6120 Clouds 3 1027 49 10000 7.2 60 11:28 24.04.2022
6121 Clouds 4 1027 45 10000 6.69 50 10:25 24.04.2022
6122 Clouds 5 1027 40 10000 6.17 40 09:23 24.04.2022
6123 Clouds 5 1027 53 10000 1.54 100 06:34 24.04.2022
6124 Clear 7 1027 44 10000 2.06 100 03:43 24.04.2022
6125 Clouds 9 1027 35 10000 2.57 0 01:38 24.04.2022
6126 Clear 10 1027 32 10000 2.06 190 00:24 24.04.2022
6127 Clouds 10 1027 31 10000 3.09 270 23:44 23.04.2022
6128 Clouds 10 1027 32 10000 3.09 270 23:21 23.04.2022
6129 Clear 10 1028 31 10000 2.06 240 21:51 23.04.2022
6130 Clear 10 1028 31 10000 2.06 240 21:32 23.04.2022
6131 Clear 9 1029 33 10000 2.57 0 20:36 23.04.2022
6132 Clear 8 1030 35 10000 3.6 0 19:46 23.04.2022
6133 Clear 7 1030 37 10000 3.6 0 19:19 23.04.2022
6134 Clear 7 1030 34 10000 2.57 350 18:49 23.04.2022
6135 Clear 6 1031 36 10000 3.6 30 17:50 23.04.2022
6136 Clear 6 1032 39 10000 3.6 40 16:56 23.04.2022
6137 Clear 5 1032 40 10000 3.6 40 16:23 23.04.2022
6138 Clear 4 1032 44 10000 3.09 30 14:57 23.04.2022
6139 Clear 1 1032 61 10000 1.54 360 12:35 23.04.2022
6140 Clear 2 1031 56 10000 3.6 30 10:41 23.04.2022
6141 Clear 2 1031 59 10000 4.12 20 09:30 23.04.2022
6142 Clear 5 1031 56 10000 3.09 340 06:29 23.04.2022
6143 Clear 7 1030 48 10000 3.6 320 03:54 23.04.2022
6144 Clear 11 1029 37 10000 7.2 310 00:53 23.04.2022
6145 Clouds 12 1029 38 10000 8.23 320 23:29 22.04.2022
6146 Clouds 12 1028 40 10000 6.17 330 22:20 22.04.2022
6147 Clouds 12 1028 42 10000 7.72 330 21:42 22.04.2022
6148 Clouds 12 1028 44 10000 9.77 320 20:46 22.04.2022
6149 Clouds 11 1028 45 10000 9.77 320 20:26 22.04.2022
6150 Clouds 11 1028 50 10000 9.77 290 19:18 22.04.2022
6151 Clouds 10 1029 54 10000 10.29 300 18:36 22.04.2022
6152 Clear 10 1028 56 10000 8.23 290 17:39 22.04.2022
6153 Clouds 10 1028 60 10000 7.72 290 16:46 22.04.2022
6154 Clouds 8 1027 68 10000 6.69 290 15:32 22.04.2022
6155 Clouds 7 1026 75 10000 6.69 280 14:44 22.04.2022
6156 Clouds 7 1025 79 10000 6.69 280 13:49 22.04.2022
6157 Clouds 7 1023 80 10000 5.14 290 12:57 22.04.2022
6158 Clouds 7 1022 81 10000 6.17 270 11:48 22.04.2022
6159 Clouds 7 1022 80 10000 6.17 270 11:21 22.04.2022
6160 Clouds 8 1021 79 10000 6.69 270 10:48 22.04.2022
6161 Clouds 8 1021 78 10000 6.69 270 10:29 22.04.2022
6162 Clouds 8 1020 79 10000 6.17 250 09:50 22.04.2022
6163 Clouds 8 1020 81 10000 6.69 240 08:50 22.04.2022
6164 Clouds 9 1019 81 10000 6.69 260 06:56 22.04.2022
6165 Clouds 10 1017 89 10000 6.17 210 02:45 22.04.2022
6166 Clouds 9 1017 83 10000 8.75 210 00:51 22.04.2022
6167 Rain 10 1018 77 10000 8.23 190 22:59 21.04.2022
6168 Rain 10 1018 73 10000 8.23 190 22:27 21.04.2022
6169 Clouds 11 1019 50 10000 12.35 170 20:36 21.04.2022
6170 Clouds 11 1019 50 10000 12.35 170 20:36 21.04.2022
6171 Clouds 11 1019 50 10000 12.35 170 20:18 21.04.2022
6172 Clear 10 1022 49 10000 11.32 150 18:35 21.04.2022
6173 Clouds 11 1023 49 10000 9.77 170 17:54 21.04.2022
6174 Clouds 9 1024 52 10000 9.77 160 16:35 21.04.2022
6175 Clouds 7 1027 61 10000 7.72 140 15:21 21.04.2022
6176 Clouds 5 1028 65 10000 6.17 130 14:47 21.04.2022
6177 Clouds 3 1029 71 10000 6.69 130 13:23 21.04.2022
6178 Clear 2 1029 75 10000 5.14 100 12:53 21.04.2022
6179 Clear 1 1030 74 10000 4.12 110 10:47 21.04.2022
6180 Clear 2 1031 69 10000 4.12 110 08:55 21.04.2022
6181 Clear 3 1031 67 10000 4.63 100 07:24 21.04.2022
6182 Clear 2 1031 69 10000 2.57 100 05:42 21.04.2022
6183 Clear 4 1030 58 10000 2.06 360 03:30 21.04.2022
6184 Clear 6 1030 52 10000 2.57 330 02:47 21.04.2022
6185 Clouds 8 1028 43 10000 6.69 280 00:45 21.04.2022
6186 Clouds 8 1027 44 10000 7.2 250 23:50 20.04.2022
6187 Clouds 8 1027 44 10000 7.2 250 23:22 20.04.2022
6188 Clouds 8 1026 45 10000 5.66 290 22:49 20.04.2022
6189 Clouds 8 1026 45 10000 5.66 290 22:30 20.04.2022
6190 Clouds 7 1026 48 10000 8.23 270 21:27 20.04.2022
6191 Clouds 7 1025 50 10000 9.26 260 20:24 20.04.2022
6192 Clouds 6 1024 53 10000 10.29 260 19:52 20.04.2022
6193 Clouds 6 1024 55 10000 10.29 260 19:20 20.04.2022
6194 Clouds 5 1023 58 10000 8.23 280 18:22 20.04.2022
6195 Clouds 3 1021 63 10000 11.32 270 16:54 20.04.2022
6196 Clouds 3 1021 64 10000 11.32 270 16:36 20.04.2022
6197 Clouds 2 1016 72 10000 11.83 270 13:59 20.04.2022
6198 Clouds 2 1012 79 10000 11.83 270 11:52 20.04.2022
6199 Clouds 2 1011 80 10000 11.83 270 11:24 20.04.2022
6200 Clouds 3 1009 80 10000 11.83 270 10:22 20.04.2022
6201 Clouds 3 1007 83 10000 9.77 260 09:25 20.04.2022
6202 Clouds 4 1006 84 10000 9.77 260 08:22 20.04.2022
6203 Clouds 4 1004 88 10000 9.26 250 07:37 20.04.2022
6204 Clouds 3 1002 93 10000 6.69 210 03:49 20.04.2022
6205 Clouds 4 999 85 10000 9.26 230 00:23 20.04.2022
6206 Clouds 4 999 86 10000 9.77 240 23:56 19.04.2022
6207 Clouds 3 998 90 10000 8.75 240 22:28 19.04.2022
6208 Rain 3 998 94 10000 7.72 250 21:57 19.04.2022
6209 Clouds 2 998 93 10000 7.2 250 21:33 19.04.2022
6210 Rain 2 997 93 10000 4.63 230 20:48 19.04.2022
6211 Rain 2 997 92 10000 2.57 360 20:26 19.04.2022
6212 Mist 2 997 93 9656 6.69 20 19:24 19.04.2022
6213 Rain 1 999 94 4828 9.26 20 17:51 19.04.2022
6214 Snow 1 1002 94 2012 10.8 30 16:43 19.04.2022
6215 Snow 1 1002 94 2012 10.29 30 16:24 19.04.2022
6216 Snow 1 1007 95 2012 10.29 40 14:51 19.04.2022
6217 Snow 1 1007 94 2414 9.26 50 14:30 19.04.2022
6218 Snow 0 1010 95 604 9.26 60 12:51 19.04.2022
6219 Snow 0 1012 94 1207 6.17 70 12:26 19.04.2022
6220 Rain 2 1014 91 10000 6.17 100 10:50 19.04.2022
6221 Rain 4 1016 88 9656 7.2 120 09:25 19.04.2022
6222 Clouds 6 1019 81 9656 7.2 150 06:30 19.04.2022
6223 Clouds 8 1018 60 10000 5.14 40 04:19 19.04.2022
6224 Clear 10 1021 50 10000 6.17 50 00:56 19.04.2022
6225 Clear 10 1022 47 10000 7.72 40 23:38 18.04.2022
6226 Clear 10 1025 43 10000 3.6 90 21:39 18.04.2022
6227 Clear 10 1025 42 10000 3.6 90 21:20 18.04.2022
6228 Clear 10 1026 45 10000 3.6 110 20:36 18.04.2022
6229 Clear 8 1026 48 10000 1.54 0 19:57 18.04.2022
6230 Clear 8 1026 49 10000 1.54 0 19:27 18.04.2022
6231 Clear 8 1026 49 10000 2.57 100 18:33 18.04.2022
6232 Clear 6 1027 52 10000 3.6 70 17:38 18.04.2022
6233 Clear 6 1027 53 10000 3.6 70 17:18 18.04.2022
6234 Clear 5 1029 55 10000 4.12 60 16:35 18.04.2022
6235 Clear 5 1029 55 10000 4.12 60 16:35 18.04.2022
6236 Clear 4 1030 57 10000 3.6 60 15:27 18.04.2022
6237 Clear 1 1029 66 10000 3.09 40 13:42 18.04.2022
6238 Clear 1 1029 66 10000 3.09 40 13:42 18.04.2022
6239 Clear -1 1028 73 10000 1.54 350 12:40 18.04.2022
6240 Clear -1 1028 72 10000 2.06 330 11:43 18.04.2022
6241 Clear -1 1027 70 10000 1.54 40 10:43 18.04.2022
6242 Clear 1 1027 65 10000 4.63 10 09:31 18.04.2022
6243 Clear 1 1026 63 10000 3.09 340 08:29 18.04.2022
6244 Clear 3 1025 59 10000 3.6 330 05:58 18.04.2022
6245 Clouds 7 1021 54 10000 6.69 320 01:38 18.04.2022
6246 Clouds 7 1019 52 10000 8.23 320 22:53 17.04.2022
6247 Clouds 7 1019 52 10000 8.75 310 22:31 17.04.2022
6248 Clouds 6 1018 53 10000 8.75 300 21:32 17.04.2022
6249 Clouds 6 1018 53 10000 8.23 310 20:50 17.04.2022
6250 Clouds 6 1017 53 10000 8.75 310 19:53 17.04.2022
6251 Clouds 6 1017 56 10000 9.26 270 18:34 17.04.2022
6252 Clouds 5 1017 59 10000 6.17 290 16:44 17.04.2022
6253 Clouds 4 1016 59 10000 5.66 280 15:33 17.04.2022
6254 Clouds 3 1016 60 10000 4.12 300 14:38 17.04.2022
6255 Clouds 1 1015 65 10000 4.12 280 13:23 17.04.2022
6256 Clouds 0 1014 64 10000 3.09 300 12:30 17.04.2022
6257 Clear 0 1013 61 10000 3.09 300 10:48 17.04.2022
6258 Clear 1 1013 59 10000 3.09 300 10:29 17.04.2022
6259 Clear 1 1013 56 10000 3.6 310 09:50 17.04.2022
6260 Clear 1 1013 57 10000 3.6 310 09:18 17.04.2022
6261 Clouds 2 1013 55 10000 2.57 310 08:29 17.04.2022
6262 Clouds 4 1013 50 10000 4.12 340 05:33 17.04.2022
6263 Clouds 6 1011 44 10000 5.14 300 01:47 17.04.2022
6264 Clouds 8 1011 43 10000 5.66 260 23:59 16.04.2022
6265 Clouds 8 1011 44 10000 5.66 260 23:19 16.04.2022
6266 Clouds 8 1011 47 10000 6.69 250 21:45 16.04.2022
6267 Clouds 8 1011 48 10000 9.26 260 20:54 16.04.2022
6268 Clouds 8 1012 49 10000 10.8 230 19:21 16.04.2022
6269 Clouds 7 1012 52 10000 9.77 220 18:43 16.04.2022
6270 Clouds 5 1013 66 10000 7.72 230 16:51 16.04.2022
6271 Clouds 4 1013 74 10000 8.23 230 15:49 16.04.2022
6272 Clouds 4 1013 82 10000 7.2 230 14:58 16.04.2022
6273 Clouds 3 1013 85 10000 7.2 230 14:37 16.04.2022
6274 Clouds 3 1012 88 10000 6.17 240 13:49 16.04.2022
6275 Clouds 2 1011 91 10000 6.69 240 12:43 16.04.2022
6276 Clouds 2 1011 92 10000 6.69 230 11:33 16.04.2022
6277 Mist 2 1011 91 9656 6.69 250 10:29 16.04.2022
6278 Rain 3 1010 89 8047 7.2 260 09:37 16.04.2022
6279 Rain 5 1009 88 8047 7.72 250 08:51 16.04.2022
6280 Rain 7 1009 85 4828 7.72 250 07:21 16.04.2022
6281 Mist 8 1008 85 9656 9.77 220 04:58 16.04.2022
6282 Clouds 11 1007 60 10000 16.98 220 01:23 16.04.2022
6283 Clouds 15 1007 41 10000 16.98 230 23:52 15.04.2022
6284 Clouds 14 1009 41 10000 8.75 230 22:48 15.04.2022
6285 Clouds 15 1009 41 10000 8.75 230 22:28 15.04.2022
6286 Clouds 14 1010 40 10000 13.89 220 21:21 15.04.2022
6287 Clouds 15 1011 32 10000 12.35 220 20:38 15.04.2022
6288 Clouds 15 1012 34 10000 9.77 220 19:44 15.04.2022
6289 Clouds 14 1013 36 10000 9.26 210 18:59 15.04.2022
6290 Clouds 14 1013 36 10000 9.26 210 18:41 15.04.2022
6291 Clouds 14 1013 37 10000 9.26 210 18:21 15.04.2022
6292 Clear 12 1013 42 10000 7.2 200 17:26 15.04.2022
6293 Clear 11 1014 55 10000 5.66 220 16:25 15.04.2022
6294 Clouds 10 1015 59 10000 5.66 210 15:45 15.04.2022
6295 Clouds 6 1015 73 10000 3.09 210 13:55 15.04.2022
6296 Clear 4 1014 78 10000 2.06 200 12:52 15.04.2022
6297 Clear 4 1014 78 10000 2.06 200 12:26 15.04.2022
6298 Clear 4 1014 82 10000 1.03 150 11:51 15.04.2022
6299 Clear 5 1013 77 10000 2.57 190 10:46 15.04.2022
6300 Clear 5 1013 76 10000 2.57 190 10:20 15.04.2022
6301 Clouds 6 1013 77 10000 4.63 220 09:22 15.04.2022
6302 Clouds 7 1013 76 10000 3.6 230 08:40 15.04.2022
6303 Clear 8 1013 77 10000 4.12 230 06:50 15.04.2022
6304 Clouds 9 1012 85 10000 6.17 230 04:49 15.04.2022
6305 Rain 10 1007 93 4828 1.03 230 00:51 15.04.2022
6306 Mist 10 1006 92 2816 3.09 350 23:28 14.04.2022
6307 Clouds 11 1005 89 10000 4.63 360 22:46 14.04.2022
6308 Clouds 11 1004 90 10000 4.12 10 22:27 14.04.2022
6309 Clouds 11 1004 90 10000 5.14 20 21:50 14.04.2022
6310 Clouds 10 1004 94 10000 5.14 30 19:51 14.04.2022
6311 Clouds 10 1004 94 10000 5.14 30 19:22 14.04.2022
6312 Mist 9 1005 96 10000 5.66 30 17:46 14.04.2022
6313 Clouds 9 1005 95 10000 5.66 30 17:18 14.04.2022
6314 Rain 8 1005 94 10000 6.17 50 16:21 14.04.2022
6315 Clouds 6 1006 95 10000 5.66 30 13:54 14.04.2022
6316 Clouds 6 1006 95 10000 7.2 50 13:25 14.04.2022
6317 Clouds 6 1007 97 10000 7.2 40 12:33 14.04.2022
6318 Mist 6 1007 96 8047 5.66 40 11:47 14.04.2022
6319 Rain 6 1008 96 9656 5.66 40 11:20 14.04.2022
6320 Rain 6 1008 95 10000 5.66 40 10:33 14.04.2022
6321 Clouds 7 1008 95 10000 4.12 50 09:50 14.04.2022
6322 Clouds 7 1009 94 10000 6.17 30 08:39 14.04.2022
6323 Clouds 7 1011 94 10000 5.14 50 06:24 14.04.2022
6324 Mist 7 1012 92 9656 7.72 40 01:49 14.04.2022
6325 Clouds 8 1013 85 10000 4.63 80 22:41 13.04.2022
6326 Mist 9 1013 80 9656 5.14 50 21:44 13.04.2022
6327 Clouds 10 1014 71 10000 4.63 70 20:47 13.04.2022
6328 Clouds 11 1014 67 10000 5.14 80 20:18 13.04.2022
6329 Rain 11 1015 57 10000 3.6 70 18:50 13.04.2022
6330 Clouds 11 1016 58 10000 4.12 50 17:54 13.04.2022
6331 Clouds 11 1016 60 10000 4.12 50 17:23 13.04.2022
6332 Rain 11 1017 53 10000 3.6 190 16:24 13.04.2022
6333 Clouds 10 1016 57 10000 3.09 140 15:31 13.04.2022
6334 Clouds 9 1017 62 10000 2.57 120 14:46 13.04.2022
6335 Clouds 7 1017 67 10000 1.03 60 13:58 13.04.2022
6336 Clouds 8 1017 64 10000 3.09 240 13:00 13.04.2022
6337 Clouds 8 1017 63 10000 3.09 240 12:19 13.04.2022
6338 Clouds 7 1017 66 10000 3.09 210 10:46 13.04.2022
6339 Clear 8 1017 62 10000 3.6 230 08:57 13.04.2022
6340 Clear 8 1017 62 10000 3.6 230 08:31 13.04.2022
6341 Clear 10 1016 54 10000 4.63 250 06:51 13.04.2022
6342 Clear 10 1016 53 10000 4.63 250 06:25 13.04.2022
6343 Clouds 12 1015 40 10000 2.06 240 03:31 13.04.2022
6344 Clear 16 1014 27 10000 7.72 290 00:20 13.04.2022
6345 Clear 16 1014 27 10000 7.72 290 00:20 13.04.2022
6346 Clear 17 1014 27 10000 11.83 310 22:46 12.04.2022
6347 Clear 17 1013 26 10000 8.75 270 21:57 12.04.2022
6348 Clear 17 1013 28 10000 9.77 260 20:51 12.04.2022
6349 Clear 17 1013 29 10000 9.77 260 20:33 12.04.2022
6350 Clear 16 1013 36 10000 6.69 260 19:47 12.04.2022
6351 Clear 15 1013 38 10000 6.69 260 19:28 12.04.2022
6352 Clear 14 1013 57 10000 5.66 290 17:59 12.04.2022
6353 Clear 12 1012 66 10000 4.63 250 16:53 12.04.2022
6354 Clouds 11 1012 80 10000 4.63 240 15:52 12.04.2022
6355 Clouds 10 1012 82 10000 4.63 240 15:25 12.04.2022
6356 Mist 9 1012 89 9656 3.6 220 14:21 12.04.2022
6357 Mist 8 1012 92 8047 3.6 220 13:28 12.04.2022
6358 Clouds 8 1012 91 10000 3.6 220 12:44 12.04.2022
6359 Clouds 7 1011 91 10000 2.57 240 11:42 12.04.2022
6360 Rain 8 1011 88 10000 3.09 200 10:30 12.04.2022
6361 Rain 9 1010 72 10000 4.63 200 08:54 12.04.2022
6362 Clouds 10 1009 58 10000 4.63 180 07:51 12.04.2022
6363 Clouds 10 1011 55 10000 4.12 170 05:49 12.04.2022
6364 Clouds 10 1012 56 10000 3.6 130 04:46 12.04.2022
6365 Clear 12 1013 49 10000 3.6 140 23:49 11.04.2022
6366 Clear 12 1014 50 10000 3.6 140 22:44 11.04.2022
6367 Clear 11 1015 52 10000 3.09 180 21:37 11.04.2022
6368 Clear 10 1016 53 10000 4.63 190 20:55 11.04.2022
6369 Clear 10 1016 52 10000 4.63 190 20:28 11.04.2022
6370 Clear 9 1018 52 10000 6.17 230 19:37 11.04.2022
6371 Clear 9 1018 53 10000 6.17 230 19:18 11.04.2022
6372 Clear 8 1018 54 10000 5.66 200 18:41 11.04.2022
6373 Clear 7 1018 55 10000 4.63 200 17:56 11.04.2022
6374 Clear 7 1018 57 10000 4.12 190 16:54 11.04.2022
6375 Clear 5 1019 60 10000 2.57 290 15:45 11.04.2022
6376 Clear 2 1018 74 10000 2.57 280 13:53 11.04.2022
6377 Clear 0 1018 79 10000 3.09 260 12:44 11.04.2022
6378 Clear -1 1018 82 10000 3.09 260 12:25 11.04.2022
6379 Clear 0 1017 75 10000 3.6 280 11:30 11.04.2022
6380 Clear 0 1016 76 10000 3.09 290 10:21 11.04.2022
6381 Clear 1 1015 74 10000 3.09 260 08:50 11.04.2022
6382 Clear 3 1013 67 10000 4.63 310 05:38 11.04.2022
6383 Clouds 7 1008 57 10000 8.75 310 01:23 11.04.2022
6384 Clouds 6 1006 78 10000 8.23 260 22:33 10.04.2022
6385 Rain 7 1005 76 10000 8.23 260 21:55 10.04.2022
6386 Rain 7 1005 71 10000 8.23 260 21:26 10.04.2022
6387 Clouds 8 1005 71 10000 8.75 250 20:30 10.04.2022
6388 Clouds 8 1005 75 10000 8.23 250 19:41 10.04.2022
6389 Clouds 7 1005 77 10000 8.23 250 19:18 10.04.2022
6390 Clouds 6 1005 78 10000 7.2 270 18:38 10.04.2022
6391 Clouds 5 1005 81 10000 7.2 250 17:51 10.04.2022
6392 Clouds 5 1005 82 10000 7.2 250 17:31 10.04.2022
6393 Rain 4 1005 86 10000 6.69 250 15:53 10.04.2022
6394 Clouds 3 1004 89 10000 5.14 240 14:51 10.04.2022
6395 Clouds 3 1004 91 10000 4.63 240 13:49 10.04.2022
6396 Clouds 3 1003 92 10000 4.12 250 12:33 10.04.2022
6397 Clouds 4 1002 90 10000 4.12 210 11:45 10.04.2022
6398 Clouds 4 1002 90 10000 4.12 210 11:24 10.04.2022
6399 Clouds 4 1002 91 10000 3.09 280 10:38 10.04.2022
6400 Clouds 4 1002 89 10000 4.12 260 09:49 10.04.2022
6401 Mist 4 1002 90 3219 4.12 260 08:55 10.04.2022
6402 Fog 4 1002 90 201 4.12 260 08:20 10.04.2022
6403 Mist 4 1003 93 8047 2.57 170 06:59 10.04.2022
6404 Clouds 5 1003 90 10000 2.06 210 04:36 10.04.2022
6405 Clouds 7 1002 85 10000 2.57 150 02:19 10.04.2022
6406 Clouds 8 1002 79 10000 2.06 160 23:54 09.04.2022
6407 Rain 8 1002 79 10000 2.06 160 23:25 09.04.2022
6408 Clouds 8 1001 79 10000 3.09 10 22:39 09.04.2022
6409 Rain 7 1002 83 10000 2.06 20 21:31 09.04.2022
6410 Rain 7 1002 86 10000 2.57 40 20:35 09.04.2022
6411 Rain 6 1002 89 10000 2.57 10 19:59 09.04.2022
6412 Rain 6 1002 89 10000 2.57 10 19:41 09.04.2022
6413 Mist 6 1003 91 9656 2.57 360 18:26 09.04.2022
6414 Rain 6 1003 91 9656 2.57 10 17:52 09.04.2022
6415 Rain 5 1003 90 8047 2.57 340 17:18 09.04.2022
6416 Rain 5 1004 90 8047 2.06 350 16:42 09.04.2022
6417 Mist 4 1004 92 9656 2.06 340 15:52 09.04.2022
6418 Mist 4 1004 92 9656 2.06 340 15:26 09.04.2022
6419 Mist 3 1004 93 8047 2.06 40 14:26 09.04.2022
6420 Mist 2 1004 94 9656 1.54 360 13:34 09.04.2022
6421 Clouds 2 1003 94 10000 1.03 360 12:57 09.04.2022
6422 Mist 2 1003 93 4828 1.54 30 11:52 09.04.2022
6423 Clouds 2 1003 93 10000 2.06 30 10:53 09.04.2022
6424 Clouds 3 1003 93 10000 2.06 30 10:19 09.04.2022
6425 Mist 3 1003 92 8047 2.57 140 09:24 09.04.2022
6426 Mist 3 1003 93 2816 2.57 170 08:35 09.04.2022
6427 Mist 3 1004 93 4023 2.06 140 05:21 09.04.2022
6428 Clouds 7 1003 79 10000 1.54 50 00:36 09.04.2022
6429 Clouds 7 1003 79 10000 1.54 50 00:36 09.04.2022
6430 Clouds 7 1002 77 10000 2.57 260 23:24 08.04.2022
6431 Clouds 7 1001 76 10000 6.17 280 21:54 08.04.2022
6432 Clouds 6 1001 79 10000 5.66 270 20:45 08.04.2022
6433 Clouds 6 1001 85 10000 5.14 240 19:57 08.04.2022
6434 Clouds 5 1001 92 10000 4.12 220 18:59 08.04.2022
6435 Clouds 5 1001 93 10000 2.57 190 18:25 08.04.2022
6436 Clouds 4 1001 94 10000 3.09 150 17:38 08.04.2022
6437 Clouds 4 1001 96 10000 2.57 140 17:19 08.04.2022
6438 Rain 3 1001 94 10000 2.57 90 16:32 08.04.2022
6439 Rain 3 1001 95 10000 5.14 40 15:38 08.04.2022
6440 Rain 2 1002 94 10000 5.14 70 14:52 08.04.2022
6441 Rain 2 1002 94 10000 5.14 70 14:21 08.04.2022
6442 Rain 1 1002 95 10000 5.66 60 13:41 08.04.2022
6443 Mist 1 1002 95 9656 5.66 60 13:22 08.04.2022
6444 Mist 2 1003 94 9656 9.26 70 11:43 08.04.2022
6445 Mist 2 1004 95 9656 8.75 70 10:31 08.04.2022
6446 Rain 2 1006 94 10000 9.77 70 09:25 08.04.2022
6447 Rain 2 1007 94 10000 7.72 50 08:25 08.04.2022
6448 Rain 2 1008 95 10000 7.2 30 06:47 08.04.2022
6449 Rain 3 1010 93 10000 7.72 40 04:32 08.04.2022
6450 Rain 6 1011 93 6437 4.63 100 00:33 08.04.2022
6451 Rain 6 1011 92 8047 4.12 90 23:59 07.04.2022
6452 Rain 7 1010 90 10000 5.66 120 22:58 07.04.2022
6453 Rain 7 1010 90 10000 5.66 120 22:37 07.04.2022
6454 Rain 7 1010 90 10000 5.66 120 22:19 07.04.2022
6455 Rain 7 1010 90 10000 5.66 110 21:47 07.04.2022
6456 Rain 7 1011 90 10000 6.69 100 20:58 07.04.2022
6457 Rain 7 1011 89 10000 6.69 100 20:30 07.04.2022
6458 Rain 7 1011 87 10000 4.12 110 17:57 07.04.2022
6459 Rain 7 1011 88 10000 4.63 30 17:24 07.04.2022
6460 Clouds 6 1010 87 10000 4.63 100 16:43 07.04.2022
6461 Clouds 6 1010 87 10000 4.63 100 16:18 07.04.2022
6462 Rain 4 1011 89 10000 6.17 40 14:36 07.04.2022
6463 Rain 4 1011 87 10000 6.17 50 13:42 07.04.2022
6464 Clouds 3 1011 85 10000 6.69 40 12:41 07.04.2022
6465 Rain 3 1011 78 10000 6.17 40 11:29 07.04.2022
6466 Rain 4 1011 58 10000 6.69 30 09:37 07.04.2022
6467 Clouds 4 1011 55 10000 7.72 40 08:37 07.04.2022
6468 Clouds 6 1012 53 10000 6.69 40 06:42 07.04.2022
6469 Clouds 9 1012 40 10000 7.72 40 02:47 07.04.2022
6470 Clouds 9 1012 40 10000 7.72 40 02:18 07.04.2022
6471 Clear 12 1012 36 10000 8.23 40 23:57 06.04.2022
6472 Clear 13 1012 37 10000 7.72 40 22:48 06.04.2022
6473 Clear 13 1012 38 10000 7.72 40 22:25 06.04.2022
6474 Clear 14 1013 38 10000 8.23 40 21:32 06.04.2022
6475 Clear 13 1014 38 10000 7.72 30 20:35 06.04.2022
6476 Clear 13 1014 39 10000 7.72 40 19:53 06.04.2022
6477 Clear 12 1015 40 10000 6.69 50 18:51 06.04.2022
6478 Clear 12 1015 41 10000 6.69 50 18:22 06.04.2022
6479 Clear 10 1016 44 10000 7.2 30 17:35 06.04.2022
6480 Clear 8 1016 48 10000 6.69 30 16:38 06.04.2022
6481 Clear 6 1016 55 10000 6.69 20 15:48 06.04.2022
6482 Clear 4 1016 60 10000 6.17 30 14:57 06.04.2022
6483 Clear 1 1016 66 10000 5.66 20 13:23 06.04.2022
6484 Clear 1 1016 66 10000 5.66 20 12:26 06.04.2022
6485 Clear 1 1016 66 10000 4.63 20 10:47 06.04.2022
6486 Clear 2 1016 65 10000 4.63 20 10:25 06.04.2022
6487 Clear 2 1016 64 10000 4.12 20 09:40 06.04.2022
6488 Clear 2 1016 65 10000 3.6 20 08:32 06.04.2022
6489 Clear 3 1016 59 10000 2.57 40 07:50 06.04.2022
6490 Clear 8 1016 44 10000 3.09 130 03:54 06.04.2022
6491 Clear 12 1016 30 10000 3.09 250 23:53 05.04.2022
6492 Clear 13 1015 33 10000 2.57 70 22:57 05.04.2022
6493 Clear 12 1016 33 10000 4.63 200 21:23 05.04.2022
6494 Clear 11 1016 35 10000 3.6 200 20:26 05.04.2022
6495 Clear 11 1017 35 10000 4.12 240 19:42 05.04.2022
6496 Clear 10 1017 38 10000 2.57 190 18:18 05.04.2022
6497 Clear 7 1018 41 10000 1.54 60 16:54 05.04.2022
6498 Clear 6 1017 46 10000 1.54 60 15:57 05.04.2022
6499 Clear 6 1017 47 10000 1.54 60 15:34 05.04.2022
6500 Clear 3 1017 63 10000 1.03 20 14:36 05.04.2022
6501 Clear 0 1016 74 10000 1.03 260 13:35 05.04.2022
6502 Clouds 0 1016 72 10000 1.54 160 11:51 05.04.2022
6503 Clouds 0 1016 71 10000 1.54 160 11:32 05.04.2022
6504 Clouds 1 1015 65 10000 1.54 280 09:59 05.04.2022
6505 Clear 2 1015 62 10000 2.57 230 08:54 05.04.2022
6506 Clouds 2 1014 60 10000 2.06 270 07:22 05.04.2022
6507 Clouds 8 1013 39 10000 4.63 310 01:58 05.04.2022
6508 Clouds 10 1013 35 10000 4.12 250 22:44 04.04.2022
6509 Clouds 10 1013 35 10000 4.12 250 22:26 04.04.2022
6510 Clouds 10 1013 35 10000 5.66 280 21:21 04.04.2022
6511 Clear 10 1014 36 10000 5.14 270 20:50 04.04.2022
6512 Clear 9 1014 36 10000 5.66 300 19:58 04.04.2022
6513 Clear 9 1014 37 10000 5.66 300 19:26 04.04.2022
6514 Clear 9 1014 41 10000 4.63 10 18:37 04.04.2022
6515 Clear 6 1014 45 10000 6.17 10 16:37 04.04.2022
6516 Clear 5 1014 50 10000 5.66 350 15:58 04.04.2022
6517 Clear 5 1014 53 10000 5.66 350 15:33 04.04.2022
6518 Clear 3 1014 69 10000 4.63 330 14:46 04.04.2022
6519 Clear 1 1014 82 10000 4.12 320 13:33 04.04.2022
6520 Clear 0 1013 87 10000 3.09 310 12:26 04.04.2022
6521 Clear -1 1012 91 10000 1.54 280 11:29 04.04.2022
6522 Clouds 0 1012 91 10000 2.06 260 09:51 04.04.2022
6523 Rain 2 1012 85 10000 2.57 300 05:27 04.04.2022
6524 Clouds 2 1012 78 10000 2.57 340 02:41 04.04.2022
6525 Clouds 3 1011 77 10000 7.2 360 22:47 03.04.2022
6526 Clouds 3 1011 77 10000 7.2 10 21:58 03.04.2022
6527 Clouds 3 1012 77 10000 6.17 340 21:25 03.04.2022
6528 Clouds 4 1012 57 10000 8.23 20 19:52 03.04.2022
6529 Clouds 5 1012 54 10000 6.69 10 18:34 03.04.2022
6530 Clouds 5 1012 55 10000 6.17 10 17:50 03.04.2022
6531 Clouds 5 1012 55 10000 6.17 10 17:32 03.04.2022
6532 Clouds 4 1013 57 10000 4.63 10 16:49 03.04.2022
6533 Clouds 3 1013 61 10000 3.6 40 15:42 03.04.2022
6534 Clouds 1 1013 67 10000 2.57 40 13:58 03.04.2022
6535 Clouds 1 1013 67 10000 3.6 20 12:58 03.04.2022
6536 Clouds 1 1013 67 10000 3.6 30 11:34 03.04.2022
6537 Clouds 1 1013 66 10000 1.54 10 09:52 03.04.2022
6538 Clouds 1 1014 65 10000 1.03 50 08:57 03.04.2022
6539 Clear 3 1015 56 10000 2.57 210 05:45 03.04.2022
6540 Clear 3 1015 56 10000 2.57 210 05:45 03.04.2022
6541 Clear 3 1015 52 10000 3.6 240 02:55 03.04.2022
6542 Clear 7 1015 38 10000 6.17 280 23:35 02.04.2022
6543 Clear 6 1015 39 10000 7.2 260 22:43 02.04.2022
6544 Clear 6 1016 40 10000 7.2 240 21:55 02.04.2022
6545 Clear 6 1016 40 10000 7.2 240 21:19 02.04.2022
6546 Clear 6 1016 42 10000 6.69 260 20:36 02.04.2022
6547 Clear 4 1016 43 10000 7.2 240 18:47 02.04.2022
6548 Clear 4 1016 44 10000 7.2 240 18:19 02.04.2022
6549 Clear 2 1017 46 10000 6.69 300 17:23 02.04.2022
6550 Clear 0 1017 52 10000 6.17 290 15:44 02.04.2022
6551 Clear 0 1017 54 10000 6.17 290 15:19 02.04.2022
6552 Clear -1 1017 58 10000 5.14 300 14:31 02.04.2022
6553 Clear -2 1016 62 10000 5.66 290 13:34 02.04.2022
6554 Clear -2 1015 63 10000 5.66 310 12:21 02.04.2022
6555 Clouds -1 1012 62 10000 12.35 290 10:31 02.04.2022
6556 Clouds 0 1010 66 10000 7.72 310 08:26 02.04.2022
6557 Snow 1 1006 70 10000 7.2 290 04:59 02.04.2022
6558 Clouds 1 1004 77 8047 8.75 300 02:56 02.04.2022
6559 Clouds 3 1000 85 10000 8.23 290 23:54 01.04.2022
6560 Rain 4 999 86 10000 6.17 270 22:51 01.04.2022
6561 Rain 5 998 79 10000 7.72 270 21:24 01.04.2022
6562 Rain 5 998 75 10000 8.75 250 20:48 01.04.2022
6563 Rain 6 998 72 10000 6.69 270 19:46 01.04.2022
6564 Rain 5 998 72 10000 7.72 250 19:26 01.04.2022
6565 Rain 5 998 70 10000 7.72 260 18:42 01.04.2022
6566 Clouds 6 998 70 10000 6.17 280 17:43 01.04.2022
6567 Clouds 6 998 72 10000 5.66 280 16:33 01.04.2022
6568 Clouds 7 998 75 10000 8.23 240 15:18 01.04.2022
6569 Clouds 6 997 80 10000 5.66 240 14:18 01.04.2022
6570 Clouds 6 998 83 10000 6.17 230 13:32 01.04.2022
6571 Clouds 6 997 83 10000 5.66 220 12:30 01.04.2022
6572 Clouds 6 996 81 10000 6.69 250 10:54 01.04.2022
6573 Clear 7 996 80 10000 8.23 240 09:49 01.04.2022
6574 Clear 8 995 80 10000 7.72 220 07:50 01.04.2022
6575 Clear 9 995 75 10000 10.29 230 06:30 01.04.2022
6576 Mist 7 993 94 9656 4.12 230 04:44 01.04.2022
6577 Clouds 7 993 92 10000 5.66 200 03:21 01.04.2022
6578 Clouds 8 992 92 10000 5.14 190 01:52 01.04.2022
6579 Mist 7 995 93 8047 3.6 10 22:37 31.03.2022
6580 Mist 7 995 91 8047 3.6 50 21:44 31.03.2022
6581 Mist 7 997 87 4828 3.09 70 20:51 31.03.2022
6582 Mist 7 997 86 4828 3.09 70 20:28 31.03.2022
6583 Clouds 7 997 84 10000 4.63 80 19:44 31.03.2022
6584 Clouds 7 999 82 10000 3.09 80 18:35 31.03.2022
6585 Clouds 5 1001 82 10000 4.63 140 17:25 31.03.2022
6586 Clouds 5 1002 77 10000 4.63 70 16:18 31.03.2022
6587 Clear 4 1002 81 10000 3.6 70 15:33 31.03.2022
6588 Clear 3 1003 83 10000 5.14 80 14:52 31.03.2022
6589 Clear 2 1003 85 10000 5.14 80 14:19 31.03.2022
6590 Clouds 1 1005 85 10000 4.12 70 11:32 31.03.2022
6591 Rain 1 1006 86 10000 5.14 70 10:41 31.03.2022
6592 Clouds 1 1007 87 10000 4.12 70 09:43 31.03.2022
6593 Rain 0 1010 88 10000 4.63 80 07:49 31.03.2022
6594 Rain 1 1013 69 10000 6.69 80 03:57 31.03.2022
6595 Clear 3 1016 41 10000 2.06 170 23:27 30.03.2022
6596 Clear 3 1017 35 10000 3.09 0 22:20 30.03.2022
6597 Clear 2 1019 34 10000 3.6 200 21:32 30.03.2022
6598 Clear 2 1020 37 10000 3.09 180 20:44 30.03.2022
6599 Clear 2 1021 35 10000 2.57 210 19:57 30.03.2022
6600 Clear 1 1022 39 10000 4.12 180 18:50 30.03.2022
6601 Clear 0 1023 40 10000 1.03 160 17:52 30.03.2022
6602 Clear 0 1023 40 10000 1.03 160 17:52 30.03.2022
6603 Clear 0 1023 38 10000 1.34 6 17:32 30.03.2022
6604 Clear -1 1023 39 10000 2.06 320 16:42 30.03.2022
6605 Clear -1 1023 40 10000 2.06 320 16:19 30.03.2022
6606 Clear -3 1024 50 10000 4.63 280 14:55 30.03.2022
6607 Clear -6 1023 62 10000 3.09 280 13:32 30.03.2022
6608 Clear -6 1022 61 10000 3.09 280 12:36 30.03.2022
6609 Clear -6 1021 59 10000 3.09 290 10:54 30.03.2022
6610 Clear -5 1021 59 10000 3.09 290 09:58 30.03.2022
6611 Clear -5 1021 58 10000 2.57 300 08:29 30.03.2022
6612 Clear -4 1021 54 10000 4.63 300 07:29 30.03.2022
6613 Clear -3 1020 51 10000 4.63 300 05:40 30.03.2022
6614 Clear -2 1020 49 10000 4.12 300 03:21 30.03.2022
6615 Clouds -1 1018 45 10000 8.75 260 23:32 29.03.2022
6616 Clouds -1 1018 46 10000 9.77 290 22:18 29.03.2022
6617 Clouds -2 1018 44 10000 9.26 270 21:40 29.03.2022
6618 Clouds -2 1018 46 10000 7.72 260 20:44 29.03.2022
6619 Clouds -3 1018 47 10000 7.72 270 19:45 29.03.2022
6620 Clouds -4 1019 51 10000 7.2 270 18:54 29.03.2022
6621 Clouds -4 1019 55 10000 7.2 270 18:18 29.03.2022
6622 Clouds -5 1019 57 10000 7.72 280 17:20 29.03.2022
6623 Clouds -5 1019 59 10000 6.17 290 16:55 29.03.2022
6624 Clouds -6 1019 63 10000 5.66 280 15:47 29.03.2022
6625 Clouds -7 1019 63 10000 7.72 270 14:44 29.03.2022
6626 Clouds -7 1019 61 10000 6.69 270 13:52 29.03.2022
6627 Clouds -7 1018 58 10000 6.17 290 12:46 29.03.2022
6628 Clouds -7 1018 60 10000 5.66 290 11:28 29.03.2022
6629 Clouds -7 1017 62 10000 5.14 310 10:23 29.03.2022
6630 Clouds -7 1017 64 10000 7.2 320 09:20 29.03.2022
6631 Clouds -8 1016 78 4828 4.63 280 06:54 29.03.2022
6632 Clouds -8 1015 69 10000 6.69 290 03:47 29.03.2022
6633 Clouds -8 1012 63 10000 7.72 260 23:49 28.03.2022
6634 Clouds -8 1012 63 10000 7.72 260 22:58 28.03.2022
6635 Clouds -8 1012 61 10000 7.72 260 22:39 28.03.2022
6636 Clouds -8 1012 60 10000 8.23 270 22:19 28.03.2022
6637 Clouds -9 1011 57 6437 8.23 250 20:47 28.03.2022
6638 Clouds -9 1011 57 10000 7.2 280 19:59 28.03.2022
6639 Clouds -9 1011 58 10000 7.2 300 19:40 28.03.2022
6640 Clouds -9 1011 57 10000 6.69 290 18:51 28.03.2022
6641 Clouds -9 1011 58 10000 6.69 290 18:18 28.03.2022
6642 Clouds -10 1011 62 10000 6.69 270 17:28 28.03.2022
6643 Clouds -11 1010 68 4828 6.17 320 15:48 28.03.2022
6644 Clouds -11 1010 65 10000 8.23 290 14:24 28.03.2022
6645 Clouds -11 1010 67 10000 7.2 290 13:33 28.03.2022
6646 Clouds -11 1009 70 10000 7.2 290 11:54 28.03.2022
6647 Clouds -10 1008 75 8047 7.2 280 10:39 28.03.2022
6648 Clouds -10 1008 70 10000 6.17 270 09:38 28.03.2022
6649 Clouds -9 1008 67 10000 7.2 280 08:46 28.03.2022
6650